# Wetter Temperatur Luftdruck Luftfeuchtigkeit Sichtweite Windgeschwindigkeit Windrichtung Zeit
1 Snow -8 1017 92 10000 0.51 0 04:29 17.01.2021
2 Clouds -8 1019 92 10000 1.54 240 02:50 17.01.2021
3 Clouds -8 1020 92 10000 1.03 250 00:54 17.01.2021
4 Clouds -8 1020 92 10000 1.54 270 00:21 17.01.2021
5 Clouds -8 1020 92 10000 1.03 250 23:52 16.01.2021
6 Clouds -8 1021 92 10000 1.54 250 23:21 16.01.2021
7 Clouds -9 1021 92 7000 1.03 260 22:52 16.01.2021
8 Mist -9 1021 92 2200 1.03 0 22:18 16.01.2021
9 Mist -9 1021 92 4600 1.03 280 21:43 16.01.2021
10 Clouds -9 1021 92 10000 0.51 0 21:22 16.01.2021
11 Clouds -9 1022 92 10000 0.51 0 20:47 16.01.2021
12 Clouds -9 1022 92 10000 0.51 0 20:23 16.01.2021
13 Clouds -8 1022 92 10000 1.03 290 19:48 16.01.2021
14 Clouds -8 1022 100 10000 1.03 0 19:29 16.01.2021
15 Clouds -7 1022 93 10000 0.51 0 18:44 16.01.2021
16 Clouds -7 1022 93 10000 1.03 0 18:26 16.01.2021
17 Clouds -7 1022 93 10000 1.54 250 17:49 16.01.2021
18 Clouds -6 1022 86 10000 1.54 260 17:30 16.01.2021
19 Clouds -6 1022 86 10000 1.03 0 16:50 16.01.2021
20 Clouds -5 1022 80 10000 1.54 260 16:31 16.01.2021
21 Clouds -3 1022 74 10000 1.03 170 15:54 16.01.2021
22 Clouds -3 1022 74 10000 1.03 170 15:33 16.01.2021
23 Clouds -3 1022 69 10000 1.03 0 14:31 16.01.2021
24 Clouds -3 1023 74 10000 1.54 260 13:50 16.01.2021
25 Clouds -3 1023 74 10000 1.54 260 13:30 16.01.2021
26 Clouds -4 1024 74 10000 3.6 260 12:47 16.01.2021
27 Clouds -4 1024 74 10000 3.6 260 12:21 16.01.2021
28 Clouds -4 1025 74 10000 4.63 260 11:54 16.01.2021
29 Clouds -4 1025 80 10000 3.09 260 11:25 16.01.2021
30 Clouds -5 1025 79 10000 4.63 280 10:50 16.01.2021
31 Clouds -5 1025 74 10000 4.63 260 10:30 16.01.2021
32 Clouds -6 1025 80 10000 2.06 260 09:42 16.01.2021
33 Clouds -6 1025 86 10000 1.03 0 09:19 16.01.2021
34 Clouds -5 1025 86 10000 1.03 0 08:18 16.01.2021
35 Clouds -5 1024 93 10000 1.03 0 06:44 16.01.2021
36 Clouds -5 1024 93 10000 1.03 0 06:44 16.01.2021
37 Clouds -4 1024 86 7000 1.03 0 04:52 16.01.2021
38 Clouds -4 1024 93 6000 1.03 0 02:58 16.01.2021
39 Clouds -5 1024 93 6000 2.06 260 02:25 16.01.2021
40 Clouds -4 1024 93 6000 1.03 0 00:44 16.01.2021
41 Clouds -4 1024 93 6000 1.54 250 00:20 16.01.2021
42 Clouds -4 1024 93 8000 0.51 0 23:28 15.01.2021
43 Clouds -5 1024 86 8000 0.51 0 22:27 15.01.2021
44 Clouds -5 1024 86 8000 0.51 0 21:48 15.01.2021
45 Clouds -5 1024 86 10000 0.51 0 21:30 15.01.2021
46 Clouds -5 1023 86 10000 1.03 0 20:43 15.01.2021
47 Clouds -5 1023 86 10000 1.54 120 20:23 15.01.2021
48 Clouds -5 1023 86 10000 1.54 80 19:45 15.01.2021
49 Clouds -5 1023 86 10000 2.57 70 19:25 15.01.2021
50 Clouds -5 1022 86 10000 1.03 120 18:45 15.01.2021
51 Clouds -4 1022 80 10000 1.54 100 18:20 15.01.2021
52 Clouds -4 1022 80 10000 1.54 100 18:20 15.01.2021
53 Clouds -4 1021 86 10000 1.54 110 17:56 15.01.2021
54 Clouds -4 1021 86 10000 1.54 110 17:38 15.01.2021
55 Clouds -4 1021 86 10000 2.06 70 17:19 15.01.2021
56 Clouds -4 1020 80 10000 1.03 110 16:43 15.01.2021
57 Clouds -4 1020 80 10000 1.03 130 16:22 15.01.2021
58 Clouds -4 1019 80 10000 2.06 110 15:40 15.01.2021
59 Clouds -4 1019 80 10000 1.54 130 15:19 15.01.2021
60 Clouds -4 1019 80 10000 1.54 170 14:41 15.01.2021
61 Clouds -4 1019 80 10000 1.54 170 14:22 15.01.2021
62 Clouds -4 1019 86 10000 1.03 0 13:40 15.01.2021
63 Clouds -4 1019 86 10000 1.03 0 13:40 15.01.2021
64 Clouds -4 1019 80 10000 0.51 0 13:20 15.01.2021
65 Clouds -3 1019 80 10000 1.54 110 12:47 15.01.2021
66 Clouds -4 1019 86 10000 2.57 110 12:26 15.01.2021
67 Clouds -5 1019 80 10000 2.57 100 11:42 15.01.2021
68 Clouds -5 1019 86 10000 1.54 80 11:21 15.01.2021
69 Clouds -6 1019 86 10000 1.03 0 10:51 15.01.2021
70 Clouds -6 1019 86 10000 1.54 70 10:24 15.01.2021
71 Clouds -6 1018 86 10000 3.09 70 09:50 15.01.2021
72 Clouds -5 1018 86 10000 2.57 90 09:29 15.01.2021
73 Snow -6 1017 93 9000 2.57 80 08:29 15.01.2021
74 Snow -6 1017 93 2500 3.09 70 07:46 15.01.2021
75 Snow -6 1016 93 1500 3.6 70 07:24 15.01.2021
76 Snow -5 1016 93 3000 2.06 90 06:52 15.01.2021
77 Snow -4 1015 93 2200 2.57 70 03:29 15.01.2021
78 Snow -4 1016 93 3500 3.09 70 00:55 15.01.2021
79 Snow -4 1016 93 1800 3.09 70 23:42 14.01.2021
80 Snow -3 1017 86 5000 2.57 100 22:58 14.01.2021
81 Snow -3 1017 86 5000 2.57 100 22:40 14.01.2021
82 Snow -3 1017 86 10000 2.06 80 22:21 14.01.2021
83 Snow -3 1017 86 10000 2.57 60 21:42 14.01.2021
84 Snow -3 1017 93 10000 2.06 70 21:21 14.01.2021
85 Snow -3 1017 93 10000 1.54 80 20:48 14.01.2021
86 Snow -3 1017 93 8000 3.09 100 20:22 14.01.2021
87 Snow -2 1017 93 8000 2.57 90 19:42 14.01.2021
88 Snow -2 1018 93 10000 0.51 0 19:23 14.01.2021
89 Snow -2 1017 93 10000 1.03 0 18:50 14.01.2021
90 Snow -2 1018 100 6000 2.06 80 18:19 14.01.2021
91 Snow -2 1018 100 2500 3.09 80 17:45 14.01.2021
92 Snow -2 1017 100 1200 1.54 100 17:26 14.01.2021
93 Snow -2 1017 100 1500 2.06 100 16:40 14.01.2021
94 Snow -2 1017 93 2000 3.09 70 15:57 14.01.2021
95 Mist -2 1017 93 2000 3.09 70 15:39 14.01.2021
96 Snow -2 1017 100 2000 0.51 0 14:58 14.01.2021
97 Snow -2 1017 100 2000 0.51 0 14:37 14.01.2021
98 Snow -2 1016 100 2000 1.03 0 14:18 14.01.2021
99 Snow -2 1016 100 1500 0.51 0 13:48 14.01.2021
100 Mist -1 1016 100 1500 1.54 70 13:20 14.01.2021
101 Snow -2 1016 93 1500 3.09 130 12:38 14.01.2021
102 Snow -2 1016 93 1000 6.17 60 12:18 14.01.2021
103 Snow -1 1016 93 800 6.17 70 11:42 14.01.2021
104 Snow -1 1016 93 800 5.66 70 11:20 14.01.2021
105 Snow -1 1014 100 800 6.17 240 10:50 14.01.2021
106 Snow 0 1014 93 800 6.69 240 10:25 14.01.2021
107 Snow 0 1014 93 1200 6.69 240 09:48 14.01.2021
108 Snow 0 1013 93 1800 6.69 240 09:23 14.01.2021
109 Snow 0 1013 93 1200 6.17 240 08:49 14.01.2021
110 Snow 0 1012 93 1200 5.66 250 08:25 14.01.2021
111 Snow 0 1013 100 2000 0.51 0 07:48 14.01.2021
112 Snow 0 1012 100 1200 2.06 260 06:52 14.01.2021
113 Snow 0 1011 100 1600 2.06 0 05:46 14.01.2021
114 Snow -1 1012 100 1300 1.03 0 00:45 14.01.2021
115 Snow -1 1013 93 2000 1.54 40 23:54 13.01.2021
116 Snow 0 1013 100 2000 1.54 70 23:23 13.01.2021
117 Snow -1 1014 86 5000 3.09 280 22:29 13.01.2021
118 Snow -2 1014 93 10000 2.06 270 21:57 13.01.2021
119 Snow -1 1014 93 10000 2.06 270 21:38 13.01.2021
120 Snow -2 1015 93 10000 0.51 0 20:59 13.01.2021
121 Snow -2 1015 93 10000 0.51 0 20:33 13.01.2021
122 Clear -2 1015 86 10000 0.51 0 19:58 13.01.2021
123 Clear -2 1015 86 10000 0.51 0 19:39 13.01.2021
124 Clear -2 1015 86 10000 1.54 180 19:19 13.01.2021
125 Clear -2 1015 86 10000 1.03 0 18:40 13.01.2021
126 Clear -2 1015 80 10000 0.51 0 17:51 13.01.2021
127 Clear -1 1016 80 10000 1.54 160 17:25 13.01.2021
128 Clouds -1 1015 80 10000 1.03 0 16:52 13.01.2021
129 Clouds 1 1015 75 10000 1.54 90 16:22 13.01.2021
130 Clouds 1 1016 75 10000 1.03 0 15:56 13.01.2021
131 Clouds 0 1016 75 10000 1.03 0 15:38 13.01.2021
132 Clouds 2 1016 60 10000 3.09 70 14:49 13.01.2021
133 Clouds 1 1017 69 10000 1.54 0 13:55 13.01.2021
134 Clouds 1 1017 69 10000 1.54 0 13:32 13.01.2021
135 Snow 1 1017 75 10000 1.54 160 12:59 13.01.2021
136 Snow 1 1017 75 10000 1.54 160 12:39 13.01.2021
137 Snow 0 1018 80 10000 1.03 0 12:19 13.01.2021
138 Snow 0 1018 80 10000 1.54 290 11:45 13.01.2021
139 Snow -1 1018 86 10000 1.03 0 11:22 13.01.2021
140 Snow 0 1017 80 10000 0.51 0 10:42 13.01.2021
141 Snow -1 1017 86 10000 0.51 0 10:24 13.01.2021
142 Snow -1 1017 86 10000 1.54 100 09:37 13.01.2021
143 Snow -1 1016 86 10000 1.03 0 08:57 13.01.2021
144 Snow -1 1016 86 10000 1.03 0 08:33 13.01.2021
145 Snow -1 1015 100 10000 0.51 0 07:51 13.01.2021
146 Snow -1 1015 93 10000 0.51 0 07:24 13.01.2021
147 Snow 1 1014 93 5000 1.54 130 04:21 13.01.2021
148 Rain 1 1013 93 5000 1.03 0 03:49 13.01.2021
149 Snow 1 1013 93 5000 2.06 110 03:30 13.01.2021
150 Snow 0 1013 93 5000 1.54 110 02:19 13.01.2021
151 Rain 1 1012 93 6000 1.03 0 00:29 13.01.2021
152 Snow 0 1012 93 6000 0.51 0 23:31 12.01.2021
153 Snow 0 1012 93 6000 0.51 0 22:47 12.01.2021
154 Rain 0 1012 86 9000 1.03 0 22:25 12.01.2021
155 Rain 0 1012 80 10000 1.54 120 21:53 12.01.2021
156 Rain 0 1012 80 10000 1.54 120 21:35 12.01.2021
157 Rain 0 1012 74 10000 2.57 90 20:56 12.01.2021
158 Rain 0 1012 74 10000 2.57 90 20:37 12.01.2021
159 Rain 0 1011 64 10000 1.54 90 20:19 12.01.2021
160 Rain 0 1011 64 10000 1.03 0 19:37 12.01.2021
161 Snow 0 1011 59 10000 0.51 0 18:52 12.01.2021
162 Snow 0 1011 64 10000 1.54 270 18:25 12.01.2021
163 Clouds 0 1011 59 10000 1.54 270 17:55 12.01.2021
164 Rain 0 1011 59 10000 1.54 270 17:32 12.01.2021
165 Rain 0 1011 55 10000 1.54 250 16:44 12.01.2021
166 Snow 0 1011 55 10000 1.54 250 16:25 12.01.2021
167 Snow 0 1011 51 10000 0.51 0 15:45 12.01.2021
168 Snow 1 1012 51 10000 0.51 0 15:24 12.01.2021
169 Snow 1 1012 51 10000 0.51 0 14:49 12.01.2021
170 Snow 1 1012 51 10000 0.51 0 14:26 12.01.2021
171 Rain 0 1012 54 10000 0.51 0 13:54 12.01.2021
172 Rain 0 1012 54 10000 0.51 0 13:33 12.01.2021
173 Clouds -1 1013 54 10000 1.03 0 12:33 12.01.2021
174 Clouds -3 1015 63 10000 1.03 0 11:45 12.01.2021
175 Clouds -3 1015 68 10000 1.54 270 11:26 12.01.2021
176 Clouds -4 1015 68 10000 1.54 260 10:43 12.01.2021
177 Clouds -4 1016 73 10000 1.03 270 10:19 12.01.2021
178 Clouds -5 1016 79 10000 1.54 260 09:52 12.01.2021
179 Clouds -6 1016 73 10000 2.06 250 09:22 12.01.2021
180 Clouds -6 1017 79 10000 1.54 250 08:27 12.01.2021
181 Clouds -6 1017 79 10000 1.54 320 07:44 12.01.2021
182 Clouds -6 1017 79 10000 2.06 270 07:26 12.01.2021
183 Clouds -6 1018 73 10000 1.54 230 05:40 12.01.2021
184 Clouds -7 1019 79 10000 1.03 0 03:46 12.01.2021
185 Clouds -7 1020 73 10000 0.51 0 03:19 12.01.2021
186 Clouds -7 1020 79 10000 1.03 0 01:43 12.01.2021
187 Clouds -8 1020 73 10000 1.54 270 00:32 12.01.2021
188 Clouds -8 1020 73 10000 2.06 250 23:40 11.01.2021
189 Clouds -8 1020 79 10000 1.54 260 23:18 11.01.2021
190 Clouds -8 1021 73 10000 1.03 0 22:45 11.01.2021
191 Clouds -8 1021 79 10000 1.03 290 22:27 11.01.2021
192 Clouds -8 1021 73 10000 1.03 0 21:45 11.01.2021
193 Clear -7 1021 73 10000 2.06 250 21:25 11.01.2021
194 Clear -8 1021 73 10000 1.03 0 20:57 11.01.2021
195 Clouds -8 1021 73 10000 1.03 0 20:36 11.01.2021
196 Clouds -8 1021 73 10000 1.03 0 20:36 11.01.2021
197 Clouds -7 1021 67 10000 1.54 260 20:18 11.01.2021
198 Clouds -7 1021 67 10000 0.51 0 19:41 11.01.2021
199 Clouds -7 1021 67 10000 0.51 0 19:21 11.01.2021
200 Clouds -7 1021 67 10000 1.03 0 18:42 11.01.2021
201 Clouds -6 1021 63 10000 1.54 250 18:23 11.01.2021
202 Clear -7 1020 58 10000 1.54 250 17:42 11.01.2021
203 Clear -6 1020 54 10000 2.57 240 17:24 11.01.2021
204 Clear -6 1020 54 10000 3.6 270 16:47 11.01.2021
205 Clear -4 1019 50 10000 1.54 230 16:28 11.01.2021
206 Clear -3 1019 43 10000 2.57 250 15:53 11.01.2021
207 Clear -2 1019 46 10000 3.09 260 15:33 11.01.2021
208 Clear -3 1020 46 10000 2.57 250 14:45 11.01.2021
209 Clear -3 1020 46 10000 2.57 250 14:26 11.01.2021
210 Clear -3 1020 50 10000 3.09 270 13:45 11.01.2021
211 Clear -4 1021 50 10000 2.06 250 13:22 11.01.2021
212 Clear -6 1022 54 10000 2.57 260 12:42 11.01.2021
213 Clear -6 1022 58 10000 2.57 260 12:24 11.01.2021
214 Clear -7 1023 63 10000 3.6 260 11:45 11.01.2021
215 Clear -8 1023 73 10000 2.57 250 10:58 11.01.2021
216 Clear -8 1023 73 10000 2.57 250 10:38 11.01.2021
217 Clear -10 1023 79 10000 1.03 0 09:54 11.01.2021
218 Clear -10 1023 79 10000 1.03 0 09:36 11.01.2021
219 Clear -10 1022 79 10000 1.54 260 08:52 11.01.2021
220 Clear -10 1022 85 10000 1.54 260 08:34 11.01.2021
221 Clear -10 1022 85 10000 1.54 270 07:48 11.01.2021
222 Clear -10 1022 85 10000 1.54 250 07:25 11.01.2021
223 Clear -10 1022 85 10000 1.54 260 06:49 11.01.2021
224 Clouds -9 1021 79 10000 3.6 270 02:31 11.01.2021
225 Clouds -10 1021 79 10000 3.09 260 00:57 11.01.2021
226 Clouds -10 1022 86 10000 2.06 280 23:48 10.01.2021
227 Clouds -9 1022 79 10000 2.06 260 22:59 10.01.2021
228 Clouds -9 1022 79 10000 2.06 260 22:40 10.01.2021
229 Clouds -9 1021 79 10000 1.54 280 22:19 10.01.2021
230 Clouds -8 1021 79 10000 1.54 250 21:40 10.01.2021
231 Clouds -9 1021 79 10000 1.03 290 21:18 10.01.2021
232 Clouds -9 1021 79 10000 1.54 250 20:49 10.01.2021
233 Clear -10 1021 79 10000 2.06 270 20:27 10.01.2021
234 Clear -9 1021 73 10000 1.54 250 19:40 10.01.2021
235 Clear -9 1020 73 10000 1.54 230 19:22 10.01.2021
236 Clear -9 1020 73 10000 1.54 230 19:22 10.01.2021
237 Clear -8 1020 79 10000 1.03 0 18:45 10.01.2021
238 Clear -8 1020 73 10000 1.54 260 18:20 10.01.2021
239 Clear -6 1019 68 10000 2.57 260 17:26 10.01.2021
240 Clear -5 1019 63 10000 1.54 230 16:51 10.01.2021
241 Clear -4 1019 59 10000 2.06 170 16:30 10.01.2021
242 Clear -4 1019 54 10000 2.06 170 15:41 10.01.2021
243 Clear -2 1019 51 10000 2.06 180 15:22 10.01.2021
244 Clear -2 1019 54 10000 2.06 180 14:41 10.01.2021
245 Clear -3 1019 54 10000 2.06 190 14:22 10.01.2021
246 Clear -3 1019 54 10000 1.03 0 13:46 10.01.2021
247 Clear -3 1020 54 10000 1.03 0 13:27 10.01.2021
248 Clouds -4 1021 58 10000 1.03 0 12:59 10.01.2021
249 Clouds -4 1021 58 10000 1.03 0 12:40 10.01.2021
250 Clouds -5 1022 68 10000 1.54 260 11:56 10.01.2021
251 Clouds -6 1022 73 10000 2.06 250 11:21 10.01.2021
252 Clouds -6 1022 73 10000 2.57 260 10:51 10.01.2021
253 Clouds -7 1022 79 10000 3.09 260 10:24 10.01.2021
254 Clouds -8 1022 73 10000 3.09 250 09:46 10.01.2021
255 Clouds -9 1022 86 10000 3.6 260 08:49 10.01.2021
256 Clouds -9 1022 86 10000 3.09 260 07:47 10.01.2021
257 Clouds -8 1021 79 10000 2.57 260 06:52 10.01.2021
258 Clouds -8 1021 79 10000 2.06 260 06:18 10.01.2021
259 Clouds -8 1021 79 10000 2.06 260 05:28 10.01.2021
260 Clouds -8 1021 79 10000 2.06 250 02:37 10.01.2021
261 Clouds -9 1021 79 10000 1.03 0 00:25 10.01.2021
262 Clouds -8 1021 73 10000 2.06 250 23:42 09.01.2021
263 Clouds -9 1021 79 10000 1.54 250 23:22 09.01.2021
264 Clouds -8 1021 79 10000 1.54 260 22:25 09.01.2021
265 Clouds -7 1021 73 10000 2.06 260 21:59 09.01.2021
266 Clouds -7 1021 73 10000 2.06 260 21:39 09.01.2021
267 Clouds -7 1021 79 10000 2.06 260 21:21 09.01.2021
268 Clouds -6 1020 68 10000 1.54 250 20:56 09.01.2021
269 Clouds -6 1020 68 10000 1.54 250 20:36 09.01.2021
270 Clear -7 1020 68 10000 1.03 0 19:40 09.01.2021
271 Clear -6 1020 68 10000 2.06 260 19:21 09.01.2021
272 Clear -5 1019 63 10000 2.06 220 18:38 09.01.2021
273 Clear -5 1019 63 10000 0.51 0 18:19 09.01.2021
274 Clear -4 1019 58 10000 1.01 169 17:42 09.01.2021
275 Clear -4 1019 58 10000 0.51 0 17:22 09.01.2021
276 Clear -3 1018 50 10000 1.54 170 16:29 09.01.2021
277 Clear -1 1018 43 10000 2.06 160 15:42 09.01.2021
278 Clear -1 1018 43 10000 1.54 160 15:24 09.01.2021
279 Clear -1 1018 37 10000 1.54 170 14:37 09.01.2021
280 Clear -1 1018 40 10000 1.03 0 14:19 09.01.2021
281 Clear -2 1018 43 10000 1.54 260 13:46 09.01.2021
282 Clear -2 1018 46 10000 1.54 250 13:27 09.01.2021
283 Clear -3 1019 46 10000 2.57 260 12:46 09.01.2021
284 Clear -4 1019 54 10000 2.57 260 12:21 09.01.2021
285 Clear -4 1020 58 10000 3.6 260 11:41 09.01.2021
286 Clear -5 1020 58 10000 3.6 260 11:22 09.01.2021
287 Clear -5 1020 68 10000 1.54 230 10:50 09.01.2021
288 Clear -6 1020 73 10000 1.54 260 10:26 09.01.2021
289 Clear -8 1020 73 10000 1.54 250 09:45 09.01.2021
290 Clear -8 1020 79 10000 0.51 0 09:21 09.01.2021
291 Clear -9 1020 79 10000 0.51 0 08:19 09.01.2021
292 Clear -9 1019 79 10000 0.51 0 06:55 09.01.2021
293 Clear -8 1019 79 10000 0.51 0 06:36 09.01.2021
294 Clear -9 1018 79 10000 0.51 0 04:25 09.01.2021
295 Clear -8 1018 79 10000 0.51 0 02:46 09.01.2021
296 Clear -8 1018 79 10000 0.51 0 02:27 09.01.2021
297 Clear -8 1018 79 10000 1.03 0 01:25 09.01.2021
298 Clear -7 1017 73 10000 0.51 0 00:34 09.01.2021
299 Clouds -5 1017 74 10000 1.03 210 23:49 08.01.2021
300 Clouds -4 1017 68 10000 1.03 0 22:47 08.01.2021
301 Clouds -3 1016 68 10000 1.54 280 21:54 08.01.2021
302 Clouds -2 1016 59 10000 1.54 240 21:26 08.01.2021
303 Clouds -2 1016 59 10000 1.54 240 20:38 08.01.2021
304 Clouds -2 1016 59 10000 1.54 260 19:58 08.01.2021
305 Clouds -1 1015 55 10000 1.03 0 19:25 08.01.2021
306 Clouds -1 1015 59 10000 1.54 190 18:54 08.01.2021
307 Clouds -1 1015 59 10000 1.54 190 18:33 08.01.2021
308 Clouds -1 1015 55 10000 1.54 270 17:55 08.01.2021
309 Clouds -1 1014 55 10000 2.57 280 17:25 08.01.2021
310 Clouds -1 1014 55 10000 3.09 270 16:49 08.01.2021
311 Clouds -1 1014 51 10000 2.06 280 15:55 08.01.2021
312 Clouds 0 1014 47 10000 2.06 270 15:33 08.01.2021
313 Clouds 0 1014 47 10000 3.09 260 14:40 08.01.2021
314 Clouds 0 1014 47 10000 3.6 280 14:18 08.01.2021
315 Clouds 0 1014 47 10000 4.63 270 13:22 08.01.2021
316 Clouds 0 1014 47 10000 4.63 270 12:52 08.01.2021
317 Clouds -1 1015 51 10000 4.63 260 12:22 08.01.2021
318 Clouds -2 1015 50 10000 4.12 260 11:50 08.01.2021
319 Clouds -2 1015 54 10000 3.6 260 11:30 08.01.2021
320 Clouds -3 1015 59 10000 3.6 270 10:57 08.01.2021
321 Clouds -3 1015 59 10000 3.6 270 10:38 08.01.2021
322 Clouds -4 1015 63 10000 2.06 290 09:53 08.01.2021
323 Clouds -4 1015 63 10000 2.06 290 09:35 08.01.2021
324 Clouds -5 1015 68 10000 1.03 0 08:42 08.01.2021
325 Clouds -5 1015 68 10000 3.6 270 07:29 08.01.2021
326 Clouds -5 1014 68 10000 4.12 270 06:43 08.01.2021
327 Clouds -5 1014 74 10000 1.54 270 00:35 08.01.2021
328 Clouds -5 1014 80 10000 3.09 260 23:42 07.01.2021
329 Clouds -6 1014 79 10000 0.51 0 22:55 07.01.2021
330 Clouds -6 1014 79 10000 0.51 0 22:36 07.01.2021
331 Clouds -5 1014 80 10000 2.06 260 21:50 07.01.2021
332 Clouds -6 1014 79 10000 1.54 270 21:30 07.01.2021
333 Clouds -5 1014 74 10000 1.54 280 20:52 07.01.2021
334 Clouds -5 1014 74 10000 1.54 280 20:34 07.01.2021
335 Clear -5 1013 74 10000 1.54 260 19:47 07.01.2021
336 Clear -4 1013 68 10000 1.54 250 19:24 07.01.2021
337 Clear -4 1013 74 10000 0.51 0 18:46 07.01.2021
338 Clear -4 1013 74 10000 1.54 230 18:20 07.01.2021
339 Clear -4 1013 74 10000 1.54 260 17:34 07.01.2021
340 Clear -2 1012 64 10000 2.06 280 16:57 07.01.2021
341 Clear -2 1012 64 10000 2.06 280 16:32 07.01.2021
342 Clouds 1 1012 48 10000 1.03 0 15:52 07.01.2021
343 Clouds 1 1012 48 10000 1.03 0 15:30 07.01.2021
344 Clouds 0 1012 47 10000 1.54 230 14:32 07.01.2021
345 Clouds 0 1012 55 10000 1.54 240 13:58 07.01.2021
346 Clouds 0 1013 55 10000 3.09 260 13:30 07.01.2021
347 Clouds -1 1014 68 10000 4.6 270 12:55 07.01.2021
348 Clouds -1 1014 68 10000 4.6 270 12:23 07.01.2021
349 Clouds -2 1015 68 10000 3.6 260 11:41 07.01.2021
350 Clouds -2 1015 68 10000 3.6 260 11:23 07.01.2021
351 Clouds -4 1015 85 10000 1 0 10:37 07.01.2021
352 Clouds -4 1015 85 10000 1.5 250 10:18 07.01.2021
353 Clouds -6 1015 92 10000 2.6 250 09:41 07.01.2021
354 Clouds -7 1014 92 10000 2.1 260 08:40 07.01.2021
355 Clouds -7 1014 92 10000 2.1 260 08:21 07.01.2021
356 Clouds -6 1014 85 10000 2.6 240 07:42 07.01.2021
357 Clouds -5 1014 85 10000 1 0 06:46 07.01.2021
358 Clouds -4 1013 86 10000 2.1 270 02:18 07.01.2021
359 Clouds -3 1012 80 10000 1 180 23:58 06.01.2021
360 Clouds -3 1012 86 10000 0.5 0 23:25 06.01.2021
361 Clouds -2 1012 80 10000 0.5 0 22:23 06.01.2021
362 Clouds -2 1012 80 10000 1.5 260 21:41 06.01.2021
363 Clouds -2 1012 80 10000 0.5 0 21:22 06.01.2021
364 Clouds -2 1012 80 10000 0.5 0 21:22 06.01.2021
365 Clouds -2 1011 80 10000 1 170 20:42 06.01.2021
366 Clouds -2 1011 80 10000 0.5 0 20:22 06.01.2021
367 Clouds -2 1011 80 10000 1.15 228 19:47 06.01.2021
368 Clouds -2 1011 80 10000 1.08 233 19:27 06.01.2021
369 Clouds -2 1011 80 10000 0.5 0 18:46 06.01.2021
370 Snow -1 1010 90 10000 1 310 18:28 06.01.2021
371 Snow -1 1010 90 10000 1 250 17:46 06.01.2021
372 Snow -1 1010 91 10000 1 250 17:27 06.01.2021
373 Snow -1 1010 91 10000 1.5 250 16:57 06.01.2021
374 Clouds 0 1009 91 10000 2.6 270 16:21 06.01.2021
375 Clouds 0 1009 64 10000 2.6 260 15:59 06.01.2021
376 Clouds 0 1009 91 10000 3.1 280 15:35 06.01.2021
377 Clouds 1 1009 64 10000 3.1 270 14:58 06.01.2021
378 Clouds 0 1009 64 10000 2.6 270 14:31 06.01.2021
379 Clouds 1 1009 59 10000 2.1 250 13:52 06.01.2021
380 Clouds 0 1009 69 10000 1 0 13:26 06.01.2021
381 Clouds 0 1010 89 10000 1.5 240 12:55 06.01.2021
382 Clouds -1 1010 89 10000 2.1 250 12:30 06.01.2021
383 Clouds -2 1010 79 10000 1.5 140 11:44 06.01.2021
384 Clouds -2 1010 79 10000 1.5 140 11:21 06.01.2021
385 Clouds -4 1010 92 9000 1.5 260 10:35 06.01.2021
386 Clouds -4 1010 85 9000 2.1 250 09:52 06.01.2021
387 Clouds -4 1010 92 9000 1.5 280 09:27 06.01.2021
388 Clouds -4 1009 92 10000 0.5 0 08:51 06.01.2021
389 Clouds -4 1009 92 8000 1 0 08:18 06.01.2021
390 Clouds -5 1009 92 8000 1 0 07:49 06.01.2021
391 Snow -4 1009 92 7000 0.5 0 05:59 06.01.2021
392 Snow -4 1009 92 5000 1.5 270 04:43 06.01.2021
393 Snow -3 1009 92 5000 0.89 254 02:55 06.01.2021
394 Snow -3 1009 92 4200 0.5 0 02:36 06.01.2021
395 Snow -3 1009 92 3100 1.5 70 02:18 06.01.2021
396 Clouds -3 1009 79 10000 2.1 60 23:48 05.01.2021
397 Clouds -3 1009 79 10000 1.5 80 22:55 05.01.2021
398 Clouds -3 1009 79 10000 2.1 80 22:36 05.01.2021
399 Clouds -3 1009 79 10000 2.1 90 22:18 05.01.2021
400 Clouds -3 1009 79 10000 2.6 70 21:19 05.01.2021
401 Clouds -3 1009 79 10000 3.6 90 20:30 05.01.2021
402 Clear -3 1009 79 10000 2.1 60 19:45 05.01.2021
403 Clear -3 1009 79 10000 2.1 60 19:27 05.01.2021
404 Clear -3 1009 79 10000 2.6 70 18:50 05.01.2021
405 Clear -3 1009 79 10000 3.1 60 18:28 05.01.2021
406 Clear -3 1009 74 10000 2.6 60 17:54 05.01.2021
407 Clear -2 1008 68 10000 2.1 100 17:32 05.01.2021
408 Clear -2 1008 68 10000 2.6 80 16:57 05.01.2021
409 Clear -1 1008 89 10000 1.5 100 16:36 05.01.2021
410 Clear -1 1008 90 10000 2.6 80 16:18 05.01.2021
411 Clear -1 1008 90 10000 2.6 90 15:44 05.01.2021
412 Clear 0 1008 55 10000 1 0 14:48 05.01.2021
413 Clear 0 1008 55 10000 1 0 14:19 05.01.2021
414 Clear 0 1009 74 10000 1 0 13:44 05.01.2021
415 Clear -1 1009 63 10000 1 0 13:20 05.01.2021
416 Clear -1 1009 63 10000 1 0 12:46 05.01.2021
417 Clear -2 1010 73 10000 1 0 12:21 05.01.2021
418 Clear -3 1010 73 10000 0.5 0 11:36 05.01.2021
419 -273 0 0 0 0 0 11:36 05.01.2021
420 -273 0 0 0 0 0 11:36 05.01.2021
421 -273 0 0 0 0 0 11:36 05.01.2021
422 -273 0 0 0 0 0 11:36 05.01.2021
423 -273 0 0 0 0 0 11:36 05.01.2021
424 -273 0 0 0 0 0 11:35 05.01.2021
425 Clear -3 1010 85 10000 0.5 0 10:46 05.01.2021
426 Clear -4 1010 85 10000 0.5 0 10:26 05.01.2021
427 Clear -5 1010 92 10000 0.5 0 09:48 05.01.2021
428 Clear -6 1010 85 10000 1.5 260 09:28 05.01.2021
429 Clear -7 1010 92 10000 0.5 0 08:25 05.01.2021
430 Clear -7 1009 92 10000 1 250 06:46 05.01.2021
431 Clear -5 1009 85 10000 2.6 280 03:56 05.01.2021
432 Clouds -4 1010 86 10000 2.6 240 00:50 05.01.2021
433 Clouds -3 1010 79 10000 1 0 23:46 04.01.2021
434 Clouds -3 1010 79 10000 1 0 23:25 04.01.2021
435 Clouds -3 1010 79 10000 1.5 230 22:51 04.01.2021
436 Clouds -3 1010 86 10000 1.5 270 22:32 04.01.2021
437 Clouds -3 1010 86 10000 1.5 260 21:49 04.01.2021
438 Clouds -4 1010 86 10000 1.5 260 21:31 04.01.2021
439 Clouds -4 1010 86 10000 0.5 0 20:44 04.01.2021
440 Clouds -4 1010 86 10000 0.5 0 20:25 04.01.2021
441 Clouds -4 1010 79 10000 1 0 19:52 04.01.2021
442 Clouds -4 1010 79 10000 1 0 19:25 04.01.2021
443 Clouds -3 1010 86 10000 2.6 70 18:55 04.01.2021
444 Clouds -3 1009 79 10000 3.6 80 18:24 04.01.2021
445 Clouds -2 1009 74 10000 3.6 70 17:44 04.01.2021
446 Clouds -2 1009 74 10000 3.6 80 17:25 04.01.2021
447 Clouds -2 1009 74 10000 3.1 60 16:47 04.01.2021
448 Clouds -2 1009 74 10000 3.1 60 16:27 04.01.2021
449 Clouds -1 1009 85 10000 3.1 70 15:49 04.01.2021
450 Clouds -1 1009 73 10000 3.1 70 15:28 04.01.2021
451 Clouds -1 1009 73 10000 2.6 130 14:42 04.01.2021
452 Clouds -1 1010 70 10000 1 0 13:47 04.01.2021
453 Clouds -1 1010 71 10000 1 0 13:24 04.01.2021
454 Clouds -2 1011 74 10000 2.1 260 12:42 04.01.2021
455 Clouds -1 1011 79 10000 3.1 240 11:58 04.01.2021
456 Clouds -2 1012 79 10000 2.6 290 11:22 04.01.2021
457 Clouds -2 1012 79 10000 1 0 10:49 04.01.2021
458 Clouds -2 1012 79 10000 1 0 10:28 04.01.2021
459 Clouds -3 1012 79 10000 2.1 250 09:53 04.01.2021
460 Clouds -3 1012 79 10000 1.5 280 09:20 04.01.2021
461 Clouds -5 1012 79 10000 1 0 08:46 04.01.2021
462 Clouds -5 1012 79 10000 1.5 260 07:58 04.01.2021
463 Clouds -5 1012 79 10000 1.5 260 07:37 04.01.2021
464 Clouds -4 1011 79 10000 0.5 0 05:33 04.01.2021
465 Clouds -4 1011 86 10000 1 0 03:40 04.01.2021
466 Clouds -1 1011 80 10000 0.5 0 00:47 04.01.2021
467 Clouds -2 1011 80 10000 1.5 230 23:49 03.01.2021
468 Clouds -3 1011 80 10000 1 0 23:24 03.01.2021
469 Clouds -3 1011 80 10000 1 0 22:56 03.01.2021
470 Clouds -3 1011 80 10000 2.1 310 22:32 03.01.2021
471 Clouds -3 1011 80 10000 1.5 340 21:55 03.01.2021
472 Clouds -2 1011 80 10000 2.1 40 21:26 03.01.2021
473 Clouds -2 1011 80 10000 2.1 60 20:49 03.01.2021
474 Clouds -2 1010 80 10000 1.5 40 20:31 03.01.2021
475 Clouds -2 1010 80 10000 2.1 50 19:56 03.01.2021
476 Clouds -2 1010 80 10000 2.1 50 19:35 03.01.2021
477 Clouds -2 1010 80 10000 2.1 100 18:57 03.01.2021
478 Clouds -2 1009 80 10000 2.6 70 18:38 03.01.2021
479 Clouds -1 1009 88 10000 2.6 60 18:19 03.01.2021
480 Clouds -1 1009 88 10000 3.1 60 17:45 03.01.2021
481 Clouds -1 1009 88 10000 3.1 60 17:23 03.01.2021
482 Clouds -1 1008 88 10000 2.6 70 16:42 03.01.2021
483 Clouds -1 1008 78 10000 2.6 130 16:19 03.01.2021
484 Clouds -1 1008 69 10000 2.1 120 15:46 03.01.2021
485 Clouds 0 1008 69 10000 2.1 120 15:27 03.01.2021
486 Clouds -1 1008 69 10000 2.1 50 14:52 03.01.2021
487 Clouds -1 1008 68 10000 2.1 90 14:27 03.01.2021
488 Clouds -1 1008 80 10000 2.1 70 13:41 03.01.2021
489 Clouds -1 1008 80 10000 2.1 70 13:22 03.01.2021
490 Clouds -1 1008 80 10000 0.5 0 12:24 03.01.2021
491 Clouds -1 1009 80 10000 1 0 11:42 03.01.2021
492 Clouds -2 1009 86 10000 2.1 280 11:24 03.01.2021
493 Clouds -2 1008 86 9000 3.6 270 10:34 03.01.2021
494 Clouds -3 1008 86 7000 1.5 270 09:55 03.01.2021
495 Clouds -2 1008 86 7000 1.5 270 09:33 03.01.2021
496 Clouds -3 1008 92 7000 2.1 260 08:57 03.01.2021
497 Clouds -3 1007 86 9000 1.5 260 07:26 03.01.2021
498 Clouds -3 1007 86 10000 0.5 0 05:53 03.01.2021
499 Clouds -2 1007 86 10000 2.1 260 02:27 03.01.2021
500 Clouds -3 1007 86 10000 0.5 0 00:59 03.01.2021
501 Clouds -3 1007 92 10000 0.5 0 23:54 02.01.2021
502 Clouds -3 1007 86 10000 2.1 260 23:26 02.01.2021
503 Clouds -3 1007 92 10000 1 0 22:50 02.01.2021
504 Clouds -3 1007 86 10000 0.5 0 22:31 02.01.2021
505 Clouds -2 1007 80 10000 1 0 21:49 02.01.2021
506 Clouds -2 1007 80 10000 1 0 21:30 02.01.2021
507 Snow -2 1007 80 10000 1.5 60 20:49 02.01.2021
508 Clouds -1 1007 80 10000 1.5 60 20:27 02.01.2021
509 Clouds -1 1007 80 10000 2.1 70 19:49 02.01.2021
510 Clouds -1 1007 84 10000 2.1 80 19:20 02.01.2021
511 Clouds -1 1007 82 10000 1.5 90 18:52 02.01.2021
512 Clouds -1 1007 82 10000 1.5 90 18:33 02.01.2021
513 Snow -1 1007 80 10000 2.6 50 17:49 02.01.2021
514 Snow -1 1007 81 10000 2.6 80 17:30 02.01.2021
515 Clouds 0 1007 69 10000 1.5 100 16:46 02.01.2021
516 Clouds 0 1007 69 10000 1.5 100 16:22 02.01.2021
517 Clouds 0 1007 64 10000 1.5 100 15:48 02.01.2021
518 Clouds 0 1007 64 10000 1.5 90 15:28 02.01.2021
519 Clouds 1 1007 59 10000 1 0 14:47 02.01.2021
520 Clouds 1 1007 59 10000 1 0 14:24 02.01.2021
521 Clouds 1 1008 71 10000 0.5 0 13:43 02.01.2021
522 Clouds -2 1008 74 10000 1 0 12:55 02.01.2021
523 Clouds -1 1009 74 10000 1 0 12:32 02.01.2021
524 Clouds -2 1010 79 10000 1 0 11:59 02.01.2021
525 Clouds -3 1010 85 10000 1 0 11:26 02.01.2021
526 Clouds -3 1010 85 10000 1 0 10:59 02.01.2021
527 Clouds -4 1010 85 10000 2.1 250 10:35 02.01.2021
528 Clouds -4 1010 85 10000 2.6 260 09:59 02.01.2021
529 Clouds -4 1010 85 10000 2.1 260 09:39 02.01.2021
530 Clouds -4 1010 85 10000 1 0 09:19 02.01.2021
531 Clouds -3 1010 85 10000 1 0 08:41 02.01.2021
532 Clouds -4 1010 92 10000 2.1 260 08:19 02.01.2021
533 Clouds -4 1010 85 10000 1 0 07:24 02.01.2021
534 Clouds -4 1010 85 10000 1 0 06:57 02.01.2021
535 Clouds -4 1010 85 10000 1.5 280 05:55 02.01.2021
536 Clouds -2 1009 79 10000 1.5 240 01:58 02.01.2021
537 Clouds -2 1009 79 10000 2.1 260 00:38 02.01.2021
538 Clouds -2 1009 79 10000 2.6 260 23:58 01.01.2021
539 Clouds -2 1009 86 10000 1 0 23:24 01.01.2021
540 Clouds -2 1008 79 10000 2.1 250 22:52 01.01.2021
541 Clouds -2 1008 79 10000 1 0 22:27 01.01.2021
542 Clouds -2 1008 86 10000 1.5 270 22:00 01.01.2021
543 Clouds -2 1008 79 10000 2.1 270 21:41 01.01.2021
544 Clouds -3 1007 86 10000 1.5 260 21:19 01.01.2021
545 Clouds -3 1007 79 10000 1 0 20:48 01.01.2021
546 Clouds -1 1007 79 10000 0.5 0 20:18 01.01.2021
547 Clouds -2 1007 74 10000 1.5 270 19:42 01.01.2021
548 Clouds -2 1007 74 10000 1.5 270 19:22 01.01.2021
549 Clouds -2 1006 74 10000 2.1 260 18:45 01.01.2021
550 Clouds -2 1006 74 10000 2.1 260 18:23 01.01.2021
551 Clouds -1 1006 64 10000 1 0 17:47 01.01.2021
552 Clouds 0 1006 64 10000 1 0 17:23 01.01.2021
553 Clouds 1 1005 55 10000 0.5 0 16:50 01.01.2021
554 Clouds 2 1005 51 10000 2.6 270 16:25 01.01.2021
555 Clouds 3 1005 41 10000 5.1 260 15:41 01.01.2021
556 Clouds 4 1005 44 10000 4.6 250 14:49 01.01.2021
557 Clouds 5 1005 41 10000 4.6 250 14:28 01.01.2021
558 Clouds 4 1006 44 10000 6.7 260 13:40 01.01.2021
559 Clouds 4 1006 44 10000 6.7 260 13:40 01.01.2021
560 Clouds 3 1006 47 10000 6.2 270 12:57 01.01.2021
561 Clouds 3 1006 47 10000 6.2 270 12:57 01.01.2021
562 Clouds 2 1007 47 10000 6.7 260 12:36 01.01.2021
563 Clouds 0 1007 75 10000 4.1 290 11:43 01.01.2021
564 Clouds 0 1007 80 10000 4.1 290 11:23 01.01.2021
565 Clouds -1 1008 68 10000 4.6 280 10:59 01.01.2021
566 Clouds -1 1008 68 10000 5.7 280 10:33 01.01.2021
567 Clouds -2 1007 73 10000 5.1 280 09:39 01.01.2021
568 Clouds -3 1007 73 10000 5.1 290 08:52 01.01.2021
569 Clouds -3 1007 73 10000 5.1 290 08:25 01.01.2021
570 Clouds -4 1007 79 10000 2.6 270 04:52 01.01.2021
571 Clouds -4 1007 73 10000 4.1 250 02:25 01.01.2021
572 Clouds -4 1007 68 10000 2.1 230 00:38 01.01.2021
573 Clouds -4 1007 68 10000 2.1 240 00:20 01.01.2021
574 Clouds -3 1007 73 10000 3.6 260 23:22 31.12.2020
575 Clouds -3 1007 73 10000 3.6 260 22:56 31.12.2020
576 Clouds -3 1007 68 10000 5.1 260 22:37 31.12.2020
577 Clouds -3 1007 68 10000 5.1 260 22:19 31.12.2020
578 Clouds -3 1006 73 10000 3.1 260 21:44 31.12.2020
579 Clouds -3 1006 63 10000 2.6 260 21:21 31.12.2020
580 Clouds -3 1006 63 10000 2.6 260 20:47 31.12.2020
581 Clear -3 1006 68 10000 3.1 240 19:59 31.12.2020
582 Clear -3 1006 63 10000 3.1 270 19:38 31.12.2020
583 Clear -3 1006 63 10000 3.1 270 19:20 31.12.2020
584 Clear -3 1006 58 10000 2.1 260 18:42 31.12.2020
585 Clear -3 1006 58 10000 2.1 260 18:23 31.12.2020
586 Clear -2 1006 58 10000 1.5 260 17:42 31.12.2020
587 Clear -1 1006 54 10000 3.6 270 17:21 31.12.2020
588 Clear 0 1006 58 10000 4.1 270 16:40 31.12.2020
589 Clear 1 1006 83 10000 5.7 260 16:21 31.12.2020
590 Clear 2 1006 50 10000 4.6 280 15:45 31.12.2020
591 Clear 2 1006 50 10000 4.6 280 15:21 31.12.2020
592 Clear 1 1006 50 10000 4.6 270 14:54 31.12.2020
593 Clear 2 1006 47 10000 4.6 270 14:36 31.12.2020
594 Clear 2 1006 50 10000 5.7 270 14:18 31.12.2020
595 Clear 1 1007 68 10000 5.7 270 13:38 31.12.2020
596 Clear 1 1007 69 10000 4.1 260 13:19 31.12.2020
597 Clear 1 1007 69 10000 4.1 260 13:19 31.12.2020
598 Clear 0 1007 69 10000 4.1 260 12:52 31.12.2020
599 Clear 0 1008 58 10000 4.1 260 12:32 31.12.2020
600 Clear -2 1009 68 10000 4.1 270 11:51 31.12.2020
601 Clear -1 1009 68 10000 4.1 270 11:32 31.12.2020
602 Clouds -3 1010 73 10000 2.1 230 10:46 31.12.2020
603 Clouds -3 1010 73 10000 2.1 230 10:28 31.12.2020
604 Clouds -4 1010 79 10000 3.1 260 09:51 31.12.2020
605 Clouds -5 1010 85 10000 1 0 09:26 31.12.2020
606 Clouds -5 1010 85 10000 1 0 08:50 31.12.2020
607 Clouds -7 1010 85 10000 1.5 270 08:31 31.12.2020
608 Clouds -7 1009 85 10000 2.6 290 07:56 31.12.2020
609 Clouds -6 1009 85 10000 1.5 240 07:28 31.12.2020
610 Clouds -6 1009 85 10000 3.1 260 05:30 31.12.2020
611 Clouds -4 1009 85 10000 2.1 280 03:40 31.12.2020
612 Clouds -3 1009 86 10000 2.6 280 02:45 31.12.2020
613 Clouds -3 1009 86 10000 2.6 280 02:25 31.12.2020
614 Clouds -3 1009 79 10000 1 0 01:43 31.12.2020
615 Clouds -2 1009 79 10000 1 0 01:24 31.12.2020
616 Clouds -2 1009 80 10000 1 260 00:44 31.12.2020
617 Clouds -2 1009 74 10000 1 240 23:48 30.12.2020
618 Clouds -1 1009 80 10000 1 0 23:19 30.12.2020
619 Clouds -1 1009 80 10000 0.5 0 22:47 30.12.2020
620 Clouds -1 1009 80 10000 0.5 0 22:47 30.12.2020
621 Snow -1 1009 80 10000 0.5 0 22:29 30.12.2020
622 Snow -1 1008 80 10000 1.5 280 21:39 30.12.2020
623 Clouds -1 1008 80 10000 1.5 280 21:20 30.12.2020
624 Clouds -1 1008 80 10000 1 0 20:48 30.12.2020
625 Clouds 0 1008 80 10000 1 0 20:20 30.12.2020
626 Clouds 0 1007 74 10000 1.5 270 19:40 30.12.2020
627 Snow 0 1007 91 10000 1.5 260 19:21 30.12.2020
628 Clouds 0 1006 89 10000 1.5 260 18:46 30.12.2020
629 Clouds 0 1006 90 10000 2.6 260 18:27 30.12.2020
630 Clouds 0 1006 90 10000 1 270 17:51 30.12.2020
631 Clouds 0 1006 91 10000 1 270 17:32 30.12.2020
632 Clouds 1 1006 64 10000 2.1 250 16:53 30.12.2020
633 Clouds 1 1005 64 10000 1 300 16:29 30.12.2020
634 Clouds 1 1005 64 10000 1.5 250 15:47 30.12.2020
635 Clouds 1 1005 64 10000 1.5 250 15:24 30.12.2020
636 Clouds 1 1004 64 10000 3.1 270 14:44 30.12.2020
637 Clouds 1 1004 64 10000 3.1 260 14:22 30.12.2020
638 Clouds 0 1004 78 10000 3.6 290 13:33 30.12.2020
639 Clouds 0 1005 79 10000 4.1 260 12:40 30.12.2020
640 Clouds 0 1005 74 10000 3.6 270 12:20 30.12.2020
641 Clouds -1 1005 74 10000 4.1 270 11:36 30.12.2020
642 Clouds -1 1005 79 10000 3.6 270 11:18 30.12.2020
643 Clouds -1 1005 79 10000 3.1 280 10:40 30.12.2020
644 Clouds -2 1005 86 10000 2.6 280 10:21 30.12.2020
645 Clouds -2 1005 86 10000 2.6 280 09:49 30.12.2020
646 Clouds -2 1004 86 10000 3.1 280 09:25 30.12.2020
647 Clouds -3 1004 86 10000 2.1 270 08:27 30.12.2020
648 Clouds -3 1003 86 10000 2.1 260 07:29 30.12.2020
649 Clouds -3 1002 86 10000 2.6 250 06:51 30.12.2020
650 Clouds -3 1002 86 10000 2.6 250 06:29 30.12.2020
651 Clouds -2 1002 86 10000 3.1 270 05:42 30.12.2020
652 Clouds -1 1002 86 10000 2.6 280 05:24 30.12.2020
653 Clouds -1 1001 86 10000 2.1 240 03:28 30.12.2020
654 Clouds -1 1001 86 10000 2.1 260 02:39 30.12.2020
655 Clouds -1 1001 86 10000 1 0 01:56 30.12.2020
656 Clouds -1 1001 86 10000 2.1 260 01:32 30.12.2020
657 Snow -1 1001 86 10000 2.1 270 00:48 30.12.2020
658 Snow -1 1001 86 10000 2.1 270 00:29 30.12.2020
659 Snow -1 1001 86 10000 2.1 260 23:54 29.12.2020
660 Snow -1 1000 86 10000 1.5 250 23:35 29.12.2020
661 Snow -1 1000 86 10000 1.5 240 22:56 29.12.2020
662 Snow -1 1000 86 10000 1.5 250 22:37 29.12.2020
663 Snow -1 1000 86 10000 1.5 240 22:19 29.12.2020
664 Snow 0 999 86 10000 0.5 0 21:44 29.12.2020
665 Snow 0 999 86 10000 1 0 21:24 29.12.2020
666 Snow 1 998 91 10000 1 0 20:45 29.12.2020
667 Snow 0 998 87 10000 1 0 20:25 29.12.2020
668 Snow 0 998 87 10000 2.1 280 19:46 29.12.2020
669 Snow 0 998 89 10000 2.1 280 19:23 29.12.2020
670 Snow 0 997 80 10000 2.1 140 18:54 29.12.2020
671 Clouds 0 997 80 10000 2.1 140 18:29 29.12.2020
672 Clouds 0 997 80 10000 3.1 110 17:55 29.12.2020
673 Clouds 0 996 74 10000 2.6 90 17:36 29.12.2020
674 Clouds 0 996 89 10000 2.6 280 17:18 29.12.2020
675 Clouds 0 995 74 10000 4.6 270 16:34 29.12.2020
676 Clouds 2 995 69 10000 5.1 260 15:52 29.12.2020
677 Clouds 2 995 69 10000 4.1 260 15:33 29.12.2020
678 Clouds 3 994 69 10000 5.1 250 14:46 29.12.2020
679 Clouds 2 994 69 10000 5.1 250 14:28 29.12.2020
680 Clouds 2 994 69 10000 5.7 260 13:59 29.12.2020
681 Clouds 2 994 74 10000 6.2 260 13:25 29.12.2020
682 Clouds 2 994 74 10000 5.1 270 12:56 29.12.2020
683 Clouds 1 994 70 10000 5.1 260 12:36 29.12.2020
684 Clouds 1 994 73 10000 6.2 260 12:18 29.12.2020
685 Clouds 0 994 80 10000 4.6 260 11:45 29.12.2020
686 Clouds 0 994 80 10000 4.6 260 11:24 29.12.2020
687 Clouds -2 994 92 10000 4.6 270 10:20 29.12.2020
688 Clouds -4 993 92 10000 4.6 280 09:41 29.12.2020
689 Clouds -3 992 86 10000 5.1 270 09:19 29.12.2020
690 Clouds -3 992 86 10000 5.1 270 08:49 29.12.2020
691 Clouds -3 991 92 10000 4.1 270 07:40 29.12.2020
692 Clouds -4 990 92 10000 4.1 270 07:20 29.12.2020
693 Clouds -2 989 100 10000 2.1 0 05:50 29.12.2020
694 Clouds -1 987 87 10000 2.1 230 02:33 29.12.2020
695 Clouds -1 986 86 10000 2.1 290 00:43 29.12.2020
696 Clouds -1 985 87 8000 0.5 0 23:39 28.12.2020
697 Clouds -1 985 88 7000 1.5 280 22:56 28.12.2020
698 Clouds 0 985 90 10000 1 0 22:20 28.12.2020
699 Snow 0 985 90 8000 0.5 0 21:41 28.12.2020
700 Snow 0 984 88 5000 0.5 0 21:20 28.12.2020
701 Snow 0 984 88 5000 2.6 270 20:40 28.12.2020
702 Snow 0 984 85 5000 2.6 270 20:21 28.12.2020
703 Snow 1 983 85 10000 3.6 300 19:42 28.12.2020
704 Snow 0 983 84 10000 3.6 300 19:22 28.12.2020
705 Snow 0 983 84 10000 5.7 260 18:49 28.12.2020
706 Snow 0 983 84 10000 5.7 260 18:28 28.12.2020
707 Snow 2 982 69 10000 4.6 280 17:41 28.12.2020
708 Snow 2 982 69 10000 3.6 270 17:18 28.12.2020
709 Snow 2 982 69 10000 3.1 270 16:33 28.12.2020
710 Clouds 2 981 59 10000 2.6 280 15:59 28.12.2020
711 Clouds 2 981 59 10000 2.6 280 15:41 28.12.2020
712 Clouds 2 981 59 10000 3.6 260 14:49 28.12.2020
713 Clouds 2 981 69 10000 3.6 90 13:51 28.12.2020
714 Clouds 2 981 64 10000 6.2 110 13:24 28.12.2020
715 Clouds 2 983 64 10000 6.2 90 12:40 28.12.2020
716 Clouds 2 983 64 10000 6.2 90 12:20 28.12.2020
717 Snow 2 983 60 10000 6.2 80 11:45 28.12.2020
718 Clouds 4 983 60 10000 6.2 80 11:22 28.12.2020
719 Clouds 5 984 52 10000 7.7 70 10:43 28.12.2020
720 Clouds 5 984 52 10000 7.7 70 10:25 28.12.2020
721 Clouds 3 984 44 10000 7.2 120 09:45 28.12.2020
722 Clouds 4 984 48 10000 6.2 100 09:18 28.12.2020
723 Clouds 4 986 44 10000 6.7 0 07:21 28.12.2020
724 Clouds 5 986 38 10000 6.7 20 06:43 28.12.2020
725 Clouds 5 987 27 10000 7.7 160 04:26 28.12.2020
726 Clouds 5 989 20 10000 6.2 0 01:57 28.12.2020
727 Clouds 2 990 37 10000 2.6 0 00:30 28.12.2020
728 Clouds 6 990 17 10000 6.2 50 23:46 27.12.2020
729 Clouds 6 990 17 10000 6.2 50 23:19 27.12.2020
730 Clouds -2 992 68 10000 5.1 0 21:57 27.12.2020
731 Clouds -2 992 68 10000 5.1 0 21:57 27.12.2020
732 Clouds -2 992 68 10000 4.6 270 21:26 27.12.2020
733 Clear -2 993 68 10000 3.6 270 20:45 27.12.2020
734 Clear -1 994 63 10000 3.6 270 19:25 27.12.2020
735 Clear -2 995 63 10000 4.6 260 18:55 27.12.2020
736 Clear -2 995 63 10000 4.1 250 18:37 27.12.2020
737 Clear -2 996 63 10000 3.6 260 18:18 27.12.2020
738 Clear -2 997 58 10000 3.1 270 17:43 27.12.2020
739 Clear -2 997 58 10000 3.1 270 17:21 27.12.2020
740 Clear -1 998 74 10000 4.6 280 16:32 27.12.2020
741 Clear 0 998 76 10000 4.6 270 15:50 27.12.2020
742 Clear 1 1000 71 10000 5.1 260 14:58 27.12.2020
743 Clear 0 1001 71 10000 4.6 270 14:38 27.12.2020
744 Clear 1 1002 66 10000 6.7 270 13:55 27.12.2020
745 Clear -1 1004 54 10000 4.1 240 13:19 27.12.2020
746 Clear -2 1005 68 10000 5.1 270 12:43 27.12.2020
747 Clear -3 1007 63 10000 6.2 260 11:49 27.12.2020
748 Clear -3 1007 63 10000 6.2 260 11:29 27.12.2020
749 Clear -4 1008 68 10000 2.6 0 10:51 27.12.2020
750 Clear -4 1009 73 10000 1 0 10:24 27.12.2020
751 Clear -7 1010 85 10000 1.5 240 09:42 27.12.2020
752 Clear -7 1011 92 10000 0.5 0 08:29 27.12.2020
753 Clear -7 1012 85 10000 2.1 240 07:59 27.12.2020
754 Clear -7 1012 85 10000 2.1 280 07:25 27.12.2020
755 Clear -7 1014 92 10000 1.5 230 05:44 27.12.2020
756 Clear -7 1017 85 10000 2.1 250 03:26 27.12.2020
757 Clear -6 1017 85 10000 1 230 02:45 27.12.2020
758 Clear -6 1019 85 10000 2.1 210 01:32 27.12.2020
759 Clear -5 1021 85 10000 1.5 260 23:57 26.12.2020
760 Clear -5 1022 92 10000 1 0 23:27 26.12.2020
761 Clear -5 1022 85 10000 1 0 22:49 26.12.2020
762 Clouds -6 1023 85 10000 0.5 0 22:20 26.12.2020
763 Clouds -6 1023 85 10000 1 0 21:57 26.12.2020
764 Clouds -5 1023 79 10000 0.5 0 21:38 26.12.2020
765 Clouds -5 1023 79 10000 1.5 120 20:59 26.12.2020
766 Clouds -6 1023 86 10000 0.5 0 20:36 26.12.2020
767 Clouds -6 1023 86 10000 0.5 0 20:36 26.12.2020
768 Clouds -5 1023 86 10000 1 0 20:18 26.12.2020
769 Clouds -4 1023 79 10000 1 180 19:25 26.12.2020
770 Clouds -4 1023 74 10000 1.5 110 18:49 26.12.2020
771 Clouds -3 1023 83 10000 2.6 90 18:27 26.12.2020
772 Clouds -2 1023 83 10000 2.6 110 17:40 26.12.2020
773 Clouds -1 1023 64 10000 3.6 90 17:20 26.12.2020
774 Clouds -1 1023 64 10000 3.6 60 16:35 26.12.2020
775 Clouds 0 1023 59 10000 1 0 15:27 26.12.2020
776 Clouds 0 1023 59 10000 1 0 15:27 26.12.2020
777 Clouds -1 1023 59 10000 2.6 140 14:50 26.12.2020
778 Clouds 1 1023 59 10000 2.6 140 14:28 26.12.2020
779 Clouds -1 1023 69 10000 2.6 130 13:47 26.12.2020
780 Clouds 1 1023 69 10000 2.6 130 13:28 26.12.2020
781 Clouds 0 1024 69 10000 1 0 12:44 26.12.2020
782 Clouds 0 1024 69 10000 1 0 12:22 26.12.2020
783 Clouds -1 1025 83 10000 2.1 100 11:51 26.12.2020
784 Clouds -1 1025 84 10000 2.1 100 11:22 26.12.2020
785 Clouds -1 1025 86 10000 1 0 10:54 26.12.2020
786 Snow -2 1025 86 10000 2.1 60 10:27 26.12.2020
787 Snow -2 1024 86 10000 0.5 0 09:50 26.12.2020
788 Snow -2 1024 86 10000 0.5 0 09:28 26.12.2020
789 Clouds -2 1024 86 10000 1 0 08:33 26.12.2020
790 Snow -2 1023 86 10000 1 0 07:52 26.12.2020
791 Snow -2 1023 86 10000 1 0 06:31 26.12.2020
792 Clouds -1 1021 89 10000 1.5 60 03:19 26.12.2020
793 Clouds -1 1020 89 10000 1.5 200 01:32 26.12.2020
794 Snow 0 1020 90 10000 2.6 270 00:25 26.12.2020
795 Snow 0 1019 90 3400 1.5 0 23:39 25.12.2020
796 Snow 0 1019 89 3400 1.5 0 23:21 25.12.2020
797 Snow 0 1019 89 3000 1 260 22:40 25.12.2020
798 Snow 0 1019 88 4100 1 250 21:54 25.12.2020
799 Snow 0 1019 88 4100 1 250 21:34 25.12.2020
800 Snow 0 1018 88 5000 2.1 280 20:50 25.12.2020
801 Snow 0 1018 88 5000 2.1 280 20:31 25.12.2020
802 Snow 0 1017 86 10000 2.1 280 19:47 25.12.2020
803 Snow 0 1017 87 10000 2.1 280 19:20 25.12.2020
804 Snow 0 1017 100 10000 2.6 280 18:39 25.12.2020
805 Snow 1 1017 86 10000 1 320 17:47 25.12.2020
806 Snow 0 1017 84 10000 1 320 17:28 25.12.2020
807 Snow 1 1016 82 10000 2.6 260 16:33 25.12.2020
808 Snow 1 1016 100 10000 1.5 280 15:59 25.12.2020
809 Snow 1 1016 93 10000 1.5 280 15:36 25.12.2020
810 Snow 1 1016 79 8000 1.5 280 14:58 25.12.2020
811 Snow 1 1016 100 6000 1.5 150 14:29 25.12.2020
812 Snow 2 1016 78 7000 2.6 80 13:45 25.12.2020
813 Snow 2 1016 75 7000 2.6 80 13:26 25.12.2020
814 Rain 2 1016 76 10000 3.1 70 12:46 25.12.2020
815 Rain 2 1016 76 10000 3.1 70 12:46 25.12.2020
816 Snow 2 1016 76 10000 3.1 70 12:23 25.12.2020
817 Rain 2 1016 76 10000 2.6 80 11:44 25.12.2020
818 Snow 2 1016 76 10000 4.1 70 11:20 25.12.2020
819 Clouds 2 1015 78 10000 4.1 60 10:27 25.12.2020
820 Clouds 3 1014 60 10000 2.6 350 09:43 25.12.2020
821 Snow 2 1013 81 10000 1 0 08:49 25.12.2020
822 Snow 2 1013 81 10000 1 0 08:27 25.12.2020
823 Clouds 2 1012 93 10000 1.5 110 06:48 25.12.2020
824 Mist 3 1010 100 4300 1 230 04:44 25.12.2020
825 Drizzle 3 1010 100 4800 1.5 260 01:50 25.12.2020
826 Clouds 3 1010 100 8000 1 0 00:18 25.12.2020
827 Clouds 3 1010 100 6000 0.5 0 23:26 24.12.2020
828 Clouds 3 1011 93 6000 1 0 22:53 24.12.2020
829 Clouds 3 1011 93 6000 1 0 22:22 24.12.2020
830 Clouds 3 1011 93 6000 1 230 21:41 24.12.2020
831 Clouds 4 1011 93 10000 1 0 20:48 24.12.2020
832 Clouds 4 1011 93 10000 1.5 90 19:19 24.12.2020
833 Clouds 4 1011 100 10000 2.6 100 18:20 24.12.2020
834 Clouds 4 1011 100 10000 1 0 17:37 24.12.2020
835 Clouds 4 1011 100 10000 1 0 17:37 24.12.2020
836 Clouds 4 1011 100 10000 0.5 0 16:59 24.12.2020
837 Clouds 4 1011 100 10000 1 140 16:23 24.12.2020
838 Clouds 4 1011 93 10000 0.5 0 15:43 24.12.2020
839 Clouds 4 1011 93 10000 0.5 0 15:20 24.12.2020
840 Rain 4 1011 100 10000 1.5 170 14:51 24.12.2020
841 Clouds 4 1011 100 10000 1.5 170 14:24 24.12.2020
842 Rain 4 1012 100 10000 0.5 0 13:48 24.12.2020
843 Rain 4 1012 100 10000 0.5 0 13:30 24.12.2020
844 Rain 4 1012 93 10000 0.5 0 12:45 24.12.2020
845 Rain 4 1012 93 10000 0.5 0 12:21 24.12.2020
846 Clouds 4 1013 100 10000 0.5 0 11:47 24.12.2020
847 Clouds 4 1013 100 10000 1 0 11:21 24.12.2020
848 Rain 3 1013 100 10000 1 0 10:56 24.12.2020
849 Rain 3 1013 93 10000 2.1 90 10:38 24.12.2020
850 Rain 3 1013 100 10000 4.1 100 09:53 24.12.2020
851 Rain 3 1013 93 10000 1 0 09:30 24.12.2020
852 Rain 2 1013 100 10000 0.5 0 08:43 24.12.2020
853 Clouds 3 1013 73 10000 0.5 0 07:43 24.12.2020
854 Clouds 2 1013 72 10000 0.5 0 07:21 24.12.2020
855 Clouds 2 1014 66 10000 2.1 230 05:56 24.12.2020
856 Clouds 3 1014 93 10000 3.6 260 02:33 24.12.2020
857 Clouds 3 1014 93 10000 5.1 270 01:45 24.12.2020
858 Clouds 3 1015 93 10000 2.6 280 01:18 24.12.2020
859 Clouds 3 1015 93 10000 4.1 250 00:22 24.12.2020
860 Clouds 3 1015 93 10000 3.1 280 23:49 23.12.2020
861 Clouds 3 1015 93 10000 3.1 280 23:49 23.12.2020
862 Clouds 3 1016 93 10000 3.1 280 23:31 23.12.2020
863 Clouds 4 1016 93 10000 2.1 270 22:59 23.12.2020
864 Clouds 3 1016 100 10000 2.6 240 22:39 23.12.2020
865 Clouds 3 1016 93 10000 0.5 0 22:18 23.12.2020
866 Clouds 3 1016 100 10000 1.5 250 21:31 23.12.2020
867 Clouds 3 1016 100 10000 1 0 20:56 23.12.2020
868 Clouds 4 1016 100 10000 1 0 20:37 23.12.2020
869 Clouds 4 1016 93 10000 2.1 230 20:19 23.12.2020
870 Clouds 4 1016 100 10000 2.1 260 19:40 23.12.2020
871 Clouds 6 1016 93 10000 1 0 19:21 23.12.2020
872 Clouds 6 1017 93 10000 1.5 270 18:49 23.12.2020
873 Clouds 5 1017 93 10000 1.5 270 18:30 23.12.2020
874 Clouds 6 1017 93 10000 3.1 260 17:42 23.12.2020
875 Clear 6 1017 93 10000 1 0 17:22 23.12.2020
876 Clear 6 1017 87 10000 0.5 0 16:49 23.12.2020
877 Clear 7 1017 87 10000 0.5 0 16:30 23.12.2020
878 Clear 7 1017 81 10000 1 0 15:59 23.12.2020
879 Clear 7 1017 87 10000 0.5 0 15:39 23.12.2020
880 Clear 8 1018 81 10000 0.5 0 15:20 23.12.2020
881 Clear 8 1018 87 10000 0.5 0 14:42 23.12.2020
882 Clear 8 1018 87 10000 0.5 0 14:21 23.12.2020
883 Clear 7 1019 87 10000 0.5 0 13:45 23.12.2020
884 Clear 7 1019 87 10000 1 0 13:20 23.12.2020
885 Clear 7 1019 87 10000 1 0 12:54 23.12.2020
886 Clouds 5 1019 93 10000 1 0 12:30 23.12.2020
887 Clouds 4 1020 93 10000 0.5 0 11:56 23.12.2020
888 Clouds 5 1021 100 10000 0.5 0 11:32 23.12.2020
889 Clouds 5 1021 100 10000 0.5 0 10:56 23.12.2020
890 Clouds 5 1021 100 10000 0.5 0 10:37 23.12.2020
891 Clouds 2 1021 100 10000 0.5 0 09:38 23.12.2020
892 Clouds 3 1021 100 10000 1 0 08:57 23.12.2020
893 Clouds 4 1021 100 10000 0.5 0 08:31 23.12.2020
894 Clouds 3 1021 100 10000 0.5 0 07:48 23.12.2020
895 Fog 1 1022 100 300 1.5 270 06:42 23.12.2020
896 Fog 3 1022 100 350 2.1 260 05:58 23.12.2020
897 Fog 3 1022 100 250 1.5 280 05:22 23.12.2020
898 Fog 4 1023 100 400 3.6 260 01:57 23.12.2020
899 Fog 4 1023 100 500 2.1 260 00:32 23.12.2020
900 Mist 4 1024 100 5000 0.5 0 23:41 22.12.2020
901 Mist 5 1024 100 5000 0.5 0 23:22 22.12.2020
902 Clouds 5 1024 100 6000 1 0 22:42 22.12.2020
903 Clouds 5 1024 100 6000 1 0 22:24 22.12.2020
904 Mist 5 1023 100 1400 1 0 21:50 22.12.2020
905 Mist 5 1024 100 4400 1 0 21:20 22.12.2020
906 Mist 5 1024 100 4400 1 0 20:54 22.12.2020
907 Clouds 5 1023 100 10000 1.5 160 20:35 22.12.2020
908 Clouds 5 1023 100 10000 2.1 240 19:56 22.12.2020
909 Clouds 5 1023 93 10000 1 0 19:38 22.12.2020
910 Clouds 5 1023 93 10000 2.1 240 19:19 22.12.2020
911 Clouds 6 1023 93 10000 1 0 18:43 22.12.2020
912 Clouds 6 1023 93 10000 1 0 18:24 22.12.2020
913 Clouds 6 1023 100 10000 0.5 0 17:38 22.12.2020
914 Clouds 6 1022 93 10000 0.5 0 17:18 22.12.2020
915 Rain 7 1022 93 10000 0.5 0 16:47 22.12.2020
916 Rain 6 1022 93 10000 1.5 260 16:21 22.12.2020
917 Clear 7 1022 87 10000 1 0 15:47 22.12.2020
918 Clear 7 1022 87 10000 1 0 15:29 22.12.2020
919 Clouds 7 1021 87 10000 1 0 14:57 22.12.2020
920 Clouds 7 1021 87 10000 1 0 14:39 22.12.2020
921 Clouds 7 1022 87 10000 0.5 0 14:19 22.12.2020
922 Clouds 7 1022 87 10000 0.5 0 13:43 22.12.2020
923 Clouds 7 1022 93 10000 1 0 13:19 22.12.2020
924 Clouds 6 1022 93 10000 0.5 0 12:46 22.12.2020
925 Clouds 6 1022 93 10000 0.5 0 12:27 22.12.2020
926 Clouds 5 1023 100 10000 0.5 0 11:57 22.12.2020
927 Clouds 5 1023 100 10000 0.5 0 11:39 22.12.2020
928 Clouds 5 1023 100 10000 0.5 0 11:19 22.12.2020
929 Clouds 4 1023 100 10000 0.5 0 10:51 22.12.2020
930 Fog 3 1023 100 1200 1.5 280 10:24 22.12.2020
931 Fog 3 1023 100 1200 1.5 280 09:56 22.12.2020
932 Fog 3 1023 100 700 1 0 09:23 22.12.2020
933 Fog 2 1022 100 4000 1.5 270 08:53 22.12.2020
934 Fog 2 1022 100 4000 1.5 270 08:29 22.12.2020
935 Fog 2 1022 100 500 2.6 270 07:48 22.12.2020
936 Clouds 3 1022 100 10000 1.5 300 06:48 22.12.2020
937 Clouds 3 1022 93 10000 2.6 290 05:47 22.12.2020
938 Clouds 4 1023 93 10000 2.6 280 03:40 22.12.2020
939 Rain 5 1023 93 10000 6.2 280 00:47 22.12.2020
940 Rain 5 1023 86 10000 4.6 280 23:55 21.12.2020
941 Rain 5 1022 86 10000 4.6 290 23:37 21.12.2020
942 Clouds 4 1022 86 10000 3.6 270 22:39 21.12.2020
943 Rain 4 1023 86 10000 1 0 22:20 21.12.2020
944 Rain 4 1023 86 10000 1 0 22:20 21.12.2020
945 Clouds 3 1023 86 10000 1 0 21:59 21.12.2020
946 Rain 3 1023 86 10000 2.1 250 21:40 21.12.2020
947 Rain 3 1023 86 10000 3.1 260 21:22 21.12.2020
948 Rain 4 1023 86 10000 2.6 260 20:36 21.12.2020
949 Rain 4 1022 86 10000 1.5 220 20:18 21.12.2020
950 Rain 4 1022 86 10000 1.5 220 20:18 21.12.2020
951 Clouds 4 1023 86 10000 0.5 0 19:44 21.12.2020
952 Clouds 4 1023 67 10000 0.5 0 19:19 21.12.2020
953 Clouds 4 1023 80 10000 2.6 250 18:52 21.12.2020
954 Clouds 4 1023 80 10000 2.6 250 18:34 21.12.2020
955 Clouds 4 1023 80 10000 0.5 0 17:43 21.12.2020
956 Clouds 4 1023 80 10000 1 0 17:24 21.12.2020
957 Clouds 4 1023 80 10000 1 0 16:48 21.12.2020
958 Clouds 5 1023 75 10000 0.5 0 16:27 21.12.2020
959 Clouds 6 1023 75 10000 0.5 0 15:57 21.12.2020
960 Clouds 6 1023 75 10000 0.5 0 15:37 21.12.2020
961 Clouds 6 1023 75 10000 1 0 14:57 21.12.2020
962 Clouds 5 1023 69 10000 1 0 14:21 21.12.2020
963 Clouds 5 1024 69 10000 2.1 240 13:45 21.12.2020
964 Clouds 5 1024 67 10000 2.1 240 13:26 21.12.2020
965 Clouds 4 1024 67 10000 1.5 240 12:45 21.12.2020
966 Clouds 3 1024 66 10000 1.5 240 12:25 21.12.2020
967 Clouds 3 1025 66 10000 2.6 260 11:58 21.12.2020
968 Clouds 3 1026 66 10000 2.6 270 11:40 21.12.2020
969 Clouds 2 1026 86 10000 1 0 11:22 21.12.2020
970 Clouds 2 1026 86 10000 1 0 10:48 21.12.2020
971 Clouds 2 1026 86 10000 1 0 10:30 21.12.2020
972 Clouds 0 1026 100 10000 2.1 250 09:47 21.12.2020
973 Clouds 0 1026 100 10000 2.1 250 09:25 21.12.2020
974 Clouds 0 1026 100 10000 1 0 08:52 21.12.2020
975 Clouds 0 1026 92 10000 1 0 07:52 21.12.2020
976 Clouds 0 1026 92 10000 1 0 07:52 21.12.2020
977 Clouds 0 1026 78 10000 1 0 06:47 21.12.2020
978 Clouds 1 1026 76 10000 1 0 04:49 21.12.2020
979 Clouds 1 1026 86 10000 0.5 0 01:26 21.12.2020
980 Clouds 2 1025 86 10000 0.5 0 00:32 21.12.2020
981 Clouds 1 1025 86 10000 0.5 0 23:36 20.12.2020
982 Clouds 1 1024 73 10000 1 0 22:59 20.12.2020
983 Clouds 1 1024 73 10000 1 250 22:41 20.12.2020
984 Clouds 0 1024 73 10000 1 250 22:22 20.12.2020
985 Clouds 0 1024 73 10000 1 0 21:40 20.12.2020
986 Clouds 0 1023 92 10000 0.5 0 21:20 20.12.2020
987 Clouds 0 1023 92 10000 0.5 0 20:51 20.12.2020
988 Clear 0 1023 86 10000 1 0 20:24 20.12.2020
989 Clear 1 1023 72 10000 0.5 0 19:46 20.12.2020
990 Clear 1 1023 72 10000 0.5 0 19:46 20.12.2020
991 Clear 1 1023 70 10000 0.5 0 19:28 20.12.2020
992 Clear 1 1023 71 10000 0.5 0 18:58 20.12.2020
993 Clear 2 1022 86 10000 0.5 0 18:38 20.12.2020
994 Clear 2 1022 86 10000 0.5 0 18:19 20.12.2020
995 Clear 2 1022 80 10000 0.5 0 17:43 20.12.2020
996 Clear 3 1022 80 10000 0.5 0 17:22 20.12.2020
997 Clear 3 1021 74 10000 1 0 16:45 20.12.2020
998 Clear 4 1021 65 10000 1 0 16:25 20.12.2020
999 Clear 5 1021 65 10000 1 240 15:47 20.12.2020
1000 Clear 5 1021 65 10000 1 240 15:24 20.12.2020
1001 Clear 5 1021 65 10000 0.5 0 14:54 20.12.2020
1002 Clear 5 1021 65 10000 0.5 0 14:30 20.12.2020
1003 Clear 4 1022 64 10000 0.5 0 13:47 20.12.2020
1004 Clear 5 1022 64 10000 0.5 0 13:25 20.12.2020
1005 Clear 5 1022 64 10000 2.1 270 12:58 20.12.2020
1006 Clear 4 1022 74 10000 3.1 270 12:39 20.12.2020
1007 Clear 3 1022 74 10000 1 0 12:19 20.12.2020
1008 Clear 3 1023 74 10000 0.5 0 11:42 20.12.2020
1009 Clear 3 1023 80 10000 1 0 10:59 20.12.2020
1010 Clear 2 1023 62 10000 1 0 10:41 20.12.2020
1011 Clear 1 1023 86 10000 0.5 0 10:20 20.12.2020
1012 Clear 0 1023 92 10000 1 0 09:45 20.12.2020
1013 Clear 0 1023 92 10000 1 0 09:27 20.12.2020
1014 Clear 0 1023 92 10000 1 0 09:27 20.12.2020
1015 Clear -2 1023 92 10000 0.5 0 08:52 20.12.2020
1016 Clear -1 1023 92 10000 0.5 0 08:33 20.12.2020
1017 Clear -1 1023 92 10000 1 0 07:23 20.12.2020
1018 Clear -1 1023 92 10000 1 0 07:23 20.12.2020
1019 Clouds -1 1023 86 10000 1.5 290 05:44 20.12.2020
1020 Clear 0 1024 80 10000 1.5 260 01:35 20.12.2020
1021 Clouds 0 1024 86 10000 2.1 300 00:37 20.12.2020
1022 Clouds 0 1024 86 10000 2.6 270 23:20 19.12.2020
1023 Clouds 0 1024 86 10000 2.6 270 22:56 19.12.2020
1024 Clouds -1 1024 86 10000 3.1 290 22:37 19.12.2020
1025 Clear 0 1024 80 10000 2.6 280 22:19 19.12.2020
1026 Clear 1 1024 74 10000 2.1 250 21:42 19.12.2020
1027 Clear 1 1024 74 10000 2.1 250 21:23 19.12.2020
1028 Clear 1 1024 86 10000 2.6 270 20:44 19.12.2020
1029 Clear 1 1024 86 10000 2.6 270 20:21 19.12.2020
1030 Clear 1 1024 74 10000 2.1 260 19:51 19.12.2020
1031 Clear 2 1024 74 10000 3.1 250 19:33 19.12.2020
1032 Clear 2 1023 74 10000 3.6 260 18:41 19.12.2020
1033 Clear 2 1023 74 10000 3.6 260 18:23 19.12.2020
1034 Clear 2 1023 74 10000 2.6 280 17:48 19.12.2020
1035 Clear 3 1022 69 10000 4.6 270 17:24 19.12.2020
1036 Clear 3 1022 64 10000 4.1 280 16:45 19.12.2020
1037 Clear 5 1022 64 10000 4.1 280 16:27 19.12.2020
1038 Clear 5 1022 60 10000 5.1 270 15:59 19.12.2020
1039 Clear 6 1022 56 10000 5.1 270 15:40 19.12.2020
1040 Clear 8 1022 52 10000 5.1 270 14:43 19.12.2020
1041 Clear 9 1022 52 10000 5.1 270 14:22 19.12.2020
1042 Clear 8 1022 56 10000 7.2 270 13:41 19.12.2020
1043 Clear 7 1022 60 10000 6.7 270 13:20 19.12.2020
1044 Clear 6 1023 64 10000 6.2 270 12:45 19.12.2020
1045 Clear 5 1023 64 10000 6.2 270 12:26 19.12.2020
1046 Clear 5 1023 64 10000 6.2 270 11:58 19.12.2020
1047 Clear 4 1023 69 10000 5.7 280 11:40 19.12.2020
1048 Clear 1 1023 80 10000 4.6 280 10:45 19.12.2020
1049 Clear 1 1023 80 10000 4.6 280 10:27 19.12.2020
1050 Clear 0 1023 66 10000 2.6 280 09:58 19.12.2020
1051 Clear -2 1023 86 10000 2.1 290 09:38 19.12.2020
1052 Clear -1 1023 80 10000 1.5 0 08:37 19.12.2020
1053 Clear -2 1023 86 10000 2.6 280 07:53 19.12.2020
1054 Clear -3 1023 92 10000 1.5 270 07:18 19.12.2020
1055 Clear -5 1023 100 10000 0.5 0 06:39 19.12.2020
1056 Clear -2 1023 92 10000 0.5 0 05:19 19.12.2020
1057 Clear -2 1024 100 10000 0.5 0 03:28 19.12.2020
1058 Clear -2 1025 92 10000 0.5 0 00:41 19.12.2020
1059 Clear -2 1025 92 10000 0.5 0 00:18 19.12.2020
1060 Clear -1 1025 92 10000 0.5 0 23:48 18.12.2020
1061 Clear -1 1025 92 10000 0.5 0 23:24 18.12.2020
1062 Clear -1 1026 86 10000 0.5 0 22:47 18.12.2020
1063 Clear -1 1026 86 10000 0.5 0 22:24 18.12.2020
1064 Clear -1 1026 86 10000 1 0 21:51 18.12.2020
1065 Clear -1 1026 86 10000 1 0 21:31 18.12.2020
1066 Clear 0 1025 92 10000 0.5 0 20:43 18.12.2020
1067 Clear 0 1025 92 10000 0.5 0 20:22 18.12.2020
1068 Clear 1 1025 72 10000 1 0 19:46 18.12.2020
1069 Clear 1 1025 71 10000 0.5 0 19:22 18.12.2020
1070 Clear 1 1025 71 10000 1 0 18:45 18.12.2020
1071 Clear 1 1025 69 10000 1 0 18:25 18.12.2020
1072 Clear 2 1025 80 10000 2.1 270 17:36 18.12.2020
1073 Clear 3 1025 74 10000 1 0 16:57 18.12.2020
1074 Clear 4 1025 69 10000 1.5 280 16:38 18.12.2020
1075 Clear 5 1025 64 10000 1 0 16:20 18.12.2020
1076 Clear 6 1025 56 10000 1.5 250 15:44 18.12.2020
1077 Clear 6 1025 56 10000 1.5 250 15:25 18.12.2020
1078 Clear 6 1025 56 10000 2.1 250 14:55 18.12.2020
1079 Clear 6 1025 60 10000 3.6 280 14:23 18.12.2020
1080 Clear 6 1026 60 10000 3.6 250 13:51 18.12.2020
1081 Clear 6 1026 60 10000 3.6 250 13:32 18.12.2020
1082 Clear 5 1026 64 10000 4.6 260 12:57 18.12.2020
1083 Clear 4 1027 69 10000 4.1 270 12:34 18.12.2020
1084 Clear 2 1028 80 10000 1.5 250 11:28 18.12.2020
1085 Clear 2 1028 61 10000 1 0 10:40 18.12.2020
1086 Clear 1 1028 61 10000 1 0 10:21 18.12.2020
1087 Clear 0 1028 92 10000 0.5 0 09:57 18.12.2020
1088 Clear -1 1028 92 10000 0.5 0 09:37 18.12.2020
1089 Clear -2 1028 92 10000 1 220 09:18 18.12.2020
1090 Clear -2 1028 92 10000 0.5 0 08:43 18.12.2020
1091 Clear -2 1028 92 10000 0.5 0 07:56 18.12.2020
1092 Clear -2 1028 92 10000 1 0 07:19 18.12.2020
1093 Clear -1 1027 92 10000 1.5 250 06:59 18.12.2020
1094 Clouds -2 1028 100 10000 0.5 0 05:44 18.12.2020
1095 Clouds -2 1028 100 10000 1 0 04:52 18.12.2020
1096 Clouds -1 1028 92 10000 1 0 03:35 18.12.2020
1097 Clouds 0 1028 92 10000 1.5 270 01:45 18.12.2020
1098 Clouds 0 1028 92 10000 1 0 00:29 18.12.2020
1099 Clouds 0 1028 92 10000 1.5 270 23:52 17.12.2020
1100 Clear 0 1028 92 10000 1 0 23:23 17.12.2020
1101 Clear 0 1028 92 10000 1 0 22:48 17.12.2020
1102 Clear 1 1028 92 10000 1 0 22:27 17.12.2020
1103 Clear 1 1028 92 10000 1 260 21:46 17.12.2020
1104 Clear 1 1028 92 10000 1 260 21:46 17.12.2020
1105 Clear 1 1028 92 10000 1 260 21:22 17.12.2020
1106 Clear 1 1028 92 10000 2.1 250 20:55 17.12.2020
1107 Clear 1 1028 92 10000 2.1 250 20:36 17.12.2020
1108 Clear 1 1028 73 10000 2.1 250 20:18 17.12.2020
1109 Clear 1 1028 73 10000 1 0 19:39 17.12.2020
1110 Clear 1 1027 80 10000 2.1 260 19:21 17.12.2020
1111 Clear 2 1027 80 10000 1.5 240 18:40 17.12.2020
1112 Clear 2 1027 86 10000 1 230 18:19 17.12.2020
1113 Clear 2 1026 80 10000 0.5 0 17:46 17.12.2020
1114 Clear 3 1026 74 10000 2.1 230 17:27 17.12.2020
1115 Clear 4 1026 74 10000 0.5 0 16:41 17.12.2020
1116 Clear 5 1025 66 10000 0.5 0 16:22 17.12.2020
1117 Clear 6 1025 66 10000 0.5 0 15:50 17.12.2020
1118 Clear 7 1025 62 10000 1.5 170 15:28 17.12.2020
1119 Clear 8 1025 62 10000 1 0 14:50 17.12.2020
1120 Clear 7 1025 64 10000 1 0 14:28 17.12.2020
1121 Clear 7 1025 64 10000 1 0 13:50 17.12.2020
1122 Clear 7 1025 60 10000 1.5 250 13:23 17.12.2020
1123 Clear 6 1025 62 10000 1.5 260 12:43 17.12.2020
1124 Clear 5 1025 60 10000 1 0 12:24 17.12.2020
1125 Clear 4 1025 60 10000 0.5 0 11:43 17.12.2020
1126 Clear 4 1025 58 10000 0.5 0 11:22 17.12.2020
1127 Clear 2 1025 86 10000 1 0 10:49 17.12.2020
1128 Clear 1 1025 100 10000 1.5 240 09:42 17.12.2020
1129 Clear 0 1025 92 10000 1 0 09:21 17.12.2020
1130 Clear 0 1024 92 10000 0.5 0 07:49 17.12.2020
1131 Clear 0 1023 92 10000 1.5 250 07:28 17.12.2020
1132 Clear 1 1023 92 10000 3.1 260 06:51 17.12.2020
1133 Clear 1 1023 92 10000 3.1 260 06:32 17.12.2020
1134 Clear 0 1022 100 10000 2.1 260 03:55 17.12.2020
1135 Clear 1 1022 70 10000 2.6 250 00:29 17.12.2020
1136 Clear 1 1022 70 10000 4.1 280 23:50 16.12.2020
1137 Clear 1 1022 70 10000 3.6 290 23:19 16.12.2020
1138 Clear 1 1022 70 10000 3.6 290 23:19 16.12.2020
1139 Clear 1 1022 100 10000 3.6 250 22:50 16.12.2020
1140 Clear 2 1022 100 10000 3.6 250 22:31 16.12.2020
1141 Clear 2 1021 70 10000 2.6 260 21:46 16.12.2020
1142 Clear 2 1021 70 10000 2.6 260 21:26 16.12.2020
1143 Clear 2 1021 70 10000 3.6 280 20:52 16.12.2020
1144 Clear 2 1021 69 10000 3.6 280 20:21 16.12.2020
1145 Clear 3 1020 69 10000 2.6 250 19:45 16.12.2020
1146 Clear 3 1020 93 10000 2.6 250 19:18 16.12.2020
1147 Clear 3 1020 93 10000 2.6 250 18:52 16.12.2020
1148 Clear 3 1020 93 10000 2.6 270 18:27 16.12.2020
1149 Clear 4 1019 86 10000 0.5 0 17:43 16.12.2020
1150 Clouds 4 1019 80 10000 1.5 150 16:58 16.12.2020
1151 Clouds 6 1019 70 10000 2.1 110 16:38 16.12.2020
1152 Clouds 6 1019 70 10000 2.1 110 16:19 16.12.2020
1153 Clouds 7 1019 70 10000 1 0 15:48 16.12.2020
1154 Clouds 7 1019 70 10000 2.6 80 15:23 16.12.2020
1155 Clouds 7 1019 70 10000 1 0 14:46 16.12.2020
1156 Clouds 7 1019 70 10000 1 0 14:27 16.12.2020
1157 Clouds 7 1019 81 10000 4.1 280 13:42 16.12.2020
1158 Clouds 7 1019 81 10000 4.1 280 13:21 16.12.2020
1159 Clouds 6 1019 86 10000 4.1 290 12:46 16.12.2020
1160 Clouds 6 1019 80 10000 5.1 280 12:20 16.12.2020
1161 Clouds 6 1019 86 10000 4.6 280 11:38 16.12.2020
1162 Clouds 5 1019 86 10000 3.1 290 11:19 16.12.2020
1163 Clouds 3 1019 93 10000 2.1 260 10:41 16.12.2020
1164 Clouds 2 1019 93 10000 1 0 10:18 16.12.2020
1165 Clouds 1 1019 100 10000 3.1 250 09:34 16.12.2020
1166 Clouds 1 1018 68 10000 0.5 0 08:23 16.12.2020
1167 Clouds 3 1018 100 10000 1 0 07:47 16.12.2020
1168 Rain 2 1018 100 10000 1 0 07:29 16.12.2020
1169 Rain 2 1018 66 10000 1 0 05:42 16.12.2020
1170 Rain 2 1018 100 10000 1.5 260 02:22 16.12.2020
1171 Clouds 2 1019 69 10000 0.5 0 23:59 15.12.2020
1172 Clouds 2 1019 100 10000 1 0 23:40 15.12.2020
1173 Clouds 2 1018 100 10000 2.1 240 22:44 15.12.2020
1174 Clouds 2 1018 100 10000 2.1 240 22:23 15.12.2020
1175 Clouds 3 1018 93 10000 1 0 21:49 15.12.2020
1176 Clouds 3 1018 93 10000 1 0 21:24 15.12.2020
1177 Clouds 3 1018 93 10000 0.5 0 20:46 15.12.2020
1178 Clouds 3 1018 93 10000 0.5 0 20:27 15.12.2020
1179 Clouds 3 1017 93 10000 1 0 19:55 15.12.2020
1180 Clouds 4 1017 93 10000 1 0 19:35 15.12.2020
1181 Clouds 3 1017 86 10000 0.5 0 18:57 15.12.2020
1182 Clouds 4 1016 86 10000 1.5 260 18:38 15.12.2020
1183 Clouds 4 1016 86 10000 1.5 260 18:20 15.12.2020
1184 Clouds 4 1016 80 10000 1 0 17:41 15.12.2020
1185 Clouds 4 1016 80 10000 1 0 17:21 15.12.2020
1186 Clouds 6 1015 81 10000 3.6 290 16:34 15.12.2020
1187 Clouds 6 1015 75 10000 4.6 270 15:59 15.12.2020
1188 Rain 6 1014 75 10000 3.1 260 15:34 15.12.2020
1189 Rain 8 1014 70 10000 4.1 290 14:53 15.12.2020
1190 Rain 8 1014 75 10000 6.2 280 14:27 15.12.2020
1191 Rain 8 1014 75 10000 7.2 270 13:59 15.12.2020
1192 Clouds 7 1014 81 10000 7.2 270 13:40 15.12.2020
1193 Clouds 7 1014 81 10000 7.2 270 13:22 15.12.2020
1194 Clouds 7 1014 75 10000 7.2 270 12:43 15.12.2020
1195 Clouds 6 1015 86 10000 3.6 290 12:18 15.12.2020
1196 Clouds 6 1015 80 10000 4.1 290 11:43 15.12.2020
1197 Clouds 5 1015 86 10000 2.1 310 11:20 15.12.2020
1198 Clouds 5 1015 93 10000 1 0 10:44 15.12.2020
1199 Clouds 4 1015 93 10000 1 0 10:19 15.12.2020
1200 Clouds 3 1015 59 10000 1 70 09:39 15.12.2020
1201 Clouds 3 1015 62 10000 1 0 09:21 15.12.2020
1202 Clouds 3 1014 62 10000 1 0 08:37 15.12.2020
1203 Clouds 3 1014 93 10000 1 0 08:19 15.12.2020
1204 Clouds 3 1014 93 10000 1.5 270 07:40 15.12.2020
1205 Clouds 2 1015 93 10000 1.5 0 06:51 15.12.2020
1206 Snow 2 1015 67 10000 1.5 50 05:27 15.12.2020
1207 Clouds 1 1016 66 10000 1 0 00:38 15.12.2020
1208 Clouds 2 1016 64 10000 1 0 23:48 14.12.2020
1209 Clouds 2 1016 64 10000 1 0 23:19 14.12.2020
1210 Clear 2 1016 64 10000 1 130 22:39 14.12.2020
1211 Clear 2 1016 63 10000 0.5 0 21:56 14.12.2020
1212 Clear 2 1016 63 10000 0.5 0 21:36 14.12.2020
1213 Clear 2 1016 62 10000 0.5 0 21:18 14.12.2020
1214 Clear 2 1016 62 10000 0.5 0 20:43 14.12.2020
1215 Clear 2 1017 63 10000 1 0 20:24 14.12.2020
1216 Clear 2 1017 63 10000 1.5 240 19:39 14.12.2020
1217 Clear 2 1017 63 10000 1.5 240 19:21 14.12.2020
1218 Clear 3 1017 62 10000 0.5 0 18:42 14.12.2020
1219 Clear 2 1017 62 10000 1 0 18:22 14.12.2020
1220 Clear 2 1017 86 10000 1 300 17:38 14.12.2020
1221 Clear 2 1016 80 10000 1 0 17:19 14.12.2020
1222 Clear 3 1016 80 10000 1 0 16:40 14.12.2020
1223 Clear 3 1016 59 10000 1.5 150 16:22 14.12.2020
1224 Clear 5 1016 59 10000 4.1 290 15:33 14.12.2020
1225 Clear 5 1016 59 10000 4.1 290 15:33 14.12.2020
1226 Clouds 5 1017 61 10000 4.6 270 14:50 14.12.2020
1227 Clouds 5 1017 67 10000 4.6 270 14:29 14.12.2020
1228 Clouds 5 1017 67 10000 5.1 270 13:56 14.12.2020
1229 Clouds 4 1017 67 10000 5.1 280 13:34 14.12.2020
1230 Clouds 3 1017 74 10000 3.6 260 12:56 14.12.2020
1231 Clouds 3 1018 69 10000 4.6 270 12:32 14.12.2020
1232 Clouds 2 1018 80 10000 4.1 270 11:56 14.12.2020
1233 Clouds 1 1018 86 10000 2.6 260 11:23 14.12.2020
1234 Fog 0 1018 100 10000 1 0 10:28 14.12.2020
1235 Clouds -1 1018 100 500 1 230 09:53 14.12.2020
1236 Clouds -1 1018 100 400 1.5 260 08:57 14.12.2020
1237 Clouds -1 1018 100 400 1.5 250 08:39 14.12.2020
1238 Fog -1 1018 100 500 2.6 270 07:59 14.12.2020
1239 Clouds -1 1018 100 600 1.5 250 07:19 14.12.2020
1240 Clouds -1 1018 100 800 2.1 230 06:42 14.12.2020
1241 Clouds 0 1017 82 6000 1 0 03:58 14.12.2020
1242 Clouds 0 1017 84 10000 1 0 02:23 14.12.2020
1243 Clouds -1 1017 100 7000 0.5 0 00:49 14.12.2020
1244 Clouds 1 1016 93 10000 0.5 0 00:27 14.12.2020
1245 Clouds 1 1016 93 10000 2.1 250 23:44 13.12.2020
1246 Clouds 1 1016 93 10000 1.5 260 22:58 13.12.2020
1247 Clouds 1 1016 100 10000 1.5 270 22:39 13.12.2020
1248 Clouds 1 1016 100 10000 1.5 290 22:18 13.12.2020
1249 Clouds 2 1016 100 10000 2.6 270 21:41 13.12.2020
1250 Clouds 2 1016 100 10000 2.6 280 20:57 13.12.2020
1251 Clouds 2 1016 100 10000 1.5 240 20:32 13.12.2020
1252 Clouds 2 1015 100 10000 1.5 250 19:49 13.12.2020
1253 Clouds 2 1015 100 10000 1.5 250 19:24 13.12.2020
1254 Clouds 2 1015 100 10000 1 0 18:57 13.12.2020
1255 Clouds 2 1015 100 10000 0.8 164 18:38 13.12.2020
1256 Clouds 2 1015 100 10000 0.5 0 18:18 13.12.2020
1257 Clouds 2 1015 93 10000 1 300 17:45 13.12.2020
1258 Clouds 2 1014 93 10000 0.5 0 17:18 13.12.2020
1259 Clouds 2 1014 93 10000 1 160 16:50 13.12.2020
1260 Clouds 3 1014 93 10000 1 160 16:31 13.12.2020
1261 Clouds 3 1014 93 10000 1 0 15:48 13.12.2020
1262 Clouds 4 1014 86 10000 1.5 260 15:27 13.12.2020
1263 Clouds 3 1013 86 10000 0.5 0 14:48 13.12.2020
1264 Clouds 3 1013 86 10000 0.5 0 14:29 13.12.2020
1265 Clouds 3 1013 93 10000 2.1 260 13:56 13.12.2020
1266 Clouds 4 1013 86 10000 1 0 13:35 13.12.2020
1267 Clouds 3 1013 93 10000 1 0 12:59 13.12.2020
1268 Clouds 3 1013 93 10000 0.5 0 12:26 13.12.2020
1269 Clouds 2 1013 93 10000 0.5 0 11:59 13.12.2020
1270 Clouds 2 1013 93 10000 1 270 11:33 13.12.2020
1271 Snow 2 1013 100 10000 0.5 0 10:45 13.12.2020
1272 Clouds 1 1013 100 10000 0.5 0 10:24 13.12.2020
1273 Clouds 1 1012 73 8000 0.5 0 09:47 13.12.2020
1274 Rain 1 1011 79 8000 1 260 08:52 13.12.2020
1275 Clouds 1 1011 79 6000 1 0 08:31 13.12.2020
1276 Snow 1 1010 86 6000 1 360 07:26 13.12.2020
1277 Snow 1 1009 86 8000 1.5 340 03:26 13.12.2020
1278 Clouds 1 1008 86 10000 1 0 02:32 13.12.2020
1279 Snow 1 1007 86 10000 1.5 230 01:37 13.12.2020
1280 Clouds 1 1007 87 10000 1.5 230 00:45 13.12.2020
1281 Clouds 0 1006 87 10000 0.5 0 23:45 12.12.2020
1282 Clouds 0 1006 87 10000 0.5 0 23:27 12.12.2020
1283 Clouds 1 1006 86 10000 1 0 22:37 12.12.2020
1284 Clouds 1 1005 86 10000 1.5 260 21:49 12.12.2020
1285 Clouds 1 1005 86 10000 1.5 260 21:31 12.12.2020
1286 Clouds 1 1005 86 10000 0.5 0 20:48 12.12.2020
1287 Clouds 1 1005 86 10000 0.5 0 20:21 12.12.2020
1288 Clouds 1 1004 86 10000 0.5 0 19:54 12.12.2020
1289 Clouds 1 1004 86 10000 1 160 19:34 12.12.2020
1290 Clouds 2 1004 86 10000 1 0 18:58 12.12.2020
1291 Clouds 2 1003 86 10000 0.5 0 18:40 12.12.2020
1292 Clouds 1 1003 86 10000 0.5 0 18:22 12.12.2020
1293 Clouds 2 1002 80 10000 1 0 17:41 12.12.2020
1294 Clouds 3 1002 69 10000 1.5 270 16:52 12.12.2020
1295 Clouds 3 1001 74 10000 1.5 280 15:59 12.12.2020
1296 Clouds 3 1001 69 10000 2.1 270 15:40 12.12.2020
1297 Clouds 3 1000 69 10000 4.1 270 14:54 12.12.2020
1298 Clouds 3 1000 69 10000 4.6 270 14:35 12.12.2020
1299 Clouds 3 1000 69 10000 4.6 260 13:47 12.12.2020
1300 Clouds 3 1000 69 10000 4.6 260 13:26 12.12.2020
1301 Clouds 3 1000 74 10000 2.6 290 12:43 12.12.2020
1302 Clouds 1 1000 80 10000 3.1 280 11:39 12.12.2020
1303 Clouds 1 1000 80 10000 2.6 280 10:51 12.12.2020
1304 Clouds 1 999 86 10000 0.5 0 09:25 12.12.2020
1305 Clouds -1 999 86 10000 4.1 290 08:42 12.12.2020
1306 Clouds 1 999 87 10000 5.1 260 01:59 12.12.2020
1307 Snow 1 1000 87 10000 4.1 270 23:40 11.12.2020
1308 Clouds 1 999 92 10000 4.6 280 22:21 11.12.2020
1309 Clouds 0 1000 92 10000 5.1 270 19:57 11.12.2020
1310 Clouds 2 999 74 10000 5.1 250 17:30 11.12.2020
1311 Clear 2 1000 74 10000 4.6 280 14:39 11.12.2020
1312 Clear 2 1000 74 10000 5.1 270 13:57 11.12.2020
1313 Clear 1 1001 70 10000 7.2 270 12:36 11.12.2020
1314 Clear -1 1001 80 10000 6.2 270 11:56 11.12.2020
1315 Clear 0 1002 86 10000 6.2 260 11:37 11.12.2020
1316 Clear -3 1003 86 10000 6.7 260 10:41 11.12.2020
1317 Clear -4 1004 92 10000 3.1 270 07:51 11.12.2020
1318 Clear -3 1005 92 10000 1 0 05:38 11.12.2020
1319 Clear -4 1006 100 10000 1.5 260 04:47 11.12.2020
1320 Clouds -3 1006 92 10000 1 0 01:20 11.12.2020
1321 Clouds -3 1007 92 4000 1.5 240 23:37 10.12.2020
1322 Clouds -2 1007 92 10000 2.1 250 22:24 10.12.2020
1323 Clouds -2 1007 92 10000 2.1 270 21:35 10.12.2020
1324 Clouds -2 1006 92 10000 1.5 250 20:39 10.12.2020
1325 Clouds -1 1006 92 10000 1 0 19:37 10.12.2020
1326 Clouds -1 1005 92 10000 1 0 18:50 10.12.2020
1327 Clouds 0 1005 86 10000 1.5 240 17:45 10.12.2020
1328 Clouds 2 1004 76 10000 1.5 190 16:24 10.12.2020
1329 Clouds 3 1003 70 10000 1.5 250 15:25 10.12.2020
1330 Clouds 3 1003 70 10000 1.5 250 14:48 10.12.2020
1331 Clouds 3 1004 68 10000 2.1 240 14:24 10.12.2020
1332 Clouds 1 1005 86 10000 2.1 260 12:33 10.12.2020
1333 Clouds 1 1005 86 7000 2.1 270 11:32 10.12.2020
1334 Mist 1 1006 86 5000 1 60 08:47 10.12.2020
1335 Mist 1 1006 100 4000 0.5 0 07:37 10.12.2020
1336 Mist 1 1006 88 4000 1.5 280 06:40 10.12.2020
1337 Mist 1 1007 100 4300 0.5 0 02:53 10.12.2020
1338 Mist 0 1008 100 3500 0.5 0 01:58 10.12.2020
1339 Clouds 1 1008 100 6000 1.5 270 23:50 09.12.2020
1340 Clouds 1 1008 100 6000 1.01 254 20:43 09.12.2020
1341 Clouds 1 1008 100 6000 0.91 282 20:24 09.12.2020
1342 Rain 1 1007 100 6000 0.5 0 18:58 09.12.2020
1343 Rain 1 1007 100 7000 1 270 17:39 09.12.2020
1344 Clouds 1 1006 100 7000 1 0 16:40 09.12.2020
1345 Clouds 1 1006 100 6000 0.5 0 16:20 09.12.2020
1346 Clouds 1 1006 74 6000 1 0 14:53 09.12.2020
1347 Snow 1 1006 73 5000 0.5 0 14:27 09.12.2020
1348 Snow 1 1006 73 3000 0.5 0 13:51 09.12.2020
1349 Snow 1 1006 75 1800 0.5 0 13:18 09.12.2020
1350 Snow 0 1007 73 1400 0.5 0 12:43 09.12.2020
1351 Rain 0 1007 75 2000 0.5 0 11:46 09.12.2020
1352 Snow 0 1006 77 1500 0.5 0 10:31 09.12.2020
1353 Snow 0 1006 81 2000 0.5 0 08:45 09.12.2020
1354 Snow 1 1005 82 8000 0.5 0 07:42 09.12.2020
1355 Clouds 0 1005 81 10000 1 0 05:42 09.12.2020
1356 Clouds 0 1004 100 10000 1 0 02:59 09.12.2020
1357 Clouds 0 1003 76 10000 1 0 01:21 09.12.2020
1358 Clouds 1 1002 74 10000 1.5 310 23:41 08.12.2020
1359 Clouds 1 1002 74 10000 1 0 22:43 08.12.2020
1360 Rain 1 1001 73 10000 1.5 260 20:50 08.12.2020
1361 Clouds 1 1001 69 10000 2.1 270 19:32 08.12.2020
1362 Clouds 2 1001 69 10000 3.1 280 18:57 08.12.2020
1363 Clouds 2 1001 72 10000 2.1 280 17:28 08.12.2020
1364 Clouds 2 1000 71 10000 2.6 290 15:43 08.12.2020
1365 Clouds 2 1001 60 10000 2.6 270 13:59 08.12.2020
1366 Clouds 1 1001 58 10000 3.6 270 13:24 08.12.2020
1367 Clouds 2 1002 86 10000 3.1 280 12:23 08.12.2020
1368 Clouds 1 1003 60 10000 2.6 280 11:39 08.12.2020
1369 Clouds 2 1003 63 10000 5.1 280 10:43 08.12.2020
1370 Clouds 0 1003 92 10000 4.6 270 09:47 08.12.2020
1371 Clouds 0 1003 92 10000 4.1 270 07:50 08.12.2020
1372 Clouds -1 1003 92 10000 4.6 280 06:33 08.12.2020
1373 Clouds -1 1003 100 10000 3.6 280 02:59 08.12.2020
1374 Clouds -1 1003 100 10000 3.6 270 00:45 08.12.2020
1375 Mist 0 1003 100 3500 3.6 260 23:50 07.12.2020
1376 Mist -1 1003 100 4600 2.6 280 22:33 07.12.2020
1377 Clouds 0 1003 81 10000 3.1 240 21:49 07.12.2020
1378 Clouds 0 1002 80 10000 2.1 250 19:46 07.12.2020
1379 Clouds 1 1002 93 10000 2.1 0 18:20 07.12.2020
1380 Clouds 1 1001 93 10000 1.5 160 17:26 07.12.2020
1381 Clouds 1 1002 93 10000 2.6 110 16:48 07.12.2020
1382 Clouds 2 1001 86 10000 3.1 80 15:26 07.12.2020
1383 Clouds 2 1001 86 10000 1 0 14:41 07.12.2020
1384 Mist 2 1002 93 5000 0.5 0 13:43 07.12.2020
1385 Snow 1 1002 100 3000 0.5 0 12:34 07.12.2020
1386 Mist 1 1002 100 5000 0.5 0 11:43 07.12.2020
1387 Mist 0 1001 100 4000 1 0 10:38 07.12.2020
1388 Mist 1 1001 100 5000 1.5 80 09:40 07.12.2020
1389 Mist 0 1000 82 5000 1 0 07:51 07.12.2020
1390 Clouds 1 999 91 10000 1 0 05:34 07.12.2020
1391 Rain 0 998 86 7000 1 0 04:40 07.12.2020
1392 Snow 1 996 82 4900 0.5 0 01:47 07.12.2020
1393 Rain 2 995 93 8000 4.6 280 22:53 06.12.2020
1394 Rain 2 995 100 6000 3.6 260 22:19 06.12.2020
1395 Rain 3 995 93 5000 1.5 280 20:52 06.12.2020
1396 Rain 3 995 100 5000 1 0 20:34 06.12.2020
1397 Rain 3 995 93 6000 1.5 290 19:43 06.12.2020
1398 Rain 3 996 93 6000 1.5 270 17:54 06.12.2020
1399 Rain 3 996 100 5000 2.6 250 16:42 06.12.2020
1400 Rain 4 996 93 10000 3.1 260 14:50 06.12.2020
1401 Rain 4 996 93 10000 4.6 260 13:31 06.12.2020
1402 Rain 4 997 100 10000 3.6 50 12:36 06.12.2020
1403 Rain 4 997 93 10000 4.1 60 11:55 06.12.2020
1404 Rain 4 998 100 8000 4.6 70 11:30 06.12.2020
1405 Rain 2 998 93 8000 3.1 270 10:42 06.12.2020
1406 Rain 3 998 93 10000 2.1 220 09:39 06.12.2020
1407 Rain 3 998 93 7000 4.1 80 07:53 06.12.2020
1408 Rain 3 998 93 8000 6.2 110 05:38 06.12.2020
1409 Snow 2 999 100 5000 6.2 60 00:57 06.12.2020
1410 Snow 2 1000 100 5000 4.1 100 00:37 06.12.2020
1411 Rain 2 1000 93 5000 3.6 100 00:19 06.12.2020
1412 Snow 1 999 100 4600 3.1 100 22:26 05.12.2020
1413 Snow 1 1000 100 4900 2.1 60 21:58 05.12.2020
1414 Rain 1 999 100 5000 3.1 120 21:37 05.12.2020
1415 Rain 2 999 100 5000 3.1 120 21:19 05.12.2020
1416 Snow 1 999 74 5000 2.6 270 18:55 05.12.2020
1417 Snow 1 998 100 7000 1.5 110 17:57 05.12.2020
1418 Snow 1 999 75 3500 2.1 100 16:49 05.12.2020
1419 Snow 1 1000 74 3000 0.5 0 16:29 05.12.2020
1420 Snow 1 1000 74 3000 0.5 0 15:36 05.12.2020
1421 Snow 2 1000 93 7000 2.6 100 13:53 05.12.2020
1422 Rain 3 1000 100 8000 1.5 280 11:50 05.12.2020
1423 Rain 3 1000 100 9000 1.5 250 10:48 05.12.2020
1424 Rain 3 1000 93 9000 1.5 270 10:22 05.12.2020
1425 Rain 3 997 93 9000 1.5 60 07:48 05.12.2020
1426 Rain 3 996 100 7000 1.5 290 06:20 05.12.2020
1427 Rain 3 993 100 10000 4.1 90 02:45 05.12.2020
1428 Rain 3 993 93 10000 3.6 100 23:47 04.12.2020
1429 Rain 3 994 86 10000 2.6 60 21:59 04.12.2020
1430 Rain 4 994 86 10000 3.6 100 19:57 04.12.2020
1431 Clouds 4 993 70 10000 8.2 50 18:47 04.12.2020
1432 Clouds 4 993 56 10000 6.7 70 17:54 04.12.2020
1433 Clouds 8 991 45 10000 9.3 60 17:19 04.12.2020
1434 Clouds 9 991 42 10000 7.7 60 15:35 04.12.2020
1435 Clouds 7 992 39 10000 7.7 70 13:39 04.12.2020
1436 Clouds 7 992 39 10000 7.2 80 13:20 04.12.2020
1437 Clouds 9 992 39 10000 7.2 80 12:47 04.12.2020
1438 Clouds 9 992 39 10000 7.2 80 12:47 04.12.2020
1439 Clouds 6 994 42 10000 7.7 130 10:38 04.12.2020
1440 Clouds 5 995 56 10000 3.1 0 09:41 04.12.2020
1441 Clouds 0 995 79 10000 5.7 240 06:41 04.12.2020
1442 Clouds 1 995 86 10000 4.1 270 05:40 04.12.2020
1443 Clouds -2 998 86 10000 5.7 270 01:54 04.12.2020
1444 Clouds -3 1000 92 10000 5.7 280 22:52 03.12.2020
1445 Clouds -3 1001 92 10000 3.6 290 22:18 03.12.2020
1446 Clouds -4 1001 92 10000 1.5 270 20:47 03.12.2020
1447 Clouds -2 1003 86 10000 3.1 290 19:26 03.12.2020
1448 Clouds -2 1003 86 10000 3.6 280 18:49 03.12.2020
1449 Clouds -1 1004 86 10000 1 0 17:22 03.12.2020
1450 Clouds -1 1004 76 10000 2.6 260 16:59 03.12.2020
1451 Clouds 1 1005 64 10000 1 0 15:39 03.12.2020
1452 Clouds 1 1005 64 10000 1 0 15:21 03.12.2020
1453 Clouds 0 1005 64 10000 2.1 140 14:25 03.12.2020
1454 Clouds 0 1007 64 10000 2.6 140 13:24 03.12.2020
1455 Clouds 1 1007 66 8000 3.1 70 12:26 03.12.2020
1456 Clouds -2 1009 86 6000 1.5 110 11:23 03.12.2020
1457 Snow -3 1009 92 3000 2.1 70 08:49 03.12.2020
1458 Snow -2 1010 86 8000 1.5 110 05:18 03.12.2020
1459 Clouds -2 1010 86 9000 1.5 70 02:26 03.12.2020
1460 Clouds -2 1010 86 10000 2.1 70 00:48 03.12.2020
1461 Clouds -2 1012 86 10000 2.1 70 22:47 02.12.2020
1462 Clouds -2 1011 86 10000 2.6 80 22:21 02.12.2020
1463 Clouds -2 1011 86 10000 2.1 60 20:55 02.12.2020
1464 Clouds -2 1011 86 10000 2.1 80 20:37 02.12.2020
1465 Clouds -2 1011 86 10000 3.1 70 20:18 02.12.2020
1466 Clouds -1 1010 76 10000 3.1 60 17:56 02.12.2020
1467 Clouds -1 1010 76 10000 3.1 60 17:37 02.12.2020
1468 Clouds -1 1010 75 10000 2.6 60 17:19 02.12.2020
1469 Clouds -1 1011 80 10000 2.6 60 14:49 02.12.2020
1470 Clouds -1 1014 59 8000 1 60 11:34 02.12.2020
1471 Clouds -1 1014 65 8000 0.5 0 10:28 02.12.2020
1472 Clouds -1 1014 72 8000 0.5 0 08:36 02.12.2020
1473 Clouds -1 1016 86 10000 1 0 03:57 02.12.2020
1474 Clouds -1 1016 80 10000 1 110 22:21 01.12.2020
1475 Clouds -1 1016 75 10000 1 0 20:49 01.12.2020
1476 Clouds -1 1015 75 10000 1 0 19:35 01.12.2020
1477 Clouds 0 1015 74 10000 0.5 0 17:49 01.12.2020
1478 Snow 0 1014 63 10000 1.5 290 15:44 01.12.2020
1479 Clouds -1 1015 80 10000 1.5 240 13:38 01.12.2020
1480 Rain -3 1016 86 10000 0.5 0 11:46 01.12.2020
1481 Clouds -3 1016 86 10000 1 0 11:26 01.12.2020
1482 Rain -3 1016 86 10000 1 270 10:38 01.12.2020
1483 Clouds -4 1017 92 10000 0.5 0 08:21 01.12.2020
1484 Clouds -4 1017 92 10000 1 0 06:47 01.12.2020
1485 Clear -5 1021 92 10000 0.5 0 01:52 01.12.2020
1486 Clear -5 1022 92 10000 0.5 0 00:55 01.12.2020
1487 Clear -5 1023 92 10000 0.5 0 23:21 30.11.2020
1488 Clear -4 1023 92 10000 1 0 22:44 30.11.2020
1489 Clear -4 1023 92 10000 1 0 22:25 30.11.2020
1490 Clear -3 1024 92 10000 1.5 240 20:47 30.11.2020
1491 Clear -3 1024 86 10000 1.5 270 19:42 30.11.2020
1492 Clear -2 1023 86 10000 1.5 260 18:23 30.11.2020
1493 Clear -2 1023 86 10000 0.5 0 17:47 30.11.2020
1494 Clear -1 1023 80 10000 2.1 260 16:55 30.11.2020
1495 Clear 2 1022 64 10000 1 210 15:59 30.11.2020
1496 Clear 3 1023 64 10000 0.5 0 14:46 30.11.2020
1497 Clouds 2 1023 64 10000 0.5 0 13:52 30.11.2020
1498 Clouds 0 1025 43 10000 1 0 12:26 30.11.2020
1499 Clouds -1 1025 80 10000 2.1 240 11:58 30.11.2020
1500 Clouds -1 1026 74 10000 1.5 210 10:26 30.11.2020
1501 Clouds -1 1026 74 10000 1.5 210 10:26 30.11.2020
1502 Clouds -1 1026 74 10000 1.5 220 09:49 30.11.2020
1503 Clouds -1 1025 80 9000 2.1 260 07:18 30.11.2020
1504 Clouds -1 1024 73 10000 1.5 280 23:58 29.11.2020
1505 Clouds -1 1024 73 10000 1.5 300 21:51 29.11.2020
1506 Clouds -1 1023 73 10000 2.1 310 21:31 29.11.2020
1507 Clouds -1 1023 76 10000 1.5 280 19:54 29.11.2020
1508 Clouds -1 1022 76 10000 2.1 10 17:47 29.11.2020
1509 Clouds -1 1021 66 10000 1 0 16:24 29.11.2020
1510 Clouds 0 1021 49 10000 1 0 13:23 29.11.2020
1511 Clouds -1 1021 86 10000 1 0 11:41 29.11.2020
1512 Clouds -1 1021 86 8000 1.5 250 10:34 29.11.2020
1513 Clouds -1 1020 92 8000 1.5 130 08:38 29.11.2020
1514 Clouds -2 1019 92 10000 2.1 260 06:32 29.11.2020
1515 Clouds -1 1019 92 6000 1 0 23:52 28.11.2020
1516 Clouds -1 1019 92 8000 2.1 100 22:56 28.11.2020
1517 Clouds -1 1019 92 10000 1 110 20:47 28.11.2020
1518 Clear -1 1018 86 10000 1 0 19:48 28.11.2020
1519 Clear 0 1018 86 10000 1 0 19:22 28.11.2020
1520 Clear 1 1017 65 10000 0.5 0 18:44 28.11.2020
1521 Clear 1 1017 65 10000 1 140 17:47 28.11.2020
1522 Clear 4 1016 60 10000 3.1 130 16:44 28.11.2020
1523 Clear 6 1016 56 10000 2.6 110 14:54 28.11.2020
1524 Clear 4 1018 64 10000 1 0 12:35 28.11.2020
1525 Clear 2 1019 86 10000 0.5 0 10:36 28.11.2020
1526 Clear -3 1019 100 10000 0.5 0 06:36 28.11.2020
1527 Clear -1 1020 100 10000 1 0 03:26 28.11.2020
1528 Clear -2 1020 92 10000 1 0 01:50 28.11.2020
1529 Clear -1 1020 92 10000 1 260 22:56 27.11.2020
1530 Clear 0 1020 92 10000 0.5 0 21:33 27.11.2020
1531 Clear 0 1020 92 10000 0.5 0 20:31 27.11.2020
1532 Clear 0 1020 86 10000 1 270 19:25 27.11.2020
1533 Clear 1 1020 63 10000 0.5 0 18:44 27.11.2020
1534 Clear 7 1019 52 10000 1.5 170 14:56 27.11.2020
1535 Clear 6 1020 56 10000 1 0 13:29 27.11.2020
1536 Clear 5 1020 60 10000 1.5 250 12:47 27.11.2020
1537 Clear 3 1022 69 10000 1.5 250 11:49 27.11.2020
1538 Clear 3 1023 80 10000 1 0 10:50 27.11.2020
1539 Clear 2 1023 47 10000 1 0 10:19 27.11.2020
1540 Clear 0 1022 74 10000 1.19 218 07:29 27.11.2020
1541 Clear 2 1022 71 10000 1.42 213 22:28 26.11.2020
1542 Clear 0 1023 92 10000 0.5 0 21:56 26.11.2020
1543 Clear 0 1023 92 10000 0.5 0 21:25 26.11.2020
1544 Clear 1 1022 62 10000 0.5 0 19:19 26.11.2020
1545 Clear 3 1022 74 10000 1 0 17:53 26.11.2020
1546 Clear 7 1021 49 10000 1.5 180 14:57 26.11.2020
1547 Clear 7 1022 52 10000 0.5 0 13:42 26.11.2020
1548 Clear 5 1023 69 10000 0.5 0 12:44 26.11.2020
1549 Clear 4 1023 69 10000 1 0 11:47 26.11.2020
1550 Clear 3 1024 80 10000 1 0 10:37 26.11.2020
1551 Clear -3 1024 100 10000 0.5 0 09:48 26.11.2020
1552 Clear 0 1024 100 10000 0.5 0 09:29 26.11.2020
1553 Clear -1 1024 92 10000 0.5 0 08:39 26.11.2020
1554 Clear -4 1023 92 10000 0.5 0 06:50 26.11.2020
1555 Clear -2 1022 92 10000 0.5 0 23:54 25.11.2020
1556 Clear -1 1021 80 10000 0.5 0 20:46 25.11.2020
1557 Clear 0 1021 62 10000 0.5 0 19:56 25.11.2020
1558 Clear 2 1021 80 10000 0.5 0 18:28 25.11.2020
1559 Clear 7 1019 60 10000 1 0 16:44 25.11.2020
1560 Clear 9 1019 45 10000 1.5 170 15:40 25.11.2020
1561 Clear 8 1020 49 10000 1 0 13:58 25.11.2020
1562 Clear 8 1020 49 10000 1 0 13:38 25.11.2020
1563 Clear 7 1021 60 10000 1 0 11:58 25.11.2020
1564 Clear 5 1022 74 10000 1 0 11:18 25.11.2020
1565 Clear 0 1023 92 10000 0.5 0 09:19 25.11.2020
1566 Clear 0 1022 92 10000 0.5 0 08:44 25.11.2020
1567 Clear -1 1022 92 10000 0.5 0 03:59 25.11.2020
1568 Clear -1 1022 100 10000 1 0 02:26 25.11.2020
1569 Clear 1 1023 92 10000 1 0 00:28 25.11.2020
1570 Clear 0 1023 92 10000 0.5 0 23:52 24.11.2020
1571 Clear 1 1023 92 10000 1 220 23:34 24.11.2020
1572 Clear -2 1024 92 10000 0.5 0 21:51 24.11.2020
1573 Clear 1 1023 86 10000 1 240 21:30 24.11.2020
1574 Clear 2 1023 62 10000 0.5 0 20:45 24.11.2020
1575 Clear 2 1023 80 10000 1.5 230 18:57 24.11.2020
1576 Clear 2 1023 86 10000 1 0 17:31 24.11.2020
1577 Clear 4 1023 74 10000 1 0 16:54 24.11.2020
1578 Clear 5 1023 65 10000 0.5 0 16:35 24.11.2020
1579 Clear 7 1023 53 10000 1 0 15:54 24.11.2020
1580 Clear 8 1023 52 10000 1.5 160 15:19 24.11.2020
1581 Clear 8 1024 56 10000 1 0 14:43 24.11.2020
1582 Clear 6 1025 65 10000 0.5 0 12:55 24.11.2020
1583 Clear 6 1026 65 10000 1.5 250 12:22 24.11.2020
1584 Clear 4 1026 64 10000 1.5 0 11:53 24.11.2020
1585 Clear 3 1027 86 10000 1 0 10:46 24.11.2020
1586 Clear 2 1028 47 10000 1.5 200 10:24 24.11.2020
1587 Clear -2 1028 92 10000 1.5 250 09:35 24.11.2020
1588 Clear -2 1029 100 10000 1 0 08:26 24.11.2020
1589 Clear -2 1029 92 10000 1 210 04:48 24.11.2020
1590 Clouds 0 1030 92 10000 1 220 22:35 23.11.2020
1591 Clouds 0 1030 92 10000 0.5 0 21:38 23.11.2020
1592 Clouds 1 1030 92 10000 1 240 20:56 23.11.2020
1593 Clear 1 1030 92 10000 1 0 20:28 23.11.2020
1594 Clear 1 1030 68 10000 0.5 0 19:32 23.11.2020
1595 Clear 3 1029 66 10000 0.5 0 17:27 23.11.2020
1596 Clear 4 1029 66 10000 0.5 0 16:54 23.11.2020
1597 Clouds 6 1028 52 10000 3.1 110 14:49 23.11.2020
1598 Clouds 5 1029 48 10000 1 0 13:43 23.11.2020
1599 Clouds 4 1029 45 10000 1 0 12:38 23.11.2020
1600 Clouds 4 1029 46 10000 0.5 0 11:50 23.11.2020
1601 Clouds 2 1030 86 10000 0.5 0 11:25 23.11.2020
1602 Clear 1 1029 53 10000 0.5 0 09:46 23.11.2020
1603 Clear 1 1029 60 10000 1.5 240 08:49 23.11.2020
1604 Clear 0 1028 86 10000 0.5 0 07:34 23.11.2020
1605 Clouds 1 1027 61 10000 1.5 0 01:45 23.11.2020
1606 Clear 2 1028 80 10000 0.5 0 23:41 22.11.2020
1607 Clear 2 1028 80 10000 0.5 0 22:19 22.11.2020
1608 Clear 2 1028 80 10000 0.5 0 21:23 22.11.2020
1609 Clear 2 1028 80 10000 2.1 250 19:58 22.11.2020
1610 Clear 2 1028 80 10000 1 0 18:57 22.11.2020
1611 Clear 3 1027 69 10000 1 0 17:54 22.11.2020
1612 Clear 5 1027 64 10000 1 0 16:25 22.11.2020
1613 Clear 7 1027 52 10000 1 0 14:58 22.11.2020
1614 Clear 5 1029 52 10000 2.1 250 12:51 22.11.2020
1615 Clear 5 1029 55 10000 1.5 260 12:31 22.11.2020
1616 Clear 2 1030 64 10000 1 0 11:39 22.11.2020
1617 Clear 0 1031 39 10000 2.1 270 10:47 22.11.2020
1618 Clear 1 1031 80 10000 1 0 10:29 22.11.2020
1619 Clouds -3 1032 86 10000 1.5 260 02:47 22.11.2020
1620 Clear -2 1033 86 10000 1 0 23:56 21.11.2020
1621 Clear -2 1033 86 10000 1.5 270 22:41 21.11.2020
1622 Clear -1 1033 86 10000 1 280 21:30 21.11.2020
1623 Clear -1 1033 86 10000 0.5 0 20:49 21.11.2020
1624 Clear -1 1033 86 10000 3.1 280 20:18 21.11.2020
1625 Clear 0 1033 59 10000 1.5 250 19:39 21.11.2020
1626 Clear 0 1033 86 10000 1 270 18:54 21.11.2020
1627 Clear 1 1033 74 10000 1.5 240 17:30 21.11.2020
1628 Clear 3 1032 69 10000 1 0 16:44 21.11.2020
1629 Clear 5 1032 56 10000 1 0 15:40 21.11.2020
1630 Clear 5 1033 60 10000 1.5 160 15:20 21.11.2020
1631 Clear 5 1033 56 10000 1 0 14:40 21.11.2020
1632 Clouds 4 1035 64 10000 1.5 250 12:44 21.11.2020
1633 Clouds 3 1035 59 10000 1.5 260 12:21 21.11.2020
1634 Clouds 3 1035 69 10000 1 0 11:36 21.11.2020
1635 Clouds 0 1036 74 10000 1.5 250 10:28 21.11.2020
1636 Clouds -1 1036 92 10000 2.1 260 08:52 21.11.2020
1637 Clouds -1 1035 92 10000 1.5 270 07:58 21.11.2020
1638 Clouds -2 1035 92 10000 0.5 0 05:40 21.11.2020
1639 Clouds -1 1034 92 10000 1 0 01:59 21.11.2020
1640 Clouds -1 1034 90 10000 2.1 100 00:21 21.11.2020
1641 Clouds 2 1035 91 10000 1 0 22:43 20.11.2020
1642 Clouds 1 1034 90 10000 1 0 21:44 20.11.2020
1643 Clouds 1 1034 90 10000 1 0 21:44 20.11.2020
1644 Clouds 1 1034 89 10000 1 0 21:21 20.11.2020
1645 Clouds 1 1033 93 10000 1 0 19:55 20.11.2020
1646 Clouds 2 1033 86 10000 2.6 280 18:53 20.11.2020
1647 Clouds 2 1032 86 10000 1 0 17:58 20.11.2020
1648 Clouds 2 1032 86 10000 2.1 290 17:29 20.11.2020
1649 Clouds 3 1031 80 10000 1 0 16:40 20.11.2020
1650 Clouds 4 1031 80 10000 1 0 15:59 20.11.2020
1651 Clouds 4 1031 75 10000 1.5 100 15:34 20.11.2020
1652 Clouds 4 1030 80 10000 1 0 13:49 20.11.2020
1653 Clouds 4 1030 86 10000 2.1 260 13:19 20.11.2020
1654 Clouds 4 1030 86 10000 1.5 280 12:39 20.11.2020
1655 Clouds 4 1030 86 10000 1 0 11:46 20.11.2020
1656 Clouds 4 1031 86 10000 1 0 11:21 20.11.2020
1657 Clouds 4 1030 93 10000 0.5 0 09:45 20.11.2020
1658 Clouds 3 1029 86 10000 1 0 08:27 20.11.2020
1659 Clouds 3 1029 93 10000 1 0 07:34 20.11.2020
1660 Rain 4 1028 93 10000 0.5 0 03:45 20.11.2020
1661 Rain 4 1028 93 10000 2.1 190 23:31 19.11.2020
1662 Clouds 5 1028 93 10000 1 0 22:27 19.11.2020
1663 Rain 5 1028 87 10000 2.1 200 21:49 19.11.2020
1664 Rain 6 1026 81 10000 2.1 100 20:41 19.11.2020
1665 Rain 7 1025 87 10000 1.5 0 20:19 19.11.2020
1666 Rain 6 1025 100 9000 1 0 19:25 19.11.2020
1667 Rain 6 1024 93 10000 0.5 0 18:35 19.11.2020
1668 Rain 9 1021 71 10000 1 0 17:18 19.11.2020
1669 Clouds 10 1020 62 10000 1 0 15:59 19.11.2020
1670 Clouds 11 1020 62 10000 0.5 0 15:28 19.11.2020
1671 Clouds 11 1021 53 10000 2.6 280 13:47 19.11.2020
1672 Clouds 11 1021 53 10000 2.6 280 13:25 19.11.2020
1673 Clouds 10 1022 66 10000 1.5 240 12:51 19.11.2020
1674 Clouds 9 1023 66 10000 4.1 270 12:25 19.11.2020
1675 Clouds 9 1024 70 10000 0.5 0 11:40 19.11.2020
1676 Clouds 8 1025 81 10000 1 0 11:00 19.11.2020
1677 Clouds 5 1025 86 10000 1.5 230 10:28 19.11.2020
1678 Clouds 3 1026 41 10000 1.5 250 09:45 19.11.2020
1679 Clouds 3 1026 46 10000 1.5 250 09:25 19.11.2020
1680 Clear 2 1026 52 10000 1.5 170 08:20 19.11.2020
1681 Clear 2 1026 92 10000 1 0 06:49 19.11.2020
1682 Clear 4 1026 50 8000 0.5 0 01:46 19.11.2020
1683 Clouds 4 1027 100 10000 0.5 0 00:29 19.11.2020
1684 Clear 4 1027 100 10000 1 0 23:30 18.11.2020
1685 Clear 5 1027 93 10000 0.5 0 22:40 18.11.2020
1686 Clear 5 1027 93 10000 0.5 0 22:21 18.11.2020
1687 Clear 5 1027 93 10000 1 0 21:40 18.11.2020
1688 Clear 3 1027 93 10000 0.5 0 21:20 18.11.2020
1689 Clear 5 1027 86 10000 0.5 0 19:49 18.11.2020
1690 Clear 6 1027 93 10000 1 0 19:28 18.11.2020
1691 Clear 6 1027 86 10000 1 0 18:56 18.11.2020
1692 Clear 6 1026 86 10000 0.5 0 18:37 18.11.2020
1693 Clear 8 1026 81 10000 0.5 0 17:37 18.11.2020
1694 Clear 11 1026 66 10000 1 0 16:24 18.11.2020
1695 Clear 13 1026 54 10000 1 160 15:47 18.11.2020
1696 Clear 12 1026 58 10000 1.5 160 14:41 18.11.2020
1697 Clear 11 1028 57 10000 1.5 260 13:45 18.11.2020
1698 Clear 11 1028 57 10000 1.5 260 13:20 18.11.2020
1699 Clear 9 1029 61 10000 2.6 270 12:30 18.11.2020
1700 Clear 8 1030 70 10000 3.1 260 11:35 18.11.2020
1701 Clear 3 1031 86 10000 1.5 260 10:32 18.11.2020
1702 Clear 2 1031 93 10000 0.5 0 09:57 18.11.2020
1703 Clear 1 1031 100 10000 0.5 0 07:54 18.11.2020
1704 Clear 1 1030 100 10000 0.5 0 06:34 18.11.2020
1705 Clouds 3 1032 56 10000 1 0 00:33 18.11.2020
1706 Clouds 3 1032 93 10000 0.5 0 23:37 17.11.2020
1707 Clouds 3 1032 93 10000 1 0 22:49 17.11.2020
1708 Clouds 3 1032 93 10000 1.5 290 22:28 17.11.2020
1709 Clouds 3 1031 93 10000 1 0 21:50 17.11.2020
1710 Clouds 3 1032 93 10000 1 0 21:50 17.11.2020
1711 Clouds 3 1031 93 10000 1 0 21:30 17.11.2020
1712 Clouds 3 1031 93 10000 1 0 21:30 17.11.2020
1713 Clouds 3 1031 93 10000 1 0 20:50 17.11.2020
1714 Clear 4 1031 86 10000 1 250 20:25 17.11.2020
1715 Clear 4 1031 93 10000 1.5 270 19:54 17.11.2020
1716 Clear 6 1030 80 10000 1.5 230 18:25 17.11.2020
1717 Clear 6 1030 81 10000 0.5 0 17:39 17.11.2020
1718 Clear 7 1029 75 10000 1.5 290 16:53 17.11.2020
1719 Clear 9 1029 70 10000 1 0 16:18 17.11.2020
1720 Clear 10 1029 66 10000 1 170 15:40 17.11.2020
1721 Clear 10 1029 62 10000 1 0 15:22 17.11.2020
1722 Clear 10 1029 62 10000 1.5 170 14:54 17.11.2020
1723 Clear 10 1029 62 10000 1.5 170 14:21 17.11.2020
1724 Clouds 10 1030 66 10000 1 0 13:34 17.11.2020
1725 Clouds 9 1030 75 10000 1.5 240 12:46 17.11.2020
1726 Clouds 7 1031 81 10000 1.5 240 11:59 17.11.2020
1727 Clouds 7 1031 87 10000 1 0 11:40 17.11.2020
1728 Clouds 5 1031 100 10000 1 0 10:39 17.11.2020
1729 Clouds 5 1031 100 10000 1 0 10:20 17.11.2020
1730 Clouds 3 1031 100 10000 2.1 270 09:48 17.11.2020
1731 Clouds 4 1030 93 10000 2.1 260 08:54 17.11.2020
1732 Clouds 3 1030 100 10000 0.5 0 08:20 17.11.2020
1733 Fog 3 1029 100 7000 0.5 0 07:34 17.11.2020
1734 Mist 3 1028 100 1800 1 180 04:31 17.11.2020
1735 Clouds 3 1027 93 7000 0.5 0 03:29 17.11.2020
1736 Clouds 4 1027 100 10000 1 0 02:29 17.11.2020
1737 Clouds 4 1027 100 10000 2.1 260 00:57 17.11.2020
1738 Clouds 5 1026 93 10000 1 0 23:54 16.11.2020
1739 Clouds 5 1027 93 10000 0.5 0 23:33 16.11.2020
1740 Clouds 5 1026 100 10000 0.5 0 22:59 16.11.2020
1741 Clouds 5 1026 100 10000 0.5 0 22:26 16.11.2020
1742 Fog 5 1026 100 10000 0.22 244 21:56 16.11.2020
1743 Clouds 5 1025 93 10000 0.5 0 21:38 16.11.2020
1744 Clouds 5 1025 93 10000 0.5 0 21:19 16.11.2020
1745 Clouds 6 1025 93 10000 1 170 20:26 16.11.2020
1746 Clouds 5 1025 93 10000 0.5 0 19:53 16.11.2020
1747 Clouds 6 1024 93 10000 1.5 140 19:29 16.11.2020
1748 Clouds 6 1024 93 10000 0.5 0 18:50 16.11.2020
1749 Clouds 7 1022 87 10000 0.5 0 18:18 16.11.2020
1750 Clouds 7 1022 87 10000 1 0 17:28 16.11.2020
1751 Clouds 8 1022 81 10000 1 0 16:57 16.11.2020
1752 Clouds 9 1021 76 10000 0.5 0 16:39 16.11.2020
1753 Clouds 9 1021 76 10000 1 0 16:20 16.11.2020
1754 Clouds 9 1020 76 10000 2.6 140 15:43 16.11.2020
1755 Clouds 9 1020 76 10000 2.6 140 15:25 16.11.2020
1756 Clouds 8 1020 81 10000 2.1 170 14:47 16.11.2020
1757 Drizzle 9 1020 81 10000 2.6 80 13:40 16.11.2020
1758 Clouds 9 1020 81 10000 0.5 0 12:45 16.11.2020
1759 Clouds 8 1020 81 10000 0.5 0 12:45 16.11.2020
1760 Clouds 9 1020 81 10000 0.5 0 12:45 16.11.2020
1761 Clouds 8 1020 81 10000 0.5 0 12:45 16.11.2020
1762 Clouds 9 1020 81 10000 0.5 0 12:25 16.11.2020
1763 Clouds 9 1020 81 10000 1 0 11:38 16.11.2020
1764 Clouds 8 1020 81 10000 1 0 11:20 16.11.2020
1765 Clouds 7 1020 93 10000 1 0 10:42 16.11.2020
1766 Clouds 7 1020 93 10000 1 0 10:24 16.11.2020
1767 Rain 6 1019 93 10000 1 0 09:43 16.11.2020
1768 Rain 6 1019 93 10000 2.1 260 09:22 16.11.2020
1769 Clouds 6 1018 93 10000 3.6 280 08:40 16.11.2020
1770 Rain 7 1017 93 10000 2.1 0 07:44 16.11.2020
1771 Rain 6 1017 87 10000 1.5 180 06:50 16.11.2020
1772 Rain 6 1017 81 10000 8.7 270 05:57 16.11.2020
1773 Rain 5 1016 86 10000 3.1 250 04:37 16.11.2020
1774 Rain 5 1016 80 10000 5.7 270 02:29 16.11.2020
1775 Clouds 5 1016 80 10000 5.1 260 01:39 16.11.2020
1776 Clouds 4 1015 86 10000 5.1 270 23:54 15.11.2020
1777 Clear 5 1015 80 10000 4.6 260 23:22 15.11.2020
1778 Clear 5 1015 86 10000 5.7 270 22:48 15.11.2020
1779 Clear 5 1015 86 10000 5.7 270 22:21 15.11.2020
1780 Clear 7 1015 80 10000 5.1 260 21:44 15.11.2020
1781 Clear 7 1015 80 10000 5.1 260 21:24 15.11.2020
1782 Clear 7 1015 75 10000 2.6 260 20:41 15.11.2020
1783 Clear 7 1015 75 10000 5.1 270 20:19 15.11.2020
1784 Clear 7 1015 75 10000 5.1 270 19:48 15.11.2020
1785 Clear 7 1015 75 10000 4.6 280 19:22 15.11.2020
1786 Clear 6 1015 75 10000 4.1 270 18:57 15.11.2020
1787 Clear 8 1015 70 10000 2.6 260 18:39 15.11.2020
1788 Clear 8 1015 70 10000 2.6 240 18:19 15.11.2020
1789 Clear 8 1015 70 10000 4.1 270 17:44 15.11.2020
1790 Clear 8 1015 70 10000 4.1 270 17:24 15.11.2020
1791 Clear 9 1014 66 10000 3.1 270 16:46 15.11.2020
1792 Clear 12 1014 53 10000 3.1 260 16:20 15.11.2020
1793 Clear 12 1014 57 10000 3.1 270 15:50 15.11.2020
1794 Clear 13 1015 46 10000 4.1 270 15:28 15.11.2020
1795 Clear 13 1015 47 10000 3.6 260 14:58 15.11.2020
1796 Clear 13 1015 47 10000 1 0 14:30 15.11.2020
1797 Clear 12 1016 50 10000 1.5 200 13:56 15.11.2020
1798 Clear 12 1017 46 10000 3.1 250 13:36 15.11.2020
1799 Clear 11 1018 53 10000 2.1 240 12:51 15.11.2020
1800 Clear 10 1018 53 10000 2.6 250 12:23 15.11.2020
1801 Clear 9 1019 57 10000 2.6 250 11:46 15.11.2020
1802 Clear 8 1020 65 10000 2.1 270 11:20 15.11.2020
1803 Clear 7 1020 75 10000 1 0 10:54 15.11.2020
1804 Clear 7 1021 80 10000 1 0 10:32 15.11.2020
1805 Clear 5 1021 86 10000 1 0 09:58 15.11.2020
1806 Clear 4 1021 40 10000 1 0 09:40 15.11.2020
1807 Clear 4 1021 46 10000 1 0 09:18 15.11.2020
1808 Clear 2 1022 100 10000 0.5 0 08:46 15.11.2020
1809 Clear 2 1021 54 10000 1 0 07:47 15.11.2020
1810 Clear 2 1021 92 10000 1.5 290 06:50 15.11.2020
1811 Clear 2 1022 56 10000 0.5 0 04:57 15.11.2020
1812 Clear 3 1022 56 10000 2.1 240 02:31 15.11.2020
1813 Clear 4 1022 93 10000 2.6 240 00:42 15.11.2020
1814 Clear 4 1022 93 10000 2.6 240 00:24 15.11.2020
1815 Clear 1 1023 56 10000 1.5 250 23:30 14.11.2020
1816 Clear 2 1023 93 10000 1 270 22:46 14.11.2020
1817 Clear 4 1023 93 10000 1 270 22:27 14.11.2020
1818 Clear 4 1022 93 10000 1 0 21:40 14.11.2020
1819 Clear 3 1022 55 10000 0.5 0 21:21 14.11.2020
1820 Clear 4 1022 55 10000 0.5 0 20:48 14.11.2020
1821 Clear 4 1022 86 10000 0.5 0 20:26 14.11.2020
1822 Clear 5 1022 86 10000 1 0 19:46 14.11.2020
1823 Clear 5 1022 86 10000 1 0 19:27 14.11.2020
1824 Clear 5 1021 86 10000 1 0 18:43 14.11.2020
1825 Clear 5 1021 86 10000 1 0 18:23 14.11.2020
1826 Clear 7 1021 75 10000 1 0 17:47 14.11.2020
1827 Clear 7 1021 75 10000 1 0 17:47 14.11.2020
1828 Clear 7 1021 75 10000 1 0 17:29 14.11.2020
1829 Clear 10 1021 61 10000 0.5 0 16:53 14.11.2020
1830 Clear 10 1021 61 10000 0.5 0 16:34 14.11.2020
1831 Clear 13 1021 58 10000 1.5 170 15:58 14.11.2020
1832 Clear 13 1021 54 10000 1.5 160 15:33 14.11.2020
1833 Clear 12 1021 50 10000 1 0 14:59 14.11.2020
1834 Clear 12 1021 46 10000 2.1 250 14:31 14.11.2020
1835 Clear 12 1022 50 10000 1.5 240 13:59 14.11.2020
1836 Clear 12 1022 50 10000 1.5 240 13:59 14.11.2020
1837 Clear 11 1022 57 10000 2.6 260 13:39 14.11.2020
1838 Clear 11 1022 57 10000 2.6 260 13:21 14.11.2020
1839 Clear 9 1023 61 10000 1.5 250 12:41 14.11.2020
1840 Clouds 8 1024 70 10000 2.6 260 12:23 14.11.2020
1841 Clouds 6 1025 70 10000 1 0 11:40 14.11.2020
1842 Clouds 6 1025 80 10000 1.5 250 11:21 14.11.2020
1843 Clouds 5 1026 38 10000 1.5 240 10:40 14.11.2020
1844 Clouds 4 1026 41 10000 1.5 250 10:22 14.11.2020
1845 Clouds 3 1026 41 10000 1.5 270 09:45 14.11.2020
1846 Clouds 3 1026 48 10000 1.5 270 09:27 14.11.2020
1847 Clouds 2 1026 48 10000 0.5 0 08:44 14.11.2020
1848 Clouds 2 1026 56 10000 1 0 08:23 14.11.2020
1849 Clouds 2 1025 56 10000 0.5 0 07:42 14.11.2020
1850 Clouds 2 1025 56 10000 0.5 0 07:21 14.11.2020
1851 Clear 2 1025 56 10000 2.1 250 06:29 14.11.2020
1852 Clouds 2 1025 55 10000 1 260 05:18 14.11.2020
1853 Clouds 2 1026 55 10000 1 320 03:28 14.11.2020
1854 Clouds 2 1025 86 10000 1 0 00:43 14.11.2020
1855 Clouds 3 1025 56 10000 2.1 230 23:38 13.11.2020
1856 Clouds 3 1025 57 10000 1.5 280 23:20 13.11.2020
1857 Clouds 3 1025 57 10000 1 0 22:42 13.11.2020
1858 Clouds 4 1025 58 10000 1 0 22:23 13.11.2020
1859 Clear 3 1025 93 10000 1.5 240 21:51 13.11.2020
1860 Clear 4 1025 93 10000 1 260 21:29 13.11.2020
1861 Clear 4 1025 86 10000 0.5 0 20:55 13.11.2020
1862 Clear 3 1025 58 10000 0.5 0 20:37 13.11.2020
1863 Clear 4 1024 58 10000 1 0 20:18 13.11.2020
1864 Clear 4 1024 86 10000 0.5 0 19:44 13.11.2020
1865 Clear 4 1024 86 10000 0.5 0 19:44 13.11.2020
1866 Clear 4 1024 86 10000 0.5 0 19:22 13.11.2020
1867 Clear 5 1024 75 10000 0.5 0 18:49 13.11.2020
1868 Clear 6 1023 75 10000 0.5 0 17:59 13.11.2020
1869 Clear 7 1023 75 10000 0.5 0 17:36 13.11.2020
1870 Clear 8 1022 70 10000 0.5 0 17:18 13.11.2020
1871 Clear 10 1022 57 10000 1 0 16:42 13.11.2020
1872 Clear 10 1022 57 10000 1 0 16:21 13.11.2020
1873 Clear 12 1022 50 10000 1 0 15:41 13.11.2020
1874 Clear 11 1022 50 10000 1 0 15:22 13.11.2020
1875 Clear 11 1023 50 10000 1 0 14:39 13.11.2020
1876 Clear 11 1023 50 10000 1 0 14:19 13.11.2020
1877 Clear 11 1023 50 10000 1 0 14:19 13.11.2020
1878 Clear 10 1023 34 10000 1 0 13:37 13.11.2020
1879 Clear 9 1024 33 10000 2.1 240 13:18 13.11.2020
1880 Clear 9 1024 57 10000 1 0 12:43 13.11.2020
1881 Clear 8 1024 57 10000 1 0 12:24 13.11.2020
1882 Clear 6 1025 70 10000 1.5 260 11:48 13.11.2020
1883 Clear 6 1025 70 10000 1.5 260 11:24 13.11.2020
1884 Clear 6 1025 75 10000 2.6 270 10:54 13.11.2020
1885 Clear 5 1025 86 10000 1 0 10:34 13.11.2020
1886 Clear 3 1025 93 10000 1.5 280 09:53 13.11.2020
1887 Clear 1 1025 40 10000 1 0 09:32 13.11.2020
1888 Clear 1 1025 40 10000 1 0 09:32 13.11.2020
1889 Clear 1 1025 92 10000 0.5 0 08:55 13.11.2020
1890 Clear 0 1025 100 10000 1.5 240 08:32 13.11.2020
1891 Clouds 0 1025 100 10000 1.5 250 07:55 13.11.2020
1892 Clear 0 1025 92 10000 1 280 07:36 13.11.2020
1893 Clear 0 1025 92 10000 1 280 07:18 13.11.2020
1894 Fog 0 1025 92 10000 1.5 260 06:37 13.11.2020
1895 Mist 0 1025 100 2600 1 270 05:42 13.11.2020
1896 Clear 1 1025 61 10000 1.5 210 04:24 13.11.2020
1897 Fog 2 1025 62 550 1.06 218 01:43 13.11.2020
1898 Clouds 2 1025 100 10000 1 0 00:37 13.11.2020
1899 Clear 3 1025 93 10000 1 0 23:59 12.11.2020
1900 Clear 3 1025 93 10000 0.5 0 23:36 12.11.2020
1901 Clear 3 1025 93 10000 1.5 250 23:18 12.11.2020
1902 Clear 3 1025 100 10000 2.1 300 22:41 12.11.2020
1903 Clear 3 1025 100 10000 2.1 300 22:20 12.11.2020
1904 Clouds 3 1025 100 10000 0.5 0 21:41 12.11.2020
1905 Clouds 3 1025 100 10000 0.5 0 21:23 12.11.2020
1906 Clouds 4 1025 93 10000 1 0 20:45 12.11.2020
1907 Clouds 5 1025 86 10000 1.5 260 20:25 12.11.2020
1908 Clouds 5 1025 86 10000 1.5 260 19:58 12.11.2020
1909 Clouds 5 1024 86 10000 0.5 0 19:40 12.11.2020
1910 Clouds 5 1024 86 10000 0.5 0 19:21 12.11.2020
1911 Clouds 6 1024 80 10000 0.5 0 18:48 12.11.2020
1912 Clouds 6 1024 86 10000 0.5 0 18:20 12.11.2020
1913 Clouds 7 1023 81 10000 1 0 17:43 12.11.2020
1914 Clouds 8 1023 70 10000 1 0 17:25 12.11.2020
1915 Clouds 8 1022 70 10000 1 170 16:46 12.11.2020
1916 Clouds 8 1022 70 10000 1 170 16:46 12.11.2020
1917 Clouds 10 1022 70 10000 1 170 16:24 12.11.2020
1918 Clouds 11 1022 57 10000 1.5 180 15:56 12.11.2020
1919 Clouds 11 1022 54 10000 1 0 15:31 12.11.2020
1920 Clear 11 1022 57 10000 1 0 14:57 12.11.2020
1921 Clear 11 1023 57 10000 1 0 14:38 12.11.2020
1922 Clear 11 1023 57 10000 1 0 14:20 12.11.2020
1923 Clear 9 1023 65 10000 1.5 270 13:45 12.11.2020
1924 Clear 8 1023 65 10000 1.5 270 13:21 12.11.2020
1925 Clear 8 1024 70 10000 2.6 270 12:50 12.11.2020
1926 Clear 7 1024 70 10000 1.5 270 12:28 12.11.2020
1927 Clear 7 1024 81 10000 1.5 270 11:59 12.11.2020
1928 Clear 6 1025 81 10000 0.5 0 11:40 12.11.2020
1929 Clear 6 1025 80 10000 1 0 10:58 12.11.2020
1930 Clear 5 1025 86 10000 1 0 10:38 12.11.2020
1931 Clear 4 1025 93 10000 1 0 10:19 12.11.2020
1932 Clear 3 1025 100 10000 0.5 0 09:40 12.11.2020
1933 Fog 1 1024 100 10000 1 280 09:18 12.11.2020
1934 Fog 0 1024 100 10000 0.5 0 08:40 12.11.2020
1935 Fog 0 1024 100 10000 0.5 0 08:40 12.11.2020
1936 Fog 1 1024 100 10000 0.5 0 08:21 12.11.2020
1937 Fog 0 1024 100 10000 1 0 07:56 12.11.2020
1938 Clouds 0 1024 100 8000 1 280 07:37 12.11.2020
1939 Clouds 1 1023 100 8000 0.5 0 06:52 12.11.2020
1940 Fog 1 1023 100 8000 0.5 0 06:27 12.11.2020
1941 Clouds 1 1023 62 10000 1 0 03:50 12.11.2020
1942 Clouds 2 1024 62 6000 1 280 03:20 12.11.2020
1943 Clear 2 1024 61 9000 1 0 00:45 12.11.2020
1944 Clear 3 1024 100 10000 0.5 0 23:45 11.11.2020
1945 Clear 3 1024 100 10000 0.5 0 23:25 11.11.2020
1946 Clear 3 1024 100 10000 0.5 0 22:48 11.11.2020
1947 Clear 3 1024 100 10000 0.5 0 22:24 11.11.2020
1948 Clear 4 1024 93 10000 0.5 0 21:59 11.11.2020
1949 Clear 4 1024 93 10000 0.5 0 21:40 11.11.2020
1950 Clear 4 1024 93 10000 0.5 0 21:20 11.11.2020
1951 Clear 4 1024 93 10000 1 240 20:54 11.11.2020
1952 Clouds 4 1024 93 10000 0.5 0 20:36 11.11.2020
1953 Clouds 4 1024 93 10000 0.5 0 20:18 11.11.2020
1954 Clouds 5 1024 86 10000 1.5 270 19:41 11.11.2020
1955 Clouds 5 1024 86 10000 1 270 19:22 11.11.2020
1956 Clouds 6 1023 87 10000 0.5 0 18:44 11.11.2020
1957 Clouds 6 1023 87 10000 0.5 0 18:26 11.11.2020
1958 Clouds 7 1023 81 10000 1 0 17:41 11.11.2020
1959 Clouds 8 1023 81 10000 1 0 17:21 11.11.2020
1960 Clouds 10 1023 66 10000 2.1 160 16:44 11.11.2020
1961 Clouds 10 1023 66 10000 1.5 180 16:25 11.11.2020
1962 Clouds 11 1023 58 10000 1 180 15:44 11.11.2020
1963 Clouds 11 1023 58 10000 1 180 15:24 11.11.2020
1964 Clouds 11 1023 54 10000 1 0 14:49 11.11.2020
1965 Clouds 11 1024 57 10000 1 0 14:30 11.11.2020
1966 Clouds 10 1024 61 10000 1.5 250 13:50 11.11.2020
1967 Clouds 10 1024 70 10000 2.1 270 13:32 11.11.2020
1968 Clouds 7 1026 75 10000 1 0 12:38 11.11.2020
1969 Clouds 7 1026 75 10000 1 0 12:20 11.11.2020
1970 Clouds 5 1027 86 10000 2.6 260 11:47 11.11.2020
1971 Clouds 5 1027 86 10000 2.6 260 11:25 11.11.2020
1972 Clouds 3 1028 93 10000 0.5 0 10:39 11.11.2020
1973 Clouds 4 1028 93 10000 0.5 0 10:20 11.11.2020
1974 Clouds 3 1028 100 10000 0.5 0 09:44 11.11.2020
1975 Clouds 3 1028 100 10000 0.5 0 09:24 11.11.2020
1976 Fog 2 1028 60 10000 0.5 0 08:46 11.11.2020
1977 Fog 1 1028 68 10000 0.5 0 08:27 11.11.2020
1978 Fog 1 1028 100 10000 0.5 0 07:49 11.11.2020
1979 Clouds 1 1028 69 8000 0.5 0 06:33 11.11.2020
1980 Mist 1 1028 68 5000 0.5 0 05:59 11.11.2020
1981 Clouds 2 1028 100 9000 0.5 0 02:48 11.11.2020
1982 Clouds 3 1028 100 10000 1 0 00:59 11.11.2020
1983 Clouds 3 1028 93 10000 0.5 0 00:26 11.11.2020
1984 Clouds 4 1028 93 10000 0.5 0 23:42 10.11.2020
1985 Clouds 4 1028 93 10000 0.5 0 23:23 10.11.2020
1986 Clear 4 1028 93 10000 0.5 0 22:52 10.11.2020
1987 Clear 4 1028 93 10000 0.5 0 22:27 10.11.2020
1988 Clear 4 1028 93 10000 1 250 21:43 10.11.2020
1989 Clear 4 1028 93 10000 1 250 21:25 10.11.2020
1990 Clear 4 1027 93 10000 0.5 0 20:58 10.11.2020
1991 Clear 5 1027 86 10000 0.5 0 20:40 10.11.2020
1992 Clear 5 1027 86 10000 0.5 0 20:22 10.11.2020
1993 Clear 5 1027 93 10000 1 260 19:47 10.11.2020
1994 Clear 5 1027 93 10000 0.5 0 19:28 10.11.2020
1995 Clear 6 1027 86 10000 0.34 221 18:57 10.11.2020
1996 Clear 7 1027 81 10000 1 270 18:39 10.11.2020
1997 Clear 7 1026 87 10000 0.5 0 18:18 10.11.2020
1998 Clear 8 1026 81 10000 1 180 17:42 10.11.2020
1999 Clear 8 1026 81 10000 1 180 17:24 10.11.2020
2000 Clear 11 1025 66 10000 1 0 16:43 10.11.2020
2001 Clear 12 1025 62 10000 0.5 0 16:24 10.11.2020
2002 Clear 12 1025 62 10000 0.5 0 15:55 10.11.2020
2003 Clear 12 1025 58 10000 1 0 15:37 10.11.2020
2004 Clear 12 1025 58 10000 1 0 15:19 10.11.2020
2005 Clear 12 1025 50 10000 0.5 0 14:41 10.11.2020
2006 Clear 12 1025 50 10000 0.5 0 14:20 10.11.2020
2007 Clear 11 1026 57 10000 1.5 250 13:41 10.11.2020
2008 Clear 10 1026 57 10000 1.5 250 13:22 10.11.2020
2009 Clear 10 1026 61 10000 1.5 240 12:56 10.11.2020
2010 Clear 8 1027 70 10000 1.5 260 12:38 10.11.2020
2011 Clear 8 1027 70 10000 1.5 260 12:19 10.11.2020
2012 Clear 7 1027 75 10000 2.6 270 11:38 10.11.2020
2013 Clear 6 1028 81 10000 1.5 270 11:19 10.11.2020
2014 Clear 5 1028 80 10000 1.5 250 10:42 10.11.2020
2015 Clear 6 1028 80 10000 1.5 250 10:23 10.11.2020
2016 Clear 2 1028 93 10000 1 250 09:47 10.11.2020
2017 Clear 3 1028 93 10000 1 250 09:26 10.11.2020
2018 Clear 2 1028 53 10000 1 0 08:57 10.11.2020
2019 Fog 1 1028 100 10000 1 0 08:30 10.11.2020
2020 Fog 1 1028 100 10000 1 0 07:47 10.11.2020
2021 Fog 2 1028 63 10000 0.5 0 07:26 10.11.2020
2022 Fog 1 1027 100 10000 0.5 0 06:47 10.11.2020
2023 Fog 1 1027 100 10000 0.5 0 06:23 10.11.2020
2024 Clear 2 1027 61 10000 0.5 0 05:27 10.11.2020
2025 Clear 2 1027 60 10000 1 210 02:48 10.11.2020
2026 Clear 3 1027 93 10000 0.5 0 01:37 10.11.2020
2027 Clear 4 1027 93 10000 1 260 00:23 10.11.2020
2028 Clear 4 1027 93 10000 0.5 0 23:41 09.11.2020
2029 Clear 4 1027 93 10000 0.5 0 22:56 09.11.2020
2030 Clear 4 1027 93 10000 0.5 0 22:37 09.11.2020
2031 Clear 4 1027 93 10000 0.5 0 22:19 09.11.2020
2032 Clear 4 1027 93 10000 0.5 0 21:39 09.11.2020
2033 Clear 4 1027 93 10000 0.5 0 21:20 09.11.2020
2034 Clear 5 1026 86 10000 0.5 0 20:40 09.11.2020
2035 Clear 5 1026 86 10000 0.5 0 20:21 09.11.2020
2036 Clear 6 1026 86 10000 1 0 19:42 09.11.2020
2037 Clear 6 1026 86 10000 1 0 19:22 09.11.2020
2038 Clear 7 1026 81 10000 1 0 18:47 09.11.2020
2039 Clear 7 1025 81 10000 0.5 0 18:21 09.11.2020
2040 Clear 7 1025 75 10000 0.5 0 17:59 09.11.2020
2041 Clear 8 1024 70 10000 0.5 0 17:39 09.11.2020
2042 Clear 9 1024 70 10000 0.5 0 17:21 09.11.2020
2043 Clear 12 1024 62 10000 0.5 0 16:39 09.11.2020
2044 Clear 13 1023 54 10000 1.5 180 16:19 09.11.2020
2045 Clear 13 1023 50 10000 1.5 170 15:42 09.11.2020
2046 Clear 13 1023 50 10000 1.5 170 15:24 09.11.2020
2047 Clear 13 1024 50 10000 1.5 160 14:44 09.11.2020
2048 Clear 13 1024 50 10000 1.5 160 14:26 09.11.2020
2049 Clear 12 1024 50 10000 1 0 13:52 09.11.2020
2050 Clear 11 1024 53 10000 1 0 13:21 09.11.2020
2051 Clear 11 1024 53 10000 1 0 12:50 09.11.2020
2052 Clear 11 1025 57 10000 1 0 12:26 09.11.2020
2053 Clear 9 1025 61 10000 1 0 11:59 09.11.2020
2054 Clear 9 1026 70 10000 1.5 250 11:41 09.11.2020
2055 Clear 8 1026 75 10000 1 0 11:22 09.11.2020
2056 Clear 7 1026 81 10000 1 0 10:43 09.11.2020
2057 Clear 8 1026 81 10000 1 0 10:24 09.11.2020
2058 Clear 6 1026 86 10000 1 0 09:51 09.11.2020
2059 Clear 3 1026 45 10000 0.5 0 09:25 09.11.2020
2060 Clear 2 1026 45 10000 1 290 08:44 09.11.2020
2061 Fog 2 1026 53 10000 1.5 230 08:21 09.11.2020
2062 Fog 2 1026 53 10000 0.5 0 07:41 09.11.2020
2063 Fog 2 1026 55 10000 0.5 0 07:21 09.11.2020
2064 Fog 2 1025 57 10000 0.5 0 06:42 09.11.2020
2065 Clear 3 1025 54 10000 1 0 03:32 09.11.2020
2066 Clear 4 1025 93 10000 0.5 0 01:55 09.11.2020
2067 Clear 4 1025 93 10000 1 230 01:36 09.11.2020
2068 Clear 5 1025 93 10000 0.5 0 23:54 08.11.2020
2069 Clear 5 1025 93 10000 1.5 280 23:30 08.11.2020
2070 Clear 5 1025 93 10000 1.5 250 22:58 08.11.2020
2071 Clear 5 1025 86 10000 0.5 0 22:40 08.11.2020
2072 Clear 6 1025 86 10000 0.5 0 22:19 08.11.2020
2073 Clear 6 1025 93 10000 0.5 0 21:39 08.11.2020
2074 Clear 6 1025 93 10000 0.5 0 21:19 08.11.2020
2075 Clear 6 1025 86 10000 0.5 0 20:54 08.11.2020
2076 Clear 7 1025 87 10000 1 280 20:36 08.11.2020
2077 Clear 7 1024 81 10000 1.5 210 20:18 08.11.2020
2078 Clear 8 1024 81 10000 2.1 270 19:42 08.11.2020
2079 Clear 8 1024 81 10000 2.1 270 19:21 08.11.2020
2080 Clear 9 1024 70 10000 0.5 0 18:48 08.11.2020
2081 Clear 9 1024 70 10000 0.5 0 18:22 08.11.2020
2082 Clear 9 1024 76 10000 1 0 17:58 08.11.2020
2083 Clear 10 1024 71 10000 0.5 0 17:38 08.11.2020
2084 Clear 10 1024 71 10000 0.5 0 17:19 08.11.2020
2085 Clear 11 1024 62 10000 1 0 16:48 08.11.2020
2086 Clear 12 1024 62 10000 1 0 16:22 08.11.2020
2087 Clear 12 1024 62 10000 1 0 15:58 08.11.2020
2088 Clear 14 1024 54 10000 1 170 15:40 08.11.2020
2089 Clear 14 1024 47 10000 1.5 160 15:21 08.11.2020
2090 Clear 14 1024 41 10000 1 0 14:41 08.11.2020
2091 Clear 14 1024 41 10000 1 0 14:21 08.11.2020
2092 Clear 14 1025 44 10000 1 0 13:46 08.11.2020
2093 Clear 14 1025 50 10000 1 0 13:23 08.11.2020
2094 Clear 14 1025 50 10000 1 0 13:23 08.11.2020
2095 Clear 12 1026 50 10000 1 0 12:44 08.11.2020
2096 Clear 12 1026 50 10000 1 0 12:25 08.11.2020
2097 Clear 11 1026 57 10000 1.5 240 11:58 08.11.2020
2098 Clear 10 1027 66 10000 2.6 260 11:39 08.11.2020
2099 Clear 9 1027 66 10000 2.6 260 11:20 08.11.2020
2100 Clear 9 1027 70 10000 0.5 0 10:50 08.11.2020
2101 Clear 8 1027 70 10000 0.5 0 10:19 08.11.2020
2102 Clear 5 1028 86 10000 1 0 09:44 08.11.2020
2103 Clear 5 1028 86 10000 1 0 09:24 08.11.2020
2104 Clear 3 1028 41 10000 0.5 0 08:58 08.11.2020
2105 Clear 2 1028 41 10000 0.5 0 08:39 08.11.2020
2106 Clear 2 1028 41 10000 0.5 0 08:39 08.11.2020
2107 Clear 3 1028 48 10000 1 0 08:18 08.11.2020
2108 Clear 3 1028 48 10000 1 0 07:51 08.11.2020
2109 Clear 3 1028 51 10000 1 0 07:21 08.11.2020
2110 Clear 3 1027 51 10000 1.5 290 05:56 08.11.2020
2111 Clear 4 1028 100 10000 0.5 0 05:31 08.11.2020
2112 Clear 3 1028 51 10000 1 0 04:18 08.11.2020
2113 Clear 2 1028 93 10000 2.1 240 01:50 08.11.2020
2114 Clear 2 1028 51 10000 1 0 01:18 08.11.2020
2115 Clear 2 1028 93 10000 1 0 00:27 08.11.2020
2116 Clear 2 1028 93 10000 1 0 00:27 08.11.2020
2117 Clear 3 1028 93 10000 2.1 210 23:46 07.11.2020
2118 Clear 4 1028 93 10000 1 0 23:28 07.11.2020
2119 Clear 4 1028 93 10000 1 0 22:43 07.11.2020
2120 Clear 4 1028 93 10000 1 0 22:24 07.11.2020
2121 Clear 5 1028 86 10000 0.5 0 21:46 07.11.2020
2122 Clear 5 1028 86 10000 0.5 0 21:22 07.11.2020
2123 Clear 5 1028 86 10000 0.5 0 20:55 07.11.2020
2124 Clear 6 1027 80 10000 1 0 20:36 07.11.2020
2125 Clear 7 1027 81 10000 0.5 0 20:18 07.11.2020
2126 Clear 7 1027 81 10000 1 0 19:41 07.11.2020
2127 Clear 7 1027 81 10000 1 0 19:22 07.11.2020
2128 Clear 8 1026 70 10000 0.5 0 18:39 07.11.2020
2129 Clear 9 1026 70 10000 1 0 18:21 07.11.2020
2130 Clear 9 1026 70 10000 1.5 210 17:46 07.11.2020
2131 Clear 9 1026 70 10000 1.5 210 17:26 07.11.2020
2132 Clear 12 1025 58 10000 1 0 16:44 07.11.2020
2133 Clear 13 1025 58 10000 1 0 16:24 07.11.2020
2134 Clear 15 1025 58 10000 1 0 15:48 07.11.2020
2135 Clear 15 1026 47 10000 1.5 170 15:24 07.11.2020
2136 Clear 15 1026 51 10000 1.5 170 14:58 07.11.2020
2137 Clear 15 1026 51 10000 1.5 170 14:58 07.11.2020
2138 Clear 15 1026 47 10000 1.5 230 14:40 07.11.2020
2139 Clear 14 1026 47 10000 1.5 230 14:19 07.11.2020
2140 Clear 13 1027 47 10000 3.1 230 13:39 07.11.2020
2141 Clear 13 1027 47 10000 3.1 230 13:21 07.11.2020
2142 Clear 12 1028 54 10000 4.1 260 12:35 07.11.2020
2143 Clear 11 1029 61 10000 1.5 250 11:46 07.11.2020
2144 Clear 10 1029 61 10000 1.5 250 11:25 07.11.2020
2145 Clear 9 1029 75 10000 1.5 250 10:57 07.11.2020
2146 Clear 8 1030 81 10000 0.5 0 10:39 07.11.2020
2147 Clear 8 1030 81 10000 1 0 10:20 07.11.2020
2148 Clear 6 1030 93 10000 1 130 09:47 07.11.2020
2149 Clear 6 1030 93 10000 1 130 09:21 07.11.2020
2150 Fog 4 1030 100 10000 0.5 0 08:47 07.11.2020
2151 Fog 3 1030 100 10000 0.5 0 08:28 07.11.2020
2152 Fog 3 1030 100 10000 1 0 07:48 07.11.2020
2153 Fog 3 1030 100 10000 0.5 0 06:50 07.11.2020
2154 Clear 4 1030 93 10000 1 210 05:48 07.11.2020
2155 Clear 3 1030 100 10000 1 0 03:26 07.11.2020
2156 Clear 3 1031 93 10000 0.5 0 02:38 07.11.2020
2157 Clear 4 1031 100 10000 1 0 01:27 07.11.2020
2158 Clear 4 1031 100 10000 1 0 01:27 07.11.2020
2159 Clear 4 1031 100 10000 0.5 0 00:37 07.11.2020
2160 Clear 5 1031 100 10000 1 0 23:39 06.11.2020
2161 Clear 5 1031 93 10000 0.5 0 23:18 06.11.2020
2162 Clear 5 1031 93 10000 0.5 0 22:40 06.11.2020
2163 Clear 6 1032 93 10000 0.5 0 22:18 06.11.2020
2164 Clear 6 1032 93 10000 1 0 21:42 06.11.2020
2165 Clear 6 1031 93 10000 1 0 21:20 06.11.2020
2166 Clear 7 1031 87 10000 2.1 230 20:45 06.11.2020
2167 Clear 7 1031 87 10000 1 240 20:20 06.11.2020
2168 Clear 7 1031 87 10000 1 240 20:20 06.11.2020
2169 Clear 7 1031 87 10000 0.5 0 19:45 06.11.2020
2170 Clear 7 1031 87 10000 0.5 0 19:27 06.11.2020
2171 Clear 8 1031 81 10000 1 0 18:56 06.11.2020
2172 Clear 9 1031 81 10000 1.5 160 18:38 06.11.2020
2173 Clear 9 1031 81 10000 1.5 160 18:19 06.11.2020
2174 Clear 12 1030 66 10000 2.1 80 17:42 06.11.2020
2175 Clear 10 1030 66 10000 2.1 80 17:24 06.11.2020
2176 Clear 12 1030 62 10000 1.5 170 16:42 06.11.2020
2177 Clear 12 1030 62 10000 1.5 170 16:21 06.11.2020
2178 Clear 14 1030 58 10000 1.5 0 15:44 06.11.2020
2179 Clear 14 1030 58 10000 1.5 0 15:25 06.11.2020
2180 Clear 15 1030 54 10000 3.6 260 14:49 06.11.2020
2181 Clear 14 1030 58 10000 4.6 270 14:22 06.11.2020
2182 Clear 14 1031 54 10000 4.6 270 13:42 06.11.2020
2183 Clear 13 1031 62 10000 4.1 260 13:20 06.11.2020
2184 Clouds 12 1032 62 10000 4.6 260 12:43 06.11.2020
2185 Clouds 12 1032 62 10000 4.6 260 12:23 06.11.2020
2186 Clouds 12 1032 62 10000 4.6 260 12:23 06.11.2020
2187 Clouds 11 1033 66 10000 3.6 250 11:39 06.11.2020
2188 Clouds 10 1033 66 10000 3.6 250 11:20 06.11.2020
2189 Clouds 10 1033 76 10000 0.5 0 10:36 06.11.2020
2190 Clouds 8 1033 81 10000 1.5 150 10:18 06.11.2020
2191 Clouds 8 1033 81 10000 1.5 130 09:41 06.11.2020
2192 Clouds 6 1033 93 8000 0.5 0 09:21 06.11.2020
2193 Clouds 4 1033 100 8000 0.5 0 08:47 06.11.2020
2194 Clouds 6 1033 100 8000 0.5 0 08:28 06.11.2020
2195 Fog 6 1033 93 7000 1 0 07:44 06.11.2020
2196 Clouds 6 1033 100 7000 0.5 0 07:21 06.11.2020
2197 Clouds 6 1033 100 7000 0.5 0 06:48 06.11.2020
2198 Clouds 6 1033 93 10000 0.5 0 05:40 06.11.2020
2199 Clouds 7 1033 93 10000 1 260 02:53 06.11.2020
2200 Clouds 8 1034 81 10000 2.1 80 00:35 06.11.2020
2201 Clouds 8 1034 87 10000 1 100 23:57 05.11.2020
2202 Clouds 8 1034 81 10000 0.5 0 23:26 05.11.2020
2203 Clouds 8 1034 87 10000 2.1 100 22:49 05.11.2020
2204 Clouds 8 1034 87 10000 2.1 100 22:26 05.11.2020
2205 Clouds 8 1034 87 10000 2.1 100 22:26 05.11.2020
2206 Clouds 8 1034 87 10000 2.6 50 21:58 05.11.2020
2207 Clouds 8 1034 87 10000 1.5 60 21:40 05.11.2020
2208 Clouds 8 1034 87 10000 1.5 60 21:19 05.11.2020
2209 Clouds 8 1034 87 10000 1.5 50 20:44 05.11.2020
2210 Clouds 8 1034 87 10000 1.5 50 20:25 05.11.2020
2211 Clouds 8 1034 81 10000 2.1 80 19:57 05.11.2020
2212 Clouds 8 1034 81 10000 1.5 90 19:38 05.11.2020
2213 Clouds 8 1034 81 10000 2.6 70 19:19 05.11.2020
2214 Clouds 8 1033 87 10000 1.5 60 18:41 05.11.2020
2215 Clouds 8 1033 87 10000 1.5 60 18:22 05.11.2020
2216 Clouds 9 1033 76 10000 2.6 60 17:47 05.11.2020
2217 Clouds 9 1033 76 10000 2.6 60 17:26 05.11.2020
2218 Clouds 9 1034 76 10000 2.6 70 16:50 05.11.2020
2219 Clouds 9 1034 81 10000 3.1 70 16:29 05.11.2020
2220 Clouds 9 1033 76 10000 2.6 60 15:55 05.11.2020
2221 Clouds 9 1033 76 10000 2.6 60 15:37 05.11.2020
2222 Clouds 9 1033 76 10000 2.6 60 15:18 05.11.2020
2223 Clouds 9 1034 81 10000 2.1 50 14:44 05.11.2020
2224 Clouds 9 1034 81 10000 2.1 50 14:24 05.11.2020
2225 Clouds 9 1034 76 10000 1.5 60 13:41 05.11.2020
2226 Clouds 9 1034 76 10000 1.5 60 13:20 05.11.2020
2227 Clouds 9 1034 81 10000 1 0 12:43 05.11.2020
2228 Clouds 9 1034 81 10000 1 0 12:23 05.11.2020
2229 Clouds 8 1035 87 10000 0.5 0 11:44 05.11.2020
2230 Clouds 8 1035 87 10000 0.5 0 11:24 05.11.2020
2231 Clouds 8 1035 87 10000 0.5 0 10:52 05.11.2020
2232 Drizzle 7 1035 93 10000 1 0 10:28 05.11.2020
2233 Drizzle 7 1035 93 7000 0.5 0 09:50 05.11.2020
2234 Drizzle 7 1035 93 5000 1.5 80 09:25 05.11.2020
2235 Clouds 7 1034 93 6000 2.1 90 08:59 05.11.2020
2236 Clouds 7 1034 87 8000 2.1 70 08:41 05.11.2020
2237 Clouds 7 1034 87 8000 2.1 70 08:23 05.11.2020
2238 Clouds 7 1033 87 8000 1.5 70 07:29 05.11.2020
2239 Clouds 7 1033 87 9000 0.5 0 06:51 05.11.2020
2240 Clouds 7 1033 93 9000 0.5 0 06:32 05.11.2020
2241 Clouds 7 1033 93 10000 1 280 03:45 05.11.2020
2242 Clouds 8 1032 81 10000 1 0 00:45 05.11.2020
2243 Clouds 8 1032 81 10000 2.1 80 00:20 05.11.2020
2244 Clouds 8 1031 81 10000 2.1 60 23:43 04.11.2020
2245 Clouds 8 1031 81 10000 2.1 60 23:24 04.11.2020
2246 Clouds 8 1031 81 10000 1 0 22:42 04.11.2020
2247 Clouds 8 1031 81 10000 1 0 22:22 04.11.2020
2248 Clouds 8 1031 81 10000 1 0 22:22 04.11.2020
2249 Clouds 8 1031 81 10000 1.5 70 21:47 04.11.2020
2250 Clouds 8 1031 81 10000 2.1 80 21:27 04.11.2020
2251 Clouds 8 1030 81 10000 3.1 80 20:54 04.11.2020
2252 Clouds 8 1030 81 10000 3.1 60 20:35 04.11.2020
2253 Clouds 8 1030 81 10000 2.1 50 19:59 04.11.2020
2254 Clouds 8 1030 81 10000 3.1 60 19:40 04.11.2020
2255 Clouds 8 1029 81 10000 3.1 60 19:22 04.11.2020
2256 Clouds 9 1029 76 10000 3.6 70 18:41 04.11.2020
2257 Clouds 9 1029 76 10000 3.6 70 18:23 04.11.2020
2258 Clouds 9 1029 76 10000 3.1 70 17:48 04.11.2020
2259 Clouds 9 1028 76 10000 1.5 50 17:27 04.11.2020
2260 Clouds 9 1028 76 10000 1.5 50 17:27 04.11.2020
2261 Clouds 9 1028 76 10000 0.5 0 16:56 04.11.2020
2262 Clouds 9 1028 81 10000 1 0 16:36 04.11.2020
2263 Clouds 10 1027 71 10000 1.5 340 16:18 04.11.2020
2264 Clouds 10 1027 66 10000 0.5 0 15:41 04.11.2020
2265 Clouds 10 1027 66 10000 0.5 0 15:23 04.11.2020
2266 Clouds 10 1027 71 10000 0.5 0 14:45 04.11.2020
2267 Clouds 10 1027 71 10000 0.5 0 14:25 04.11.2020
2268 Clouds 10 1027 71 10000 0.5 0 13:52 04.11.2020
2269 Clouds 10 1027 71 10000 0.5 0 13:22 04.11.2020
2270 Clouds 9 1027 76 10000 1 0 12:58 04.11.2020
2271 Clouds 9 1027 81 10000 2.1 270 12:40 04.11.2020
2272 Clouds 9 1027 81 10000 2.1 270 12:22 04.11.2020
2273 Clouds 9 1027 81 10000 2.6 290 11:45 04.11.2020
2274 Clouds 8 1027 87 10000 2.6 290 11:22 04.11.2020
2275 Clouds 8 1027 87 10000 2.6 290 10:49 04.11.2020
2276 Clouds 8 1027 87 10000 2.6 280 10:24 04.11.2020
2277 Clouds 8 1027 81 10000 0.5 0 09:55 04.11.2020
2278 Clouds 8 1027 81 10000 1.5 0 09:28 04.11.2020
2279 Clouds 8 1027 81 10000 1.5 50 08:49 04.11.2020
2280 Clouds 7 1027 87 10000 2.1 0 08:23 04.11.2020
2281 Clouds 7 1027 87 10000 3.1 70 07:57 04.11.2020
2282 Clouds 7 1027 93 10000 1 0 07:31 04.11.2020
2283 Clouds 7 1026 93 10000 1 0 06:59 04.11.2020
2284 Clouds 8 1026 87 10000 0.5 0 06:39 04.11.2020
2285 Drizzle 8 1026 100 6000 1 0 04:46 04.11.2020
2286 Drizzle 9 1026 93 6000 2.6 270 02:31 04.11.2020
2287 Clouds 9 1026 93 5000 2.6 270 01:38 04.11.2020
2288 Clouds 10 1025 87 10000 2.1 0 23:56 03.11.2020
2289 Clouds 11 1025 87 6000 1 0 23:25 03.11.2020
2290 Clouds 11 1024 93 5000 2.1 170 22:54 03.11.2020
2291 Clouds 11 1024 100 6000 1 0 22:36 03.11.2020
2292 Clouds 11 1023 100 10000 2.6 250 22:18 03.11.2020
2293 Clouds 12 1023 93 10000 1 0 21:41 03.11.2020
2294 Clouds 12 1023 93 10000 1 0 21:23 03.11.2020
2295 Clouds 12 1023 87 10000 1.5 90 20:48 03.11.2020
2296 Clouds 12 1023 87 10000 1.5 90 20:26 03.11.2020
2297 Clouds 12 1023 87 10000 2.6 70 19:49 03.11.2020
2298 Clouds 12 1023 87 10000 2.6 70 19:29 03.11.2020
2299 Clouds 12 1022 87 10000 2.6 70 18:58 03.11.2020
2300 Clouds 12 1022 87 10000 2.1 80 18:40 03.11.2020
2301 Clouds 13 1022 82 10000 3.1 80 18:18 03.11.2020
2302 Clouds 13 1022 82 10000 2.1 90 17:44 03.11.2020
2303 Clouds 13 1022 82 10000 2.1 90 17:26 03.11.2020
2304 Clouds 14 1022 82 10000 1.5 100 16:45 03.11.2020
2305 Clouds 14 1022 82 10000 1.5 100 16:27 03.11.2020
2306 Clouds 14 1022 77 10000 1.5 250 15:53 03.11.2020
2307 Clouds 14 1022 77 10000 1.5 250 15:30 03.11.2020
2308 Clouds 14 1022 77 10000 1.5 250 15:30 03.11.2020
2309 Clouds 14 1022 82 10000 3.1 260 14:54 03.11.2020
2310 Clouds 14 1022 82 10000 3.1 260 14:33 03.11.2020
2311 Clouds 14 1022 77 10000 1 0 13:59 03.11.2020
2312 Clouds 14 1023 77 10000 1.5 100 13:40 03.11.2020
2313 Clouds 14 1023 77 10000 1.5 100 13:20 03.11.2020
2314 Clouds 14 1023 87 10000 0.5 0 12:44 03.11.2020
2315 Clouds 13 1023 87 10000 0.5 0 12:21 03.11.2020
2316 Clouds 13 1024 93 10000 0.5 0 11:46 03.11.2020
2317 Clouds 13 1024 93 10000 0.5 0 11:23 03.11.2020
2318 Clouds 12 1024 93 10000 0.5 0 10:55 03.11.2020
2319 Clouds 12 1024 93 10000 0.5 0 10:55 03.11.2020
2320 Clouds 12 1024 93 10000 1 280 10:36 03.11.2020
2321 Clouds 12 1024 93 10000 0.5 0 10:18 03.11.2020
2322 Clouds 12 1024 93 10000 0.5 0 09:44 03.11.2020
2323 Clouds 12 1024 93 10000 0.5 0 09:20 03.11.2020
2324 Clouds 12 1024 93 10000 0.5 0 08:45 03.11.2020
2325 Clouds 12 1024 93 10000 0.5 0 08:26 03.11.2020
2326 Clouds 11 1023 93 10000 1 280 07:37 03.11.2020
2327 Clouds 11 1023 93 10000 1 0 06:53 03.11.2020
2328 Clouds 11 1023 93 10000 1 310 06:20 03.11.2020
2329 Clouds 11 1023 93 10000 0.5 0 03:38 03.11.2020
2330 Clouds 12 1023 93 10000 0.5 0 00:43 03.11.2020
2331 Clouds 12 1023 93 10000 0.5 0 00:20 03.11.2020
2332 Clouds 11 1023 93 10000 1 0 23:41 02.11.2020
2333 Clear 11 1023 87 10000 2.6 250 22:57 02.11.2020
2334 Clear 11 1022 93 10000 1 0 22:37 02.11.2020
2335 Clear 11 1022 93 10000 1 10 22:19 02.11.2020
2336 Clear 11 1022 93 10000 0.5 0 21:39 02.11.2020
2337 Clear 11 1022 93 10000 0.5 0 21:39 02.11.2020
2338 Clear 11 1022 93 10000 0.5 0 21:20 02.11.2020
2339 Clear 11 1021 87 10000 1 270 20:42 02.11.2020
2340 Clear 11 1021 87 10000 1 270 20:20 02.11.2020
2341 Clear 12 1021 87 10000 0.5 0 19:59 02.11.2020
2342 Clear 12 1021 81 10000 0.5 0 19:41 02.11.2020
2343 Clear 12 1021 81 10000 0.5 0 19:21 02.11.2020
2344 Clear 13 1020 82 10000 1 0 18:41 02.11.2020
2345 Clear 14 1020 76 10000 1 0 18:21 02.11.2020
2346 Clear 14 1020 76 10000 1 0 17:56 02.11.2020
2347 Clear 15 1020 77 10000 0.5 0 17:37 02.11.2020
2348 Clear 16 1019 72 10000 1.5 170 17:18 02.11.2020
2349 Clear 17 1019 67 10000 1 160 16:40 02.11.2020
2350 Clear 17 1019 67 10000 1 160 16:21 02.11.2020
2351 Clear 19 1019 55 10000 3.1 110 15:39 02.11.2020
2352 Clear 18 1019 55 10000 3.1 110 15:21 02.11.2020
2353 Clear 18 1019 55 10000 2.6 90 14:53 02.11.2020
2354 Clear 18 1019 52 10000 2.1 100 14:20 02.11.2020
2355 Clouds 18 1020 59 10000 1.5 160 13:53 02.11.2020
2356 Clouds 18 1020 52 10000 1.5 160 13:23 02.11.2020
2357 Clouds 17 1021 59 10000 0.5 0 12:59 02.11.2020
2358 Clouds 17 1021 59 10000 1 0 12:31 02.11.2020
2359 Clouds 16 1021 63 10000 0.5 0 11:56 02.11.2020
2360 Clouds 16 1022 72 10000 0.5 0 11:37 02.11.2020
2361 Clouds 16 1022 72 10000 0.5 0 11:19 02.11.2020
2362 Clouds 14 1022 81 10000 1.5 280 10:41 02.11.2020
2363 Clouds 14 1022 81 10000 1.5 280 10:20 02.11.2020
2364 Clouds 12 1022 87 10000 0.5 0 09:49 02.11.2020
2365 Clouds 11 1022 87 10000 0.5 0 09:23 02.11.2020
2366 Clouds 11 1022 87 10000 0.5 0 08:42 02.11.2020
2367 Clouds 10 1022 87 10000 0.5 0 08:22 02.11.2020
2368 Clouds 10 1021 93 10000 1.5 250 07:50 02.11.2020
2369 Clouds 10 1022 93 10000 1.5 0 07:50 02.11.2020
2370 Clouds 10 1021 93 10000 2.1 260 06:52 02.11.2020
2371 Clouds 10 1021 93 10000 0.5 0 06:34 02.11.2020
2372 Clouds 9 1021 87 10000 0.5 0 03:27 02.11.2020
2373 Clouds 10 1022 93 10000 2.1 270 01:24 02.11.2020
2374 Clouds 10 1022 93 10000 2.1 270 01:24 02.11.2020
2375 Clouds 10 1023 87 10000 1 0 00:35 02.11.2020
2376 Clouds 10 1023 87 10000 1.5 240 23:41 01.11.2020
2377 Clouds 9 1023 87 10000 1.5 240 23:23 01.11.2020
2378 Clouds 9 1022 87 10000 1.5 280 22:46 01.11.2020
2379 Clouds 9 1022 87 10000 1 0 22:25 01.11.2020
2380 Clouds 9 1022 87 10000 1 0 22:25 01.11.2020
2381 Clouds 9 1022 87 10000 1 170 21:58 01.11.2020
2382 Clouds 10 1022 87 10000 1 0 21:38 01.11.2020
2383 Clouds 10 1022 87 10000 0.5 0 21:20 01.11.2020
2384 Clouds 9 1022 87 10000 1 0 20:41 01.11.2020
2385 Clouds 9 1022 87 10000 1 0 20:23 01.11.2020
2386 Clouds 9 1022 87 10000 1.5 270 19:43 01.11.2020
2387 Clouds 9 1022 87 10000 1.5 270 19:24 01.11.2020
2388 Clouds 10 1022 81 10000 1 0 18:44 01.11.2020
2389 Clouds 10 1022 81 10000 1 0 18:20 01.11.2020
2390 Clouds 10 1022 81 10000 1 0 18:20 01.11.2020
2391 Clouds 10 1022 81 10000 1 0 17:58 01.11.2020
2392 Clouds 10 1022 81 10000 0.5 0 17:40 01.11.2020
2393 Clouds 10 1022 81 10000 0.5 0 17:21 01.11.2020
2394 Clouds 11 1022 76 10000 0.5 0 16:41 01.11.2020
2395 Clouds 11 1022 71 10000 3.1 260 16:19 01.11.2020
2396 Clouds 11 1022 71 10000 3.1 260 16:19 01.11.2020
2397 Clouds 11 1022 66 10000 1.5 90 15:42 01.11.2020
2398 Rain 11 1022 66 10000 1.5 90 15:22 01.11.2020
2399 Rain 10 1022 76 10000 1 0 14:59 01.11.2020
2400 Rain 10 1023 76 10000 1 340 14:41 01.11.2020
2401 Rain 10 1023 76 10000 1 340 14:21 01.11.2020
2402 Rain 10 1022 76 10000 0.5 0 13:48 01.11.2020
2403 Rain 11 1022 71 10000 0.5 0 13:30 01.11.2020
2404 Clouds 9 1023 76 10000 1 0 12:44 01.11.2020
2405 Clouds 9 1023 81 10000 0.5 0 12:23 01.11.2020
2406 Clouds 9 1023 81 10000 0.5 0 11:52 01.11.2020
2407 Clouds 8 1023 93 10000 0.5 0 11:19 01.11.2020
2408 Clouds 8 1023 93 10000 0.5 0 10:55 01.11.2020
2409 Clouds 8 1023 87 10000 1 0 10:37 01.11.2020
2410 Clouds 7 1023 87 10000 1 0 10:19 01.11.2020
2411 Clouds 6 1023 93 10000 2.1 260 09:43 01.11.2020
2412 Clouds 5 1023 93 10000 2.1 240 08:47 01.11.2020
2413 Clouds 5 1024 93 10000 1 0 08:24 01.11.2020
2414 Clouds 5 1024 93 10000 1 0 07:43 01.11.2020
2415 Clouds 5 1024 100 8000 1 0 04:31 01.11.2020
2416 Clouds 5 1024 93 10000 1.5 330 01:52 01.11.2020
2417 Clouds 5 1024 100 10000 1 0 00:43 01.11.2020
2418 Clouds 6 1024 100 10000 1.5 290 23:28 31.10.2020
2419 Clear 6 1024 93 10000 1.5 230 22:58 31.10.2020
2420 Clear 6 1024 93 10000 1 0 22:40 31.10.2020
2421 Clear 7 1024 93 10000 1 0 22:21 31.10.2020
2422 Clear 7 1024 93 10000 1 0 21:44 31.10.2020
2423 Clear 7 1024 93 10000 1 0 21:20 31.10.2020
2424 Clear 8 1024 87 10000 1 0 20:38 31.10.2020
2425 Clear 8 1024 87 10000 1 0 20:18 31.10.2020
2426 Clear 9 1023 87 10000 1 0 19:41 31.10.2020
2427 Clear 8 1023 87 10000 1 0 19:23 31.10.2020
2428 Clear 9 1023 81 10000 2.1 240 18:47 31.10.2020
2429 Clear 9 1023 87 10000 1.5 250 18:28 31.10.2020
2430 Clear 11 1023 81 10000 0.5 0 17:41 31.10.2020
2431 Clear 11 1023 81 10000 0.5 0 17:22 31.10.2020
2432 Clear 13 1023 71 10000 1.5 180 16:46 31.10.2020
2433 Clear 14 1023 71 10000 1.5 180 16:27 31.10.2020
2434 Clear 15 1023 62 10000 1 0 15:45 31.10.2020
2435 Clear 15 1023 62 10000 1.5 150 15:25 31.10.2020
2436 Clear 15 1023 54 10000 1 0 14:52 31.10.2020
2437 Clear 14 1024 58 10000 0.5 0 14:31 31.10.2020
2438 Clear 13 1024 62 10000 1 0 13:51 31.10.2020
2439 Clear 12 1025 66 10000 1.5 250 13:28 31.10.2020
2440 Clear 11 1026 76 10000 1 0 12:45 31.10.2020
2441 Clear 10 1027 87 10000 1 0 12:19 31.10.2020
2442 Clouds 8 1027 87 10000 2.1 240 11:39 31.10.2020
2443 Clouds 9 1027 87 10000 2.1 240 11:21 31.10.2020
2444 Clouds 7 1028 93 8000 1.5 220 10:37 31.10.2020
2445 Clouds 6 1028 93 7000 1 0 09:48 31.10.2020
2446 Clouds 6 1028 93 7000 2.6 240 09:30 31.10.2020
2447 Clouds 6 1028 100 7000 1.5 230 08:57 31.10.2020
2448 Clouds 6 1028 100 7000 2.1 190 08:20 31.10.2020
2449 Clouds 6 1028 93 7000 2.1 210 07:29 31.10.2020
2450 Mist 6 1028 93 5000 1.5 180 06:56 31.10.2020
2451 Mist 6 1028 93 5000 2.1 240 06:36 31.10.2020
2452 Clouds 7 1028 93 10000 1 0 03:47 31.10.2020
2453 Clouds 6 1028 93 10000 0.5 0 02:27 31.10.2020
2454 Clouds 6 1028 93 10000 0.5 0 00:52 31.10.2020
2455 Clouds 6 1028 100 10000 0.5 0 23:54 30.10.2020
2456 Clouds 6 1028 100 10000 0.5 0 23:30 30.10.2020
2457 Clouds 6 1028 100 10000 0.5 0 23:30 30.10.2020
2458 Clouds 6 1028 93 10000 0.5 0 22:59 30.10.2020
2459 Clouds 6 1028 93 10000 1 0 22:38 30.10.2020
2460 Clouds 6 1028 93 10000 1 0 22:19 30.10.2020
2461 Clouds 6 1028 100 10000 0.5 0 22:19 30.10.2020
2462 Clouds 7 1028 100 10000 0.5 0 21:47 30.10.2020
2463 Clouds 7 1027 93 10000 1 0 21:26 30.10.2020
2464 Clouds 7 1027 93 10000 1 0 20:45 30.10.2020
2465 Clouds 7 1027 93 10000 1 0 20:26 30.10.2020
2466 Clouds 8 1027 93 10000 1 230 19:56 30.10.2020
2467 Clouds 8 1027 93 10000 0.5 0 19:22 30.10.2020
2468 Clouds 9 1026 93 10000 1 0 18:59 30.10.2020
2469 Clouds 9 1026 93 10000 1 0 18:59 30.10.2020
2470 Clouds 9 1026 93 10000 0.5 0 18:41 30.10.2020
2471 Clouds 9 1026 93 10000 0.5 0 18:22 30.10.2020
2472 Clouds 10 1025 87 10000 0.5 0 17:43 30.10.2020
2473 Clouds 11 1025 81 10000 2.1 170 17:20 30.10.2020
2474 Clouds 11 1025 81 10000 2.1 170 16:50 30.10.2020
2475 Clouds 12 1025 76 10000 1.5 160 16:24 30.10.2020
2476 Clouds 13 1024 67 10000 1.5 120 15:41 30.10.2020
2477 Clouds 13 1024 67 10000 1.5 120 15:21 30.10.2020
2478 Clouds 13 1025 67 10000 1.5 110 14:55 30.10.2020
2479 Clouds 13 1025 67 10000 2.1 130 14:36 30.10.2020
2480 Clouds 13 1025 67 10000 1 0 14:18 30.10.2020
2481 Clouds 12 1025 67 10000 0.5 0 13:41 30.10.2020
2482 Clouds 11 1026 71 10000 2.1 80 13:19 30.10.2020
2483 Clouds 11 1026 76 10000 2.6 70 12:41 30.10.2020
2484 Clouds 11 1026 76 10000 2.6 70 12:21 30.10.2020
2485 Clouds 10 1026 81 10000 1 0 11:44 30.10.2020
2486 Clouds 10 1026 81 10000 1 0 11:20 30.10.2020
2487 Clouds 9 1026 87 10000 1 0 10:50 30.10.2020
2488 Clouds 9 1026 87 10000 1 0 10:25 30.10.2020
2489 Clouds 8 1026 93 10000 1 0 09:46 30.10.2020
2490 Clouds 8 1026 93 10000 1 0 09:24 30.10.2020
2491 Clouds 7 1026 100 10000 1 290 08:55 30.10.2020
2492 Rain 7 1026 100 10000 0.5 0 08:31 30.10.2020
2493 Rain 7 1026 93 10000 1 0 07:51 30.10.2020
2494 Clouds 7 1025 93 10000 0.5 0 07:33 30.10.2020
2495 Clouds 7 1025 100 10000 0.5 0 06:47 30.10.2020
2496 Clouds 7 1025 100 10000 1 0 05:31 30.10.2020
2497 Rain 7 1025 100 10000 1.28 225 02:30 30.10.2020
2498 Rain 7 1025 93 7000 0.5 0 00:46 30.10.2020
2499 Rain 7 1025 93 10000 0.5 0 23:54 29.10.2020
2500 Rain 7 1025 93 9000 0.5 0 23:36 29.10.2020
2501 Clouds 7 1025 93 10000 0.5 0 23:18 29.10.2020
2502 Rain 7 1025 93 10000 0.5 0 22:42 29.10.2020
2503 Rain 7 1025 93 10000 0.5 0 22:23 29.10.2020
2504 Rain 7 1025 93 10000 1 0 21:40 29.10.2020
2505 Rain 7 1025 93 10000 1 0 21:20 29.10.2020
2506 Clouds 7 1024 93 10000 0.5 0 20:42 29.10.2020
2507 Rain 7 1024 93 10000 0.5 0 20:20 29.10.2020
2508 Clouds 7 1024 93 10000 0.5 0 19:43 29.10.2020
2509 Rain 7 1024 93 10000 0.5 0 19:22 29.10.2020
2510 Rain 7 1024 93 10000 0.5 0 18:56 29.10.2020
2511 Rain 7 1023 93 10000 1 60 18:37 29.10.2020
2512 Rain 7 1023 93 10000 1 0 18:18 29.10.2020
2513 Rain 7 1023 93 10000 1.5 60 17:41 29.10.2020
2514 Rain 8 1023 87 10000 1 0 17:21 29.10.2020
2515 Rain 8 1022 87 10000 0.5 0 16:47 29.10.2020
2516 Rain 8 1022 87 10000 0.5 0 16:21 29.10.2020
2517 Rain 8 1022 87 10000 0.5 0 15:57 29.10.2020
2518 Rain 8 1022 87 10000 0.5 0 15:38 29.10.2020
2519 Rain 8 1022 87 10000 0.5 0 15:19 29.10.2020
2520 Rain 8 1022 87 10000 1.5 240 14:46 29.10.2020
2521 Rain 8 1022 87 10000 1.5 240 14:23 29.10.2020
2522 Rain 8 1022 93 10000 1 290 13:48 29.10.2020
2523 Rain 8 1022 87 10000 2.1 280 13:28 29.10.2020
2524 Rain 8 1022 87 10000 1.5 260 12:57 29.10.2020
2525 Rain 8 1022 87 10000 1 0 12:39 29.10.2020
2526 Rain 8 1022 87 10000 1.5 270 12:18 29.10.2020
2527 Rain 7 1022 93 10000 1 0 11:42 29.10.2020
2528 Rain 7 1022 93 10000 1 0 11:24 29.10.2020
2529 Rain 7 1022 87 10000 0.5 0 10:37 29.10.2020
2530 Rain 6 1022 87 10000 0.5 0 10:19 29.10.2020
2531 Rain 6 1022 93 10000 1 0 09:50 29.10.2020
2532 Rain 6 1022 93 10000 1 0 09:27 29.10.2020
2533 Rain 6 1021 93 10000 1.5 290 08:52 29.10.2020
2534 Rain 6 1020 93 10000 1 110 08:26 29.10.2020
2535 Rain 5 1020 100 10000 1.5 290 07:53 29.10.2020
2536 Clouds 5 1019 100 10000 1 0 07:24 29.10.2020
2537 Clouds 5 1019 100 10000 0.5 0 06:54 29.10.2020
2538 Drizzle 5 1019 93 10000 1 290 04:51 29.10.2020
2539 Clouds 5 1021 93 10000 1 0 02:51 29.10.2020
2540 Rain 5 1020 91 10000 0.91 193 00:51 29.10.2020
2541 Clouds 5 1020 91 10000 0.45 350 00:30 29.10.2020
2542 Rain 4 1020 91 10000 1.06 209 23:45 28.10.2020
2543 Clouds 4 1020 91 10000 0.89 161 23:20 28.10.2020
2544 Clouds 4 1021 93 10000 0.5 0 22:44 28.10.2020
2545 Clouds 4 1021 93 10000 0.5 0 22:44 28.10.2020
2546 Clouds 4 1021 93 10000 0.5 0 22:26 28.10.2020
2547 Clouds 4 1021 93 10000 0.5 0 21:55 28.10.2020
2548 Clouds 4 1020 93 10000 1 0 21:37 28.10.2020
2549 Clouds 4 1020 86 10000 0.5 0 21:18 28.10.2020
2550 Clouds 4 1020 93 10000 1 0 20:41 28.10.2020
2551 Clouds 4 1020 93 10000 1 0 20:20 28.10.2020
2552 Clouds 5 1020 86 10000 1 0 19:49 28.10.2020
2553 Clouds 5 1019 86 10000 0.5 0 19:27 28.10.2020
2554 Clouds 6 1019 87 10000 1 0 18:47 28.10.2020
2555 Clouds 6 1019 87 10000 1 0 18:21 28.10.2020
2556 Clouds 7 1018 81 10000 1.5 190 17:44 28.10.2020
2557 Clouds 7 1018 81 10000 1.5 190 17:25 28.10.2020
2558 Clouds 8 1018 76 10000 2.1 160 16:50 28.10.2020
2559 Clouds 8 1018 76 10000 2.1 160 16:32 28.10.2020
2560 Clouds 10 1017 71 10000 2.1 160 15:55 28.10.2020
2561 Clouds 11 1018 66 10000 1.5 150 15:36 28.10.2020
2562 Clouds 10 1019 76 10000 1.67 71 15:18 28.10.2020
2563 Clouds 11 1018 62 10000 1 0 14:41 28.10.2020
2564 Clouds 11 1018 62 10000 1 0 14:20 28.10.2020
2565 Clouds 7 1019 80 10000 1.12 70 12:40 28.10.2020
2566 Clouds 7 1019 82 10000 0.46 34 12:21 28.10.2020
2567 Clouds 15 1016 37 10000 0.46 34 11:45 28.10.2020
2568 Clouds 5 1018 86 10000 1 0 11:24 28.10.2020
2569 Clouds 14 1017 38 10000 0.21 174 11:00 28.10.2020
2570 Clouds 5 1018 86 10000 1.5 190 10:41 28.10.2020
2571 Clouds 5 1018 86 10000 1.5 190 10:22 28.10.2020
2572 Clouds 4 1018 93 10000 2.1 290 09:42 28.10.2020
2573 Clouds 3 1018 93 10000 2.1 290 09:22 28.10.2020
2574 Clouds 3 1018 93 10000 2.1 250 08:49 28.10.2020
2575 Clouds 3 1018 93 10000 2.1 250 08:28 28.10.2020
2576 Clouds 2 1017 93 10000 0.5 0 07:50 28.10.2020
2577 Clouds 2 1017 93 10000 0.5 0 07:30 28.10.2020
2578 Clouds 2 1017 93 10000 1.5 250 06:42 28.10.2020
2579 Clouds 2 1018 93 10000 0.5 0 05:53 28.10.2020
2580 Clouds 2 1018 93 10000 0.5 0 05:21 28.10.2020
2581 Clouds 3 1017 93 10000 1 0 04:28 28.10.2020
2582 Clouds 2 1018 93 10000 0.5 0 02:26 28.10.2020
2583 Clouds 3 1017 93 10000 1 0 01:52 28.10.2020
2584 Clouds 3 1017 93 10000 0.5 0 00:29 28.10.2020
2585 Clouds 3 1017 93 10000 1 0 23:45 27.10.2020
2586 Clouds 1 1017 93 10000 1 0 23:21 27.10.2020
2587 Clouds 2 1017 93 10000 0.5 0 22:44 27.10.2020
2588 Clouds 3 1017 86 10000 0.5 0 22:19 27.10.2020
2589 Clouds 3 1017 86 10000 0.5 0 21:56 27.10.2020
2590 Clouds 2 1016 93 10000 1 0 21:37 27.10.2020
2591 Clouds 3 1016 93 10000 0.5 0 21:19 27.10.2020
2592 Clouds 3 1016 93 10000 0.5 0 20:46 27.10.2020
2593 Clouds 3 1016 93 10000 0.5 0 20:24 27.10.2020
2594 Clouds 4 1016 93 10000 0.5 0 19:55 27.10.2020
2595 Clouds 3 1016 93 10000 0.5 0 19:36 27.10.2020
2596 Clouds 3 1016 93 10000 0.5 0 19:18 27.10.2020
2597 Clouds 4 1015 93 10000 1.5 170 18:44 27.10.2020
2598 Clouds 3 1015 93 10000 1.5 170 18:21 27.10.2020
2599 Clouds 3 1015 93 10000 1.5 150 17:57 27.10.2020
2600 Clouds 4 1015 86 10000 1.5 130 17:36 27.10.2020
2601 Clouds 4 1015 87 10000 1.5 250 17:18 27.10.2020
2602 Clouds 5 1015 81 10000 1.5 190 16:41 27.10.2020
2603 Clouds 5 1015 81 10000 1.5 190 16:22 27.10.2020
2604 Clouds 5 1015 81 10000 0.5 0 15:41 27.10.2020
2605 Clouds 5 1015 81 10000 0.5 0 15:23 27.10.2020
2606 Clouds 5 1014 81 10000 1 0 14:48 27.10.2020
2607 Clouds 5 1014 81 10000 1.5 50 14:29 27.10.2020
2608 Clouds 4 1014 80 10000 0.5 0 13:58 27.10.2020
2609 Clouds 4 1015 86 10000 0.5 0 13:28 27.10.2020
2610 Clouds 3 1015 93 10000 0.5 0 12:44 27.10.2020
2611 Clouds 3 1015 93 10000 0.5 0 12:25 27.10.2020
2612 Rain 3 1015 93 10000 0.5 0 11:58 27.10.2020
2613 Clouds 2 1015 93 8000 0.5 0 11:40 27.10.2020
2614 Clouds 2 1015 93 8000 0.5 0 11:20 27.10.2020
2615 Clouds 2 1015 93 8000 0.5 0 11:20 27.10.2020
2616 Rain 1 1014 100 6000 0.5 0 10:39 27.10.2020
2617 Clouds 1 1014 74 6000 0.5 0 10:19 27.10.2020
2618 Rain 1 1014 74 4000 0.5 0 09:28 27.10.2020
2619 Snow 0 1014 74 2000 0.5 0 08:56 27.10.2020
2620 Rain 0 1013 74 4000 1 180 08:29 27.10.2020
2621 Snow 0 1013 74 4000 1 180 07:52 27.10.2020
2622 Rain 1 1013 74 4000 0.5 0 07:34 27.10.2020
2623 Rain 1 1012 73 4000 0.5 0 06:52 27.10.2020
2624 Rain 1 1012 73 5000 0.5 0 06:19 27.10.2020
2625 Rain 1 1012 73 6000 0.5 0 05:44 27.10.2020
2626 Snow 1 1012 74 6000 0.5 0 05:23 27.10.2020
2627 Rain 1 1012 74 3500 1.5 90 02:51 27.10.2020
2628 Rain 1 1012 93 10000 0.5 0 01:18 27.10.2020
2629 Rain 2 1012 93 10000 1 0 23:59 26.10.2020
2630 Rain 2 1011 93 10000 2.1 150 23:36 26.10.2020
2631 Rain 3 1011 86 10000 1 0 22:57 26.10.2020
2632 Rain 4 1011 86 10000 1.5 100 22:31 26.10.2020
2633 Rain 4 1011 93 10000 2.1 240 21:57 26.10.2020
2634 Rain 4 1011 87 10000 2.6 280 21:36 26.10.2020
2635 Rain 5 1011 87 10000 2.6 280 21:18 26.10.2020
2636 Rain 5 1009 87 10000 4.1 250 20:49 26.10.2020
2637 Rain 5 1009 87 10000 4.1 250 20:27 26.10.2020
2638 Rain 6 1009 87 10000 4.6 250 19:49 26.10.2020
2639 Rain 6 1009 87 10000 4.6 250 19:49 26.10.2020
2640 Rain 6 1009 87 10000 4.1 250 19:28 26.10.2020
2641 Rain 7 1008 81 10000 2.1 220 18:58 26.10.2020
2642 Rain 7 1007 93 10000 1.5 0 18:39 26.10.2020
2643 Rain 7 1006 87 10000 2.1 80 18:19 26.10.2020
2644 Rain 7 1006 87 10000 2.1 120 17:41 26.10.2020
2645 Rain 8 1006 81 10000 1 0 17:23 26.10.2020
2646 Rain 8 1005 81 10000 3.1 90 16:45 26.10.2020
2647 Rain 8 1005 81 10000 3.1 90 16:22 26.10.2020
2648 Rain 9 1005 71 10000 1.5 210 15:55 26.10.2020
2649 Rain 9 1005 71 10000 1.5 210 15:55 26.10.2020
2650 Rain 9 1005 71 10000 3.1 250 15:36 26.10.2020
2651 Rain 10 1004 71 10000 4.1 260 15:18 26.10.2020
2652 Rain 13 1003 71 10000 4.1 270 14:44 26.10.2020
2653 Clouds 12 1003 62 10000 5.1 260 14:18 26.10.2020
2654 Clouds 13 1002 51 10000 6.7 140 13:38 26.10.2020
2655 Clouds 14 1002 51 10000 6.7 140 13:20 26.10.2020
2656 Clouds 14 1002 45 10000 5.7 90 12:44 26.10.2020
2657 Clouds 14 1002 45 10000 5.7 90 12:23 26.10.2020
2658 Clouds 14 1001 45 10000 7.7 120 11:48 26.10.2020
2659 Clouds 15 1002 48 10000 6.7 120 11:25 26.10.2020
2660 Clouds 12 1003 66 10000 2.6 240 10:58 26.10.2020
2661 Clouds 11 1003 71 10000 3.6 270 10:40 26.10.2020
2662 Clouds 10 1004 76 10000 4.1 260 10:20 26.10.2020
2663 Clouds 9 1004 81 10000 4.6 250 09:43 26.10.2020
2664 Clouds 7 1004 81 10000 3.6 250 09:21 26.10.2020
2665 Clouds 6 1004 87 10000 5.1 260 08:29 26.10.2020
2666 Clouds 6 1003 87 10000 5.1 260 07:53 26.10.2020
2667 Clouds 7 1003 81 10000 3.1 230 07:35 26.10.2020
2668 Clouds 9 1004 62 10000 5.1 0 06:37 26.10.2020
2669 Clouds 8 1005 87 10000 4.6 260 04:22 26.10.2020
2670 Clouds 9 1006 87 10000 3.6 270 03:42 26.10.2020
2671 Clouds 7 1008 87 10000 4.6 280 01:40 26.10.2020
2672 Clouds 9 1009 87 10000 5.7 260 00:57 26.10.2020
2673 Clouds 8 1009 87 10000 3.6 260 00:32 26.10.2020
2674 Clouds 9 1009 81 10000 5.1 270 23:41 25.10.2020
2675 Clouds 9 1009 81 10000 5.1 270 23:21 25.10.2020
2676 Clouds 8 1010 87 10000 3.1 280 22:40 25.10.2020
2677 Clouds 7 1010 87 10000 3.1 280 22:20 25.10.2020
2678 Clouds 7 1010 81 10000 5.1 260 21:41 25.10.2020
2679 Clouds 7 1010 81 10000 5.1 260 21:22 25.10.2020
2680 Clouds 8 1009 81 10000 3.6 270 20:46 25.10.2020
2681 Clouds 8 1009 76 10000 4.1 270 20:28 25.10.2020
2682 Clouds 8 1009 76 10000 3.6 260 19:59 25.10.2020
2683 Clear 12 1009 44 10000 2.1 0 19:41 25.10.2020
2684 Clear 12 1009 44 10000 2.1 0 19:21 25.10.2020
2685 Clouds 12 1009 44 10000 3.6 0 18:55 25.10.2020
2686 Clouds 12 1009 44 10000 3.1 0 18:36 25.10.2020
2687 Clear 13 1009 44 10000 6.7 150 18:18 25.10.2020
2688 Clear 14 1009 41 10000 4.6 140 17:39 25.10.2020
2689 Clear 14 1009 39 10000 6.7 130 17:21 25.10.2020
2690 Clear 17 1009 39 10000 6.7 130 16:55 25.10.2020
2691 Clear 17 1009 39 10000 5.7 150 16:37 25.10.2020
2692 Clear 17 1009 36 10000 7.2 150 16:18 25.10.2020
2693 Clear 17 1009 36 10000 5.7 140 15:41 25.10.2020
2694 Clouds 18 1010 51 10000 2.6 0 15:23 25.10.2020
2695 Clouds 18 1010 51 10000 5.1 260 14:43 25.10.2020
2696 Clouds 17 1010 51 10000 5.1 260 14:24 25.10.2020
2697 Clouds 16 1011 58 10000 5.7 260 13:43 25.10.2020
2698 Clouds 16 1011 58 10000 5.7 260 13:20 25.10.2020
2699 Clear 14 1012 62 10000 7.2 270 12:47 25.10.2020
2700 Clear 14 1012 62 10000 7.2 270 12:26 25.10.2020
2701 Clouds 14 1013 66 10000 5.7 270 11:55 25.10.2020
2702 Clouds 12 1013 71 10000 5.7 270 11:36 25.10.2020
2703 Clouds 11 1014 71 10000 5.7 260 11:18 25.10.2020
2704 Clouds 10 1014 76 10000 4.6 260 10:44 25.10.2020
2705 Clouds 10 1014 76 10000 4.6 260 10:24 25.10.2020
2706 Clouds 9 1015 87 10000 2.1 260 09:46 25.10.2020
2707 Clouds 9 1015 87 10000 2.1 260 09:19 25.10.2020
2708 Clouds 8 1016 93 10000 1 0 08:47 25.10.2020
2709 Clouds 7 1016 100 10000 2.1 280 08:29 25.10.2020
2710 Clouds 6 1016 100 10000 1.5 240 07:50 25.10.2020
2711 Clouds 6 1016 100 10000 0.5 0 07:32 25.10.2020
2712 Clouds 6 1016 93 10000 1 0 06:50 25.10.2020
2713 Clouds 6 1016 100 10000 0.5 0 05:47 25.10.2020
2714 Clear 6 1016 100 6000 1 0 04:52 25.10.2020
2715 Mist 7 1016 100 1400 1.5 250 03:44 25.10.2020
2716 Clouds 8 1018 93 10000 1.5 340 01:47 25.10.2020
2717 Clouds 9 1018 93 10000 1.5 250 00:49 25.10.2020
2718 Clouds 9 1018 93 10000 1.5 250 00:20 25.10.2020
2719 Clouds 9 1019 93 10000 1.5 190 23:54 24.10.2020
2720 Clouds 9 1019 93 10000 1.5 80 23:26 24.10.2020
2721 Clouds 9 1019 100 10000 1 80 22:55 24.10.2020
2722 Clouds 9 1019 93 10000 0.5 0 22:37 24.10.2020
2723 Clouds 9 1019 93 10000 0.5 0 22:19 24.10.2020
2724 Clouds 9 1019 93 10000 1.5 260 21:41 24.10.2020
2725 Clouds 9 1019 93 10000 1.5 260 21:21 24.10.2020
2726 Clouds 9 1019 100 10000 0.5 0 20:47 24.10.2020
2727 Clouds 10 1019 93 10000 2.1 160 20:23 24.10.2020
2728 Clouds 10 1019 87 10000 2.6 60 19:55 24.10.2020
2729 Clouds 11 1019 87 10000 2.1 70 19:37 24.10.2020
2730 Clouds 11 1019 87 10000 2.1 70 19:18 24.10.2020
2731 Clouds 11 1018 87 10000 1 160 18:42 24.10.2020
2732 Clouds 11 1018 87 10000 1 160 18:22 24.10.2020
2733 Clouds 12 1019 87 10000 1 0 17:39 24.10.2020
2734 Clouds 12 1019 87 10000 1 0 17:20 24.10.2020
2735 Clouds 12 1019 87 10000 2.6 70 16:45 24.10.2020
2736 Clouds 12 1019 87 10000 2.6 70 16:22 24.10.2020
2737 Clouds 13 1019 71 10000 1 0 15:40 24.10.2020
2738 Clouds 13 1019 71 10000 1 0 15:20 24.10.2020
2739 Clouds 13 1019 71 10000 1 0 14:54 24.10.2020
2740 Clouds 13 1019 76 10000 1 0 14:29 24.10.2020
2741 Clouds 12 1019 82 10000 1 0 13:46 24.10.2020
2742 Drizzle 12 1020 82 10000 1.5 60 13:24 24.10.2020
2743 Clouds 12 1020 82 10000 1.5 60 12:48 24.10.2020
2744 Clouds 12 1020 82 10000 1 0 12:21 24.10.2020
2745 Clouds 11 1020 87 10000 3.1 270 11:53 24.10.2020
2746 Clouds 11 1020 87 10000 3.1 270 11:35 24.10.2020
2747 Clouds 11 1019 93 10000 2.1 260 10:54 24.10.2020
2748 Clouds 10 1019 93 10000 2.6 280 10:34 24.10.2020
2749 Clouds 11 1019 93 10000 2.1 270 09:55 24.10.2020
2750 Clouds 10 1019 100 10000 1.5 250 09:37 24.10.2020
2751 Clouds 10 1019 100 10000 2.1 260 09:19 24.10.2020
2752 Clouds 10 1019 100 10000 1.5 280 08:20 24.10.2020
2753 Clouds 10 1019 100 10000 1.5 280 07:54 24.10.2020
2754 Clouds 10 1018 100 10000 0.5 0 07:25 24.10.2020
2755 Clouds 10 1018 100 10000 1.5 240 06:53 24.10.2020
2756 Rain 11 1018 93 10000 1 0 06:23 24.10.2020
2757 Rain 11 1018 93 10000 1.5 260 03:36 24.10.2020
2758 Rain 11 1017 93 10000 2.1 270 02:18 24.10.2020
2759 Clouds 11 1016 93 10000 1.5 220 00:42 24.10.2020
2760 Clouds 11 1016 93 10000 1.5 220 00:22 24.10.2020
2761 Rain 11 1016 81 10000 1 0 23:49 23.10.2020
2762 Clouds 11 1016 81 10000 1 0 23:26 23.10.2020
2763 Rain 11 1016 87 10000 1 0 22:58 23.10.2020
2764 Rain 11 1016 87 10000 0.5 0 22:40 23.10.2020
2765 Clouds 11 1016 87 10000 0.5 0 22:20 23.10.2020
2766 Clouds 11 1015 81 10000 1 0 21:50 23.10.2020
2767 Clouds 12 1015 81 10000 1 0 21:25 23.10.2020
2768 Clouds 12 1015 87 10000 4.1 260 20:42 23.10.2020
2769 Clouds 12 1015 87 10000 4.1 260 20:23 23.10.2020
2770 Clouds 12 1015 82 10000 2.6 260 19:58 23.10.2020
2771 Clouds 12 1015 82 10000 2.6 260 19:33 23.10.2020
2772 Clouds 13 1014 76 10000 2.6 260 18:57 23.10.2020
2773 Clouds 14 1014 67 10000 3.1 0 18:38 23.10.2020
2774 Clouds 16 1014 52 10000 5.7 150 18:19 23.10.2020
2775 Clouds 16 1014 52 10000 6.2 150 17:42 23.10.2020
2776 Clouds 16 1014 52 10000 6.2 150 17:20 23.10.2020
2777 Clouds 17 1014 52 10000 7.7 140 16:44 23.10.2020
2778 Clouds 17 1014 52 10000 7.7 140 16:25 23.10.2020
2779 Clouds 17 1015 52 10000 5.7 150 15:45 23.10.2020
2780 Clouds 16 1015 52 10000 5.7 150 15:24 23.10.2020
2781 Clouds 17 1015 48 10000 6.7 160 14:53 23.10.2020
2782 Clouds 17 1015 52 10000 4.1 0 14:35 23.10.2020
2783 Clouds 16 1015 52 10000 2.6 0 13:59 23.10.2020
2784 Clouds 16 1016 63 10000 3.6 260 13:37 23.10.2020
2785 Clouds 15 1016 67 10000 5.1 270 13:19 23.10.2020
2786 Clouds 14 1017 76 10000 3.1 280 12:43 23.10.2020
2787 Clouds 14 1017 76 10000 3.1 280 12:24 23.10.2020
2788 Clouds 13 1017 81 10000 2.1 270 11:46 23.10.2020
2789 Clouds 12 1017 81 10000 2.1 270 11:21 23.10.2020
2790 Clouds 11 1018 81 10000 0.5 0 10:43 23.10.2020
2791 Clouds 11 1018 81 10000 0.5 0 10:25 23.10.2020
2792 Clouds 9 1018 93 10000 0.5 0 09:45 23.10.2020
2793 Clouds 9 1018 93 10000 1 0 09:26 23.10.2020
2794 Clouds 9 1018 93 10000 1 0 08:52 23.10.2020
2795 Clouds 9 1018 87 10000 1 0 08:32 23.10.2020
2796 Clouds 8 1018 87 10000 0.5 0 07:35 23.10.2020
2797 Clouds 9 1018 93 10000 0.5 0 06:59 23.10.2020
2798 Clouds 9 1019 81 10000 1 0 06:20 23.10.2020
2799 Clouds 9 1019 87 10000 2.6 280 04:56 23.10.2020
2800 Clouds 9 1020 81 10000 1.5 210 02:32 23.10.2020
2801 Clouds 9 1020 87 10000 1.5 0 01:23 23.10.2020
2802 Clouds 9 1020 87 10000 2.1 250 00:36 23.10.2020
2803 Clear 9 1021 93 10000 1.5 240 23:40 22.10.2020
2804 Clear 9 1021 93 10000 1.5 240 23:40 22.10.2020
2805 Clear 9 1021 93 10000 1.5 240 23:22 22.10.2020
2806 Clouds 9 1020 87 10000 0.5 0 22:48 22.10.2020
2807 Clouds 9 1020 87 10000 1 0 22:26 22.10.2020
2808 Clouds 10 1020 87 10000 1 0 21:58 22.10.2020
2809 Clouds 10 1020 87 10000 1 0 21:40 22.10.2020
2810 Clouds 10 1020 81 10000 1 0 21:20 22.10.2020
2811 Clear 10 1020 81 10000 2.1 190 20:44 22.10.2020
2812 Clear 10 1020 81 10000 2.1 190 20:25 22.10.2020
2813 Clear 12 1019 76 10000 2.1 220 19:44 22.10.2020
2814 Clear 12 1019 76 10000 2.1 220 19:21 22.10.2020
2815 Clear 13 1019 71 10000 1.5 150 18:59 22.10.2020
2816 Clear 13 1019 71 10000 1.5 150 18:39 22.10.2020
2817 Clear 14 1018 67 10000 1.5 260 18:19 22.10.2020
2818 Clear 15 1018 67 10000 1.5 260 18:19 22.10.2020
2819 Clear 15 1018 55 10000 3.6 260 17:44 22.10.2020
2820 Clear 16 1018 55 10000 3.6 260 17:21 22.10.2020
2821 Clear 17 1019 51 10000 1.5 270 16:45 22.10.2020
2822 Clear 17 1019 51 10000 1.5 270 16:25 22.10.2020
2823 Clouds 17 1019 55 10000 1.5 270 15:50 22.10.2020
2824 Clear 17 1019 55 10000 1.5 270 15:27 22.10.2020
2825 Clouds 15 1019 58 10000 4.1 270 14:56 22.10.2020
2826 Clouds 15 1020 54 10000 4.6 270 14:37 22.10.2020
2827 Clouds 14 1020 58 10000 4.1 260 14:19 22.10.2020
2828 Clouds 13 1021 66 10000 3.6 280 13:42 22.10.2020
2829 Clouds 13 1021 66 10000 3.6 280 13:22 22.10.2020
2830 Clouds 12 1021 66 10000 2.6 270 12:41 22.10.2020
2831 Clouds 13 1021 66 10000 4.6 270 12:22 22.10.2020
2832 Clouds 12 1022 71 10000 3.1 270 11:43 22.10.2020
2833 Clouds 12 1022 76 10000 3.6 260 11:18 22.10.2020
2834 Clouds 10 1022 81 10000 2.1 260 10:47 22.10.2020
2835 Clouds 11 1022 81 10000 2.1 260 10:25 22.10.2020
2836 Clouds 8 1022 93 10000 4.6 270 09:43 22.10.2020
2837 Clear 8 1022 93 10000 4.6 270 09:22 22.10.2020
2838 Clear 7 1021 93 10000 2.6 280 08:41 22.10.2020
2839 Clouds 6 1021 93 10000 2.6 280 08:23 22.10.2020
2840 Clouds 6 1021 86 10000 4.1 280 07:43 22.10.2020
2841 Clear 7 1021 93 10000 3.1 240 07:20 22.10.2020
2842 Clear 7 1021 93 10000 2.6 310 06:45 22.10.2020
2843 Clear 7 1021 93 10000 2.6 310 06:23 22.10.2020
2844 Clear 7 1020 93 10000 4.1 270 05:38 22.10.2020
2845 Clouds 8 1020 93 10000 3.1 280 03:25 22.10.2020
2846 Clouds 7 1020 87 10000 3.1 260 01:34 22.10.2020
2847 Clear 7 1020 87 10000 3.1 250 00:24 22.10.2020
2848 Clouds 8 1019 81 10000 3.1 0 23:43 21.10.2020
2849 Clouds 8 1019 81 10000 3.1 0 23:19 21.10.2020
2850 Clouds 9 1019 81 10000 4.6 280 22:39 21.10.2020
2851 Clouds 9 1019 81 10000 4.6 280 22:19 21.10.2020
2852 Clouds 10 1018 76 10000 3.6 270 21:46 21.10.2020
2853 Clouds 10 1018 71 10000 1.5 0 21:20 21.10.2020
2854 Clouds 12 1018 62 10000 1 0 20:59 21.10.2020
2855 Clouds 16 1017 41 10000 5.7 190 20:40 21.10.2020
2856 Clouds 17 1017 36 10000 4.1 160 20:18 21.10.2020
2857 Clouds 18 1016 34 10000 6.2 150 19:41 21.10.2020
2858 Clouds 18 1016 34 10000 6.7 160 19:22 21.10.2020
2859 Clouds 18 1016 34 10000 6.7 160 18:53 21.10.2020
2860 Clouds 19 1016 32 10000 7.2 160 18:30 21.10.2020
2861 Clouds 19 1016 32 10000 6.2 160 17:51 21.10.2020
2862 Clouds 19 1015 28 10000 6.2 170 17:22 21.10.2020
2863 Clouds 20 1015 28 10000 7.7 150 16:59 21.10.2020
2864 Clouds 20 1015 28 10000 7.7 150 16:59 21.10.2020
2865 Clouds 20 1015 28 10000 7.7 150 16:39 21.10.2020
2866 Clouds 20 1015 28 10000 8.2 150 16:20 21.10.2020
2867 Clouds 20 1015 30 10000 8.2 160 15:45 21.10.2020
2868 Clouds 19 1016 34 10000 6.2 150 15:22 21.10.2020
2869 Clouds 18 1016 48 10000 5.1 260 14:49 21.10.2020
2870 Clouds 17 1016 48 10000 5.1 260 14:29 21.10.2020
2871 Clouds 17 1017 48 10000 6.7 270 13:58 21.10.2020
2872 Clouds 17 1017 48 10000 6.7 270 13:40 21.10.2020
2873 Clouds 16 1017 51 10000 6.7 270 13:20 21.10.2020
2874 Clouds 16 1018 54 10000 6.7 270 12:40 21.10.2020
2875 Clouds 15 1018 58 10000 5.7 270 12:20 21.10.2020
2876 Clouds 13 1018 71 10000 5.1 290 11:46 21.10.2020
2877 Clouds 12 1018 76 10000 5.1 280 11:21 21.10.2020
2878 Clouds 11 1018 75 10000 5.7 270 10:57 21.10.2020
2879 Clouds 11 1018 75 10000 5.7 270 10:38 21.10.2020
2880 Clouds 11 1018 81 10000 5.7 270 10:20 21.10.2020
2881 Clouds 10 1018 87 10000 5.1 270 09:39 21.10.2020
2882 Clouds 9 1019 86 10000 3.6 270 08:59 21.10.2020
2883 Clouds 9 1018 86 10000 5.1 270 08:40 21.10.2020
2884 Clouds 8 1018 86 10000 4.6 260 08:22 21.10.2020
2885 Clouds 5 1018 86 10000 4.6 260 07:48 21.10.2020
2886 Clouds 5 1018 86 10000 4.1 260 06:59 21.10.2020
2887 Clouds 5 1018 86 10000 4.1 250 06:33 21.10.2020
2888 Clouds 4 1018 93 10000 5.7 260 05:23 21.10.2020
2889 Clouds 5 1019 86 10000 3.1 240 02:46 21.10.2020
2890 Clouds 6 1019 81 10000 3.6 270 00:25 21.10.2020
2891 Clouds 7 1019 81 10000 5.1 260 23:28 20.10.2020
2892 Clouds 7 1019 81 10000 3.1 270 22:38 20.10.2020
2893 Clouds 7 1019 81 10000 4.1 260 22:20 20.10.2020
2894 Clouds 7 1019 81 10000 2.1 0 21:47 20.10.2020
2895 Clouds 9 1019 70 10000 5.1 260 21:19 20.10.2020
2896 Clouds 8 1019 75 10000 4.1 260 20:43 20.10.2020
2897 Clouds 9 1019 70 10000 3.6 270 20:24 20.10.2020
2898 Clouds 9 1018 70 10000 2.1 260 19:45 20.10.2020
2899 Clouds 10 1019 71 10000 1.5 0 19:22 20.10.2020
2900 Clouds 11 1018 66 10000 3.1 280 18:59 20.10.2020
2901 Clouds 11 1018 66 10000 3.1 280 18:59 20.10.2020
2902 Clouds 11 1018 66 10000 3.1 280 18:38 20.10.2020
2903 Clouds 14 1017 50 10000 6.2 260 17:51 20.10.2020
2904 Clouds 14 1017 50 10000 5.1 260 17:33 20.10.2020
2905 Clouds 16 1017 44 10000 3.1 0 16:59 20.10.2020
2906 Clouds 16 1017 44 10000 3.1 0 16:40 20.10.2020
2907 Clouds 16 1017 50 10000 5.1 260 16:22 20.10.2020
2908 Clouds 16 1018 47 10000 4.1 270 15:46 20.10.2020
2909 Clouds 15 1019 47 10000 5.7 270 15:27 20.10.2020
2910 Clouds 15 1019 47 10000 5.1 260 14:45 20.10.2020
2911 Clouds 14 1019 54 10000 5.7 270 14:25 20.10.2020
2912 Clouds 14 1020 50 10000 5.7 270 13:58 20.10.2020
2913 Clouds 12 1020 50 10000 5.7 270 13:40 20.10.2020
2914 Clouds 12 1020 50 10000 5.7 260 13:19 20.10.2020
2915 Clouds 12 1021 53 10000 6.2 260 12:49 20.10.2020
2916 Clouds 11 1021 57 10000 5.1 280 12:30 20.10.2020
2917 Clouds 11 1021 57 10000 5.1 280 12:30 20.10.2020
2918 Clouds 9 1021 61 10000 5.7 270 11:47 20.10.2020
2919 Clouds 8 1021 70 10000 4.6 270 11:28 20.10.2020
2920 Clouds 7 1022 81 10000 5.7 270 10:43 20.10.2020
2921 Clouds 6 1022 80 10000 3.1 250 10:25 20.10.2020
2922 Clouds 5 1023 80 10000 2.1 250 09:44 20.10.2020
2923 Clouds 5 1023 80 10000 2.1 250 09:44 20.10.2020
2924 Clouds 4 1023 49 10000 3.1 270 09:20 20.10.2020
2925 Clouds 4 1023 49 10000 1.5 240 08:40 20.10.2020
2926 Clouds 2 1023 57 10000 2.1 220 08:19 20.10.2020
2927 Clouds 2 1022 57 10000 2.1 250 07:44 20.10.2020
2928 Clouds 2 1022 58 10000 2.1 250 07:21 20.10.2020
2929 Clouds 2 1022 93 10000 1.5 250 06:20 20.10.2020
2930 Clouds 3 1022 93 10000 4.1 270 04:27 20.10.2020
2931 Clouds 3 1023 93 10000 2.1 260 02:30 20.10.2020
2932 Clouds 4 1023 86 10000 3.1 250 01:22 20.10.2020
2933 Clouds 4 1023 93 10000 4.1 270 00:51 20.10.2020
2934 Clouds 4 1023 86 10000 1.5 260 00:26 20.10.2020
2935 Clouds 4 1023 86 10000 1.5 250 23:51 19.10.2020
2936 Clear 5 1023 86 10000 2.6 270 23:25 19.10.2020
2937 Clear 5 1023 86 10000 0.5 0 22:54 19.10.2020
2938 Clear 6 1022 86 10000 3.1 250 22:26 19.10.2020
2939 Clear 4 1022 86 10000 2.1 280 21:55 19.10.2020
2940 Clear 4 1022 86 10000 2.1 280 21:37 19.10.2020
2941 Clear 5 1022 86 10000 0.5 0 21:18 19.10.2020
2942 Clear 5 1022 87 10000 0.5 0 20:42 19.10.2020
2943 Clear 6 1022 87 10000 0.5 0 20:24 19.10.2020
2944 Clear 6 1021 75 10000 1 0 19:45 19.10.2020
2945 Clear 6 1021 81 10000 1 0 19:19 19.10.2020
2946 Clear 8 1020 76 10000 1 0 18:50 19.10.2020
2947 Clouds 9 1020 66 10000 1.5 0 18:24 19.10.2020
2948 Clouds 13 1020 62 10000 1 0 17:47 19.10.2020
2949 Clouds 13 1020 54 10000 1.5 200 17:27 19.10.2020
2950 Clouds 14 1020 54 10000 1.5 170 16:54 19.10.2020
2951 Clear 13 1021 50 10000 0.5 0 16:29 19.10.2020
2952 Clear 12 1021 65 10000 1.73 175 15:48 19.10.2020
2953 Clear 12 1021 66 10000 1.78 170 15:26 19.10.2020
2954 Clear 12 1021 67 10000 0.45 349 14:58 19.10.2020
2955 Clear 12 1022 69 10000 1.78 170 14:38 19.10.2020
2956 Clear 11 1022 67 10000 1.37 168 14:19 19.10.2020
2957 Clear 10 1022 71 10000 1.18 160 13:42 19.10.2020
2958 Clear 10 1023 72 10000 1.18 145 13:22 19.10.2020
2959 Clear 8 1023 70 10000 1.18 145 12:45 19.10.2020
2960 Clear 9 1023 77 10000 0.59 132 12:25 19.10.2020
2961 Clouds 7 1025 81 10000 0.5 0 11:49 19.10.2020
2962 Clouds 7 1025 81 10000 0.5 0 11:22 19.10.2020
2963 Clouds 5 1025 81 10000 1 0 10:45 19.10.2020
2964 Clouds 6 1025 81 10000 1 0 10:24 19.10.2020
2965 Clouds 5 1025 80 10000 1.5 170 09:57 19.10.2020
2966 Clouds 4 1025 93 10000 1 0 09:36 19.10.2020
2967 Clouds 2 1024 100 10000 0.5 0 09:18 19.10.2020
2968 Clouds 2 1024 93 10000 1 250 08:41 19.10.2020
2969 Clouds 2 1024 93 10000 1 250 08:20 19.10.2020
2970 Clouds 2 1024 93 10000 0.5 0 07:21 19.10.2020
2971 Clouds 3 1024 93 10000 1.5 230 06:40 19.10.2020
2972 Clouds 3 1024 93 10000 1 0 05:20 19.10.2020
2973 Clouds 5 1024 93 10000 2.1 250 03:45 19.10.2020
2974 Clouds 5 1024 87 10000 1 0 01:42 19.10.2020
2975 Clouds 5 1024 87 10000 0.5 0 00:38 19.10.2020
2976 Clouds 5 1024 87 10000 0.5 0 23:56 18.10.2020
2977 Clouds 5 1024 87 10000 0.5 0 23:37 18.10.2020
2978 Clouds 5 1023 87 10000 0.5 0 23:18 18.10.2020
2979 Clouds 5 1023 87 10000 0.5 0 23:18 18.10.2020
2980 Clouds 6 1023 87 10000 0.5 0 22:43 18.10.2020
2981 Clouds 6 1023 87 10000 1 0 22:18 18.10.2020
2982 Clouds 6 1023 87 10000 1 0 21:41 18.10.2020
2983 Clouds 6 1023 87 10000 1 270 21:21 18.10.2020
2984 Clouds 6 1023 87 10000 0.5 0 20:44 18.10.2020
2985 Clouds 7 1023 87 10000 0.5 0 20:23 18.10.2020
2986 Clouds 7 1022 81 10000 1 240 19:50 18.10.2020
2987 Clouds 7 1022 81 10000 1.5 270 19:27 18.10.2020
2988 Clouds 8 1021 70 10000 1 0 18:51 18.10.2020
2989 Clouds 9 1021 66 10000 1 0 18:30 18.10.2020
2990 Clouds 10 1020 62 10000 1.5 180 17:59 18.10.2020
2991 Clouds 11 1020 58 10000 1.5 160 17:41 18.10.2020
2992 Clouds 11 1020 58 10000 1.5 160 17:41 18.10.2020
2993 Clouds 11 1020 58 10000 2.1 170 17:21 18.10.2020
2994 Clouds 12 1020 54 10000 1.5 180 16:42 18.10.2020
2995 Clouds 12 1020 54 10000 1.5 180 16:23 18.10.2020
2996 Clouds 11 1021 58 10000 1.5 140 15:43 18.10.2020
2997 Clouds 11 1021 58 10000 1.5 140 15:19 18.10.2020
2998 Clouds 11 1021 62 10000 1.5 170 14:57 18.10.2020
2999 Clouds 10 1022 62 10000 1 0 14:31 18.10.2020
3000 Clouds 9 1022 62 10000 1 0 13:59 18.10.2020
3001 Clouds 9 1022 66 10000 1 0 13:40 18.10.2020
3002 Clouds 9 1022 66 10000 1 0 13:22 18.10.2020
3003 Clouds 9 1023 76 10000 0.5 0 12:43 18.10.2020
3004 Clouds 9 1023 76 10000 0.5 0 12:23 18.10.2020
3005 Drizzle 8 1023 81 10000 0.5 0 11:43 18.10.2020
3006 Drizzle 7 1023 93 10000 0.31 57 11:23 18.10.2020
3007 Drizzle 7 1023 93 10000 0.31 57 10:46 18.10.2020
3008 Drizzle 6 1022 93 8000 0.5 0 10:22 18.10.2020
3009 Drizzle 6 1022 93 8000 0.5 0 10:00 18.10.2020
3010 Drizzle 6 1022 93 8000 1 0 09:41 18.10.2020
3011 Clouds 6 1022 93 10000 0.5 0 09:20 18.10.2020
3012 Clouds 6 1021 93 10000 0.5 0 08:44 18.10.2020
3013 Clouds 6 1021 93 10000 0.5 0 08:25 18.10.2020
3014 Clouds 6 1021 93 10000 0.5 0 07:48 18.10.2020
3015 Clouds 6 1021 93 10000 0.5 0 05:56 18.10.2020
3016 Drizzle 6 1020 93 10000 0.5 0 03:40 18.10.2020
3017 Clouds 6 1020 93 10000 0.5 0 02:52 18.10.2020
3018 Clouds 6 1020 93 10000 1 270 01:29 18.10.2020
3019 Drizzle 6 1020 93 10000 0.5 0 00:38 18.10.2020
3020 Drizzle 6 1020 93 10000 0.5 0 00:20 18.10.2020
3021 Clouds 6 1019 93 10000 1.5 270 23:41 17.10.2020
3022 Clouds 6 1019 93 10000 0.5 0 23:21 17.10.2020
3023 Clouds 6 1019 93 10000 0.5 0 22:56 17.10.2020
3024 Clouds 6 1019 93 10000 0.5 0 22:36 17.10.2020
3025 Drizzle 7 1019 87 10000 0.5 0 22:18 17.10.2020
3026 Drizzle 7 1019 81 10000 1 0 21:42 17.10.2020
3027 Drizzle 7 1019 81 10000 1 0 21:20 17.10.2020
3028 Clouds 7 1018 81 10000 1 0 20:44 17.10.2020
3029 Clouds 7 1018 81 10000 1 0 20:20 17.10.2020
3030 Clouds 7 1018 81 10000 2.6 80 19:44 17.10.2020
3031 Clouds 7 1018 81 10000 2.6 80 19:21 17.10.2020
3032 Clouds 7 1017 76 10000 4.1 70 18:45 17.10.2020
3033 Clouds 8 1017 76 10000 4.1 70 18:26 17.10.2020
3034 Clouds 8 1017 70 10000 3.6 70 17:51 17.10.2020
3035 Clouds 9 1017 71 10000 4.1 60 17:24 17.10.2020
3036 Clouds 9 1017 66 10000 2.6 70 16:58 17.10.2020
3037 Clouds 9 1017 66 10000 3.1 50 16:38 17.10.2020
3038 Clouds 10 1017 66 10000 2.1 70 16:18 17.10.2020
3039 Clouds 8 1017 62 10000 2.1 60 15:41 17.10.2020
3040 Clouds 8 1017 62 10000 2.1 60 15:21 17.10.2020
3041 Clouds 9 1017 66 10000 1.5 50 14:56 17.10.2020
3042 Clouds 9 1017 66 10000 1 0 14:37 17.10.2020
3043 Clouds 9 1017 66 10000 1 0 14:19 17.10.2020
3044 Clouds 8 1017 76 10000 1.5 0 13:42 17.10.2020
3045 Clouds 8 1017 76 10000 1.5 0 13:22 17.10.2020
3046 Clouds 7 1018 81 10000 2.1 70 12:41 17.10.2020
3047 Clouds 7 1018 81 10000 2.1 70 12:20 17.10.2020
3048 Clouds 7 1018 87 10000 1.5 70 11:58 17.10.2020
3049 Clouds 7 1018 81 10000 1 0 11:30 17.10.2020
3050 Clouds 6 1018 87 10000 1 0 10:47 17.10.2020
3051 Clouds 6 1018 87 10000 1 0 10:29 17.10.2020
3052 Clouds 6 1018 87 10000 1 0 10:28 17.10.2020
3053 Clouds 5 1017 93 10000 1 0 09:50 17.10.2020
3054 Clouds 5 1017 93 10000 1 90 09:31 17.10.2020
3055 Clouds 5 1017 93 10000 0.5 0 08:51 17.10.2020
3056 Clouds 5 1017 93 10000 1 0 08:23 17.10.2020
3057 Drizzle 5 1017 93 10000 1 0 07:44 17.10.2020
3058 Clouds 5 1016 93 10000 1 90 06:54 17.10.2020
3059 Clouds 5 1016 93 10000 0.5 0 04:55 17.10.2020
3060 Clouds 6 1017 93 10000 0.5 0 02:30 17.10.2020
3061 Clouds 6 1017 100 10000 1 0 01:55 17.10.2020
3062 Clouds 6 1017 93 10000 0.5 0 00:38 17.10.2020
3063 Clouds 6 1017 93 10000 0.5 0 23:40 16.10.2020
3064 Clouds 6 1017 93 10000 0.5 0 23:21 16.10.2020
3065 Clouds 6 1017 93 10000 1 0 22:44 16.10.2020
3066 Clouds 6 1016 93 10000 1 0 22:24 16.10.2020
3067 Clouds 6 1016 93 10000 0.5 0 21:49 16.10.2020
3068 Clouds 6 1016 93 10000 0.5 0 21:27 16.10.2020
3069 Clouds 7 1016 93 10000 1 0 20:58 16.10.2020
3070 Clouds 7 1016 93 10000 1 0 20:38 16.10.2020
3071 Clouds 7 1016 93 10000 1 0 20:19 16.10.2020
3072 Clouds 7 1015 87 10000 1 0 19:39 16.10.2020
3073 Clouds 7 1015 87 10000 1 0 19:21 16.10.2020
3074 Clouds 7 1015 87 10000 0.5 0 18:45 16.10.2020
3075 Rain 7 1015 87 10000 0.5 0 18:27 16.10.2020
3076 Clouds 6 1015 81 10000 1.5 50 17:45 16.10.2020
3077 Clouds 8 1015 81 10000 1.5 50 17:26 16.10.2020
3078 Clouds 6 1015 75 10000 1 0 16:48 16.10.2020
3079 Clouds 6 1015 75 10000 1 0 16:29 16.10.2020
3080 Clouds 6 1015 75 10000 1 0 16:29 16.10.2020
3081 Clouds 6 1015 75 10000 0.5 0 15:41 16.10.2020
3082 Clouds 6 1015 75 10000 0.5 0 15:21 16.10.2020
3083 Drizzle 7 1015 75 10000 1.5 310 14:41 16.10.2020
3084 Clouds 7 1016 75 10000 0.5 0 14:19 16.10.2020
3085 Clouds 7 1016 75 10000 0.5 0 13:56 16.10.2020
3086 Clouds 7 1016 75 10000 0.5 0 13:36 16.10.2020
3087 Clouds 6 1016 75 10000 1 0 13:18 16.10.2020
3088 Clouds 6 1016 87 10000 1 0 12:38 16.10.2020
3089 Clouds 5 1016 87 10000 1.5 300 12:19 16.10.2020
3090 Clouds 5 1016 87 10000 0.5 0 11:42 16.10.2020
3091 Clouds 5 1016 87 10000 0.5 0 11:21 16.10.2020
3092 Clouds 5 1016 86 10000 0.5 0 10:49 16.10.2020
3093 Drizzle 5 1016 86 10000 0.5 0 10:30 16.10.2020
3094 Clouds 4 1016 86 10000 0.72 275 09:43 16.10.2020
3095 Clouds 4 1016 86 10000 0.82 238 09:25 16.10.2020
3096 Clouds 4 1016 93 10000 0.5 0 08:52 16.10.2020
3097 Clouds 4 1015 93 10000 0.82 238 08:34 16.10.2020
3098 Drizzle 3 1015 93 8000 0.5 0 07:51 16.10.2020
3099 Drizzle 3 1015 93 8000 0.5 0 07:30 16.10.2020
3100 Clouds 3 1015 93 9000 1.5 60 06:37 16.10.2020
3101 Clouds 3 1015 93 10000 2.6 70 04:34 16.10.2020
3102 Rain 3 1015 100 10000 0.5 0 02:26 16.10.2020
3103 Rain 3 1014 100 10000 1.5 260 00:54 16.10.2020
3104 Rain 4 1014 100 10000 1 0 00:24 16.10.2020
3105 Rain 4 1014 100 10000 0.5 0 23:40 15.10.2020
3106 Rain 4 1014 100 10000 1 0 23:20 15.10.2020
3107 Clouds 4 1014 100 10000 1 0 22:50 15.10.2020
3108 Clouds 4 1014 100 10000 1 0 22:26 15.10.2020
3109 Clouds 4 1014 100 10000 1 240 21:55 15.10.2020
3110 Clouds 4 1013 93 10000 1.5 230 21:36 15.10.2020
3111 Clouds 4 1013 93 10000 2.1 250 21:18 15.10.2020
3112 Clouds 4 1013 93 10000 0.5 0 20:43 15.10.2020
3113 Rain 4 1013 86 10000 0.5 0 20:20 15.10.2020
3114 Clouds 4 1013 93 10000 1 0 19:43 15.10.2020
3115 Rain 4 1013 93 10000 1 0 19:22 15.10.2020
3116 Rain 4 1012 93 8000 1 110 18:45 15.10.2020
3117 Rain 5 1012 93 8000 1 110 18:25 15.10.2020
3118 Rain 5 1012 87 8000 0.5 0 17:58 15.10.2020
3119 Rain 5 1012 81 8000 0.5 0 17:38 15.10.2020
3120 Rain 5 1012 75 10000 0.5 0 17:20 15.10.2020
3121 Rain 6 1012 70 10000 1 0 16:44 15.10.2020
3122 Rain 6 1012 70 10000 1 0 16:21 15.10.2020
3123 Clouds 6 1012 70 10000 0.5 0 15:44 15.10.2020
3124 Clouds 6 1012 70 10000 0.5 0 15:23 15.10.2020
3125 Clouds 6 1012 70 10000 0.5 0 14:50 15.10.2020
3126 Clouds 6 1012 75 10000 0.5 0 14:24 15.10.2020
3127 Clouds 6 1012 75 10000 0.5 0 13:48 15.10.2020
3128 Clouds 6 1012 75 10000 0.5 0 13:26 15.10.2020
3129 Clouds 5 1012 81 10000 1 0 12:56 15.10.2020
3130 Clouds 5 1012 81 10000 1 0 12:32 15.10.2020
3131 Clouds 5 1012 75 10000 1 0 11:59 15.10.2020
3132 Clouds 5 1012 80 10000 0.5 0 11:41 15.10.2020
3133 Clouds 5 1012 80 10000 1.5 100 11:20 15.10.2020
3134 Clouds 4 1012 80 10000 2.1 60 10:45 15.10.2020
3135 Clouds 4 1012 80 10000 2.1 80 10:25 15.10.2020
3136 Clouds 4 1012 80 10000 0.5 0 09:40 15.10.2020
3137 Clouds 4 1012 80 10000 0.5 0 09:20 15.10.2020
3138 Clouds 4 1012 86 10000 0.5 0 08:53 15.10.2020
3139 Clouds 3 1012 86 10000 0.5 0 08:32 15.10.2020
3140 Clouds 3 1012 86 10000 1 0 07:21 15.10.2020
3141 Clouds 4 1012 86 10000 1 300 06:21 15.10.2020
3142 Clouds 4 1012 86 10000 2.1 290 03:57 15.10.2020
3143 Clouds 3 1013 86 10000 0.5 0 01:45 15.10.2020
3144 Clouds 2 1013 93 10000 0.5 0 00:58 15.10.2020
3145 Clouds 3 1013 86 10000 1 0 00:19 15.10.2020
3146 Clouds 2 1013 93 10000 1 0 00:19 15.10.2020
3147 Clouds 3 1013 86 10000 1 0 23:43 14.10.2020
3148 Clouds 3 1013 86 10000 1 0 23:22 14.10.2020
3149 Clouds 3 1012 86 10000 1 0 22:58 14.10.2020
3150 Clouds 3 1012 86 10000 1 140 22:40 14.10.2020
3151 Clouds 3 1012 86 10000 1 140 22:20 14.10.2020
3152 Clouds 4 1012 80 10000 1 0 21:43 14.10.2020
3153 Clouds 5 1012 80 10000 1 0 21:23 14.10.2020
3154 Clouds 5 1011 80 10000 1 0 20:43 14.10.2020
3155 Clouds 5 1011 70 10000 2.1 250 20:20 14.10.2020
3156 Clouds 5 1011 70 10000 2.1 250 19:51 14.10.2020
3157 Clouds 6 1011 65 10000 1 0 19:25 14.10.2020
3158 Clouds 9 1010 53 10000 1 0 18:45 14.10.2020
3159 Clouds 9 1010 53 10000 1 0 18:26 14.10.2020
3160 Clouds 9 1009 53 10000 1.5 170 17:59 14.10.2020
3161 Clouds 10 1009 47 10000 1 0 17:40 14.10.2020
3162 Clouds 11 1009 35 10000 1.5 160 17:19 14.10.2020
3163 Clouds 10 1009 35 10000 1 0 16:42 14.10.2020
3164 Clouds 12 1009 35 10000 1 0 16:22 14.10.2020
3165 Clouds 11 1010 37 10000 1 0 15:45 14.10.2020
3166 Clouds 11 1010 40 10000 0.5 0 15:27 14.10.2020
3167 Clouds 10 1010 46 10000 1 0 14:45 14.10.2020
3168 Clouds 10 1010 46 10000 1 0 14:21 14.10.2020
3169 Clouds 9 1011 46 10000 1 0 13:50 14.10.2020
3170 Clouds 9 1011 41 10000 1 0 13:27 14.10.2020
3171 Clouds 8 1012 52 10000 1 0 12:55 14.10.2020
3172 Clouds 7 1012 41 10000 2.1 260 12:37 14.10.2020
3173 Clouds 7 1012 44 10000 2.1 0 12:18 14.10.2020
3174 Clouds 6 1012 44 10000 1.5 250 11:44 14.10.2020
3175 Clouds 6 1012 50 10000 1.5 250 11:26 14.10.2020
3176 Clouds 4 1013 80 10000 2.1 240 10:53 14.10.2020
3177 Clouds 3 1013 57 10000 1.5 270 10:28 14.10.2020
3178 Clouds 2 1013 57 10000 1.5 240 09:53 14.10.2020
3179 Clouds 1 1013 86 10000 0.5 0 09:34 14.10.2020
3180 Clouds 0 1012 100 10000 2.1 260 08:42 14.10.2020
3181 Clouds 0 1012 100 10000 2.1 260 08:23 14.10.2020
3182 Clouds 0 1012 92 10000 2.1 270 07:23 14.10.2020
3183 Clouds 0 1012 92 10000 2.1 260 06:59 14.10.2020
3184 Clouds 0 1012 100 10000 2.1 270 06:37 14.10.2020
3185 Clouds 0 1012 83 10000 1.5 250 06:18 14.10.2020
3186 Clouds 0 1013 83 10000 2.1 260 02:32 14.10.2020
3187 Clouds 0 1013 83 10000 1 0 01:57 14.10.2020
3188 Clouds 2 1013 93 10000 1 0 00:44 14.10.2020
3189 Clouds 1 1013 93 10000 1 0 00:23 14.10.2020
3190 Clouds 2 1012 93 10000 0.83 210 23:25 13.10.2020
3191 Clouds 2 1012 93 10000 1.5 270 22:59 13.10.2020
3192 Clouds 2 1012 93 10000 1 260 22:40 13.10.2020
3193 Clouds 2 1012 93 10000 1 260 22:22 13.10.2020
3194 Clouds 3 1011 86 10000 0.5 0 21:41 13.10.2020
3195 Clouds 4 1011 86 10000 1 0 21:21 13.10.2020
3196 Clouds 3 1011 86 10000 1 0 20:57 13.10.2020
3197 Clouds 4 1011 81 10000 0.5 0 20:37 13.10.2020
3198 Clouds 4 1011 75 10000 1 210 20:19 13.10.2020
3199 Clouds 5 1011 70 10000 2.1 90 19:43 13.10.2020
3200 Clouds 6 1011 70 10000 3.1 80 19:24 13.10.2020
3201 Clouds 6 1011 70 10000 3.1 80 18:57 13.10.2020
3202 Clouds 5 1011 75 10000 4.1 90 18:38 13.10.2020
3203 Clouds 6 1011 75 10000 4.1 70 18:19 13.10.2020
3204 Clouds 7 1011 75 10000 6.2 60 17:42 13.10.2020
3205 Clouds 7 1011 75 10000 6.2 60 17:24 13.10.2020
3206 Clouds 9 1010 55 10000 1 0 16:42 13.10.2020
3207 Clouds 9 1010 57 10000 2.1 0 16:19 13.10.2020
3208 Clouds 9 1011 61 10000 2.6 90 15:45 13.10.2020
3209 Clouds 9 1011 61 10000 2.6 90 15:23 13.10.2020
3210 Clouds 8 1011 66 10000 3.1 70 14:51 13.10.2020
3211 Clouds 8 1011 57 10000 1 0 14:28 13.10.2020
3212 Clouds 8 1012 66 10000 1.5 0 13:49 13.10.2020
3213 Clouds 8 1012 65 10000 0.5 0 13:23 13.10.2020
3214 Clouds 7 1013 75 10000 1 0 12:52 13.10.2020
3215 Clouds 7 1013 75 10000 0.5 0 12:33 13.10.2020
3216 Clouds 6 1013 81 10000 0.5 0 11:58 13.10.2020
3217 Clouds 5 1013 87 10000 1 0 11:39 13.10.2020
3218 Clouds 5 1013 87 10000 1 0 11:20 13.10.2020
3219 Clouds 5 1013 81 10000 0.5 0 10:55 13.10.2020
3220 Clouds 5 1014 86 10000 2.1 60 10:37 13.10.2020
3221 Clouds 4 1014 86 10000 2.6 70 10:18 13.10.2020
3222 Clouds 4 1014 86 10000 1.5 60 09:41 13.10.2020
3223 Clouds 4 1014 93 10000 1.5 60 09:20 13.10.2020
3224 Clouds 4 1014 86 10000 2.1 70 08:49 13.10.2020
3225 Clouds 4 1014 86 10000 2.1 80 08:27 13.10.2020
3226 Clouds 3 1014 93 10000 1.5 50 07:55 13.10.2020
3227 Clouds 4 1014 93 10000 1.5 50 07:26 13.10.2020
3228 Clouds 3 1014 93 10000 1 0 06:34 13.10.2020
3229 Clouds 4 1015 93 10000 2.1 260 04:58 13.10.2020
3230 Clouds 4 1015 93 10000 0.5 0 03:50 13.10.2020
3231 Clouds 4 1016 93 10000 0.5 0 02:29 13.10.2020
3232 Clouds 5 1017 93 10000 1 40 00:48 13.10.2020
3233 Clouds 5 1017 93 10000 1 40 00:23 13.10.2020
3234 Clouds 5 1018 93 10000 1 0 23:43 12.10.2020
3235 Clouds 5 1018 93 10000 1 0 23:24 12.10.2020
3236 Clouds 6 1018 87 10000 1 270 22:44 12.10.2020
3237 Clouds 5 1018 87 10000 1 270 22:25 12.10.2020
3238 Clouds 5 1018 87 10000 0.5 0 21:46 12.10.2020
3239 Clouds 5 1018 87 10000 0.5 0 21:24 12.10.2020
3240 Clouds 5 1018 87 10000 1 0 20:46 12.10.2020
3241 Clouds 6 1018 81 10000 1 0 20:27 12.10.2020
3242 Clouds 6 1018 81 10000 1 0 19:59 12.10.2020
3243 Clouds 6 1018 81 10000 1.5 270 19:40 12.10.2020
3244 Clouds 6 1018 81 10000 1.5 270 19:19 12.10.2020
3245 Clouds 6 1018 75 10000 1.5 290 18:47 12.10.2020
3246 Clouds 6 1018 75 10000 1.5 290 18:47 12.10.2020
3247 Clouds 7 1018 75 10000 1.5 290 18:22 12.10.2020
3248 Clouds 7 1018 61 10000 2.1 30 17:44 12.10.2020
3249 Clouds 8 1018 61 10000 2.1 30 17:20 12.10.2020
3250 Clouds 8 1018 61 10000 2.1 30 17:20 12.10.2020
3251 Clouds 7 1018 61 10000 3.1 50 16:43 12.10.2020
3252 Clouds 8 1018 61 10000 3.1 50 16:24 12.10.2020
3253 Clouds 9 1018 61 10000 1.5 100 15:55 12.10.2020
3254 Clouds 9 1019 57 10000 2.1 80 15:37 12.10.2020
3255 Clouds 7 1019 61 10000 3.1 70 15:18 12.10.2020
3256 Clouds 9 1019 61 10000 1.5 0 14:42 12.10.2020
3257 Clouds 8 1019 61 10000 1.5 0 14:19 12.10.2020
3258 Clouds 6 1020 75 10000 1.5 0 13:24 12.10.2020
3259 Clouds 7 1020 75 10000 2.1 110 12:57 12.10.2020
3260 Clouds 6 1020 81 10000 1 0 12:39 12.10.2020
3261 Drizzle 5 1020 93 10000 1 0 12:18 12.10.2020
3262 Clouds 5 1020 86 10000 1 0 11:39 12.10.2020
3263 Clouds 4 1020 86 10000 1 0 11:18 12.10.2020
3264 Clouds 4 1020 86 10000 1 0 11:18 12.10.2020
3265 Clouds 4 1020 93 10000 0.5 0 10:44 12.10.2020
3266 Clouds 4 1020 93 10000 1.11 354 10:21 12.10.2020
3267 Clouds 4 1020 93 10000 0.5 0 09:45 12.10.2020
3268 Clouds 3 1020 93 10000 0.5 0 09:23 12.10.2020
3269 Clouds 3 1020 86 10000 0.5 0 08:35 12.10.2020
3270 Clouds 2 1020 93 10000 1 0 07:56 12.10.2020
3271 Clouds 2 1020 93 7000 1.5 120 07:31 12.10.2020
3272 Clouds 2 1019 93 10000 2.1 80 06:24 12.10.2020
3273 Clouds 3 1019 93 10000 1 0 03:22 12.10.2020
3274 Rain 3 1019 93 10000 1 0 00:31 12.10.2020
3275 Clouds 3 1019 93 10000 1 0 23:47 11.10.2020
3276 Rain 4 1020 93 10000 1 0 23:24 11.10.2020
3277 Clouds 4 1019 93 10000 1 260 22:45 11.10.2020
3278 Clouds 4 1019 93 10000 1 260 22:25 11.10.2020
3279 Rain 4 1020 93 10000 0.5 0 21:39 11.10.2020
3280 Rain 4 1020 93 10000 1.5 350 21:20 11.10.2020
3281 Rain 5 1020 93 10000 1.5 350 20:49 11.10.2020
3282 Rain 5 1019 93 10000 1 170 20:21 11.10.2020
3283 Rain 5 1019 93 10000 0.5 0 19:48 11.10.2020
3284 Rain 5 1019 93 10000 0.5 0 19:28 11.10.2020
3285 Rain 5 1018 87 10000 1 0 18:58 11.10.2020
3286 Rain 5 1018 87 10000 3.6 270 18:37 11.10.2020
3287 Clouds 6 1018 87 10000 3.1 260 18:18 11.10.2020
3288 Rain 5 1018 87 10000 3.6 270 17:40 11.10.2020
3289 Clouds 5 1018 87 10000 3.6 270 17:21 11.10.2020
3290 Clouds 5 1018 87 10000 2.6 260 16:47 11.10.2020
3291 Rain 6 1018 87 8000 3.1 270 16:28 11.10.2020
3292 Rain 5 1018 87 8000 3.1 270 15:54 11.10.2020
3293 Clouds 6 1018 87 10000 3.1 270 15:32 11.10.2020
3294 Clouds 6 1019 87 10000 2.6 280 14:47 11.10.2020
3295 Clouds 6 1019 81 10000 3.6 290 14:28 11.10.2020
3296 Clouds 6 1019 87 10000 3.1 280 13:57 11.10.2020
3297 Clouds 6 1019 87 10000 3.6 280 13:38 11.10.2020
3298 Clouds 6 1020 87 10000 3.6 280 13:20 11.10.2020
3299 Rain 5 1020 87 10000 4.1 280 12:46 11.10.2020
3300 Rain 5 1020 93 10000 4.6 260 12:21 11.10.2020
3301 Rain 5 1020 93 10000 5.1 270 11:45 11.10.2020
3302 Rain 5 1020 93 10000 5.1 270 11:22 11.10.2020
3303 Rain 5 1020 87 10000 2.6 260 10:50 11.10.2020
3304 Rain 5 1020 87 10000 2.1 270 10:28 11.10.2020
3305 Rain 5 1020 93 10000 1 0 09:54 11.10.2020
3306 Rain 6 1020 87 10000 1.5 50 09:36 11.10.2020
3307 Rain 6 1019 87 9000 2.1 270 09:18 11.10.2020
3308 Rain 6 1019 93 9000 2.1 270 08:40 11.10.2020
3309 Rain 6 1019 93 9000 0.5 0 07:48 11.10.2020
3310 Rain 6 1020 93 10000 1 0 06:30 11.10.2020
3311 Clouds 7 1021 93 10000 1.5 150 03:35 11.10.2020
3312 Clouds 7 1021 93 8000 1 0 02:25 11.10.2020
3313 Rain 7 1022 93 9000 0.5 0 01:31 11.10.2020
3314 Rain 7 1022 93 10000 1 250 00:38 11.10.2020
3315 Rain 7 1022 93 10000 1 250 00:19 11.10.2020
3316 Rain 7 1022 93 10000 0.5 0 23:27 10.10.2020
3317 Clouds 7 1022 93 10000 0.5 0 22:41 10.10.2020
3318 Clouds 7 1022 93 10000 0.5 0 22:22 10.10.2020
3319 Rain 7 1022 93 10000 0.5 0 21:58 10.10.2020
3320 Rain 7 1022 93 10000 0.5 0 21:38 10.10.2020
3321 Rain 7 1022 93 10000 0.5 0 21:20 10.10.2020
3322 Rain 7 1022 93 10000 0.5 0 20:48 10.10.2020
3323 Rain 7 1022 93 10000 0.5 0 20:27 10.10.2020
3324 Rain 8 1022 87 10000 1 160 19:45 10.10.2020
3325 Rain 8 1022 87 10000 1 160 19:23 10.10.2020
3326 Rain 8 1022 93 10000 1 0 18:51 10.10.2020
3327 Rain 8 1022 93 10000 2.1 110 18:32 10.10.2020
3328 Rain 8 1022 93 10000 2.1 110 17:53 10.10.2020
3329 Rain 9 1021 87 10000 2.6 160 17:28 10.10.2020
3330 Rain 9 1021 87 10000 1.5 140 16:53 10.10.2020
3331 Rain 10 1021 87 10000 3.1 120 16:26 10.10.2020
3332 Clouds 10 1021 71 10000 3.6 90 15:58 10.10.2020
3333 Clouds 11 1020 66 10000 3.1 100 15:39 10.10.2020
3334 Clouds 12 1020 62 10000 3.1 0 15:19 10.10.2020
3335 Clouds 13 1019 62 10000 1.5 0 14:41 10.10.2020
3336 Clouds 13 1019 62 10000 1.5 0 14:22 10.10.2020
3337 Clouds 14 1019 58 10000 2.6 270 13:42 10.10.2020
3338 Clouds 14 1019 58 10000 2.6 270 13:23 10.10.2020
3339 Clouds 14 1019 66 10000 3.6 270 12:56 10.10.2020
3340 Clouds 14 1019 66 10000 2.6 260 12:36 10.10.2020
3341 Clouds 12 1020 71 10000 1.5 250 11:59 10.10.2020
3342 Clouds 11 1020 76 10000 1 0 11:41 10.10.2020
3343 Clouds 11 1020 76 10000 1 0 11:23 10.10.2020
3344 Clouds 8 1021 93 10000 0.5 0 10:45 10.10.2020
3345 Clouds 8 1021 93 10000 0.5 0 10:26 10.10.2020
3346 Clouds 7 1021 93 10000 1.5 250 09:47 10.10.2020
3347 Clouds 6 1021 93 10000 1 0 09:19 10.10.2020
3348 Clouds 6 1021 100 10000 1.5 180 08:51 10.10.2020
3349 Fog 5 1021 100 10000 1 0 08:26 10.10.2020
3350 Clouds 6 1021 100 10000 0.5 0 07:40 10.10.2020
3351 Clouds 6 1021 100 7000 1 280 06:57 10.10.2020
3352 Clouds 7 1021 93 10000 0.5 0 03:44 10.10.2020
3353 Clouds 8 1021 93 10000 1.5 240 01:54 10.10.2020
3354 Clouds 9 1022 93 10000 0.5 0 00:26 10.10.2020
3355 Clouds 9 1022 93 10000 1.5 260 23:48 09.10.2020
3356 Clouds 9 1022 93 10000 1 270 23:29 09.10.2020
3357 Clouds 9 1022 93 10000 1 0 22:51 09.10.2020
3358 Clouds 10 1022 87 10000 1 0 22:26 09.10.2020
3359 Clouds 11 1021 87 10000 1.5 260 21:56 09.10.2020
3360 Clouds 9 1022 87 10000 1 0 21:36 09.10.2020
3361 Clouds 10 1021 81 10000 1 0 21:18 09.10.2020
3362 Clouds 11 1021 81 10000 0.5 0 20:42 09.10.2020
3363 Clouds 11 1021 81 10000 0.5 0 20:18 09.10.2020
3364 Clouds 13 1021 71 10000 0.5 0 19:37 09.10.2020
3365 Clouds 13 1020 72 10000 0.5 0 19:19 09.10.2020
3366 Clouds 14 1020 72 10000 0.5 0 18:55 09.10.2020
3367 Clouds 16 1020 67 10000 1.5 170 18:23 09.10.2020
3368 Clouds 17 1020 59 10000 1.5 140 17:56 09.10.2020
3369 Clouds 17 1020 55 10000 3.1 130 17:20 09.10.2020
3370 Clouds 16 1020 55 10000 3.1 130 16:47 09.10.2020
3371 Clouds 16 1020 55 10000 2.6 130 16:29 09.10.2020
3372 Clouds 17 1020 48 10000 2.6 70 15:47 09.10.2020
3373 Clouds 17 1020 45 10000 1.5 0 15:26 09.10.2020
3374 Clouds 17 1021 48 10000 1 0 14:53 09.10.2020
3375 Clouds 17 1021 51 10000 1 0 14:34 09.10.2020
3376 Clouds 14 1022 54 10000 1.5 230 13:44 09.10.2020
3377 Clouds 14 1022 54 10000 1.5 230 13:26 09.10.2020
3378 Clouds 14 1023 58 10000 2.1 260 12:42 09.10.2020
3379 Clouds 13 1023 58 10000 2.1 260 12:23 09.10.2020
3380 Clouds 13 1023 66 10000 4.1 270 11:58 09.10.2020
3381 Clouds 12 1024 76 10000 3.1 260 11:40 09.10.2020
3382 Clouds 12 1024 76 10000 3.1 260 11:20 09.10.2020
3383 Clouds 10 1024 87 10000 1 0 10:44 09.10.2020
3384 Clouds 10 1024 87 10000 1 0 10:24 09.10.2020
3385 Clouds 9 1025 87 10000 0.5 0 09:44 09.10.2020
3386 Clouds 7 1025 100 10000 1.5 250 09:20 09.10.2020
3387 Clouds 6 1024 93 10000 1 0 08:41 09.10.2020
3388 Clouds 6 1024 93 10000 1.5 260 08:18 09.10.2020
3389 Clouds 6 1024 93 10000 0.5 0 07:42 09.10.2020
3390 Clouds 7 1024 93 10000 0.5 0 07:19 09.10.2020
3391 Clouds 6 1024 100 10000 1 0 06:36 09.10.2020
3392 Clouds 7 1024 93 10000 1 0 04:59 09.10.2020
3393 Clouds 7 1025 100 10000 1 0 02:55 09.10.2020
3394 Clouds 7 1025 93 10000 1.19 215 00:56 09.10.2020
3395 Clouds 8 1025 93 10000 1 0 00:37 09.10.2020
3396 Clouds 8 1025 87 10000 0.5 0 23:46 08.10.2020
3397 Clouds 8 1025 87 10000 0.5 0 23:27 08.10.2020
3398 Clouds 8 1024 93 10000 1 0 22:59 08.10.2020
3399 Clouds 9 1024 87 10000 1 230 22:37 08.10.2020
3400 Clouds 9 1024 87 10000 1.5 250 22:18 08.10.2020
3401 Clouds 9 1024 87 10000 1.5 250 21:48 08.10.2020
3402 Clouds 9 1024 87 10000 1 0 21:23 08.10.2020
3403 Clouds 9 1023 87 10000 1 280 20:57 08.10.2020
3404 Clouds 10 1023 81 10000 0.5 0 20:38 08.10.2020
3405 Clouds 10 1023 81 10000 0.5 0 20:19 08.10.2020
3406 Clouds 11 1022 81 10000 0.5 0 19:41 08.10.2020
3407 Clouds 12 1022 71 10000 0.5 0 19:20 08.10.2020
3408 Clouds 13 1022 67 10000 1 0 18:40 08.10.2020
3409 Clouds 15 1022 67 10000 1 0 18:19 08.10.2020
3410 Clouds 17 1021 51 10000 2.1 170 17:38 08.10.2020
3411 Clouds 17 1021 51 10000 2.1 170 17:18 08.10.2020
3412 Clouds 17 1022 48 10000 1.5 270 16:41 08.10.2020
3413 Clouds 17 1022 48 10000 1.5 270 16:22 08.10.2020
3414 Clouds 17 1022 48 10000 1 0 15:57 08.10.2020
3415 Clouds 16 1023 55 10000 2.1 120 15:38 08.10.2020
3416 Clouds 16 1023 58 10000 1.5 260 15:18 08.10.2020
3417 Clouds 15 1024 58 10000 1.5 260 14:38 08.10.2020
3418 Clouds 14 1024 58 10000 2.1 270 14:18 08.10.2020
3419 Clouds 13 1024 66 10000 3.1 280 13:45 08.10.2020
3420 Clouds 13 1024 66 10000 3.1 280 13:19 08.10.2020
3421 Clouds 11 1025 71 10000 3.1 270 12:42 08.10.2020
3422 Clouds 12 1025 71 10000 3.1 270 12:21 08.10.2020
3423 Clouds 12 1025 66 10000 1.5 270 11:53 08.10.2020
3424 Clouds 11 1026 76 10000 1 0 11:32 08.10.2020
3425 Clouds 11 1026 76 10000 1 0 10:54 08.10.2020
3426 Clouds 10 1026 76 10000 0.5 0 10:36 08.10.2020
3427 Clouds 9 1026 87 10000 1 0 10:18 08.10.2020
3428 Clouds 8 1026 87 10000 1 0 09:42 08.10.2020
3429 Clouds 7 1026 87 10000 1 0 09:24 08.10.2020
3430 Clouds 7 1025 93 10000 0.5 0 08:40 08.10.2020
3431 Clouds 6 1025 93 10000 0.5 0 08:21 08.10.2020
3432 Clouds 6 1025 93 10000 0.5 0 07:50 08.10.2020
3433 Clouds 6 1025 93 10000 0.5 0 07:23 08.10.2020
3434 Clouds 7 1025 100 10000 1 0 06:31 08.10.2020
3435 Clouds 7 1024 93 10000 1 160 05:19 08.10.2020
3436 Clouds 7 1024 93 10000 0.5 0 02:53 08.10.2020
3437 Clouds 7 1023 93 10000 0.5 0 01:48 08.10.2020
3438 Clouds 9 1022 93 10000 1 0 23:42 07.10.2020
3439 Clouds 9 1022 93 10000 1 0 23:23 07.10.2020
3440 Clouds 9 1022 93 10000 1 0 22:59 07.10.2020
3441 Clouds 9 1022 87 10000 1 0 22:41 07.10.2020
3442 Clouds 9 1022 87 10000 1 0 22:22 07.10.2020
3443 Clouds 9 1021 81 10000 1.5 60 21:43 07.10.2020
3444 Clouds 9 1021 81 10000 2.1 360 21:23 07.10.2020
3445 Clouds 10 1020 71 10000 1 0 20:44 07.10.2020
3446 Clouds 10 1020 87 10000 1.5 360 20:26 07.10.2020
3447 Clouds 9 1020 87 10000 1.5 360 19:49 07.10.2020
3448 Clouds 10 1018 76 10000 1 0 19:20 07.10.2020
3449 Clouds 10 1018 76 10000 1 0 18:58 07.10.2020
3450 Clouds 11 1017 66 10000 3.1 90 18:39 07.10.2020
3451 Clouds 11 1017 71 10000 3.1 80 18:19 07.10.2020
3452 Clouds 12 1017 71 10000 2.6 60 17:44 07.10.2020
3453 Clouds 12 1017 71 10000 2.6 60 17:26 07.10.2020
3454 Clouds 14 1016 62 10000 2.1 0 16:50 07.10.2020
3455 Clouds 12 1016 62 10000 3.6 60 16:22 07.10.2020
3456 Clouds 14 1016 62 10000 3.6 60 15:46 07.10.2020
3457 Clouds 14 1016 62 10000 1 0 15:21 07.10.2020
3458 Clouds 13 1016 71 10000 3.1 60 14:58 07.10.2020
3459 Clouds 13 1016 71 10000 3.1 0 14:40 07.10.2020
3460 Clouds 12 1015 71 10000 3.1 90 14:21 07.10.2020
3461 Clouds 13 1015 71 10000 2.6 80 13:44 07.10.2020
3462 Clouds 12 1015 71 10000 2.1 70 13:21 07.10.2020
3463 Clouds 11 1015 76 10000 1.5 10 12:47 07.10.2020
3464 Clouds 11 1015 76 10000 1.5 10 12:24 07.10.2020
3465 Clouds 11 1015 76 10000 1 0 11:50 07.10.2020
3466 Clouds 10 1015 81 10000 2.1 50 11:26 07.10.2020
3467 Clouds 10 1015 87 10000 1 0 10:43 07.10.2020
3468 Clouds 10 1014 93 10000 0.5 0 10:20 07.10.2020
3469 Clouds 9 1014 93 10000 0.5 0 09:43 07.10.2020
3470 Clouds 9 1014 93 10000 0.5 0 09:20 07.10.2020
3471 Clouds 9 1013 93 10000 1.5 220 08:39 07.10.2020
3472 Clouds 9 1012 100 10000 2.1 270 08:18 07.10.2020
3473 Clouds 9 1012 93 10000 1 0 06:57 07.10.2020
3474 Clouds 9 1011 93 10000 0.5 0 05:54 07.10.2020
3475 Clouds 9 1011 93 10000 1 0 05:27 07.10.2020
3476 Rain 9 1010 93 10000 1 0 02:27 07.10.2020
3477 Rain 10 1010 87 10000 5.1 270 01:20 07.10.2020
3478 Clouds 9 1009 87 10000 2.1 190 23:58 06.10.2020
3479 Clouds 9 1010 87 10000 4.6 270 23:25 06.10.2020
3480 Clouds 9 1010 87 10000 4.6 270 23:25 06.10.2020
3481 Clouds 10 1009 81 10000 3.1 0 22:58 06.10.2020
3482 Clouds 10 1008 87 10000 2.6 240 22:39 06.10.2020
3483 Clouds 10 1008 87 10000 2.6 240 22:39 06.10.2020
3484 Clouds 10 1009 87 10000 3.1 280 22:21 06.10.2020
3485 Clouds 10 1009 76 10000 3.1 260 21:43 06.10.2020
3486 Clouds 10 1009 76 10000 3.1 260 21:24 06.10.2020
3487 Clouds 11 1009 71 10000 3.1 250 20:45 06.10.2020
3488 Clouds 12 1009 66 10000 3.6 0 20:19 06.10.2020
3489 Clouds 11 1009 66 10000 3.6 0 19:52 06.10.2020
3490 Clouds 12 1009 62 10000 2.6 200 19:20 06.10.2020
3491 Clouds 13 1009 48 10000 5.1 0 18:50 06.10.2020
3492 Clouds 14 1009 48 10000 5.1 0 18:26 06.10.2020
3493 Clouds 14 1009 48 10000 3.1 0 17:50 06.10.2020
3494 Clouds 15 1010 51 10000 2.1 0 17:26 06.10.2020
3495 Clouds 15 1010 51 10000 2.6 10 16:58 06.10.2020
3496 Clouds 15 1010 59 10000 2.6 0 16:39 06.10.2020
3497 Clouds 15 1010 59 10000 2.6 0 16:20 06.10.2020
3498 Rain 13 1012 71 10000 3.1 230 15:46 06.10.2020
3499 Rain 12 1012 71 10000 3.1 230 15:27 06.10.2020
3500 Rain 14 1010 67 10000 1.5 270 14:46 06.10.2020
3501 Clouds 14 1010 67 10000 1.5 270 14:20 06.10.2020
3502 Clouds 14 1010 67 10000 1.5 270 14:20 06.10.2020
3503 Clouds 13 1011 71 10000 1 0 13:54 06.10.2020
3504 Clouds 13 1011 76 10000 1.5 0 13:34 06.10.2020
3505 Clouds 11 1012 87 10000 1 0 12:54 06.10.2020
3506 Rain 11 1012 87 10000 1 0 12:36 06.10.2020
3507 Clouds 8 1013 87 10000 2.1 30 12:18 06.10.2020
3508 Rain 9 1013 93 10000 2.1 70 11:40 06.10.2020
3509 Rain 9 1013 93 10000 2.1 70 11:21 06.10.2020
3510 Clouds 8 1013 87 10000 1 0 10:39 06.10.2020
3511 Clouds 8 1013 87 10000 1 0 10:21 06.10.2020
3512 Clouds 8 1013 93 8000 1 0 09:40 06.10.2020
3513 Clouds 7 1013 93 8000 1 0 09:19 06.10.2020
3514 Clouds 7 1013 93 10000 1 0 08:42 06.10.2020
3515 Clouds 7 1013 93 10000 1 0 08:19 06.10.2020
3516 Clouds 7 1012 100 10000 1 0 07:33 06.10.2020
3517 Clouds 7 1012 100 10000 0.5 0 06:52 06.10.2020
3518 Clouds 8 1013 93 10000 0.5 0 04:59 06.10.2020
3519 Clouds 8 1012 93 10000 1 0 01:47 06.10.2020
3520 Clouds 8 1012 93 10000 0.5 0 00:42 06.10.2020
3521 Clouds 8 1012 93 10000 0.5 0 00:23 06.10.2020
3522 Clouds 8 1012 93 10000 0.5 0 23:47 05.10.2020
3523 Clouds 7 1012 93 10000 0.5 0 23:27 05.10.2020
3524 Clouds 7 1012 93 10000 0.5 0 22:46 05.10.2020
3525 Clouds 8 1012 93 10000 1 0 22:20 05.10.2020
3526 Clouds 8 1011 93 10000 3.1 260 21:44 05.10.2020
3527 Clouds 8 1011 93 10000 3.1 260 21:44 05.10.2020
3528 Clouds 9 1011 93 10000 1.5 230 21:22 05.10.2020
3529 Clouds 9 1011 93 10000 1.5 290 20:47 05.10.2020
3530 Clouds 9 1011 93 10000 1.5 290 20:24 05.10.2020
3531 Clouds 9 1010 87 10000 1 0 19:49 05.10.2020
3532 Clouds 9 1010 87 10000 1 0 19:30 05.10.2020
3533 Clouds 9 1010 93 10000 2.1 90 18:49 05.10.2020
3534 Clouds 10 1010 81 10000 1 0 18:31 05.10.2020
3535 Rain 11 1010 76 10000 2.6 260 17:58 05.10.2020
3536 Rain 11 1009 71 10000 2.1 90 17:38 05.10.2020
3537 Clouds 11 1009 71 10000 2.1 100 17:20 05.10.2020
3538 Clouds 11 1009 76 10000 2.1 80 16:41 05.10.2020
3539 Clouds 11 1009 76 10000 2.1 80 16:23 05.10.2020
3540 Clouds 11 1009 71 10000 2.6 70 15:42 05.10.2020
3541 Clouds 11 1009 71 10000 2.6 70 15:21 05.10.2020
3542 Clouds 11 1009 76 10000 2.1 100 14:44 05.10.2020
3543 Clouds 11 1009 76 10000 2.1 100 14:24 05.10.2020
3544 Clouds 11 1009 81 10000 2.6 60 13:52 05.10.2020
3545 Clouds 11 1009 81 10000 2.6 70 13:34 05.10.2020
3546 Clouds 10 1009 81 10000 2.6 80 12:52 05.10.2020
3547 Clouds 10 1009 81 10000 2.6 80 12:52 05.10.2020
3548 Clouds 10 1009 81 10000 2.1 80 12:34 05.10.2020
3549 Clouds 9 1009 81 10000 1.5 0 11:59 05.10.2020
3550 Clouds 9 1008 93 10000 2.6 310 11:41 05.10.2020
3551 Clouds 8 1008 93 10000 2.6 310 11:20 05.10.2020
3552 Clouds 9 1008 87 10000 4.1 280 10:42 05.10.2020
3553 Clouds 9 1008 87 10000 4.1 280 10:24 05.10.2020
3554 Clouds 9 1007 81 10000 5.7 260 09:53 05.10.2020
3555 Rain 9 1007 87 10000 1 0 09:28 05.10.2020
3556 Clouds 9 1006 87 10000 1 0 08:44 05.10.2020
3557 Rain 9 1006 87 10000 1 0 08:25 05.10.2020
3558 Clouds 9 1005 87 10000 3.1 260 07:39 05.10.2020
3559 Clouds 9 1004 87 10000 2.1 260 06:19 05.10.2020
3560 Rain 9 1004 62 10000 5.1 130 02:38 05.10.2020
3561 Clouds 9 1005 66 10000 5.1 90 00:52 05.10.2020
3562 Rain 9 1004 71 10000 5.1 70 23:51 04.10.2020
3563 Clouds 11 1004 54 10000 5.1 70 23:32 04.10.2020
3564 Rain 11 1004 54 10000 6.2 60 22:46 04.10.2020
3565 Clouds 11 1004 47 10000 3.6 100 22:24 04.10.2020
3566 Clouds 12 1003 41 10000 4.6 0 21:57 04.10.2020
3567 Clouds 12 1003 47 10000 6.2 40 21:38 04.10.2020
3568 Clouds 12 1003 44 10000 5.1 60 21:18 04.10.2020
3569 Clouds 12 1003 47 10000 3.6 100 20:41 04.10.2020
3570 Clouds 12 1003 47 10000 3.6 100 20:21 04.10.2020
3571 Clouds 12 1004 47 10000 5.1 50 19:50 04.10.2020
3572 Clouds 12 1004 54 10000 3.6 100 19:31 04.10.2020
3573 Clouds 13 1003 44 10000 6.2 0 18:53 04.10.2020
3574 Clouds 14 1003 44 10000 6.2 0 18:28 04.10.2020
3575 Clouds 14 1003 41 10000 4.1 0 17:59 04.10.2020
3576 Clouds 14 1003 44 10000 5.1 0 17:38 04.10.2020
3577 Clouds 14 1003 44 10000 6.7 0 17:19 04.10.2020
3578 Clouds 15 1003 42 10000 7.7 130 16:42 04.10.2020
3579 Clouds 14 1003 42 10000 7.7 130 16:22 04.10.2020
3580 Clouds 14 1003 45 10000 8.7 130 15:57 04.10.2020
3581 Clouds 14 1003 45 10000 5.7 120 15:38 04.10.2020
3582 Clouds 16 1002 45 10000 5.7 140 15:18 04.10.2020
3583 Clouds 17 1002 48 10000 4.6 0 14:42 04.10.2020
3584 Clouds 17 1002 48 10000 4.6 0 14:42 04.10.2020
3585 Clouds 16 1002 48 10000 4.6 0 14:23 04.10.2020
3586 Clouds 14 1002 45 10000 4.6 0 13:46 04.10.2020
3587 Clouds 14 1002 45 10000 5.1 150 13:21 04.10.2020
3588 Clouds 14 1002 51 10000 5.7 120 12:44 04.10.2020
3589 Clouds 14 1002 51 10000 5.7 120 12:44 04.10.2020
3590 Clouds 14 1002 51 10000 5.7 120 12:44 04.10.2020
3591 Clouds 14 1002 51 10000 7.7 130 12:25 04.10.2020
3592 Clouds 14 1002 51 10000 7.7 130 11:56 04.10.2020
3593 Clouds 14 1002 51 10000 7.7 130 11:56 04.10.2020
3594 Clouds 13 1001 51 10000 6.2 110 11:38 04.10.2020
3595 Clouds 13 1001 51 10000 6.2 110 11:19 04.10.2020
3596 Clouds 12 1002 54 10000 5.1 80 10:46 04.10.2020
3597 Clouds 12 1002 54 10000 5.1 80 10:27 04.10.2020
3598 Clouds 9 1001 76 10000 3.6 80 09:43 04.10.2020
3599 Clouds 9 1001 76 10000 3.6 80 09:43 04.10.2020
3600 Clouds 9 1001 76 10000 3.6 80 09:20 04.10.2020
3601 Fog 7 1001 93 10000 3.6 260 08:46 04.10.2020
3602 Fog 5 1001 93 10000 3.6 260 08:25 04.10.2020
3603 Clouds 5 1000 93 10000 1.5 0 07:50 04.10.2020
3604 Clouds 6 1000 93 10000 2.1 0 07:24 04.10.2020
3605 Clouds 7 1000 93 10000 1.5 0 06:44 04.10.2020
3606 Clouds 7 1000 93 10000 1.5 0 06:25 04.10.2020
3607 Clear 7 998 93 10000 2.1 0 05:37 04.10.2020
3608 Clear 8 997 93 10000 2.6 0 01:47 04.10.2020
3609 Clouds 6 997 93 10000 3.1 260 00:54 04.10.2020
3610 Clear 7 997 93 10000 4.1 270 23:53 03.10.2020
3611 Clouds 8 997 81 10000 3.6 0 23:25 03.10.2020
3612 Clouds 9 996 58 10000 3.6 0 22:50 03.10.2020
3613 Clouds 9 996 58 10000 3.6 0 22:31 03.10.2020
3614 Clouds 8 997 93 10000 6.2 80 21:59 03.10.2020
3615 Clouds 8 997 93 10000 6.2 80 21:41 03.10.2020
3616 Clouds 9 997 81 10000 7.7 80 21:21 03.10.2020
3617 Clouds 10 997 87 10000 6.7 80 20:43 03.10.2020
3618 Clouds 10 997 87 10000 6.7 80 20:22 03.10.2020
3619 Clouds 9 997 87 10000 5.1 90 19:56 03.10.2020
3620 Clouds 9 997 81 10000 3.1 90 19:37 03.10.2020
3621 Clouds 10 997 87 10000 5.7 90 19:18 03.10.2020
3622 Clouds 11 996 82 10000 5.1 80 18:42 03.10.2020
3623 Rain 11 996 82 10000 5.1 80 18:23 03.10.2020
3624 Rain 12 996 82 10000 2.6 300 17:40 03.10.2020
3625 Rain 12 995 82 10000 5.7 250 17:21 03.10.2020
3626 Rain 12 995 82 10000 5.7 250 16:47 03.10.2020
3627 Rain 14 995 87 10000 3.6 270 16:24 03.10.2020
3628 Rain 14 994 93 10000 2.1 110 15:47 03.10.2020
3629 Rain 15 994 93 10000 3.6 100 15:22 03.10.2020
3630 Rain 15 992 82 10000 5.7 60 14:58 03.10.2020
3631 Rain 15 992 87 10000 5.1 50 14:39 03.10.2020
3632 Rain 15 992 87 10000 5.1 50 14:21 03.10.2020
3633 Rain 13 992 82 10000 3.1 110 13:44 03.10.2020
3634 Rain 16 992 82 10000 3.1 110 13:25 03.10.2020
3635 Rain 16 991 59 10000 10.3 10 12:52 03.10.2020
3636 Rain 17 991 56 10000 4.6 0 12:25 03.10.2020
3637 Rain 18 991 49 10000 6.7 360 11:59 03.10.2020
3638 Rain 18 992 49 10000 5.1 30 11:41 03.10.2020
3639 Rain 16 992 68 10000 8.7 40 11:22 03.10.2020
3640 Rain 17 991 59 10000 8.2 40 10:42 03.10.2020
3641 Rain 18 991 59 10000 8.2 40 10:23 03.10.2020
3642 Rain 18 992 55 10000 7.2 90 09:49 03.10.2020
3643 Rain 16 992 55 10000 7.2 90 09:27 03.10.2020
3644 Clouds 18 991 43 10000 9.8 0 08:46 03.10.2020
3645 Clouds 21 991 43 10000 9.8 0 08:28 03.10.2020
3646 Clouds 21 991 40 10000 7.7 70 07:47 03.10.2020
3647 Clouds 21 991 40 10000 7.7 70 07:25 03.10.2020
3648 Clouds 21 992 43 10000 6.2 60 06:58 03.10.2020
3649 Rain 21 993 43 10000 6.7 0 05:57 03.10.2020
3650 Clouds 21 993 40 10000 8.2 80 04:50 03.10.2020
3651 Clouds 20 994 42 10000 8.2 90 03:43 03.10.2020
3652 Clouds 20 994 42 10000 6.2 60 00:51 03.10.2020
3653 Clouds 20 994 45 10000 7.7 70 00:19 03.10.2020
3654 Clouds 20 994 45 10000 7.7 70 00:19 03.10.2020
3655 Rain 20 995 45 10000 6.7 0 23:43 02.10.2020
3656 Rain 20 995 45 10000 6.7 0 23:25 02.10.2020
3657 Clouds 20 995 45 10000 7.7 80 22:52 02.10.2020
3658 Clouds 19 995 52 10000 7.2 50 22:28 02.10.2020
3659 Clouds 19 995 52 10000 8.7 30 21:54 02.10.2020
3660 Rain 19 995 48 10000 7.2 0 21:30 02.10.2020
3661 Clouds 19 995 48 10000 8.7 50 20:59 02.10.2020
3662 Clouds 19 995 48 10000 6.2 60 20:40 02.10.2020
3663 Clouds 19 995 48 10000 5.1 0 20:21 02.10.2020
3664 Clouds 19 995 48 10000 5.1 0 19:47 02.10.2020
3665 Clouds 20 995 45 10000 5.1 60 19:20 02.10.2020
3666 Clouds 20 995 45 10000 6.2 100 18:45 02.10.2020
3667 Clouds 20 995 45 10000 6.2 100 18:26 02.10.2020
3668 Clouds 20 995 45 10000 9.3 40 17:56 02.10.2020
3669 Clouds 19 995 52 10000 8.2 360 17:38 02.10.2020
3670 Clouds 19 995 52 10000 8.2 360 17:20 02.10.2020
3671 Clouds 20 995 52 10000 6.7 40 16:41 02.10.2020
3672 Clouds 19 996 49 10000 7.7 60 15:56 02.10.2020
3673 Clouds 18 996 49 10000 6.2 50 15:37 02.10.2020
3674 Clouds 18 996 49 10000 6.2 50 15:19 02.10.2020
3675 Clouds 20 996 49 10000 6.7 40 14:40 02.10.2020
3676 Clouds 18 996 49 10000 6.7 40 14:19 02.10.2020
3677 Clouds 20 997 45 10000 4.6 0 13:50 02.10.2020
3678 Clouds 19 997 45 10000 6.2 100 13:19 02.10.2020
3679 Clouds 18 997 52 10000 5.7 60 12:44 02.10.2020
3680 Clouds 18 997 52 10000 5.7 60 12:22 02.10.2020
3681 Clouds 18 998 48 10000 6.2 90 11:51 02.10.2020
3682 Clouds 15 998 55 10000 6.2 80 11:27 02.10.2020
3683 Clouds 14 998 71 10000 5.7 80 10:49 02.10.2020
3684 Clouds 14 999 67 10000 5.1 90 10:30 02.10.2020
3685 Clouds 12 999 81 10000 5.1 100 09:57 02.10.2020
3686 Clouds 11 999 87 10000 5.1 100 09:30 02.10.2020
3687 Rain 11 999 87 10000 2.1 110 08:56 02.10.2020
3688 Rain 10 1000 93 10000 1 0 08:35 02.10.2020
3689 Clouds 10 1000 93 10000 1.5 260 07:56 02.10.2020
3690 Rain 10 1000 93 10000 1 0 07:23 02.10.2020
3691 Clouds 10 1001 93 10000 1.5 0 06:22 02.10.2020
3692 Clouds 11 1004 87 10000 2.6 100 02:54 02.10.2020
3693 Clouds 12 1004 82 10000 2.6 80 02:21 02.10.2020
3694 Clouds 12 1005 82 10000 1.5 110 00:28 02.10.2020
3695 Clouds 13 1005 76 10000 1.5 70 23:58 01.10.2020
3696 Clouds 13 1006 76 10000 1.5 100 23:39 01.10.2020
3697 Clouds 13 1006 76 10000 1.5 100 23:21 01.10.2020
3698 Clouds 13 1006 82 10000 0.5 0 22:41 01.10.2020
3699 Clouds 13 1006 82 10000 0.5 0 22:21 01.10.2020
3700 Clouds 13 1006 76 10000 1 0 21:44 01.10.2020
3701 Clouds 13 1006 76 10000 1 0 21:22 01.10.2020
3702 Clouds 13 1005 76 10000 1.5 10 20:59 01.10.2020
3703 Clouds 12 1005 82 10000 1 0 20:38 01.10.2020
3704 Clouds 13 1005 77 10000 1 0 20:19 01.10.2020
3705 Clouds 14 1005 67 10000 1 0 19:42 01.10.2020
3706 Clouds 14 1005 67 10000 1 0 19:23 01.10.2020
3707 Clouds 16 1004 63 10000 1 210 18:43 01.10.2020
3708 Clouds 17 1004 63 10000 1 210 18:24 01.10.2020
3709 Clouds 18 1004 49 10000 3.1 90 17:43 01.10.2020
3710 Clouds 19 1004 49 10000 3.1 90 17:24 01.10.2020
3711 Clouds 19 1004 43 10000 0.5 0 16:45 01.10.2020
3712 Clouds 19 1004 42 10000 0.5 0 16:24 01.10.2020
3713 Clouds 19 1004 42 10000 0.5 0 15:56 01.10.2020
3714 Clouds 19 1004 45 10000 1 0 15:27 01.10.2020
3715 Clouds 18 1005 55 10000 1 0 14:47 01.10.2020
3716 Clouds 18 1005 55 10000 1 0 14:29 01.10.2020
3717 Clouds 17 1006 63 10000 3.1 270 13:43 01.10.2020
3718 Clouds 15 1007 62 10000 2.1 260 13:20 01.10.2020
3719 Clouds 14 1007 67 10000 2.1 260 12:40 01.10.2020
3720 Clouds 14 1007 67 10000 2.1 260 12:20 01.10.2020
3721 Clouds 12 1009 76 10000 1.5 240 11:38 01.10.2020
3722 Clouds 12 1009 81 10000 1.5 260 11:19 01.10.2020
3723 Clouds 11 1010 87 10000 1 0 10:46 01.10.2020
3724 Clouds 9 1010 87 10000 1 0 10:25 01.10.2020
3725 Clouds 8 1010 93 6000 1.5 240 09:45 01.10.2020
3726 Mist 7 1010 100 2500 1.5 260 09:27 01.10.2020
3727 Fog 6 1010 100 900 1.5 250 08:57 01.10.2020
3728 Fog 7 1011 100 500 1.5 270 08:39 01.10.2020
3729 Fog 7 1011 100 400 1 0 07:56 01.10.2020
3730 Mist 6 1011 100 3000 1.5 260 07:27 01.10.2020
3731 Clouds 6 1011 100 7000 1 0 06:40 01.10.2020
3732 Clouds 6 1012 100 10000 1 280 04:20 01.10.2020
3733 Clouds 8 1014 93 10000 1 250 00:37 01.10.2020
3734 Clear 8 1014 93 10000 0.5 0 23:39 30.09.2020
3735 Clear 9 1014 93 10000 1 280 22:46 30.09.2020
3736 Clear 9 1014 93 10000 1 280 22:25 30.09.2020
3737 Clear 9 1014 93 10000 1 280 22:25 30.09.2020
3738 Clear 9 1014 87 10000 1 0 21:57 30.09.2020
3739 Clear 10 1014 87 10000 0.5 0 21:37 30.09.2020
3740 Clear 11 1014 81 10000 1 180 21:18 30.09.2020
3741 Clear 12 1014 82 10000 0.5 0 20:43 30.09.2020
3742 Clouds 12 1014 82 10000 0.5 0 20:24 30.09.2020
3743 Clouds 14 1013 76 10000 0.5 0 19:42 30.09.2020
3744 Clouds 13 1013 76 10000 0.5 0 19:20 30.09.2020
3745 Clouds 16 1013 59 10000 1.5 170 18:51 30.09.2020
3746 Clouds 16 1013 52 10000 1 0 18:23 30.09.2020
3747 Clouds 16 1013 52 10000 1 0 17:49 30.09.2020
3748 Clouds 17 1013 52 10000 1.5 180 17:27 30.09.2020
3749 Clouds 17 1014 48 10000 1.5 120 16:54 30.09.2020
3750 Clouds 17 1014 48 10000 2.1 110 16:29 30.09.2020
3751 Clouds 16 1014 52 10000 2.1 70 15:59 30.09.2020
3752 Clouds 16 1015 52 10000 1 0 15:40 30.09.2020
3753 Clouds 16 1015 52 10000 1 0 15:40 30.09.2020
3754 Clouds 16 1015 59 10000 1 0 15:18 30.09.2020
3755 Clouds 16 1016 59 10000 1 0 14:40 30.09.2020
3756 Clouds 16 1016 59 10000 1 0 14:20 30.09.2020
3757 Clouds 15 1017 67 10000 1 0 13:44 30.09.2020
3758 Clouds 14 1017 67 10000 1 0 13:24 30.09.2020
3759 Clouds 13 1018 76 10000 1 0 12:42 30.09.2020
3760 Clouds 12 1018 81 10000 1 0 12:24 30.09.2020
3761 Clouds 11 1019 81 10000 1 0 11:45 30.09.2020
3762 Clouds 11 1019 81 10000 1 0 11:23 30.09.2020
3763 Clouds 10 1019 87 10000 2.1 100 11:23 30.09.2020
3764 Clouds 10 1019 87 10000 2.1 100 10:51 30.09.2020
3765 Clouds 10 1019 87 10000 1.5 70 10:33 30.09.2020
3766 Clouds 10 1019 87 10000 1.5 70 09:54 30.09.2020
3767 Drizzle 9 1019 93 10000 2.1 60 09:26 30.09.2020
3768 Clouds 9 1019 93 10000 0.5 0 08:49 30.09.2020
3769 Clouds 9 1019 93 10000 0.5 0 08:31 30.09.2020
3770 Clouds 9 1019 93 10000 0.5 0 07:44 30.09.2020
3771 Clouds 9 1019 93 10000 1.02 192 07:21 30.09.2020
3772 Clouds 9 1019 93 10000 0.5 0 06:32 30.09.2020
3773 Clouds 9 1019 93 10000 0.5 0 05:40 30.09.2020
3774 Clouds 10 1020 93 10000 0.5 0 03:38 30.09.2020
3775 Clouds 10 1020 93 10000 0.5 0 02:42 30.09.2020
3776 Clouds 9 1020 93 10000 1 150 00:28 30.09.2020
3777 Clouds 9 1021 93 10000 1 240 23:51 29.09.2020
3778 Clouds 9 1021 93 10000 1 0 23:32 29.09.2020
3779 Clouds 9 1021 93 10000 1.02 199 22:52 29.09.2020
3780 Clouds 9 1021 93 10000 0.81 231 22:28 29.09.2020
3781 Clouds 9 1021 93 10000 0.81 231 22:28 29.09.2020
3782 Clouds 9 1020 93 10000 1 0 21:59 29.09.2020
3783 Clouds 9 1020 93 10000 1.5 130 21:39 29.09.2020
3784 Clouds 10 1020 87 10000 0.5 0 21:21 29.09.2020
3785 Clouds 10 1020 87 10000 1 0 20:43 29.09.2020
3786 Clouds 10 1020 87 10000 1 0 20:24 29.09.2020
3787 Clouds 11 1020 81 10000 1 0 19:53 29.09.2020
3788 Clouds 10 1019 76 10000 2.6 70 19:34 29.09.2020
3789 Clouds 11 1019 71 10000 2.1 70 18:48 29.09.2020
3790 Clouds 11 1019 67 10000 0.57 188 18:23 29.09.2020
3791 Clouds 11 1019 67 10000 0.57 188 17:59 29.09.2020
3792 Clouds 12 1018 62 10000 1 0 17:25 29.09.2020
3793 Clouds 12 1018 62 10000 0.5 0 16:56 29.09.2020
3794 Clouds 12 1018 67 10000 1.5 290 16:38 29.09.2020
3795 Clouds 12 1018 71 10000 2.1 260 16:18 29.09.2020
3796 Clouds 11 1019 66 10000 1.5 270 15:44 29.09.2020
3797 Clouds 11 1019 66 10000 1.5 270 15:26 29.09.2020
3798 Clouds 13 1019 66 10000 2.1 260 14:42 29.09.2020
3799 Clouds 12 1019 66 10000 2.1 260 14:19 29.09.2020
3800 Clouds 12 1019 76 10000 2.1 260 13:51 29.09.2020
3801 Drizzle 11 1020 66 10000 2.6 270 13:24 29.09.2020
3802 Clouds 10 1020 76 10000 2.6 280 12:51 29.09.2020
3803 Clouds 9 1020 87 10000 2.1 290 12:33 29.09.2020
3804 Clouds 9 1020 87 10000 1.5 270 11:53 29.09.2020
3805 Clouds 9 1020 87 10000 1.5 260 11:27 29.09.2020
3806 Clouds 8 1020 87 10000 1 0 10:50 29.09.2020
3807 Drizzle 9 1019 81 10000 1.5 210 10:24 29.09.2020
3808 Clouds 6 1019 93 10000 0.5 0 09:43 29.09.2020
3809 Clouds 6 1019 93 10000 0.5 0 09:24 29.09.2020
3810 Clouds 6 1019 93 10000 0.5 0 08:51 29.09.2020
3811 Clouds 6 1018 93 10000 0.5 0 08:26 29.09.2020
3812 Rain 5 1018 100 10000 0.5 0 07:49 29.09.2020
3813 Clouds 5 1018 100 10000 0.5 0 07:28 29.09.2020
3814 Clouds 5 1018 93 10000 1 0 05:41 29.09.2020
3815 Clouds 5 1017 93 10000 0.5 0 04:24 29.09.2020
3816 Clouds 4 1017 100 10000 1.5 270 02:20 29.09.2020
3817 Clouds 5 1017 93 10000 0.5 0 00:39 29.09.2020
3818 Clouds 6 1017 93 10000 0.5 0 23:45 28.09.2020
3819 Clouds 6 1017 93 10000 0.5 0 23:22 28.09.2020
3820 Clouds 7 1016 87 10000 0.5 0 22:39 28.09.2020
3821 Clouds 7 1016 87 10000 0.5 0 22:20 28.09.2020
3822 Clouds 7 1015 93 10000 1 0 21:44 28.09.2020
3823 Clouds 7 1015 93 10000 1 0 21:44 28.09.2020
3824 Clouds 7 1015 93 10000 1 0 21:25 28.09.2020
3825 Clouds 7 1015 87 10000 1 0 20:59 28.09.2020
3826 Clouds 7 1015 87 10000 1 0 20:40 28.09.2020
3827 Clouds 7 1015 87 10000 1 0 20:20 28.09.2020
3828 Clouds 7 1014 87 10000 0.5 0 19:41 28.09.2020
3829 Clouds 7 1014 87 10000 0.5 0 19:22 28.09.2020
3830 Clouds 8 1013 81 10000 2.1 70 18:53 28.09.2020
3831 Clouds 8 1013 81 10000 2.1 70 18:35 28.09.2020
3832 Clouds 8 1013 81 10000 1.5 60 17:59 28.09.2020
3833 Clouds 8 1012 76 10000 1.5 60 17:39 28.09.2020
3834 Clouds 8 1012 76 10000 1.5 60 17:21 28.09.2020
3835 Clouds 8 1012 76 10000 2.1 70 16:45 28.09.2020
3836 Clouds 8 1012 76 10000 2.1 70 16:27 28.09.2020
3837 Clouds 9 1011 76 10000 2.6 60 15:39 28.09.2020
3838 Clouds 9 1011 76 10000 2.6 60 15:19 28.09.2020
3839 Clouds 9 1011 76 10000 2.1 60 14:49 28.09.2020
3840 Clouds 8 1011 76 10000 0.5 0 14:28 28.09.2020
3841 Clouds 8 1011 81 10000 0.5 0 13:58 28.09.2020
3842 Clouds 7 1011 81 10000 1 0 13:27 28.09.2020
3843 Clouds 7 1011 81 10000 0.5 0 12:59 28.09.2020
3844 Clouds 7 1011 81 10000 0.5 0 12:40 28.09.2020
3845 Clouds 6 1011 87 10000 1 0 11:57 28.09.2020
3846 Clouds 6 1011 87 10000 0.5 0 11:37 28.09.2020
3847 Clouds 6 1010 87 10000 1 0 11:18 28.09.2020
3848 Clouds 6 1010 87 10000 1 270 10:45 28.09.2020
3849 Clouds 6 1010 87 10000 1 270 10:23 28.09.2020
3850 Clouds 6 1010 87 10000 1 0 09:49 28.09.2020
3851 Clouds 5 1009 87 10000 1 260 08:56 28.09.2020
3852 Clouds 5 1009 87 10000 1 200 08:38 28.09.2020
3853 Drizzle 5 1009 87 10000 1 0 08:19 28.09.2020
3854 Clouds 5 1009 87 10000 1 200 08:19 28.09.2020
3855 Rain 4 1009 86 10000 0.5 0 07:38 28.09.2020
3856 Rain 4 1008 93 10000 1 0 06:46 28.09.2020
3857 Clouds 4 1009 86 10000 1 260 03:33 28.09.2020
3858 Clouds 4 1009 93 10000 0.5 0 01:32 28.09.2020
3859 Clouds 3 1008 86 10000 1.5 260 00:38 28.09.2020
3860 Clouds 4 1008 81 10000 0.5 0 23:46 27.09.2020
3861 Clouds 5 1008 87 10000 0.5 0 23:27 27.09.2020
3862 Clouds 5 1008 81 10000 0.5 0 22:52 27.09.2020
3863 Clouds 5 1008 87 10000 2.1 260 22:33 27.09.2020
3864 Clouds 6 1008 66 10000 2.1 110 21:48 27.09.2020
3865 Rain 7 1007 66 10000 1.5 40 21:29 27.09.2020
3866 Clouds 6 1007 75 10000 1 0 20:58 27.09.2020
3867 Clouds 7 1006 75 10000 1 0 20:30 27.09.2020
3868 Clouds 7 1006 75 10000 1 0 20:30 27.09.2020
3869 Clouds 10 1006 61 10000 1 0 19:56 27.09.2020
3870 Clouds 11 1006 62 10000 2.1 190 19:38 27.09.2020
3871 Clouds 9 1006 62 10000 2.1 190 19:18 27.09.2020
3872 Clouds 11 1004 44 10000 3.1 140 18:42 27.09.2020
3873 Clouds 12 1004 44 10000 3.1 140 18:22 27.09.2020
3874 Clouds 15 1004 38 10000 4.6 130 17:43 27.09.2020
3875 Clouds 14 1004 38 10000 4.6 130 17:25 27.09.2020
3876 Clouds 14 1004 36 10000 4.1 130 16:55 27.09.2020
3877 Clouds 14 1004 36 10000 2.6 130 16:34 27.09.2020
3878 Clouds 14 1004 41 10000 3.1 60 15:58 27.09.2020
3879 Clouds 14 1004 38 10000 3.6 40 15:32 27.09.2020
3880 Clouds 14 1005 44 10000 3.6 0 14:59 27.09.2020
3881 Clouds 13 1005 41 10000 3.6 110 14:38 27.09.2020
3882 Clouds 13 1005 41 10000 3.6 110 14:20 27.09.2020
3883 Clouds 13 1005 54 10000 3.1 90 13:45 27.09.2020
3884 Clouds 12 1006 62 10000 1.5 0 13:20 27.09.2020
3885 Clouds 10 1006 61 10000 1 0 12:48 27.09.2020
3886 Clouds 10 1006 61 10000 1 0 12:27 27.09.2020
3887 Clouds 9 1006 61 10000 0.5 0 11:48 27.09.2020
3888 Clouds 8 1006 70 10000 1 0 11:24 27.09.2020
3889 Clouds 7 1006 70 10000 1 0 10:48 27.09.2020
3890 Clouds 6 1006 70 10000 1.5 240 10:29 27.09.2020
3891 Clouds 6 1005 81 10000 1 0 09:52 27.09.2020
3892 Clouds 5 1005 86 10000 0.5 0 09:30 27.09.2020
3893 Clouds 2 1005 100 10000 0.5 0 08:56 27.09.2020
3894 Clouds 1 1005 100 10000 0.5 0 08:38 27.09.2020
3895 Clouds 1 1005 100 10000 0.5 0 08:19 27.09.2020
3896 Clouds 2 1005 93 10000 1.5 0 07:18 27.09.2020
3897 Clouds 3 1005 93 10000 1 0 06:45 27.09.2020
3898 Clouds 3 1004 93 10000 1.56 205 03:44 27.09.2020
3899 Clouds 4 1004 100 10000 1.5 270 01:53 27.09.2020
3900 Clouds 5 1004 93 10000 0.5 0 01:20 27.09.2020
3901 Clouds 5 1004 93 10000 0.5 0 00:55 27.09.2020
3902 Clouds 5 1003 93 10000 1 0 00:18 27.09.2020
3903 Clouds 5 1003 93 10000 0.5 0 23:39 26.09.2020
3904 Clouds 5 1003 93 10000 0.5 0 23:18 26.09.2020
3905 Clouds 6 1003 87 10000 0.5 0 22:40 26.09.2020
3906 Clouds 6 1003 87 10000 0.5 0 22:20 26.09.2020
3907 Clouds 6 1003 87 10000 0.5 0 21:46 26.09.2020
3908 Clouds 6 1003 93 10000 1 330 21:23 26.09.2020
3909 Clouds 6 1003 93 10000 1 330 20:55 26.09.2020
3910 Clouds 7 1003 87 10000 1 0 20:36 26.09.2020
3911 Clouds 7 1003 87 10000 1 0 20:18 26.09.2020
3912 Clouds 7 1002 87 10000 1.5 20 19:43 26.09.2020
3913 Clouds 6 1002 87 10000 1 0 19:20 26.09.2020
3914 Rain 6 1002 81 10000 0.5 0 18:45 26.09.2020
3915 Clouds 7 1002 81 10000 0.5 0 18:24 26.09.2020
3916 Clouds 7 1002 75 10000 1 0 17:42 26.09.2020
3917 Clouds 7 1002 75 10000 1 0 17:23 26.09.2020
3918 Clouds 7 1002 75 10000 2.1 70 16:43 26.09.2020
3919 Clouds 6 1002 75 10000 2.1 70 16:21 26.09.2020
3920 Rain 6 1002 75 10000 3.1 30 15:51 26.09.2020
3921 Rain 6 1002 81 10000 2.6 50 15:23 26.09.2020
3922 Rain 6 1002 81 10000 2.1 50 14:51 26.09.2020
3923 Clouds 6 1002 87 10000 2.6 80 14:20 26.09.2020
3924 Rain 6 1002 81 10000 2.1 90 14:20 26.09.2020
3925 Clouds 6 1002 87 10000 2.1 90 13:52 26.09.2020
3926 Clouds 6 1002 87 10000 2.1 90 13:34 26.09.2020
3927 Rain 5 1002 87 10000 1 0 12:56 26.09.2020
3928 Clouds 5 1002 87 10000 2.6 120 12:37 26.09.2020
3929 Clouds 6 1002 87 10000 2.6 60 12:18 26.09.2020
3930 Clouds 5 1002 93 10000 2.6 70 11:42 26.09.2020
3931 Clouds 5 1002 93 10000 2.6 70 11:22 26.09.2020
3932 Clouds 4 1001 93 10000 2.1 70 10:42 26.09.2020
3933 Clouds 4 1001 93 10000 2.1 70 10:22 26.09.2020
3934 Clouds 4 1001 86 10000 1.5 70 09:48 26.09.2020
3935 Clouds 4 1001 86 10000 1.5 70 09:22 26.09.2020
3936 Rain 3 1001 86 10000 1 0 08:54 26.09.2020
3937 Clouds 3 1002 100 10000 1 0 07:47 26.09.2020
3938 Rain 3 1002 93 8000 2.1 50 06:33 26.09.2020
3939 Clouds 2 1002 93 10000 2.1 70 02:29 26.09.2020
3940 Clouds 2 1002 93 10000 1.5 70 01:36 26.09.2020
3941 Rain 2 1003 93 2400 0.5 0 00:31 26.09.2020
3942 Rain 2 1003 93 10000 1.5 70 23:38 25.09.2020
3943 Rain 2 1003 86 10000 2.1 60 23:19 25.09.2020
3944 Rain 2 1003 93 10000 2.1 60 22:43 25.09.2020
3945 Rain 2 1003 93 10000 2.1 60 22:25 25.09.2020
3946 Rain 2 1003 93 10000 2.6 70 21:57 25.09.2020
3947 Rain 2 1003 93 10000 1.5 70 21:26 25.09.2020
3948 Rain 2 1004 86 10000 2.6 50 20:45 25.09.2020
3949 Rain 2 1004 86 10000 2.6 50 20:27 25.09.2020
3950 Rain 2 1003 86 10000 2.6 100 19:31 25.09.2020
3951 Rain 2 1004 86 10000 3.1 100 18:56 25.09.2020
3952 Rain 3 1003 93 10000 3.1 40 18:26 25.09.2020
3953 Rain 3 1003 87 10000 2.6 310 17:59 25.09.2020
3954 Rain 3 1003 81 10000 1.5 0 17:37 25.09.2020
3955 Rain 3 1003 81 10000 1.5 0 17:19 25.09.2020
3956 Rain 4 1003 87 10000 2.1 310 16:32 25.09.2020
3957 Rain 5 1003 87 10000 3.1 310 15:56 25.09.2020
3958 Rain 5 1002 87 10000 4.6 260 15:21 25.09.2020
3959 Rain 7 1002 87 9000 1.5 360 14:41 25.09.2020
3960 Rain 6 1002 87 9000 1.5 360 14:20 25.09.2020
3961 Rain 8 1002 87 8000 0.5 0 13:26 25.09.2020
3962 Rain 8 1002 87 7000 3.6 210 12:55 25.09.2020
3963 Rain 9 1002 93 10000 1.5 0 12:33 25.09.2020
3964 Rain 10 1001 93 8000 2.6 270 11:50 25.09.2020
3965 Rain 10 1001 93 10000 2.1 260 11:28 25.09.2020
3966 Rain 10 1001 93 10000 1 0 10:40 25.09.2020
3967 Clouds 11 1001 93 10000 1 0 10:19 25.09.2020
3968 Clouds 12 1001 93 10000 1.5 270 09:48 25.09.2020
3969 Clouds 11 1001 93 10000 1.5 290 09:22 25.09.2020
3970 Clouds 11 1002 93 10000 2.6 280 08:39 25.09.2020
3971 Rain 11 1002 93 10000 1.5 260 07:59 25.09.2020
3972 Rain 11 1002 93 10000 2.1 260 07:29 25.09.2020
3973 Clouds 11 1002 93 8000 1 0 06:31 25.09.2020
3974 Rain 12 1003 93 10000 1 0 03:20 25.09.2020
3975 Rain 13 1004 77 10000 2.6 60 00:36 25.09.2020
3976 Rain 18 1005 63 10000 6.7 120 23:33 24.09.2020
3977 Rain 17 1005 52 10000 6.7 140 22:58 24.09.2020
3978 Rain 17 1005 49 10000 4.1 0 22:36 24.09.2020
3979 Rain 17 1005 49 10000 4.1 0 22:18 24.09.2020
3980 Rain 17 1005 52 10000 5.1 90 21:41 24.09.2020
3981 Rain 17 1005 52 10000 5.1 90 21:19 24.09.2020
3982 Clouds 17 1006 49 10000 6.2 80 20:43 24.09.2020
3983 Clouds 18 1006 49 10000 6.2 80 20:24 24.09.2020
3984 Clouds 18 1006 49 10000 5.1 60 19:37 24.09.2020
3985 Clouds 18 1006 49 10000 5.1 60 19:18 24.09.2020
3986 Clouds 21 1006 60 10000 7.2 50 18:39 24.09.2020
3987 Clouds 21 1007 64 10000 6.2 60 18:18 24.09.2020
3988 Clouds 21 1007 60 10000 4.6 80 17:37 24.09.2020
3989 Clouds 21 1008 64 10000 4.6 90 16:44 24.09.2020
3990 Clouds 21 1008 64 10000 4.6 90 16:21 24.09.2020
3991 Clouds 19 1009 68 10000 4.1 70 15:21 24.09.2020
3992 Clouds 19 1010 64 10000 2.6 110 14:54 24.09.2020
3993 Clouds 19 1010 64 10000 2.6 110 14:36 24.09.2020
3994 Clouds 18 1010 68 10000 2.1 110 13:46 24.09.2020
3995 Clouds 18 1011 68 10000 1 0 13:20 24.09.2020
3996 Clouds 17 1011 72 10000 0.5 0 12:48 24.09.2020
3997 Clouds 17 1011 72 10000 0.5 0 12:28 24.09.2020
3998 Clouds 16 1012 77 10000 1.5 250 11:39 24.09.2020
3999 Clouds 15 1012 77 10000 1.5 250 11:18 24.09.2020
4000 Clouds 14 1012 82 10000 1 0 10:42 24.09.2020
4001 Clouds 13 1012 93 10000 1 0 10:23 24.09.2020
4002 Clouds 12 1012 93 10000 0.5 0 09:25 24.09.2020
4003 Clouds 12 1012 93 10000 0.5 0 08:56 24.09.2020
4004 Clouds 12 1012 93 10000 1 0 08:37 24.09.2020
4005 Clouds 12 1011 93 10000 1.5 250 07:44 24.09.2020
4006 Clouds 12 1011 93 10000 1 0 06:36 24.09.2020
4007 Clouds 13 1011 87 10000 0.5 0 02:32 24.09.2020
4008 Clouds 14 1011 87 10000 0.5 0 00:22 24.09.2020
4009 Clouds 14 1011 87 10000 1 0 23:46 23.09.2020
4010 Clouds 14 1011 87 10000 1 0 23:22 23.09.2020
4011 Clouds 13 1011 93 10000 1 0 22:50 23.09.2020
4012 Clouds 13 1011 93 10000 1 350 22:24 23.09.2020
4013 Clouds 14 1011 87 10000 0.5 0 21:53 23.09.2020
4014 Clouds 14 1011 82 10000 1 0 21:30 23.09.2020
4015 Clouds 16 1010 87 10000 1 0 20:52 23.09.2020
4016 Clouds 15 1010 82 10000 0.5 0 20:24 23.09.2020
4017 Clouds 17 1010 82 10000 2.1 60 19:38 23.09.2020
4018 Clouds 16 1010 77 10000 1.5 60 19:20 23.09.2020
4019 Clouds 16 1010 77 10000 2.6 50 18:27 23.09.2020
4020 Clouds 16 1010 72 10000 3.1 120 17:51 23.09.2020
4021 Clouds 16 1010 72 10000 3.1 120 17:30 23.09.2020
4022 Clouds 17 1010 72 10000 2.6 60 16:38 23.09.2020
4023 Clouds 17 1010 77 10000 1.5 0 16:19 23.09.2020
4024 Clouds 18 1011 77 10000 1.5 60 15:23 23.09.2020
4025 Clouds 16 1011 82 10000 2.6 60 14:54 23.09.2020
4026 Clouds 16 1011 82 10000 2.6 60 14:36 23.09.2020
4027 Clouds 15 1011 93 10000 2.6 60 13:43 23.09.2020
4028 Rain 15 1011 93 10000 2.6 60 13:24 23.09.2020
4029 Rain 15 1011 87 10000 0.5 0 12:43 23.09.2020
4030 Rain 15 1011 87 10000 0.5 0 12:20 23.09.2020
4031 Rain 14 1011 87 10000 0.5 0 11:29 23.09.2020
4032 Rain 14 1011 93 10000 1 270 10:59 23.09.2020
4033 Rain 14 1011 93 10000 1.5 270 10:40 23.09.2020
4034 Rain 13 1011 87 10000 1.5 290 09:55 23.09.2020
4035 Clouds 13 1011 87 10000 0.5 0 09:30 23.09.2020
4036 Clouds 14 1011 87 10000 1 0 08:46 23.09.2020
4037 Clouds 14 1011 87 10000 1 0 08:19 23.09.2020
4038 Clouds 13 1010 87 10000 1 260 07:30 23.09.2020
4039 Clouds 13 1010 87 10000 1 260 07:30 23.09.2020
4040 Clouds 14 1010 87 10000 0.5 0 05:47 23.09.2020
4041 Clouds 14 1011 82 10000 1.5 260 02:20 23.09.2020
4042 Clouds 14 1011 77 10000 3.1 230 01:19 23.09.2020
4043 Clouds 14 1011 77 10000 2.6 260 23:53 22.09.2020
4044 Clouds 15 1011 72 10000 2.6 240 23:31 22.09.2020
4045 Clouds 16 1011 72 10000 1.5 50 22:34 22.09.2020
4046 Clouds 16 1011 72 10000 0.5 0 21:57 22.09.2020
4047 Clouds 16 1011 68 10000 1 0 21:38 22.09.2020
4048 Clouds 17 1011 68 10000 1.5 0 21:18 22.09.2020
4049 Clouds 18 1011 64 10000 1.5 60 20:44 22.09.2020
4050 Clouds 18 1011 64 10000 1.5 60 20:25 22.09.2020
4051 Clouds 18 1011 68 10000 2.1 0 19:48 22.09.2020
4052 Clouds 18 1011 68 10000 2.1 0 19:30 22.09.2020
4053 Clouds 19 1011 64 10000 2.1 100 18:53 22.09.2020
4054 Clouds 19 1011 53 10000 1.5 0 18:33 22.09.2020
4055 Clouds 20 1011 53 10000 4.6 70 17:33 22.09.2020
4056 Clouds 21 1011 60 10000 3.6 80 16:48 22.09.2020
4057 Clouds 22 1012 60 10000 5.1 60 16:26 22.09.2020
4058 Clouds 22 1012 56 10000 4.6 80 15:43 22.09.2020
4059 Clouds 23 1012 50 10000 3.1 50 14:51 22.09.2020
4060 Clouds 22 1012 60 10000 1.5 270 14:29 22.09.2020
4061 Clouds 22 1013 56 10000 2.6 270 13:53 22.09.2020
4062 Clouds 21 1014 56 10000 1 0 13:19 22.09.2020
4063 Clouds 19 1014 68 10000 2.1 260 12:42 22.09.2020
4064 Clouds 19 1015 68 10000 1 0 12:22 22.09.2020
4065 Clouds 18 1015 72 10000 1.5 0 11:37 22.09.2020
4066 Clouds 17 1015 77 10000 1 0 11:18 22.09.2020
4067 Clouds 18 1016 72 10000 0.5 0 10:35 22.09.2020
4068 Clouds 16 1016 82 10000 0.5 0 09:48 22.09.2020
4069 Clouds 14 1016 82 10000 0.5 0 09:30 22.09.2020
4070 Clouds 13 1016 87 10000 0.5 0 08:50 22.09.2020
4071 Clouds 11 1016 100 10000 0.5 0 07:55 22.09.2020
4072 Clouds 12 1016 93 10000 1.5 260 07:37 22.09.2020
4073 Clouds 12 1016 93 10000 1 0 06:58 22.09.2020
4074 Clouds 12 1016 93 10000 2.6 320 06:28 22.09.2020
4075 Clouds 13 1016 93 10000 2.1 280 04:38 22.09.2020
4076 Clouds 14 1017 93 10000 2.1 280 01:40 22.09.2020
4077 Clouds 14 1017 87 10000 1 0 00:56 22.09.2020
4078 Clouds 15 1017 82 10000 0.5 0 23:41 21.09.2020
4079 Clouds 15 1017 82 10000 0.5 0 23:20 21.09.2020
4080 Clouds 16 1017 88 10000 2.1 290 22:40 21.09.2020
4081 Clouds 15 1017 88 10000 2.1 290 22:21 21.09.2020
4082 Clouds 16 1017 82 10000 1.5 240 21:39 21.09.2020
4083 Clouds 16 1017 82 10000 1.5 240 21:19 21.09.2020
4084 Clouds 16 1016 77 10000 1.5 310 20:44 21.09.2020
4085 Clouds 16 1016 77 10000 1.5 310 20:25 21.09.2020
4086 Clouds 17 1016 82 10000 3.1 280 19:44 21.09.2020
4087 Clouds 17 1016 82 10000 3.1 280 19:21 21.09.2020
4088 Clouds 17 1015 68 10000 4.6 270 18:48 21.09.2020
4089 Clouds 18 1015 68 10000 4.1 270 18:23 21.09.2020
4090 Clouds 20 1015 60 10000 1 0 17:34 21.09.2020
4091 Clouds 21 1015 60 10000 3.6 110 16:42 21.09.2020
4092 Clouds 21 1015 60 10000 3.6 110 16:23 21.09.2020
4093 Clouds 23 1015 60 10000 2.6 100 15:36 21.09.2020
4094 Clouds 23 1015 60 10000 3.1 60 14:57 21.09.2020
4095 Clouds 21 1015 64 10000 1.5 0 14:23 21.09.2020
4096 Clouds 21 1016 56 10000 1 0 13:37 21.09.2020
4097 Clouds 20 1016 60 10000 0.5 0 12:51 21.09.2020
4098 Clouds 19 1017 64 10000 1 0 12:29 21.09.2020
4099 Clouds 18 1017 68 10000 1.5 0 11:56 21.09.2020
4100 Clouds 17 1017 72 10000 1.5 280 11:20 21.09.2020
4101 Clouds 16 1017 72 10000 3.1 270 10:50 21.09.2020
4102 Clouds 16 1017 82 10000 1.5 250 10:24 21.09.2020
4103 Clouds 16 1017 82 10000 1.5 250 09:52 21.09.2020
4104 Clouds 14 1018 87 10000 0.5 0 09:28 21.09.2020
4105 Clouds 13 1017 93 10000 1.5 260 07:59 21.09.2020
4106 Clouds 13 1017 93 10000 2.1 260 07:38 21.09.2020
4107 Clouds 13 1017 93 10000 2.1 290 06:46 21.09.2020
4108 Clouds 14 1017 93 10000 2.1 250 03:31 21.09.2020
4109 Clouds 15 1017 87 10000 2.1 270 00:51 21.09.2020
4110 Clouds 16 1017 88 10000 1 0 23:47 20.09.2020
4111 Rain 19 1016 77 10000 1 0 22:39 20.09.2020
4112 Rain 19 1016 72 10000 1 0 22:21 20.09.2020
4113 Clouds 18 1015 82 10000 4.1 270 21:42 20.09.2020
4114 Clouds 17 1015 82 10000 4.1 270 21:19 20.09.2020
4115 Thunderstorm 18 1014 72 10000 2.1 260 20:24 20.09.2020
4116 Clouds 19 1014 68 10000 1 0 19:50 20.09.2020
4117 Clouds 19 1013 68 10000 2.6 60 19:27 20.09.2020
4118 Clouds 20 1013 64 10000 2.6 80 18:50 20.09.2020
4119 Rain 20 1013 56 10000 2.1 100 18:26 20.09.2020
4120 Clouds 20 1013 56 10000 3.1 120 17:58 20.09.2020
4121 Clouds 20 1013 56 10000 3.1 120 17:58 20.09.2020
4122 Rain 21 1013 53 10000 2.6 120 17:35 20.09.2020
4123 Rain 21 1013 53 10000 4.1 70 16:54 20.09.2020
4124 Clouds 24 1013 47 10000 4.1 100 16:28 20.09.2020
4125 Thunderstorm 24 1013 53 10000 4.1 70 15:26 20.09.2020
4126 Clouds 24 1013 50 10000 2.6 120 14:42 20.09.2020
4127 Clouds 24 1014 50 10000 1.5 160 14:18 20.09.2020
4128 Clouds 22 1014 56 10000 1 0 13:21 20.09.2020
4129 Clouds 21 1015 56 10000 0.5 0 12:45 20.09.2020
4130 Clouds 21 1015 56 10000 0.5 0 12:24 20.09.2020
4131 Clouds 20 1015 72 10000 1 0 11:36 20.09.2020
4132 Clouds 19 1016 77 10000 1.5 260 11:18 20.09.2020
4133 Clouds 18 1016 77 10000 2.6 260 10:49 20.09.2020
4134 Clouds 17 1016 77 10000 2.6 260 10:25 20.09.2020
4135 Clouds 17 1016 82 10000 2.1 240 09:48 20.09.2020
4136 Clouds 12 1016 93 10000 0.64 202 08:30 20.09.2020
4137 Clouds 13 1017 87 10000 1 0 06:55 20.09.2020
4138 Clouds 13 1018 87 10000 0.5 0 02:18 20.09.2020
4139 Clouds 14 1018 82 10000 1 0 00:33 20.09.2020
4140 Clouds 15 1018 72 10000 2.1 70 23:37 19.09.2020
4141 Clouds 15 1018 82 10000 2.1 90 22:57 19.09.2020
4142 Clouds 15 1018 82 10000 1 0 22:30 19.09.2020
4143 Clouds 15 1017 82 10000 0.98 178 21:47 19.09.2020
4144 Clouds 16 1017 77 10000 0.5 0 21:21 19.09.2020
4145 Clouds 17 1016 72 10000 1 0 20:37 19.09.2020
4146 Clouds 23 1016 53 10000 0.5 0 19:43 19.09.2020
4147 Clouds 20 1016 53 10000 0.5 0 19:18 19.09.2020
4148 Clouds 23 1016 53 10000 4.6 70 18:24 19.09.2020
4149 Clouds 23 1016 50 10000 6.2 60 17:43 19.09.2020
4150 Clouds 24 1016 50 10000 6.2 60 17:24 19.09.2020
4151 Clouds 25 1016 44 10000 3.6 70 16:26 19.09.2020
4152 Clouds 25 1016 42 10000 1.5 120 15:59 19.09.2020
4153 Clouds 25 1017 42 10000 0.5 0 15:40 19.09.2020
4154 Clouds 22 1018 56 10000 1.5 260 13:28 19.09.2020
4155 Clear 20 1019 64 10000 2.6 260 12:18 19.09.2020
4156 Clear 18 1020 72 10000 1 0 11:30 19.09.2020
4157 Clear 16 1021 77 10000 0.5 0 10:26 19.09.2020
4158 Clouds 14 1021 93 10000 1.5 270 09:42 19.09.2020
4159 Clouds 12 1021 93 10000 1.5 270 09:24 19.09.2020
4160 Clouds 13 1021 93 10000 0.5 0 08:45 19.09.2020
4161 Clouds 12 1021 93 10000 1 0 07:40 19.09.2020
4162 Clear 12 1021 100 10000 0.5 0 06:53 19.09.2020
4163 Clear 11 1021 93 10000 1 0 05:51 19.09.2020
4164 Clear 13 1022 87 10000 1.5 360 04:19 19.09.2020
4165 Clear 12 1023 87 10000 2.1 230 00:50 19.09.2020
4166 Clouds 13 1023 87 10000 0.5 0 23:24 18.09.2020
4167 Clouds 14 1023 82 10000 1.5 140 22:59 18.09.2020
4168 Clouds 14 1023 82 10000 1.5 110 22:21 18.09.2020
4169 Clouds 15 1023 77 10000 2.6 100 21:42 18.09.2020
4170 Clouds 15 1023 77 10000 2.6 100 21:22 18.09.2020
4171 Clouds 16 1022 72 10000 3.1 80 20:39 18.09.2020
4172 Clouds 18 1021 68 10000 3.6 60 19:39 18.09.2020
4173 Clouds 19 1021 68 10000 3.6 60 19:20 18.09.2020
4174 Clouds 21 1021 60 10000 4.6 80 18:27 18.09.2020
4175 Clouds 23 1021 53 10000 4.1 80 17:25 18.09.2020
4176 Clouds 22 1021 50 10000 2.6 100 16:40 18.09.2020
4177 Clouds 22 1021 57 10000 3.1 100 16:20 18.09.2020
4178 Clouds 22 1021 53 10000 3.1 80 15:39 18.09.2020
4179 Clouds 22 1022 60 10000 2.6 70 14:44 18.09.2020
4180 Clouds 21 1022 56 10000 2.1 100 13:56 18.09.2020
4181 Clouds 21 1022 56 10000 2.1 100 13:56 18.09.2020
4182 Clouds 21 1022 56 10000 2.1 100 13:56 18.09.2020
4183 Clouds 21 1023 60 10000 1.5 100 13:22 18.09.2020
4184 Clouds 20 1023 64 10000 1.5 40 12:38 18.09.2020
4185 Clouds 18 1024 68 10000 0.5 0 10:58 18.09.2020
4186 Clouds 17 1024 72 10000 0.5 0 10:37 18.09.2020
4187 Clouds 16 1024 72 10000 0.5 0 09:59 18.09.2020
4188 Clouds 14 1024 77 10000 0.5 0 09:23 18.09.2020
4189 Clouds 12 1024 77 10000 1.5 90 08:31 18.09.2020
4190 Clouds 12 1024 77 10000 1.5 90 08:31 18.09.2020
4191 Clouds 12 1023 82 10000 1 130 07:34 18.09.2020
4192 Clouds 13 1023 77 10000 1.5 90 05:45 18.09.2020
4193 Clouds 14 1024 77 10000 1.5 80 02:22 18.09.2020
4194 Clouds 14 1024 82 10000 2.1 80 01:19 18.09.2020
4195 Clouds 14 1024 77 10000 2.1 90 23:51 17.09.2020
4196 Clouds 14 1024 87 10000 0.5 0 22:52 17.09.2020
4197 Clouds 14 1024 93 10000 1 0 22:33 17.09.2020
4198 Clouds 15 1023 87 10000 1.5 260 21:45 17.09.2020
4199 Clouds 15 1023 87 10000 1.5 260 21:23 17.09.2020
4200 Clouds 15 1023 87 10000 1.5 260 21:23 17.09.2020
4201 Clouds 18 1022 77 10000 1 0 20:37 17.09.2020
4202 Clouds 20 1022 68 10000 2.1 150 19:39 17.09.2020
4203 Clouds 19 1022 64 10000 2.1 140 18:57 17.09.2020
4204 Clouds 20 1022 60 10000 2.6 70 18:30 17.09.2020
4205 Clouds 22 1022 60 10000 3.1 80 17:42 17.09.2020
4206 Clouds 21 1022 60 10000 1.5 170 17:21 17.09.2020
4207 Clouds 21 1022 56 10000 2.6 70 16:21 17.09.2020
4208 Clouds 22 1022 60 10000 2.1 170 15:41 17.09.2020
4209 Clouds 20 1023 73 10000 1.5 0 14:46 17.09.2020
4210 Clouds 20 1023 73 10000 1.5 0 14:25 17.09.2020
4211 Clouds 20 1023 68 10000 1.5 0 13:35 17.09.2020
4212 Clouds 19 1024 77 10000 0.5 0 12:53 17.09.2020
4213 Clouds 18 1024 77 10000 1 0 12:27 17.09.2020
4214 Clouds 16 1024 93 10000 1 0 11:32 17.09.2020
4215 Rain 16 1025 93 10000 2.6 70 10:43 17.09.2020
4216 Clouds 15 1025 93 10000 2.6 70 10:23 17.09.2020
4217 Clouds 15 1024 93 7000 2.1 80 09:50 17.09.2020
4218 Clouds 15 1024 93 7000 2.1 80 09:50 17.09.2020
4219 Rain 15 1024 93 7000 2.1 80 09:22 17.09.2020
4220 Clouds 14 1023 93 10000 1.5 80 08:40 17.09.2020
4221 Rain 13 1023 93 10000 1.5 80 08:21 17.09.2020
4222 Rain 14 1023 93 10000 2.6 100 07:20 17.09.2020
4223 Rain 13 1023 87 10000 2.1 70 06:42 17.09.2020
4224 Clouds 14 1022 82 10000 1 0 04:48 17.09.2020
4225 Rain 14 1022 87 10000 0.5 0 01:43 17.09.2020
4226 Clouds 14 1022 87 10000 0.5 0 01:25 17.09.2020
4227 Clouds 14 1022 87 10000 0.5 0 01:25 17.09.2020
4228 Clouds 14 1022 87 10000 0.5 0 01:25 17.09.2020
4229 Clouds 14 1022 87 10000 0.5 0 01:25 17.09.2020
4230 Clouds 14 1022 87 10000 0.5 0 01:25 17.09.2020
4231 Clouds 14 1022 87 10000 0.5 0 01:25 17.09.2020
4232 Clouds 14 1022 87 10000 0.5 0 01:25 17.09.2020
4233 Clouds 14 1022 87 10000 0.5 0 01:25 17.09.2020
4234 Clouds 14 1022 82 10000 0.5 0 00:21 17.09.2020
4235 Clouds 15 1021 82 10000 0.5 0 23:31 16.09.2020
4236 Clouds 17 1021 72 10000 0.5 0 22:42 16.09.2020
4237 Clouds 17 1021 72 10000 0.5 0 22:18 16.09.2020
4238 Clouds 18 1020 68 10000 1.5 230 21:26 16.09.2020
4239 Clouds 23 1019 56 10000 3.1 50 20:40 16.09.2020
4240 Clouds 23 1019 56 10000 2.6 40 19:58 16.09.2020
4241 Clouds 22 1018 53 10000 3.6 50 19:33 16.09.2020
4242 Clouds 27 1018 42 10000 3.6 70 16:58 16.09.2020
4243 Clouds 28 1018 45 10000 2.6 70 16:35 16.09.2020
4244 Clouds 26 1018 45 10000 2.6 60 15:52 16.09.2020
4245 Clouds 25 1019 44 10000 1.5 180 14:58 16.09.2020
4246 Clouds 25 1019 50 10000 1 0 14:28 16.09.2020
4247 Clouds 24 1020 53 10000 0.5 0 13:40 16.09.2020
4248 Clouds 23 1020 56 10000 0.5 0 12:55 16.09.2020
4249 Clouds 21 1022 68 10000 1 0 11:42 16.09.2020
4250 Clouds 19 1022 77 10000 1 0 10:38 16.09.2020
4251 Clouds 17 1022 82 10000 1 280 09:48 16.09.2020
4252 Clouds 14 1022 87 10000 0.5 0 09:22 16.09.2020
4253 Clouds 14 1022 87 10000 0.5 0 08:53 16.09.2020
4254 Clouds 14 1022 93 10000 1 0 07:48 16.09.2020
4255 Clouds 12 1022 93 10000 0.5 0 05:58 16.09.2020
4256 Rain 15 1022 82 10000 1 0 00:24 16.09.2020
4257 Clear 17 1022 64 10000 2.1 130 23:36 15.09.2020
4258 Clear 16 1022 77 10000 0.5 0 22:51 15.09.2020
4259 Rain 17 1022 82 10000 0.5 0 22:21 15.09.2020
4260 Clear 18 1021 72 10000 1 0 21:41 15.09.2020
4261 Clear 19 1021 72 10000 0.5 0 20:55 15.09.2020
4262 Clear 20 1021 68 10000 0.5 0 20:23 15.09.2020
4263 Clear 20 1021 68 10000 0.5 0 20:23 15.09.2020
4264 Clear 24 1020 54 10000 0.5 0 19:53 15.09.2020
4265 Clouds 24 1020 54 10000 1 0 18:55 15.09.2020
4266 Clouds 26 1020 39 10000 1.5 0 17:43 15.09.2020
4267 Clear 26 1021 37 10000 3.6 70 16:53 15.09.2020
4268 Clouds 26 1021 37 10000 3.6 70 16:33 15.09.2020
4269 Clouds 26 1022 39 10000 1.5 0 15:25 15.09.2020
4270 Clouds 25 1022 41 10000 1.5 150 14:46 15.09.2020
4271 Clear 24 1023 44 10000 0.5 0 13:37 15.09.2020
4272 Clouds 20 1025 63 10000 1.5 270 10:46 15.09.2020
4273 Clouds 15 1026 72 10000 1 0 09:23 15.09.2020
4274 Clouds 16 1026 77 10000 1 0 08:47 15.09.2020
4275 Clouds 14 1025 87 10000 0.5 0 07:47 15.09.2020
4276 Clouds 14 1025 87 10000 0.5 0 07:20 15.09.2020
4277 Clouds 14 1026 87 10000 0.5 0 01:42 15.09.2020
4278 Clouds 16 1026 82 10000 1.5 240 23:30 14.09.2020
4279 Clouds 16 1026 82 10000 0.5 0 22:25 14.09.2020
4280 Clouds 19 1025 68 10000 1 0 20:42 14.09.2020
4281 Clouds 23 1024 53 10000 2.1 50 18:59 14.09.2020
4282 Clouds 26 1024 44 10000 3.1 90 17:23 14.09.2020
4283 Clear 26 1025 42 10000 1.5 0 16:22 14.09.2020
4284 Clear 26 1025 42 10000 1.5 0 15:52 14.09.2020
4285 Clear 26 1026 44 10000 1 0 14:22 14.09.2020
4286 Clear 24 1027 44 10000 1 0 13:27 14.09.2020
4287 Clear 20 1029 63 10000 1.5 260 11:29 14.09.2020
4288 Clouds 14 1030 87 10000 1 0 08:54 14.09.2020
4289 Clouds 13 1030 87 10000 0.5 0 08:25 14.09.2020
4290 Clouds 15 1029 77 10000 1.5 260 22:53 13.09.2020
4291 Clouds 17 1028 68 10000 1 0 21:50 13.09.2020
4292 Clouds 23 1026 57 10000 2.1 60 18:55 13.09.2020
4293 Clouds 24 1027 57 10000 2.1 70 15:41 13.09.2020
4294 Clouds 22 1028 64 10000 0.5 0 12:30 13.09.2020
4295 Clouds 20 1029 77 10000 0.5 0 10:23 13.09.2020
4296 Clouds 15 1028 88 10000 1.5 70 08:59 13.09.2020
4297 Clouds 15 1027 88 10000 1 0 06:53 13.09.2020
4298 Clouds 20 1024 82 10000 0.5 0 22:35 12.09.2020
4299 Clouds 22 1022 73 10000 1 0 21:19 12.09.2020
4300 Clouds 22 1020 64 10000 2.6 90 19:43 12.09.2020
4301 Clouds 24 1020 57 10000 4.1 80 18:21 12.09.2020
4302 Clouds 25 1019 51 10000 4.6 90 17:47 12.09.2020
4303 Clouds 25 1019 51 10000 3.1 100 16:55 12.09.2020
4304 Clouds 25 1020 50 10000 3.6 50 14:59 12.09.2020
4305 Clouds 24 1020 53 10000 2.1 60 14:33 12.09.2020
4306 Clouds 20 1021 68 10000 0.5 0 11:40 12.09.2020
4307 Clouds 13 1021 93 10000 0.5 0 07:59 12.09.2020
4308 Clouds 13 1020 100 10000 1.5 260 05:21 12.09.2020
4309 Clouds 13 1020 100 10000 1.5 260 04:58 12.09.2020
4310 Clouds 18 1018 72 10000 1 0 22:49 11.09.2020
4311 Clouds 21 1018 73 10000 1.5 20 21:37 11.09.2020
4312 Clouds 21 1017 73 10000 2.6 40 20:42 11.09.2020
4313 Clouds 20 1024 71 10000 1.26 16 17:57 11.09.2020
4314 Rain 20 1024 70 10000 0.45 354 17:29 11.09.2020
4315 Clouds 24 1015 54 10000 1.5 260 15:27 11.09.2020
4316 Clouds 22 1017 56 10000 1 0 13:19 11.09.2020
4317 Clouds 18 1018 72 10000 1.5 0 10:49 11.09.2020
4318 Clouds 14 1018 87 10000 1.5 260 07:35 11.09.2020
4319 Clouds 14 1018 87 10000 0.28 210 06:49 11.09.2020
4320 Clouds 17 1018 72 10000 1 0 21:29 10.09.2020
4321 Clouds 20 1017 60 10000 2.6 60 19:31 10.09.2020
4322 Clouds 23 1018 53 10000 3.1 80 15:55 10.09.2020
4323 Clouds 21 1026 61 10000 1.79 323 14:46 10.09.2020
4324 Clouds 18 1022 77 10000 2.1 280 11:59 10.09.2020
4325 Clouds 18 1022 77 10000 2.1 280 11:30 10.09.2020
4326 Clouds 13 1023 87 10000 2.1 260 07:54 10.09.2020
4327 Clouds 13 1023 87 10000 2.1 260 07:35 10.09.2020
4328 Clouds 13 1021 91 10000 0.27 243 22:50 09.09.2020
4329 Clouds 17 1019 85 10000 0.94 13 19:58 09.09.2020
4330 Clouds 24 1021 50 10000 2.6 80 17:24 09.09.2020
4331 Clouds 25 1021 50 10000 2.6 80 16:30 09.09.2020
4332 Clear 23 1023 53 10000 2.1 280 13:36 09.09.2020
4333 Clear 17 1026 77 10000 2.6 260 10:33 09.09.2020
4334 Clouds 15 1027 87 10000 1.5 260 09:36 09.09.2020
4335 Clouds 12 1027 100 10000 0.5 0 07:39 09.09.2020
4336 Clouds 11 1028 93 10000 1.5 240 05:40 09.09.2020
4337 Clear 11 1028 93 10000 1.5 240 04:41 09.09.2020
4338 Clear 13 1028 87 10000 1 0 23:36 08.09.2020
4339 Clear 13 1028 87 10000 1 0 23:36 08.09.2020
4340 Clear 15 1028 87 10000 0.5 0 21:47 08.09.2020
4341 Clear 17 1027 82 10000 1 0 21:26 08.09.2020
4342 Clear 18 1026 77 10000 0.5 0 19:58 08.09.2020
4343 Clouds 22 1026 50 10000 3.1 100 17:42 08.09.2020
4344 Clouds 20 1028 56 10000 1 0 12:54 08.09.2020
4345 Clouds 16 1028 68 10000 1 0 11:26 08.09.2020
4346 Clouds 16 1028 67 10000 1 0 10:54 08.09.2020
4347 Clouds 15 1029 77 10000 1 0 09:41 08.09.2020
4348 Clouds 11 1028 93 10000 0.5 0 08:52 08.09.2020
4349 Clouds 11 1028 93 10000 0.5 0 07:36 08.09.2020
4350 Clouds 13 1027 87 10000 1 0 22:48 07.09.2020
4351 Clouds 13 1026 87 10000 0.5 0 21:55 07.09.2020
4352 Clouds 14 1024 72 10000 2.1 60 18:59 07.09.2020
4353 Clouds 14 1024 72 10000 2.6 0 15:56 07.09.2020
4354 Clouds 13 1023 77 10000 1 0 13:31 07.09.2020
4355 Rain 13 1023 82 10000 1 0 12:20 07.09.2020
4356 Clouds 12 1023 82 10000 1 0 11:49 07.09.2020
4357 Clouds 12 1022 87 10000 3.1 60 11:18 07.09.2020
4358 Clouds 10 1021 93 10000 1 120 07:36 07.09.2020
4359 Rain 12 1019 100 10000 2.1 290 23:52 06.09.2020
4360 Rain 13 1018 93 8000 1 0 21:39 06.09.2020
4361 Rain 13 1017 93 8000 1 0 20:43 06.09.2020
4362 Rain 13 1017 93 8000 1 0 20:24 06.09.2020
4363 Rain 14 1017 87 10000 1.5 0 18:50 06.09.2020
4364 Rain 16 1016 77 10000 2.1 170 15:28 06.09.2020
4365 Rain 17 1016 68 10000 2.6 90 13:58 06.09.2020
4366 Clouds 19 1017 72 10000 2.6 100 12:58 06.09.2020
4367 Clouds 14 1019 87 10000 2.1 70 09:55 06.09.2020
4368 Clouds 14 1019 93 9000 1.5 70 08:57 06.09.2020
4369 Clouds 15 1020 88 10000 2.1 70 00:18 06.09.2020
4370 Rain 16 1020 93 8000 1 0 22:35 05.09.2020
4371 Clouds 27 1015 44 10000 4.1 90 17:44 05.09.2020
4372 Clouds 25 1017 44 10000 2.1 0 14:37 05.09.2020
4373 Clear 22 1019 53 10000 1.5 30 12:56 05.09.2020
4374 Clear 23 1019 56 10000 1 0 12:36 05.09.2020
4375 Clear 21 1021 64 10000 1 0 11:40 05.09.2020
4376 Clear 18 1021 72 10000 0.5 0 10:29 05.09.2020
4377 Clear 15 1022 87 10000 0.5 0 08:58 05.09.2020
4378 Clear 13 1022 93 10000 1 0 06:26 05.09.2020
4379 Clear 17 1024 77 10000 0.5 0 21:32 04.09.2020
4380 Clear 21 1023 60 10000 1 0 19:53 04.09.2020
4381 Clear 24 1023 50 10000 2.1 60 18:41 04.09.2020
4382 Clear 25 1024 44 10000 2.6 90 16:50 04.09.2020
4383 Clear 25 1025 38 10000 1 0 15:27 04.09.2020
4384 Clouds 18 1028 63 10000 3.1 270 11:32 04.09.2020
4385 Clouds 13 1029 87 10000 3.1 260 09:30 04.09.2020
4386 Clouds 11 1028 87 10000 0.5 0 06:29 04.09.2020
4387 Clouds 13 1026 82 10000 1.5 260 22:58 03.09.2020
4388 Clouds 14 1026 72 10000 0.5 0 22:35 03.09.2020
4389 Clouds 14 1025 67 10000 0.5 0 21:39 03.09.2020
4390 Clouds 15 1024 63 10000 1.5 310 20:30 03.09.2020
4391 Clouds 18 1023 49 10000 2.6 50 19:24 03.09.2020
4392 Clouds 20 1022 37 10000 3.1 70 17:53 03.09.2020
4393 Clouds 20 1023 40 10000 2.1 90 16:25 03.09.2020
4394 Clouds 16 1024 63 10000 1.5 310 12:32 03.09.2020
4395 Clouds 15 1024 63 10000 1 0 11:51 03.09.2020
4396 Clouds 14 1024 76 10000 1 0 10:45 03.09.2020
4397 Clouds 9 1023 87 10000 1 190 07:34 03.09.2020
4398 Clouds 11 1022 87 10000 1 0 22:53 02.09.2020
4399 Clouds 12 1020 87 10000 0.5 0 20:43 02.09.2020
4400 Clouds 13 1019 77 10000 2.6 170 19:33 02.09.2020
4401 Clouds 14 1018 67 10000 2.1 90 17:58 02.09.2020
4402 Clouds 16 1016 55 10000 4.1 90 14:43 02.09.2020
4403 Clouds 13 1018 82 10000 1.5 50 10:46 02.09.2020
4404 Rain 12 1017 87 10000 0.54 329 08:43 02.09.2020
4405 Clouds 13 1017 87 10000 1 170 04:19 02.09.2020
4406 Clouds 12 1017 87 10000 1 0 00:19 02.09.2020
4407 Clouds 13 1016 87 10000 1 0 20:37 01.09.2020
4408 Clouds 13 1015 87 10000 1.5 220 19:37 01.09.2020
4409 Rain 15 1015 67 10000 2.6 60 18:23 01.09.2020
4410 Clouds 15 1015 67 10000 4.1 80 17:32 01.09.2020
4411 Clouds 16 1015 59 10000 4.1 50 15:59 01.09.2020
4412 Clouds 17 1016 63 10000 1.5 0 14:59 01.09.2020
4413 Rain 13 1017 82 10000 0.5 0 12:25 01.09.2020
4414 Rain 10 1017 93 10000 1 0 10:33 01.09.2020
4415 Clouds 10 1017 93 10000 0.5 0 09:42 01.09.2020
4416 Clouds 11 1016 93 10000 0.5 0 07:30 01.09.2020
4417 Rain 11 1016 87 10000 1.5 300 21:58 31.08.2020
4418 Rain 12 1016 87 10000 1 0 19:29 31.08.2020
4419 Clouds 14 1016 77 10000 1 0 17:33 31.08.2020
4420 Clouds 14 1017 63 10000 0.5 0 16:27 31.08.2020
4421 Clouds 14 1018 63 10000 1 0 13:35 31.08.2020
4422 Clouds 12 1019 76 10000 1.5 0 11:50 31.08.2020
4423 Clouds 8 1019 93 10000 2.1 270 08:23 31.08.2020
4424 Clouds 7 1018 93 10000 2.1 240 06:50 31.08.2020
4425 Clouds 9 1016 93 10000 1.5 170 00:48 31.08.2020
4426 Rain 11 1015 87 10000 0.5 0 22:54 30.08.2020
4427 Clouds 12 1013 87 10000 2.1 300 21:21 30.08.2020
4428 Clouds 14 1010 72 10000 2.6 330 18:56 30.08.2020
4429 Clouds 14 1009 72 10000 4.1 300 18:37 30.08.2020
4430 Clouds 15 1007 67 10000 8.7 230 16:54 30.08.2020
4431 Rain 16 1005 88 10000 1 0 15:22 30.08.2020
4432 Rain 14 1004 82 10000 4.1 260 14:49 30.08.2020
4433 Rain 13 1005 93 10000 3.6 150 11:41 30.08.2020
4434 Rain 12 1005 93 8000 3.1 80 10:50 30.08.2020
4435 Rain 12 1006 93 10000 1.5 290 09:22 30.08.2020
4436 Rain 11 1006 93 10000 2.1 260 07:23 30.08.2020
4437 Rain 13 1008 87 10000 2.1 250 22:40 29.08.2020
4438 Rain 13 1008 87 10000 3.1 100 20:29 29.08.2020
4439 Rain 13 1009 93 10000 2.1 70 19:22 29.08.2020
4440 Rain 14 1009 93 10000 1.5 290 17:59 29.08.2020
4441 Rain 14 1009 87 10000 1 0 16:59 29.08.2020
4442 Rain 14 1008 77 10000 1.5 240 15:56 29.08.2020
4443 Clouds 15 1008 82 10000 1 0 14:35 29.08.2020
4444 Rain 13 1009 93 8000 2.6 70 10:23 29.08.2020
4445 Rain 13 1008 93 8000 2.1 90 08:22 29.08.2020
4446 Rain 15 1007 93 10000 4.6 90 23:37 28.08.2020
4447 Rain 16 1007 88 10000 3.6 100 22:20 28.08.2020
4448 Rain 18 1005 82 10000 1.5 0 19:45 28.08.2020
4449 Rain 18 1005 82 10000 2.1 280 19:19 28.08.2020
4450 Clouds 20 1006 73 10000 4.1 270 17:40 28.08.2020
4451 Clouds 21 1006 73 10000 4.6 260 16:26 28.08.2020
4452 Rain 21 1007 64 10000 1 0 15:36 28.08.2020
4453 Clouds 22 1007 56 10000 7.2 60 14:27 28.08.2020
4454 Rain 22 1006 56 10000 2.6 70 13:52 28.08.2020
4455 Clouds 21 1010 64 10000 1 0 11:34 28.08.2020
4456 Clouds 17 1012 72 10000 0.5 0 09:50 28.08.2020
4457 Clouds 13 1012 87 10000 0.5 0 08:47 28.08.2020
4458 Clouds 10 1013 93 10000 0.5 0 06:24 28.08.2020
4459 Clouds 11 1013 87 10000 1.5 250 05:39 28.08.2020
4460 Clouds 15 1015 72 10000 1 0 23:51 27.08.2020
4461 Clouds 16 1015 68 10000 2.1 160 22:55 27.08.2020
4462 Clouds 18 1015 60 10000 1 0 20:55 27.08.2020
4463 Clouds 21 1014 49 10000 4.6 70 19:49 27.08.2020
4464 Clouds 21 1014 49 10000 4.6 70 19:24 27.08.2020
4465 Clouds 23 1014 44 10000 4.6 80 17:24 27.08.2020
4466 Clouds 23 1014 41 10000 4.6 90 16:45 27.08.2020
4467 Clouds 22 1016 43 10000 2.6 90 13:59 27.08.2020
4468 Clouds 21 1016 46 10000 1.5 100 13:28 27.08.2020
4469 Clouds 17 1019 59 10000 1 0 11:19 27.08.2020
4470 Clouds 14 1020 63 10000 0.5 0 09:28 27.08.2020
4471 Clear 13 1020 82 10000 1.5 270 08:43 27.08.2020
4472 Clouds 12 1020 76 10000 1 170 04:46 27.08.2020
4473 Clouds 18 1018 52 10000 1.5 100 23:45 26.08.2020
4474 Clouds 19 1017 48 10000 1 0 22:29 26.08.2020
4475 Clear 23 1015 33 10000 1.5 0 20:37 26.08.2020
4476 Clouds 26 1014 22 10000 5.1 280 19:57 26.08.2020
4477 Clouds 30 1012 15 10000 10.3 280 17:42 26.08.2020
4478 Clouds 27 1012 37 10000 3.1 0 14:59 26.08.2020
4479 Clouds 27 1013 44 10000 3.6 90 14:39 26.08.2020
4480 Clouds 23 1015 53 10000 4.1 270 11:38 26.08.2020
4481 Clouds 15 1015 77 10000 1 0 08:35 26.08.2020
4482 Clouds 16 1016 77 10000 2.1 270 23:51 25.08.2020
4483 Clouds 18 1015 64 10000 1 0 21:40 25.08.2020
4484 Clouds 18 1014 72 10000 1 0 21:20 25.08.2020
4485 Clouds 19 1014 64 10000 1.5 70 20:39 25.08.2020
4486 Clouds 21 1014 53 10000 2.6 50 19:57 25.08.2020
4487 Clouds 23 1014 53 10000 2.1 60 19:38 25.08.2020
4488 Clouds 22 1013 46 10000 4.1 60 18:22 25.08.2020
4489 Clouds 24 1013 36 10000 1.5 130 16:58 25.08.2020
4490 Clouds 23 1014 44 10000 1 0 15:47 25.08.2020
4491 Clouds 22 1015 43 10000 1 0 14:41 25.08.2020
4492 Clouds 20 1017 56 10000 0.5 0 12:46 25.08.2020
4493 Clouds 18 1018 59 10000 1.5 0 11:36 25.08.2020
4494 Clouds 11 1019 82 10000 1.5 260 08:56 25.08.2020
4495 Clouds 9 1019 87 10000 2.1 270 07:38 25.08.2020
4496 Clouds 11 1019 93 10000 2.1 250 06:59 25.08.2020
4497 Clouds 9 1019 87 10000 2.1 280 06:32 25.08.2020
4498 Clouds 9 1018 87 10000 1.5 260 05:50 25.08.2020
4499 Clouds 10 1018 87 10000 1.5 260 05:27 25.08.2020
4500 Clouds 10 1019 87 10000 0.5 0 03:48 25.08.2020
4501 Clouds 10 1019 87 10000 1.5 0 03:30 25.08.2020
4502 Clouds 11 1019 82 10000 0.5 0 02:45 25.08.2020
4503 Clouds 17 1018 72 10000 1.5 250 22:54 24.08.2020
4504 Clouds 18 1017 72 10000 1 0 21:50 24.08.2020
4505 Clouds 20 1016 56 10000 3.6 70 20:43 24.08.2020
4506 Clouds 20 1016 60 10000 2.6 80 19:52 24.08.2020
4507 Clouds 21 1016 52 10000 5.1 60 18:31 24.08.2020
4508 Clouds 22 1016 49 10000 2.1 60 17:34 24.08.2020
4509 Clouds 23 1016 46 10000 1.5 0 16:33 24.08.2020
4510 Clouds 22 1016 53 10000 2.1 50 15:24 24.08.2020
4511 Clouds 22 1017 53 10000 1 0 14:31 24.08.2020
4512 Clouds 20 1017 56 10000 1 0 13:28 24.08.2020
4513 Clouds 19 1018 60 10000 1 0 12:20 24.08.2020
4514 Clouds 18 1018 64 10000 1 0 11:53 24.08.2020
4515 Clouds 17 1019 63 10000 1.5 290 11:33 24.08.2020
4516 Clouds 16 1019 77 10000 3.1 280 10:35 24.08.2020
4517 Clouds 16 1019 82 10000 2.1 260 09:28 24.08.2020
4518 Clouds 14 1019 87 10000 1.5 250 07:52 24.08.2020
4519 Clouds 14 1020 87 10000 0.5 0 01:20 24.08.2020
4520 Clouds 14 1020 82 10000 1.5 310 00:24 24.08.2020
4521 Clouds 15 1020 82 10000 1 0 23:44 23.08.2020
4522 Clouds 16 1020 82 10000 1 200 22:26 23.08.2020
4523 Clouds 18 1018 68 10000 1 250 19:57 23.08.2020
4524 Clouds 19 1018 68 10000 3.1 270 18:48 23.08.2020
4525 Clouds 20 1018 64 10000 3.1 280 17:53 23.08.2020
4526 Clouds 20 1018 64 10000 2.6 270 16:47 23.08.2020
4527 Clouds 20 1019 60 10000 1 0 15:36 23.08.2020
4528 Clouds 20 1019 60 10000 1 0 14:50 23.08.2020
4529 Clouds 19 1019 68 10000 0.5 0 13:20 23.08.2020
4530 Clouds 18 1020 72 10000 1 0 11:20 23.08.2020
4531 Clouds 17 1020 72 10000 2.1 80 10:31 23.08.2020
4532 Clouds 15 1021 88 10000 1.5 80 08:36 23.08.2020
4533 Drizzle 15 1020 93 9000 2.1 60 06:39 23.08.2020
4534 Clouds 16 1022 93 10000 1 0 00:45 23.08.2020
4535 Clouds 15 1022 93 10000 1 0 00:24 23.08.2020
4536 Clouds 16 1022 93 10000 0.5 0 23:48 22.08.2020
4537 Clouds 16 1022 88 10000 0.5 0 22:51 22.08.2020
4538 Clouds 17 1021 88 10000 1.5 150 20:43 22.08.2020
4539 Rain 17 1021 93 10000 1.5 170 18:56 22.08.2020
4540 Rain 17 1020 93 10000 2.6 80 17:44 22.08.2020
4541 Rain 17 1020 93 10000 2.6 80 17:22 22.08.2020
4542 Rain 18 1019 88 10000 2.6 0 15:42 22.08.2020
4543 Clouds 26 1018 54 10000 4.6 90 13:35 22.08.2020
4544 Clouds 26 1018 54 10000 2.1 80 11:49 22.08.2020
4545 Clouds 24 1018 60 10000 0.5 0 10:29 22.08.2020
4546 Rain 22 1018 68 10000 0.5 0 09:23 22.08.2020
4547 Rain 17 1018 82 10000 1 0 07:38 22.08.2020
4548 Rain 18 1018 77 10000 1 0 01:28 22.08.2020
4549 Clear 22 1016 69 10000 1 0 21:39 21.08.2020
4550 Clouds 25 1015 54 10000 1 0 20:49 21.08.2020
4551 Clouds 32 1014 30 10000 0.5 0 16:58 21.08.2020
4552 Clouds 30 1015 40 10000 2.1 280 14:40 21.08.2020
4553 Clouds 29 1015 51 10000 3.6 270 13:40 21.08.2020
4554 Clouds 26 1017 61 10000 5.1 260 11:33 21.08.2020
4555 Clouds 25 1017 64 10000 6.2 270 10:57 21.08.2020
4556 Clouds 25 1017 64 10000 6.2 270 10:57 21.08.2020
4557 Clear 17 1017 88 10000 2.6 290 07:43 21.08.2020
4558 Clear 19 1016 77 10000 1 0 00:19 21.08.2020
4559 Clouds 20 1015 77 10000 1 0 22:47 20.08.2020
4560 Clouds 25 1013 61 10000 1.5 40 20:40 20.08.2020
4561 Clouds 28 1013 42 10000 2.6 60 18:35 20.08.2020
4562 Clouds 28 1013 42 10000 1.5 120 17:35 20.08.2020
4563 Clouds 27 1014 44 10000 2.6 60 14:56 20.08.2020
4564 Clouds 25 1015 57 10000 4.1 110 13:43 20.08.2020
4565 Clouds 21 1016 68 10000 1 0 11:48 20.08.2020
4566 Clouds 20 1016 77 10000 2.6 260 11:30 20.08.2020
4567 Clouds 18 1016 77 10000 1.5 280 09:52 20.08.2020
4568 Clouds 17 1015 87 10000 0.5 0 08:49 20.08.2020
4569 Clouds 16 1015 87 10000 1 0 07:44 20.08.2020
4570 Clouds 15 1014 87 10000 1.5 220 04:53 20.08.2020
4571 Clouds 14 1015 93 10000 2.6 270 04:22 20.08.2020
4572 Clouds 14 1014 82 10000 0.5 0 00:43 20.08.2020
4573 Clouds 16 1013 77 10000 1 0 22:18 19.08.2020
4574 Clouds 19 1012 68 10000 0.5 0 20:29 19.08.2020
4575 Clouds 23 1011 41 10000 3.1 80 18:36 19.08.2020
4576 Clouds 23 1011 47 10000 3.1 50 17:38 19.08.2020
4577 Clouds 24 1012 47 10000 3.1 100 15:58 19.08.2020
4578 Clouds 24 1012 50 10000 2.6 60 15:30 19.08.2020
4579 Clouds 21 1014 60 10000 2.1 0 13:50 19.08.2020
4580 Clouds 19 1015 68 10000 1.5 150 11:49 19.08.2020
4581 Clouds 16 1016 82 10000 2.1 60 10:34 19.08.2020
4582 Clouds 16 1016 82 10000 1 0 09:47 19.08.2020
4583 Clouds 14 1016 93 10000 1.5 260 08:35 19.08.2020
4584 Clouds 14 1016 93 10000 0.5 0 22:47 18.08.2020
4585 Clouds 14 1016 93 10000 1 0 22:18 18.08.2020
4586 Clouds 14 1015 87 10000 1.5 360 21:46 18.08.2020
4587 Rain 15 1015 93 10000 1.5 150 20:55 18.08.2020
4588 Rain 15 1014 87 10000 4.6 240 20:24 18.08.2020
4589 Clouds 19 1013 64 10000 2.6 20 19:27 18.08.2020
4590 Clouds 21 1013 53 10000 3.1 60 17:47 18.08.2020
4591 Clouds 21 1013 56 10000 2.1 110 16:30 18.08.2020
4592 Clouds 19 1014 64 10000 3.6 90 15:25 18.08.2020
4593 Clouds 19 1015 68 10000 4.6 50 14:35 18.08.2020
4594 Clouds 17 1015 68 10000 3.6 260 13:19 18.08.2020
4595 Clouds 16 1015 77 10000 3.1 290 11:23 18.08.2020
4596 Clouds 15 1015 93 10000 0.5 0 08:52 18.08.2020
4597 Clouds 15 1015 93 10000 0.5 0 07:57 18.08.2020
4598 Clouds 14 1015 87 10000 1 190 07:26 18.08.2020
4599 Clouds 14 1016 93 10000 0.5 0 00:24 18.08.2020
4600 Clouds 14 1015 93 10000 0.5 0 23:25 17.08.2020
4601 Clouds 16 1015 88 10000 0.5 0 21:50 17.08.2020
4602 Clouds 16 1014 82 10000 1.5 110 20:57 17.08.2020
4603 Clouds 16 1014 88 10000 2.6 100 20:25 17.08.2020
4604 Rain 17 1014 88 10000 2.1 120 18:27 17.08.2020
4605 Clouds 20 1013 73 10000 2.6 270 16:30 17.08.2020
4606 Clouds 19 1013 73 10000 3.6 270 15:33 17.08.2020
4607 Clouds 19 1013 68 10000 3.1 270 14:55 17.08.2020
4608 Rain 18 1014 77 10000 1.5 80 12:58 17.08.2020
4609 Rain 16 1015 88 10000 2.1 320 11:42 17.08.2020
4610 Rain 17 1015 88 10000 2.1 320 11:24 17.08.2020
4611 Clouds 16 1015 88 10000 0.5 0 10:21 17.08.2020
4612 Rain 15 1015 93 10000 1 0 09:35 17.08.2020
4613 Clouds 14 1014 100 10000 1 0 06:48 17.08.2020
4614 Rain 15 1015 100 10000 3.1 260 00:20 17.08.2020
4615 Rain 16 1016 93 10000 2.1 250 22:19 16.08.2020
4616 Rain 16 1016 93 10000 2.1 250 21:54 16.08.2020
4617 Rain 21 1009 79 10000 2.5 227 18:43 16.08.2020
4618 Rain 22 1021 75 10000 1.79 192 18:24 16.08.2020
4619 Clouds 25 1019 46 10000 1.79 349 16:37 16.08.2020
4620 Clouds 25 1019 51 10000 1.79 352 15:46 16.08.2020
4621 Clouds 25 1019 55 10000 1.79 295 15:19 16.08.2020
4622 Clouds 25 1020 67 10000 1.34 293 13:43 16.08.2020
4623 Clear 24 1021 71 10000 1.79 312 12:29 16.08.2020
4624 Clear 22 1021 71 10000 1.35 32 11:39 16.08.2020
4625 Clear 22 1021 71 10000 0.93 34 11:18 16.08.2020
4626 Clear 21 1022 76 10000 0.93 34 10:33 16.08.2020
4627 Clouds 16 1015 87 10000 1 290 09:22 16.08.2020
4628 Clouds 15 1015 87 10000 0.5 0 07:41 16.08.2020
4629 Clouds 15 1015 87 10000 0.5 0 07:41 16.08.2020
4630 Clouds 15 1015 87 10000 0.5 0 07:18 16.08.2020
4631 Clouds 18 1016 77 10000 0.5 0 22:49 15.08.2020
4632 Clouds 20 1015 73 10000 3.6 70 20:58 15.08.2020
4633 Clouds 21 1015 73 10000 3.6 70 20:31 15.08.2020
4634 Clouds 23 1014 57 10000 3.6 40 19:19 15.08.2020
4635 Clouds 24 1014 50 10000 2.6 80 17:19 15.08.2020
4636 Clouds 24 1015 54 10000 2.1 0 16:44 15.08.2020
4637 Clouds 22 1016 60 10000 3.6 70 15:18 15.08.2020
4638 Rain 23 1016 57 10000 3.1 80 13:48 15.08.2020
4639 Clouds 23 1016 69 10000 3.6 60 12:32 15.08.2020
4640 Clouds 21 1017 68 10000 1.5 0 11:31 15.08.2020
4641 Clouds 21 1017 68 10000 1.5 0 11:31 15.08.2020
4642 Clouds 21 1017 68 10000 1.5 0 11:31 15.08.2020
4643 Clouds 19 1017 77 10000 1 0 10:58 15.08.2020
4644 Clouds 19 1017 77 10000 1 0 10:39 15.08.2020
4645 Clouds 18 1018 88 10000 0.5 0 09:34 15.08.2020
4646 Clouds 17 1018 88 10000 0.5 0 08:55 15.08.2020
4647 Clouds 16 1018 93 10000 0.5 0 08:20 15.08.2020
4648 Clouds 16 1018 93 10000 0.5 0 01:59 15.08.2020
4649 Clouds 17 1018 88 10000 1 0 23:52 14.08.2020
4650 Clouds 17 1018 93 10000 1.5 130 22:45 14.08.2020
4651 Rain 17 1017 88 10000 1.5 120 20:38 14.08.2020
4652 Rain 18 1016 77 8000 4.1 90 18:53 14.08.2020
4653 Clouds 23 1015 60 10000 2.1 260 15:53 14.08.2020
4654 Clouds 21 1016 68 10000 1 0 14:53 14.08.2020
4655 Clouds 21 1016 68 10000 0.5 0 13:57 14.08.2020
4656 Clouds 20 1017 68 10000 1 0 13:27 14.08.2020
4657 Clouds 17 1018 82 10000 2.1 270 11:21 14.08.2020
4658 Clouds 15 1018 88 10000 1.5 260 08:54 14.08.2020
4659 Clouds 13 1018 72 10000 1 0 06:28 14.08.2020
4660 Clouds 14 1018 82 10000 1 0 00:47 14.08.2020
4661 Clouds 15 1018 82 10000 0.5 0 00:27 14.08.2020
4662 Clouds 16 1019 88 10000 1.5 260 22:38 13.08.2020
4663 Clouds 16 1019 88 10000 1.5 190 21:47 13.08.2020
4664 Clouds 16 1019 88 10000 1.5 110 21:18 13.08.2020
4665 Rain 17 1019 25 10000 1 0 20:18 13.08.2020
4666 Rain 18 1017 83 3000 12.9 270 18:27 13.08.2020
4667 Clouds 22 1016 61 10000 4.6 80 17:23 13.08.2020
4668 Clouds 26 1015 65 10000 2.6 50 14:51 13.08.2020
4669 Clouds 25 1016 65 10000 1 0 12:55 13.08.2020
4670 Clouds 24 1016 57 10000 0.5 0 12:28 13.08.2020
4671 Clouds 20 1018 77 10000 4.6 290 09:21 13.08.2020
4672 Clouds 18 1018 77 10000 2.1 300 07:47 13.08.2020
4673 Clouds 18 1018 77 10000 2.1 300 07:29 13.08.2020
4674 Clouds 19 1018 64 10000 2.6 70 22:59 12.08.2020
4675 Clouds 21 1018 60 10000 1.5 0 22:32 12.08.2020
4676 Clouds 21 1018 60 10000 1 0 21:58 12.08.2020
4677 Clouds 21 1017 60 10000 2.1 0 21:27 12.08.2020
4678 Clouds 22 1017 57 10000 1 0 20:40 12.08.2020
4679 Clouds 23 1017 57 10000 2.1 0 20:21 12.08.2020
4680 Clouds 23 1017 53 10000 2.6 0 19:49 12.08.2020
4681 Rain 23 1017 69 10000 7.7 270 17:57 12.08.2020
4682 Clouds 27 1016 45 10000 3.6 70 16:43 12.08.2020
4683 Clouds 29 1016 43 10000 1.5 0 14:55 12.08.2020
4684 Clouds 28 1016 42 10000 1 0 14:27 12.08.2020
4685 Clouds 27 1017 48 10000 1 0 13:23 12.08.2020
4686 Clouds 25 1018 57 10000 1 0 12:23 12.08.2020
4687 Clouds 23 1019 60 10000 2.1 270 10:51 12.08.2020
4688 Clouds 20 1019 77 10000 3.1 270 09:34 12.08.2020
4689 Clouds 17 1019 88 10000 2.6 250 01:55 12.08.2020
4690 Clouds 20 1018 73 10000 1 0 22:24 11.08.2020
4691 Clouds 21 1018 69 10000 1 0 21:53 11.08.2020
4692 Clouds 23 1017 61 10000 2.1 110 21:23 11.08.2020
4693 Rain 24 1017 69 10000 1 0 20:51 11.08.2020
4694 Clouds 27 1016 48 10000 4.1 70 19:31 11.08.2020
4695 Clouds 29 1016 45 10000 4.1 80 18:37 11.08.2020
4696 Clouds 28 1016 40 10000 2.6 50 17:24 11.08.2020
4697 Clouds 29 1016 37 10000 3.6 60 16:26 11.08.2020
4698 Clouds 29 1017 40 10000 1.5 0 14:51 11.08.2020
4699 Clouds 27 1018 39 10000 1.5 0 14:30 11.08.2020
4700 Clouds 25 1019 57 10000 1.5 0 12:51 11.08.2020
4701 Clouds 24 1019 57 10000 1.5 0 12:30 11.08.2020
4702 Clouds 22 1020 64 10000 1.5 0 11:29 11.08.2020
4703 Clouds 21 1020 68 10000 2.1 290 10:31 11.08.2020
4704 Clouds 16 1021 93 10000 1 0 07:57 11.08.2020
4705 Clouds 15 1021 93 10000 1.5 270 07:22 11.08.2020
4706 Clouds 15 1020 93 10000 1.5 240 05:43 11.08.2020
4707 Clouds 16 1020 93 10000 2.1 320 03:18 11.08.2020
4708 Clouds 16 1020 93 10000 3.6 290 02:39 11.08.2020
4709 Rain 16 1020 93 10000 3.1 250 02:18 11.08.2020
4710 Rain 17 1020 93 10000 1 0 00:33 11.08.2020
4711 Rain 17 1021 93 10000 1 0 22:43 10.08.2020
4712 Rain 20 1019 56 10000 3.6 290 21:21 10.08.2020
4713 Rain 21 1017 53 10000 3.1 0 20:47 10.08.2020
4714 Thunderstorm 24 1014 41 10000 4.1 50 19:38 10.08.2020
4715 Thunderstorm 25 1014 39 10000 4.6 30 19:18 10.08.2020
4716 Clouds 29 1013 40 10000 4.6 90 17:35 10.08.2020
4717 Clouds 30 1014 33 10000 3.6 80 15:53 10.08.2020
4718 Clouds 28 1015 45 10000 0.5 0 13:39 10.08.2020
4719 Clouds 26 1016 54 10000 0.5 0 12:26 10.08.2020
4720 Clouds 23 1017 64 10000 1.5 280 10:54 10.08.2020
4721 Clouds 21 1018 73 10000 2.1 270 09:51 10.08.2020
4722 Clouds 18 1018 77 10000 2.1 260 08:52 10.08.2020
4723 Clear 18 1018 77 10000 0.5 0 23:41 09.08.2020
4724 Clear 24 1018 60 10000 0.5 0 21:49 09.08.2020
4725 Clouds 26 1017 45 10000 5.1 60 19:52 09.08.2020
4726 Clouds 28 1017 45 10000 5.1 60 19:32 09.08.2020
4727 Clouds 30 1016 40 10000 6.2 80 18:28 09.08.2020
4728 Clouds 30 1017 40 10000 5.1 90 17:45 09.08.2020
4729 Clouds 29 1017 42 10000 6.2 60 17:21 09.08.2020
4730 Clouds 28 1017 40 10000 1.5 0 15:26 09.08.2020
4731 Clouds 28 1018 42 10000 2.6 80 14:48 09.08.2020
4732 Clouds 27 1019 42 10000 2.6 80 13:47 09.08.2020
4733 Clouds 26 1019 51 10000 1 0 12:56 09.08.2020
4734 Clouds 25 1020 54 10000 1 0 12:24 09.08.2020
4735 Clouds 23 1021 69 10000 1 0 10:54 09.08.2020
4736 Clouds 21 1021 73 10000 1 0 09:35 09.08.2020
4737 Clouds 17 1022 82 10000 1.5 260 08:31 09.08.2020
4738 Clear 14 1021 93 10000 1.5 270 05:45 09.08.2020
4739 Clear 18 1021 77 10000 0.94 203 00:51 09.08.2020
4740 Clouds 23 1021 57 10000 1 0 21:18 08.08.2020
4741 Clouds 28 1019 42 10000 6.2 60 18:28 08.08.2020
4742 Clouds 28 1019 42 10000 4.6 80 17:52 08.08.2020
4743 Clouds 29 1019 33 10000 3.6 80 16:34 08.08.2020
4744 Clouds 29 1020 35 10000 2.6 100 15:50 08.08.2020
4745 Clouds 28 1020 37 10000 2.1 0 14:49 08.08.2020
4746 Clouds 28 1020 39 10000 2.1 90 14:25 08.08.2020
4747 Clouds 26 1021 47 10000 1 0 12:43 08.08.2020
4748 Clouds 24 1022 60 10000 1.5 260 11:19 08.08.2020
4749 Clouds 17 1024 93 10000 2.1 260 07:50 08.08.2020
4750 Clouds 16 1023 93 10000 1.5 260 07:30 08.08.2020
4751 Clear 16 1022 88 10000 0.5 0 02:25 08.08.2020
4752 Clear 20 1021 68 10000 0.5 0 22:22 07.08.2020
4753 Clouds 21 1020 64 10000 1 0 21:21 07.08.2020
4754 Clouds 24 1020 64 10000 1 0 20:45 07.08.2020
4755 Clouds 29 1019 42 10000 5.7 70 18:45 07.08.2020
4756 Clouds 28 1019 35 10000 4.1 90 17:20 07.08.2020
4757 Clouds 27 1020 39 10000 2.6 50 14:53 07.08.2020
4758 Clouds 25 1020 44 10000 2.6 110 13:28 07.08.2020
4759 Clouds 24 1021 61 10000 1 0 12:32 07.08.2020
4760 Clouds 22 1022 68 10000 0.5 0 10:22 07.08.2020
4761 Clouds 18 1023 82 10000 1 0 09:26 07.08.2020
4762 Fog 14 1022 93 10000 1 260 06:33 07.08.2020
4763 Clear 15 1022 88 10000 0.5 0 01:42 07.08.2020
4764 Clouds 16 1022 88 10000 0.5 0 00:39 07.08.2020
4765 Clouds 18 1021 82 10000 1 0 22:48 06.08.2020
4766 Clouds 20 1021 77 10000 1 310 21:30 06.08.2020
4767 Clouds 21 1020 69 10000 2.1 30 20:33 06.08.2020
4768 Clouds 25 1019 57 10000 4.6 70 19:43 06.08.2020
4769 Clouds 25 1018 51 10000 3.6 80 18:52 06.08.2020
4770 Clouds 24 1018 51 10000 4.1 80 18:22 06.08.2020
4771 Clouds 25 1018 45 10000 4.1 100 17:30 06.08.2020
4772 Clouds 24 1019 47 10000 3.1 100 15:50 06.08.2020
4773 Clouds 23 1019 50 10000 2.6 100 14:54 06.08.2020
4774 Clouds 22 1020 53 10000 2.1 70 13:55 06.08.2020
4775 Clouds 21 1020 53 10000 2.6 80 13:25 06.08.2020
4776 Clouds 18 1021 68 10000 1 0 11:37 06.08.2020
4777 Clouds 18 1021 68 10000 1 0 10:54 06.08.2020
4778 Clouds 14 1022 82 10000 1 0 09:25 06.08.2020
4779 Clouds 14 1022 82 10000 2.1 270 08:46 06.08.2020
4780 Clouds 12 1022 93 10000 0.5 0 07:50 06.08.2020
4781 Clear 11 1021 93 10000 0.5 0 02:21 06.08.2020
4782 Clear 12 1020 87 10000 0.5 0 23:51 05.08.2020
4783 Clear 13 1020 82 10000 1.5 270 23:18 05.08.2020
4784 Clear 14 1020 82 10000 0.5 0 22:44 05.08.2020
4785 Clouds 14 1020 77 10000 1 0 22:18 05.08.2020
4786 Clouds 17 1019 72 10000 2.1 40 20:46 05.08.2020
4787 Clouds 18 1018 56 10000 3.1 80 19:50 05.08.2020
4788 Clouds 19 1018 52 10000 5.7 80 18:56 05.08.2020
4789 Clouds 20 1018 52 10000 6.2 70 17:43 05.08.2020
4790 Clouds 20 1018 49 10000 5.7 80 16:39 05.08.2020
4791 Clouds 19 1018 52 10000 5.1 90 15:45 05.08.2020
4792 Clouds 19 1019 52 10000 4.1 90 14:58 05.08.2020
4793 Clouds 18 1019 52 10000 4.1 90 14:39 05.08.2020
4794 Clouds 16 1019 59 10000 3.1 120 13:31 05.08.2020
4795 Clouds 15 1020 63 10000 2.1 100 12:24 05.08.2020
4796 Clouds 13 1021 67 10000 1 0 11:25 05.08.2020
4797 Clouds 14 1021 76 10000 1 0 10:43 05.08.2020
4798 Clouds 13 1021 76 10000 2.1 60 10:20 05.08.2020
4799 Clouds 10 1021 87 10000 2.6 80 08:37 05.08.2020
4800 Clouds 11 1021 93 10000 1 0 07:40 05.08.2020
4801 Clouds 12 1020 93 10000 1.5 360 01:31 05.08.2020
4802 Clouds 12 1021 93 10000 1 0 00:51 05.08.2020
4803 Clouds 10 1020 93 10000 1.5 100 23:52 04.08.2020
4804 Clouds 11 1020 93 10000 1.5 70 23:23 04.08.2020
4805 Clouds 11 1020 93 10000 1 0 22:44 04.08.2020
4806 Rain 11 1021 93 10000 1.5 290 22:26 04.08.2020
4807 Clouds 11 1020 93 10000 1.5 250 20:56 04.08.2020
4808 Rain 12 1019 87 10000 0.5 0 19:33 04.08.2020
4809 Rain 13 1018 87 10000 3.1 60 18:33 04.08.2020
4810 Rain 14 1018 87 10000 3.1 60 17:31 04.08.2020
4811 Clouds 13 1017 82 10000 4.1 70 16:30 04.08.2020
4812 Clouds 13 1017 77 10000 4.1 60 15:40 04.08.2020
4813 Clouds 15 1017 82 10000 3.6 60 15:19 04.08.2020
4814 Rain 14 1016 87 10000 1.5 280 13:47 04.08.2020
4815 Rain 11 1015 87 10000 4.6 260 11:36 04.08.2020
4816 Rain 11 1014 93 10000 3.6 250 10:57 04.08.2020
4817 Rain 11 1014 93 10000 3.6 250 10:35 04.08.2020
4818 Rain 10 1014 93 10000 3.6 270 09:56 04.08.2020
4819 Rain 10 1012 93 10000 4.1 250 07:32 04.08.2020
4820 Rain 10 1011 93 10000 4.1 250 06:54 04.08.2020
4821 Rain 13 1009 93 10000 6.7 260 23:23 03.08.2020
4822 Rain 13 1009 87 10000 7.2 250 22:26 03.08.2020
4823 Rain 13 1008 87 10000 7.2 260 21:28 03.08.2020
4824 Rain 13 1008 87 10000 7.2 260 20:59 03.08.2020
4825 Rain 13 1008 93 10000 8.7 250 20:22 03.08.2020
4826 Rain 14 1008 87 10000 5.7 250 19:41 03.08.2020
4827 Rain 14 1008 93 10000 1.5 240 18:34 03.08.2020
4828 Rain 14 1008 93 10000 2.1 310 17:57 03.08.2020
4829 Rain 15 1009 93 10000 3.1 260 16:43 03.08.2020
4830 Rain 16 1009 82 10000 2.1 30 15:47 03.08.2020
4831 Clouds 17 1010 72 10000 2.1 70 14:31 03.08.2020
4832 Clouds 17 1011 72 10000 1.5 0 13:38 03.08.2020
4833 Clouds 17 1011 77 10000 1 0 12:39 03.08.2020
4834 Rain 16 1012 82 10000 0.5 0 11:34 03.08.2020
4835 Clouds 15 1012 93 10000 1.5 260 10:21 03.08.2020
4836 Rain 15 1012 93 10000 2.1 290 09:26 03.08.2020
4837 Rain 14 1013 93 10000 1 0 05:29 03.08.2020
4838 Rain 15 1015 100 10000 3.6 280 02:23 03.08.2020
4839 Rain 15 1015 93 10000 3.1 260 01:50 03.08.2020
4840 Rain 15 1015 93 10000 3.6 240 00:45 03.08.2020
4841 Rain 17 1015 100 8000 2.1 260 21:48 02.08.2020
4842 Rain 17 1014 93 6000 1 0 21:22 02.08.2020
4843 Rain 17 1014 93 10000 1.5 160 20:37 02.08.2020
4844 Rain 17 1014 93 10000 0.5 0 19:59 02.08.2020
4845 Rain 17 1014 93 10000 0.5 0 19:40 02.08.2020
4846 Rain 19 1014 88 10000 2.6 60 18:51 02.08.2020
4847 Clouds 20 1014 77 10000 3.6 100 18:28 02.08.2020
4848 Rain 21 1014 64 10000 4.6 80 16:39 02.08.2020
4849 Clouds 22 1014 61 10000 2.6 110 15:18 02.08.2020
4850 Clouds 24 1014 64 10000 0.5 0 14:43 02.08.2020
4851 Clouds 21 1015 73 10000 3.6 270 13:53 02.08.2020
4852 Clouds 21 1015 73 10000 3.1 270 13:22 02.08.2020
4853 Clouds 23 1016 64 10000 2.6 270 12:45 02.08.2020
4854 Clouds 21 1016 77 10000 0.5 0 11:31 02.08.2020
4855 Clouds 20 1016 82 10000 1 0 10:49 02.08.2020
4856 Clouds 19 1017 82 10000 1.5 260 09:48 02.08.2020
4857 Clouds 18 1017 88 10000 2.6 280 08:53 02.08.2020
4858 Clouds 17 1017 88 10000 3.1 270 08:24 02.08.2020
4859 Clouds 17 1017 93 10000 3.1 270 06:44 02.08.2020
4860 Clouds 16 1018 93 10000 1 130 02:48 02.08.2020
4861 Rain 16 1019 93 10000 2.6 280 00:59 02.08.2020
4862 Clouds 16 1019 93 10000 2.1 280 00:18 02.08.2020
4863 Rain 17 1020 93 10000 2.1 280 22:43 01.08.2020
4864 Rain 19 1020 88 10000 1 0 20:30 01.08.2020
4865 Rain 19 1018 77 10000 8.7 240 19:42 01.08.2020
4866 Rain 21 1017 73 10000 13.9 270 19:22 01.08.2020
4867 Thunderstorm 26 1014 44 10000 11.8 240 18:36 01.08.2020
4868 Clouds 30 1013 31 10000 4.6 90 17:40 01.08.2020
4869 Clouds 31 1014 31 10000 4.6 80 16:27 01.08.2020
4870 Clouds 32 1014 30 10000 2.1 0 15:25 01.08.2020
4871 Clouds 31 1014 29 10000 1 0 14:56 01.08.2020
4872 Clouds 30 1015 38 10000 1 0 13:50 01.08.2020
4873 Clouds 28 1017 48 10000 1 0 11:59 01.08.2020
4874 Clouds 27 1017 51 10000 1.5 270 11:18 01.08.2020
4875 Clouds 19 1018 73 10000 2.1 240 08:35 01.08.2020
4876 Clear 16 1019 88 10000 0.5 0 05:51 01.08.2020
4877 Clear 20 1019 82 10000 1 0 02:47 01.08.2020
4878 Clouds 19 1019 77 10000 1.5 280 01:45 01.08.2020
4879 Clouds 19 1019 77 10000 0.5 0 01:27 01.08.2020
4880 Clouds 22 1018 64 10000 1.26 206 22:53 31.07.2020
4881 Clouds 22 1018 64 10000 1.26 206 22:53 31.07.2020
4882 Clouds 25 1017 54 10000 1.5 130 21:19 31.07.2020
4883 Clouds 28 1017 51 10000 2.1 70 20:31 31.07.2020
4884 Clouds 31 1016 40 10000 4.6 80 19:59 31.07.2020
4885 Clouds 32 1016 38 10000 5.1 70 18:47 31.07.2020
4886 Clouds 31 1016 36 10000 3.1 30 17:40 31.07.2020
4887 Clouds 31 1016 33 10000 4.6 60 16:42 31.07.2020
4888 Clouds 31 1017 36 10000 1.5 0 15:34 31.07.2020
4889 Clouds 29 1018 37 10000 1.5 0 13:42 31.07.2020
4890 Clouds 29 1018 40 10000 1.5 0 13:22 31.07.2020
4891 Clouds 27 1019 45 10000 1 0 12:19 31.07.2020
4892 Clouds 26 1019 51 10000 1 0 11:38 31.07.2020
4893 Clouds 24 1020 57 10000 2.6 260 10:49 31.07.2020
4894 Clouds 23 1020 53 10000 2.1 260 10:19 31.07.2020
4895 Clouds 24 1020 57 10000 1 0 09:34 31.07.2020
4896 Clouds 20 1021 73 10000 2.1 270 08:51 31.07.2020
4897 Clouds 19 1021 82 10000 1 0 07:25 31.07.2020
4898 Clouds 17 1020 82 10000 2.1 270 04:26 31.07.2020
4899 Clouds 19 1020 77 10000 2.1 160 01:53 31.07.2020
4900 Clouds 20 1020 78 10000 3.1 250 00:37 31.07.2020
4901 Rain 21 1020 73 10000 0.5 0 23:48 30.07.2020
4902 Clouds 24 1019 69 10000 1.5 310 22:47 30.07.2020
4903 Clouds 24 1019 69 10000 0.5 0 22:21 30.07.2020
4904 Clouds 24 1018 61 10000 0.5 0 21:19 30.07.2020
4905 Clouds 27 1018 57 10000 1.5 30 20:55 30.07.2020
4906 Clouds 28 1017 48 10000 4.6 90 19:41 30.07.2020
4907 Clouds 29 1017 43 10000 5.1 70 18:54 30.07.2020
4908 Clouds 29 1017 43 10000 5.1 80 17:40 30.07.2020
4909 Clouds 30 1017 38 10000 3.6 90 16:56 30.07.2020
4910 Clouds 32 1017 38 10000 3.6 90 16:35 30.07.2020
4911 Clouds 30 1018 43 10000 3.1 70 15:55 30.07.2020
4912 Clouds 30 1018 43 10000 3.1 70 15:36 30.07.2020
4913 Clouds 29 1018 40 10000 3.6 100 14:56 30.07.2020
4914 Clouds 29 1018 40 10000 3.6 100 14:37 30.07.2020
4915 Clouds 28 1019 42 10000 3.1 100 14:19 30.07.2020
4916 Clouds 26 1020 51 10000 2.1 100 13:20 30.07.2020
4917 Clouds 26 1020 57 10000 1.5 0 12:59 30.07.2020
4918 Clouds 25 1020 57 10000 0.5 0 12:30 30.07.2020
4919 Clouds 25 1020 57 10000 0.5 0 12:30 30.07.2020
4920 Clouds 23 1021 64 10000 1 0 10:49 30.07.2020
4921 Clouds 22 1021 68 10000 1 0 10:24 30.07.2020
4922 Clouds 19 1022 73 10000 1.5 270 09:22 30.07.2020
4923 Clouds 19 1022 73 10000 1.5 270 09:22 30.07.2020
4924 Clouds 18 1022 82 10000 1 0 08:56 30.07.2020
4925 Clouds 16 1022 88 10000 1.5 280 08:24 30.07.2020
4926 Clear 14 1021 93 10000 0.5 0 05:19 30.07.2020
4927 Clouds 16 1021 88 10000 1.5 310 01:45 30.07.2020
4928 Clouds 18 1020 77 10000 1 0 23:54 29.07.2020
4929 Clouds 19 1020 73 10000 1.5 340 22:51 29.07.2020
4930 Clouds 19 1020 73 10000 0.5 0 22:20 29.07.2020
4931 Clouds 21 1019 69 10000 1.5 60 21:38 29.07.2020
4932 Clouds 21 1019 60 10000 2.6 110 20:48 29.07.2020
4933 Clouds 22 1019 57 10000 2.6 80 20:26 29.07.2020
4934 Clouds 23 1019 57 10000 5.1 70 19:48 29.07.2020
4935 Clouds 23 1018 54 10000 4.6 80 19:26 29.07.2020
4936 Clouds 24 1018 54 10000 5.7 90 18:51 29.07.2020
4937 Clouds 24 1018 54 10000 5.7 80 18:26 29.07.2020
4938 Clouds 25 1018 51 10000 6.2 80 17:54 29.07.2020
4939 Clouds 26 1018 51 10000 6.2 80 16:50 29.07.2020
4940 Clouds 24 1018 54 10000 5.1 80 15:59 29.07.2020
4941 Clouds 25 1018 54 10000 5.1 80 15:41 29.07.2020
4942 Clouds 25 1018 58 10000 3.6 80 15:18 29.07.2020
4943 Clouds 25 1019 57 10000 3.6 100 14:21 29.07.2020
4944 Clouds 24 1019 61 10000 2.6 80 13:27 29.07.2020
4945 Clouds 23 1019 64 10000 3.1 80 12:52 29.07.2020
4946 Clouds 22 1020 64 10000 2.6 80 12:21 29.07.2020
4947 Clouds 22 1020 69 10000 3.1 90 11:46 29.07.2020
4948 Clouds 21 1020 73 10000 1.5 0 11:20 29.07.2020
4949 Rain 19 1021 73 10000 1 0 10:35 29.07.2020
4950 Clouds 18 1021 77 10000 2.1 60 09:35 29.07.2020
4951 Clouds 17 1020 82 10000 3.1 70 08:24 29.07.2020
4952 Clouds 17 1020 88 10000 3.6 60 07:30 29.07.2020
4953 Clouds 18 1019 88 10000 1.5 100 05:46 29.07.2020
4954 Clouds 19 1019 82 10000 1 0 02:38 29.07.2020
4955 Clouds 19 1018 82 10000 0.5 0 00:37 29.07.2020
4956 Clouds 20 1017 83 10000 3.1 130 22:48 28.07.2020
4957 Clouds 19 1017 83 10000 3.1 50 22:20 28.07.2020
4958 Rain 21 1017 69 10000 2.1 90 21:38 28.07.2020
4959 Clouds 22 1015 64 10000 3.6 40 20:58 28.07.2020
4960 Clouds 22 1015 64 10000 3.6 40 20:40 28.07.2020
4961 Clouds 22 1015 61 10000 2.6 80 19:57 28.07.2020
4962 Clouds 23 1015 61 10000 2.6 80 19:37 28.07.2020
4963 Clouds 23 1015 54 10000 3.6 70 19:18 28.07.2020
4964 Clouds 25 1014 42 10000 4.6 110 18:38 28.07.2020
4965 Rain 28 1012 48 10000 4.1 40 17:56 28.07.2020
4966 Rain 28 1012 27 10000 2.1 0 17:22 28.07.2020
4967 Clouds 31 1011 23 10000 4.1 170 16:40 28.07.2020
4968 Clouds 31 1012 28 10000 2.1 160 15:32 28.07.2020
4969 Clouds 30 1013 40 10000 1.5 0 14:55 28.07.2020
4970 Clouds 31 1013 40 10000 1.5 0 14:34 28.07.2020
4971 Clouds 29 1014 42 10000 1 0 13:41 28.07.2020
4972 Clouds 28 1015 45 10000 0.5 0 12:45 28.07.2020
4973 Clouds 27 1015 51 10000 1 0 12:21 28.07.2020
4974 Clouds 27 1016 47 10000 2.1 270 11:57 28.07.2020
4975 Clouds 26 1016 54 10000 3.1 270 11:20 28.07.2020
4976 Clouds 24 1017 60 10000 3.6 260 10:43 28.07.2020
4977 Clouds 23 1017 69 10000 2.1 260 10:21 28.07.2020
4978 Clouds 22 1017 68 10000 3.1 280 09:39 28.07.2020
4979 Clouds 21 1018 68 10000 2.6 270 09:19 28.07.2020
4980 Clouds 20 1018 77 10000 2.1 290 08:40 28.07.2020
4981 Clouds 18 1018 82 10000 1.5 270 07:51 28.07.2020
4982 Clouds 18 1018 82 10000 1.5 270 07:32 28.07.2020
4983 Clear 17 1017 77 10000 2.6 280 02:21 28.07.2020
4984 Clear 17 1017 77 10000 2.6 280 02:21 28.07.2020
4985 Clear 17 1017 77 10000 1.5 230 01:51 28.07.2020
4986 Clear 18 1017 72 10000 3.1 230 00:58 28.07.2020
4987 Clear 18 1016 77 10000 1.5 210 23:55 27.07.2020
4988 Clear 20 1016 68 10000 2.1 100 23:25 27.07.2020
4989 Clear 21 1016 64 10000 1.5 70 22:44 27.07.2020
4990 Clouds 21 1016 60 10000 2.6 110 22:21 27.07.2020
4991 Clouds 24 1016 60 10000 2.6 110 21:46 27.07.2020
4992 Clouds 24 1015 50 10000 3.1 70 20:56 27.07.2020
4993 Clouds 24 1015 50 10000 3.1 70 20:56 27.07.2020
4994 Clouds 25 1015 47 10000 4.1 70 20:36 27.07.2020
4995 Clouds 25 1015 47 10000 4.1 70 20:18 27.07.2020
4996 Clouds 28 1015 45 10000 3.6 90 19:35 27.07.2020
4997 Clouds 28 1014 48 10000 4.1 60 18:48 27.07.2020
4998 Clouds 28 1015 42 10000 3.6 70 17:52 27.07.2020
4999 Clouds 28 1015 42 10000 3.1 80 17:33 27.07.2020
5000 Clouds 27 1015 48 10000 3.6 60 16:59 27.07.2020
5001 Clouds 28 1015 45 10000 3.1 90 16:23 27.07.2020
5002 Clouds 27 1016 44 10000 3.6 70 15:50 27.07.2020
5003 Clouds 27 1016 44 10000 3.6 70 15:31 27.07.2020
5004 Clouds 26 1017 57 10000 3.6 60 14:54 27.07.2020
5005 Clouds 26 1017 57 10000 3.6 60 14:35 27.07.2020
5006 Clouds 25 1018 53 10000 2.1 140 13:49 27.07.2020
5007 Clouds 25 1018 60 10000 1.5 0 13:28 27.07.2020
5008 Clouds 24 1019 57 10000 0.5 0 12:50 27.07.2020
5009 Clouds 22 1019 60 10000 1 0 12:31 27.07.2020
5010 Clouds 21 1020 73 10000 0.5 0 11:25 27.07.2020
5011 Clouds 20 1020 73 10000 0.5 0 10:59 27.07.2020
5012 Clouds 17 1021 72 10000 0.5 0 09:58 27.07.2020
5013 Clouds 16 1022 82 10000 0.5 0 09:38 27.07.2020
5014 Clouds 16 1022 82 10000 0.5 0 09:18 27.07.2020
5015 Clouds 15 1022 88 10000 1 0 08:45 27.07.2020
5016 Clouds 13 1022 93 10000 0.5 0 07:57 27.07.2020
5017 Clouds 14 1022 93 10000 0.5 0 07:37 27.07.2020
5018 Clouds 13 1022 93 10000 0.5 0 06:36 27.07.2020
5019 Clouds 14 1022 93 10000 0.5 0 02:56 27.07.2020
5020 Clouds 15 1021 87 10000 1 0 02:18 27.07.2020
5021 Rain 17 1020 82 10000 2.1 290 23:53 26.07.2020
5022 Clouds 16 1020 82 10000 1.5 0 23:26 26.07.2020
5023 Clouds 17 1019 72 10000 2.6 90 22:43 26.07.2020
5024 Clouds 16 1019 72 10000 3.1 80 22:23 26.07.2020
5025 Clouds 17 1018 77 10000 4.1 70 21:51 26.07.2020
5026 Clouds 17 1018 72 10000 4.6 70 21:22 26.07.2020
5027 Clouds 19 1017 60 10000 4.1 70 20:52 26.07.2020
5028 Clouds 19 1017 60 10000 4.1 70 20:30 26.07.2020
5029 Clouds 20 1016 56 10000 1.5 80 19:46 26.07.2020
5030 Clouds 20 1016 60 10000 4.6 70 19:24 26.07.2020
5031 Clouds 21 1016 57 10000 3.1 80 18:52 26.07.2020
5032 Thunderstorm 22 1015 53 10000 3.6 100 18:32 26.07.2020
5033 Clouds 21 1015 57 10000 2.1 70 17:58 26.07.2020
5034 Clouds 24 1015 57 10000 2.1 70 17:39 26.07.2020
5035 Clouds 24 1015 57 10000 2.6 80 17:18 26.07.2020
5036 Clouds 22 1015 53 10000 1.5 0 16:41 26.07.2020
5037 Clouds 22 1015 53 10000 2.6 60 16:19 26.07.2020
5038 Clouds 22 1016 56 10000 3.6 120 15:42 26.07.2020
5039 Clouds 22 1016 56 10000 4.6 80 15:23 26.07.2020
5040 Clouds 21 1016 56 10000 4.1 80 14:38 26.07.2020
5041 Clouds 21 1016 64 10000 3.1 100 13:55 26.07.2020
5042 Clouds 20 1016 68 10000 3.1 100 13:26 26.07.2020
5043 Clouds 19 1017 72 10000 3.6 80 12:45 26.07.2020
5044 Clouds 19 1017 77 10000 3.1 60 12:23 26.07.2020
5045 Clouds 16 1017 88 10000 2.6 70 11:52 26.07.2020
5046 Clouds 16 1017 88 10000 2.6 70 11:32 26.07.2020
5047 Rain 16 1017 87 10000 1 0 10:53 26.07.2020
5048 Rain 15 1017 87 10000 1.5 170 10:27 26.07.2020
5049 Rain 15 1017 87 10000 2.6 310 09:44 26.07.2020
5050 Rain 15 1017 87 10000 2.1 260 09:22 26.07.2020
5051 Clouds 15 1016 82 10000 1 0 08:26 26.07.2020
5052 Clouds 14 1016 93 10000 1 0 06:58 26.07.2020
5053 Clouds 12 1016 82 10000 0.5 0 03:54 26.07.2020
5054 Clouds 13 1016 82 10000 1.5 250 01:57 26.07.2020
5055 Clouds 14 1016 82 10000 2.6 260 00:35 26.07.2020
5056 Clouds 16 1016 68 10000 1.5 70 23:43 25.07.2020
5057 Clouds 15 1016 77 10000 1.5 130 22:58 25.07.2020
5058 Clouds 16 1015 72 10000 0.5 0 22:22 25.07.2020
5059 Clouds 17 1015 72 10000 0.5 0 21:31 25.07.2020
5060 Clouds 18 1015 72 10000 2.6 30 20:59 25.07.2020
5061 Clouds 18 1015 72 10000 2.6 30 20:39 25.07.2020
5062 Clouds 21 1014 56 10000 3.6 50 19:53 25.07.2020
5063 Clouds 22 1014 44 10000 2.6 70 19:24 25.07.2020
5064 Clouds 22 1015 47 10000 2.1 50 18:47 25.07.2020
5065 Clouds 22 1015 44 10000 2.6 120 18:28 25.07.2020
5066 Clouds 23 1015 47 10000 2.1 120 17:57 25.07.2020
5067 Clouds 23 1015 47 10000 2.1 120 17:36 25.07.2020
5068 Clouds 23 1015 50 10000 2.6 70 17:18 25.07.2020
5069 Clouds 22 1016 49 10000 2.1 70 16:47 25.07.2020
5070 Clouds 22 1016 46 10000 2.1 80 16:24 25.07.2020
5071 Clouds 22 1016 56 10000 2.6 60 15:42 25.07.2020
5072 Clouds 21 1016 60 10000 2.6 60 15:21 25.07.2020
5073 Clouds 21 1016 56 10000 1.5 50 14:37 25.07.2020
5074 Clouds 21 1016 56 10000 1.5 50 14:18 25.07.2020
5075 Clouds 22 1016 53 10000 1 0 13:38 25.07.2020
5076 Clouds 20 1017 49 10000 1.5 90 13:19 25.07.2020
5077 Clouds 19 1017 64 10000 2.1 60 12:51 25.07.2020
5078 Clouds 19 1017 64 10000 2.6 80 12:18 25.07.2020
5079 Clouds 19 1017 72 10000 3.1 60 11:42 25.07.2020
5080 Clouds 19 1017 68 10000 1.5 50 11:20 25.07.2020
5081 Clouds 17 1018 77 10000 0.5 0 10:39 25.07.2020
5082 Clouds 17 1018 77 10000 0.5 0 10:20 25.07.2020
5083 Clouds 16 1018 87 10000 2.1 270 09:46 25.07.2020
5084 Clouds 15 1018 87 10000 2.1 270 09:23 25.07.2020
5085 Clouds 14 1018 93 10000 1.5 260 08:53 25.07.2020
5086 Clouds 14 1017 93 10000 1.5 250 08:23 25.07.2020
5087 Clouds 13 1017 100 10000 1.5 270 07:46 25.07.2020
5088 Clouds 13 1017 93 10000 1.5 270 07:23 25.07.2020
5089 Clouds 14 1017 93 10000 0.5 0 05:28 25.07.2020
5090 Drizzle 15 1017 93 10000 0.5 0 02:52 25.07.2020
5091 Clouds 15 1017 87 10000 1 0 01:51 25.07.2020
5092 Clouds 15 1017 87 10000 1 0 01:32 25.07.2020
5093 Clouds 15 1017 93 10000 0.5 0 00:57 25.07.2020
5094 Clouds 15 1017 93 10000 0.5 0 00:38 25.07.2020
5095 Clouds 15 1017 87 10000 1 0 00:18 25.07.2020
5096 Rain 15 1017 87 10000 2.6 300 23:43 24.07.2020
5097 Clouds 15 1017 87 10000 2.1 290 23:24 24.07.2020
5098 Clouds 15 1017 87 10000 1 0 22:44 24.07.2020
5099 Clouds 14 1017 87 10000 3.1 260 22:23 24.07.2020
5100 Clouds 14 1016 82 10000 1.5 280 21:51 24.07.2020
5101 Clouds 14 1016 82 10000 1.5 280 21:51 24.07.2020
5102 Clouds 15 1016 82 10000 1.5 280 21:33 24.07.2020
5103 Rain 15 1016 82 10000 2.1 300 20:55 24.07.2020
5104 Rain 15 1016 82 10000 2.1 300 20:36 24.07.2020
5105 Rain 15 1016 87 10000 7.2 270 19:57 24.07.2020
5106 Rain 15 1016 87 10000 7.2 270 19:38 24.07.2020
5107 Rain 15 1015 82 10000 6.2 270 19:18 24.07.2020
5108 Clouds 17 1014 55 10000 7.2 240 18:30 24.07.2020
5109 Clouds 17 1014 55 10000 8.2 260 17:53 24.07.2020
5110 Clouds 18 1014 52 10000 4.6 290 17:19 24.07.2020
5111 Clouds 19 1014 56 10000 2.1 300 16:47 24.07.2020
5112 Clouds 19 1014 53 10000 1 0 16:27 24.07.2020
5113 Clouds 19 1014 53 10000 1 0 16:27 24.07.2020
5114 Clouds 19 1014 53 10000 1 0 16:27 24.07.2020
5115 Clouds 19 1014 64 10000 1.5 270 15:47 24.07.2020
5116 Clouds 18 1014 60 10000 1 0 15:29 24.07.2020
5117 Clouds 18 1015 64 10000 2.1 270 14:46 24.07.2020
5118 Clouds 18 1015 72 10000 2.1 290 14:28 24.07.2020
5119 Clouds 18 1015 72 10000 0.5 0 13:44 24.07.2020
5120 Clouds 18 1015 72 10000 0.5 0 13:44 24.07.2020
5121 Clouds 17 1016 77 10000 1 0 13:21 24.07.2020
5122 Clouds 17 1016 77 10000 1.5 240 12:47 24.07.2020
5123 Clouds 16 1016 82 10000 1 0 12:27 24.07.2020
5124 Clouds 15 1016 87 10000 2.1 280 11:51 24.07.2020
5125 Clouds 15 1016 87 10000 2.1 300 11:21 24.07.2020
5126 Clouds 15 1017 87 10000 1 0 10:45 24.07.2020
5127 Rain 15 1017 93 10000 2.1 270 10:19 24.07.2020
5128 Rain 15 1016 93 10000 2.1 250 09:56 24.07.2020
5129 Rain 15 1016 93 10000 2.1 250 09:37 24.07.2020
5130 Rain 14 1016 93 10000 3.6 270 09:18 24.07.2020
5131 Rain 14 1015 82 10000 3.1 0 08:44 24.07.2020
5132 Rain 14 1016 93 10000 4.6 280 08:22 24.07.2020
5133 Rain 13 1016 93 10000 2.6 250 07:38 24.07.2020
5134 Thunderstorm 15 1015 93 10000 1 0 07:20 24.07.2020
5135 Rain 13 1015 93 10000 1.5 280 06:23 24.07.2020
5136 Clouds 13 1015 93 10000 0.5 0 05:33 24.07.2020
5137 Clouds 14 1015 93 10000 1 280 04:49 24.07.2020
5138 Clouds 14 1016 93 10000 2.1 270 03:27 24.07.2020
5139 Clouds 14 1016 87 10000 1 0 01:27 24.07.2020
5140 Clouds 16 1016 88 10000 2.6 300 00:29 24.07.2020
5141 Clouds 16 1016 93 10000 2.1 290 23:48 23.07.2020
5142 Clouds 16 1016 93 10000 2.1 230 23:28 23.07.2020
5143 Clouds 16 1016 88 10000 1 0 22:58 23.07.2020
5144 Clouds 17 1016 88 10000 1 0 22:37 23.07.2020
5145 Rain 17 1017 88 10000 1 0 22:18 23.07.2020
5146 Clouds 18 1016 93 10000 1.5 210 21:39 23.07.2020
5147 Rain 17 1016 82 10000 1.5 360 21:21 23.07.2020
5148 Rain 17 1016 82 10000 1.5 360 21:21 23.07.2020
5149 Thunderstorm 18 1015 72 10000 1 0 20:56 23.07.2020
5150 Thunderstorm 18 1015 72 10000 1 0 20:38 23.07.2020
5151 Clouds 18 1015 77 10000 2.1 10 20:18 23.07.2020
5152 Clouds 18 1015 77 10000 2.1 10 20:18 23.07.2020
5153 Clouds 19 1015 77 10000 2.6 10 19:42 23.07.2020
5154 Rain 20 1015 69 10000 2.6 350 19:23 23.07.2020
5155 Rain 20 1015 69 10000 1.5 0 18:58 23.07.2020
5156 Rain 20 1015 69 10000 1.5 0 18:40 23.07.2020
5157 Clouds 20 1015 73 10000 2.1 20 18:20 23.07.2020
5158 Rain 20 1015 78 10000 2.1 10 17:40 23.07.2020
5159 Rain 19 1015 53 10000 8.7 10 17:22 23.07.2020
5160 Clouds 23 1014 41 10000 2.6 0 16:44 23.07.2020
5161 Clouds 25 1013 32 10000 1 0 16:24 23.07.2020
5162 Clouds 25 1014 37 10000 1 0 15:48 23.07.2020
5163 Clouds 25 1014 34 10000 1 0 15:25 23.07.2020
5164 Clouds 25 1015 39 10000 1.5 0 14:55 23.07.2020
5165 Clouds 25 1015 39 10000 1.5 0 14:36 23.07.2020
5166 Clouds 25 1015 39 10000 1.5 120 14:18 23.07.2020
5167 Clouds 25 1015 44 10000 2.1 100 13:45 23.07.2020
5168 Clouds 24 1016 47 10000 2.1 0 13:26 23.07.2020
5169 Clouds 23 1016 57 10000 1 0 12:47 23.07.2020
5170 Clouds 22 1017 60 10000 1 0 12:24 23.07.2020
5171 Clouds 21 1017 68 10000 1.5 0 11:59 23.07.2020
5172 Clouds 21 1017 68 10000 1.5 0 11:36 23.07.2020
5173 Clouds 20 1018 73 10000 1 0 11:18 23.07.2020
5174 Clouds 20 1018 77 10000 1 0 10:44 23.07.2020
5175 Clouds 20 1018 77 10000 1.5 0 10:24 23.07.2020
5176 Clouds 19 1019 82 10000 1 0 09:51 23.07.2020
5177 Clouds 17 1019 88 10000 1 0 09:30 23.07.2020
5178 Clouds 16 1019 93 10000 1.5 270 08:59 23.07.2020
5179 Clouds 15 1019 93 10000 1.5 270 08:40 23.07.2020
5180 Clouds 15 1019 88 10000 0.5 0 08:20 23.07.2020
5181 Clouds 14 1019 93 10000 0.5 0 07:37 23.07.2020
5182 Clouds 15 1019 100 10000 1 0 06:52 23.07.2020
5183 Clouds 14 1019 100 10000 1 0 06:33 23.07.2020
5184 Clouds 15 1019 93 10000 0.5 0 05:46 23.07.2020
5185 Clouds 15 1019 93 10000 1 0 04:58 23.07.2020
5186 Clouds 15 1019 93 10000 2.1 250 04:33 23.07.2020
5187 Rain 15 1019 100 10000 0.5 0 03:20 23.07.2020
5188 Thunderstorm 15 1020 93 10000 2.6 270 00:37 23.07.2020
5189 Clouds 15 1019 100 10000 2.6 290 23:59 22.07.2020
5190 Clouds 15 1019 100 10000 2.6 290 23:40 22.07.2020
5191 Clouds 16 1019 93 10000 1 0 23:21 22.07.2020
5192 Rain 16 1020 93 10000 1 0 22:41 22.07.2020
5193 Rain 16 1020 93 10000 1 0 22:23 22.07.2020
5194 Rain 16 1019 82 10000 3.6 0 21:56 22.07.2020
5195 Rain 16 1019 82 10000 3.6 0 21:56 22.07.2020
5196 Rain 16 1019 82 10000 3.6 0 21:56 22.07.2020
5197 Rain 17 1019 82 10000 3.6 0 21:38 22.07.2020
5198 Rain 17 1019 88 10000 2.6 280 21:18 22.07.2020
5199 Thunderstorm 19 1018 77 10000 1 0 20:56 22.07.2020
5200 Thunderstorm 19 1018 77 10000 1 0 20:37 22.07.2020
5201 Clouds 20 1018 73 10000 1.5 210 20:19 22.07.2020
5202 Clouds 20 1018 83 10000 1 0 19:46 22.07.2020
5203 Clouds 21 1018 64 10000 1.5 80 19:27 22.07.2020
5204 Clouds 21 1018 69 10000 1.5 20 18:59 22.07.2020
5205 Thunderstorm 22 1018 57 10000 3.1 70 18:34 22.07.2020
5206 Clouds 23 1018 53 10000 4.6 70 17:57 22.07.2020
5207 Clouds 23 1018 53 10000 4.6 70 17:39 22.07.2020
5208 Clouds 24 1018 50 10000 4.1 80 17:20 22.07.2020
5209 Clouds 22 1018 57 10000 4.6 80 16:55 22.07.2020
5210 Clouds 22 1018 57 10000 4.6 80 16:37 22.07.2020
5211 Clouds 22 1019 57 10000 3.6 100 16:19 22.07.2020
5212 Clouds 22 1019 57 10000 4.6 90 15:42 22.07.2020
5213 Clouds 23 1020 57 10000 3.1 90 15:24 22.07.2020
5214 Clouds 22 1020 60 10000 2.1 60 14:55 22.07.2020
5215 Clouds 24 1020 60 10000 2.1 60 14:37 22.07.2020
5216 Clouds 22 1021 83 10000 2.6 350 14:18 22.07.2020
5217 Thunderstorm 21 1021 73 10000 5.7 230 13:40 22.07.2020
5218 Clouds 22 1020 60 10000 1.5 60 13:22 22.07.2020
5219 Clouds 23 1021 60 10000 1.5 0 12:43 22.07.2020
5220 Clouds 21 1021 64 10000 2.1 60 12:25 22.07.2020
5221 Clouds 21 1022 68 10000 2.1 90 11:56 22.07.2020
5222 Clouds 21 1022 68 10000 2.1 90 11:38 22.07.2020
5223 Clouds 20 1022 68 10000 1.5 210 11:18 22.07.2020
5224 Clouds 19 1022 77 10000 1 0 10:42 22.07.2020
5225 Clouds 19 1023 82 10000 1 0 10:23 22.07.2020
5226 Rain 18 1023 77 10000 2.1 100 09:52 22.07.2020
5227 Rain 17 1023 88 10000 0.5 0 09:24 22.07.2020
5228 Clouds 16 1023 88 10000 1 0 08:59 22.07.2020
5229 Clouds 16 1023 93 10000 0.5 0 08:37 22.07.2020
5230 Clouds 16 1023 93 10000 0.5 0 08:18 22.07.2020
5231 Clouds 14 1022 93 10000 1 170 07:21 22.07.2020
5232 Clouds 14 1022 93 10000 0.5 0 06:36 22.07.2020
5233 Clouds 14 1022 93 10000 0.5 0 06:18 22.07.2020
5234 Clouds 14 1022 93 10000 1 0 05:45 22.07.2020
5235 Clouds 14 1022 93 10000 0.5 0 04:59 22.07.2020
5236 Clouds 15 1022 93 10000 1 0 04:22 22.07.2020
5237 Clouds 15 1023 100 10000 1.5 280 02:29 22.07.2020
5238 Clouds 16 1023 93 10000 1.5 280 01:31 22.07.2020
5239 Clouds 17 1023 93 10000 0.5 0 00:28 22.07.2020
5240 Clouds 17 1023 93 10000 1 0 23:43 21.07.2020
5241 Clouds 16 1022 93 10000 0.5 0 23:23 21.07.2020
5242 Clouds 17 1022 93 10000 2.1 170 22:59 21.07.2020
5243 Clouds 17 1022 93 10000 2.1 170 22:40 21.07.2020
5244 Clouds 17 1022 88 10000 1.5 210 22:21 21.07.2020
5245 Clouds 17 1022 88 10000 1.5 210 21:59 21.07.2020
5246 Thunderstorm 18 1022 82 10000 2.1 220 21:40 21.07.2020
5247 Thunderstorm 18 1021 73 10000 3.1 110 21:21 21.07.2020
5248 Clouds 19 1020 64 10000 6.2 50 20:56 21.07.2020
5249 Clouds 20 1020 64 10000 6.2 50 20:38 21.07.2020
5250 Clouds 21 1020 60 10000 4.1 80 20:19 21.07.2020
5251 Clouds 27 1018 44 10000 6.2 60 19:41 21.07.2020
5252 Clouds 24 1018 44 10000 6.2 60 19:20 21.07.2020
5253 Clouds 25 1018 35 10000 2.6 210 18:44 21.07.2020
5254 Clouds 25 1019 33 10000 2.1 220 18:24 21.07.2020
5255 Clouds 28 1019 34 10000 1.5 280 17:45 21.07.2020
5256 Clouds 27 1019 39 10000 2.6 190 17:25 21.07.2020
5257 Clouds 27 1019 39 10000 2.6 240 16:59 21.07.2020
5258 Clouds 27 1019 39 10000 2.6 240 16:38 21.07.2020
5259 Clouds 26 1019 35 10000 3.6 230 16:19 21.07.2020
5260 Clouds 26 1020 34 10000 5.1 250 15:43 21.07.2020
5261 Clouds 26 1020 34 10000 5.1 250 15:43 21.07.2020
5262 Clouds 27 1020 36 10000 6.7 250 15:23 21.07.2020
5263 Clouds 27 1020 36 10000 6.7 250 15:23 21.07.2020
5264 Clouds 26 1020 44 10000 4.1 240 14:55 21.07.2020
5265 Clouds 25 1020 44 10000 4.1 240 14:36 21.07.2020
5266 Clouds 25 1020 41 10000 4.1 240 14:18 21.07.2020
5267 Clouds 26 1021 42 10000 5.1 250 13:40 21.07.2020
5268 Clouds 25 1021 50 10000 1.5 0 13:22 21.07.2020
5269 Clouds 23 1021 60 10000 4.6 290 12:54 21.07.2020
5270 Clouds 22 1021 56 10000 4.1 260 12:36 21.07.2020
5271 Clouds 22 1021 56 10000 4.1 260 12:18 21.07.2020
5272 Clouds 22 1021 53 10000 3.1 260 11:40 21.07.2020
5273 Clouds 24 1021 56 10000 2.6 280 11:21 21.07.2020
5274 Clouds 23 1021 60 10000 2.6 290 10:55 21.07.2020
5275 Clouds 22 1021 68 10000 3.1 280 10:37 21.07.2020
5276 Clouds 22 1021 68 10000 3.1 280 10:18 21.07.2020
5277 Clouds 19 1021 68 10000 3.6 270 09:41 21.07.2020
5278 Clouds 19 1021 68 10000 2.1 260 09:20 21.07.2020
5279 Clouds 17 1021 68 10000 2.1 250 08:43 21.07.2020
5280 Clouds 16 1022 82 10000 2.1 260 08:23 21.07.2020
5281 Clouds 17 1022 87 10000 1 0 07:47 21.07.2020
5282 Clouds 16 1022 87 10000 2.6 260 07:29 21.07.2020
5283 Clouds 15 1022 87 10000 2.1 250 06:57 21.07.2020
5284 Clouds 13 1021 87 10000 0.5 0 05:48 21.07.2020
5285 Clouds 14 1021 82 10000 1 0 04:25 21.07.2020
5286 Clouds 15 1021 82 10000 1 0 02:42 21.07.2020
5287 Clouds 15 1021 82 10000 0.5 0 01:33 21.07.2020
5288 Clear 16 1020 77 10000 1 0 00:43 21.07.2020
5289 Clear 16 1020 77 10000 0.5 0 00:25 21.07.2020
5290 Clear 17 1020 72 10000 0.5 0 23:57 20.07.2020
5291 Clear 17 1020 72 10000 0.5 0 23:37 20.07.2020
5292 Clear 17 1020 72 10000 0.5 0 23:19 20.07.2020
5293 Clear 18 1019 68 10000 1 0 22:40 20.07.2020
5294 Clear 22 1019 60 10000 1 0 22:21 20.07.2020
5295 Clouds 23 1018 56 10000 1 0 21:58 20.07.2020
5296 Clouds 23 1018 56 10000 1 0 21:40 20.07.2020
5297 Clouds 21 1018 50 10000 2.6 50 21:20 20.07.2020
5298 Clouds 23 1017 47 10000 4.6 70 20:44 20.07.2020
5299 Clouds 24 1017 50 10000 5.1 50 20:21 20.07.2020
5300 Clouds 26 1017 50 10000 3.6 40 19:55 20.07.2020
5301 Clouds 26 1017 50 10000 3.6 40 19:37 20.07.2020
5302 Clouds 27 1017 42 10000 5.1 60 19:18 20.07.2020
5303 Clouds 27 1017 42 10000 5.1 60 19:18 20.07.2020
5304 Clouds 27 1016 44 10000 5.1 40 18:41 20.07.2020
5305 Clouds 26 1016 37 10000 4.1 50 18:21 20.07.2020
5306 Clouds 28 1016 37 10000 4.1 50 17:45 20.07.2020
5307 Clouds 28 1016 37 10000 4.1 50 17:45 20.07.2020
5308 Clouds 28 1016 37 10000 4.1 50 17:45 20.07.2020
5309 Clouds 28 1016 42 10000 4.6 40 17:24 20.07.2020
5310 Clouds 29 1016 35 10000 3.1 50 16:51 20.07.2020
5311 Clouds 27 1017 37 10000 3.6 110 16:25 20.07.2020
5312 Clouds 27 1017 34 10000 3.1 60 15:58 20.07.2020
5313 Clouds 27 1017 34 10000 3.1 60 15:40 20.07.2020
5314 Clouds 27 1017 32 10000 3.1 60 15:18 20.07.2020
5315 Clouds 26 1017 34 10000 1.5 80 14:42 20.07.2020
5316 Clouds 25 1017 42 10000 2.1 40 14:19 20.07.2020
5317 Clouds 25 1017 39 10000 2.1 90 13:58 20.07.2020
5318 Clouds 25 1017 39 10000 2.1 90 13:39 20.07.2020
5319 Clouds 25 1018 39 10000 1 0 13:20 20.07.2020
5320 Clouds 24 1018 44 10000 1 0 12:56 20.07.2020
5321 Clouds 24 1018 44 10000 1 0 12:38 20.07.2020
5322 Clouds 23 1018 57 10000 1 0 12:19 20.07.2020
5323 Clouds 23 1018 53 10000 0.5 0 11:46 20.07.2020
5324 Clouds 22 1018 60 10000 1 0 11:24 20.07.2020
5325 Clouds 21 1018 64 10000 1.5 270 10:59 20.07.2020
5326 Clouds 21 1018 64 10000 1.5 270 10:41 20.07.2020
5327 Clouds 20 1019 72 10000 2.6 280 10:21 20.07.2020
5328 Clouds 18 1019 72 10000 3.6 270 09:43 20.07.2020
5329 Clouds 18 1019 77 10000 2.1 260 09:23 20.07.2020
5330 Clouds 16 1019 87 10000 2.6 280 08:50 20.07.2020
5331 Clouds 15 1019 87 10000 1.5 250 08:27 20.07.2020
5332 Clouds 13 1019 93 10000 1.5 260 07:57 20.07.2020
5333 Clouds 14 1019 93 10000 1.5 260 07:37 20.07.2020
5334 Clouds 14 1020 87 10000 1.07 228 07:18 20.07.2020
5335 Clouds 13 1020 93 10000 1.5 240 06:38 20.07.2020
5336 Clouds 12 1019 87 10000 1 0 03:58 20.07.2020
5337 Clouds 13 1019 87 10000 1.5 260 02:20 20.07.2020
5338 Clouds 15 1019 87 10000 0.5 0 00:47 20.07.2020
5339 Clouds 15 1018 82 10000 0.5 0 23:55 19.07.2020
5340 Clouds 16 1018 82 10000 0.5 0 23:36 19.07.2020
5341 Clouds 16 1018 77 10000 1 0 23:18 19.07.2020
5342 Clouds 19 1018 77 10000 0.5 0 22:42 19.07.2020
5343 Clouds 20 1018 72 10000 0.5 0 22:20 19.07.2020
5344 Clouds 20 1017 72 10000 0.5 0 21:55 19.07.2020
5345 Clouds 19 1017 72 10000 1.5 330 21:37 19.07.2020
5346 Clouds 19 1017 72 10000 1.5 330 21:19 19.07.2020
5347 Clouds 21 1017 68 10000 1 0 20:44 19.07.2020
5348 Clouds 20 1016 64 10000 1.5 20 20:25 19.07.2020
5349 Clouds 21 1016 60 10000 1.5 50 19:59 19.07.2020
5350 Clouds 23 1016 60 10000 1.5 50 19:39 19.07.2020
5351 Clouds 24 1016 53 10000 3.1 80 19:20 19.07.2020
5352 Clouds 23 1016 53 10000 3.6 70 18:57 19.07.2020
5353 Clouds 23 1016 53 10000 3.6 70 18:39 19.07.2020
5354 Clouds 23 1016 53 10000 3.6 70 18:39 19.07.2020
5355 Clouds 23 1016 47 10000 3.1 80 18:20 19.07.2020
5356 Clouds 23 1016 53 10000 3.1 60 17:42 19.07.2020
5357 Clouds 23 1016 53 10000 3.1 40 17:22 19.07.2020
5358 Clouds 23 1016 50 10000 3.1 70 16:42 19.07.2020
5359 Clouds 22 1016 53 10000 4.1 70 16:22 19.07.2020
5360 Clouds 23 1016 50 10000 2.1 60 15:59 19.07.2020
5361 Clouds 22 1016 50 10000 2.1 60 15:41 19.07.2020
5362 Clouds 22 1017 53 10000 2.1 50 15:23 19.07.2020
5363 Clouds 22 1017 56 10000 2.1 60 14:45 19.07.2020
5364 Clouds 22 1017 60 10000 2.6 50 14:26 19.07.2020
5365 Clouds 21 1017 56 10000 3.6 90 13:45 19.07.2020
5366 Clouds 21 1018 53 10000 3.6 70 13:23 19.07.2020
5367 Clouds 21 1018 60 10000 3.6 80 12:58 19.07.2020
5368 Clouds 21 1018 60 10000 3.6 80 12:40 19.07.2020
5369 Clouds 19 1018 60 10000 2.1 0 12:21 19.07.2020
5370 Clouds 19 1018 60 10000 2.6 80 11:41 19.07.2020
5371 Clouds 18 1019 59 10000 1.5 0 11:22 19.07.2020
5372 Clouds 17 1019 68 10000 1 0 10:44 19.07.2020
5373 Clouds 16 1019 82 10000 1 0 10:24 19.07.2020
5374 Clouds 15 1020 82 10000 0.5 0 09:59 19.07.2020
5375 Clouds 15 1020 82 10000 0.5 0 09:41 19.07.2020
5376 Clouds 14 1020 82 10000 1 0 09:20 19.07.2020
5377 Clouds 13 1020 93 10000 0.5 0 08:41 19.07.2020
5378 Clouds 14 1020 87 10000 1.5 270 08:23 19.07.2020
5379 Clouds 12 1020 87 10000 1 270 07:39 19.07.2020
5380 Clouds 12 1020 93 10000 0.83 234 07:21 19.07.2020
5381 Clouds 12 1020 87 10000 0.5 0 06:42 19.07.2020
5382 Clouds 13 1020 93 10000 0.5 0 06:18 19.07.2020
5383 Clouds 13 1020 87 10000 0.5 0 05:50 19.07.2020
5384 Clouds 13 1021 87 10000 1 0 03:36 19.07.2020
5385 Clouds 12 1021 87 10000 1.5 80 02:40 19.07.2020
5386 Clouds 12 1021 87 10000 1.5 90 02:21 19.07.2020
5387 Clouds 13 1021 87 10000 2.6 60 01:43 19.07.2020
5388 Clouds 13 1021 82 10000 0.5 0 00:48 19.07.2020
5389 Clouds 13 1021 82 10000 0.5 0 00:21 19.07.2020
5390 Clouds 14 1021 82 10000 0.5 0 23:45 18.07.2020
5391 Clouds 14 1021 82 10000 1 0 23:25 18.07.2020
5392 Clouds 14 1021 82 10000 1 0 22:46 18.07.2020
5393 Clouds 14 1021 82 10000 1 0 22:46 18.07.2020
5394 Clouds 15 1021 82 10000 1.5 80 22:22 18.07.2020
5395 Clouds 15 1021 82 10000 1.5 80 21:59 18.07.2020
5396 Clouds 14 1021 82 10000 1 0 21:41 18.07.2020
5397 Clouds 13 1021 82 10000 2.6 70 21:22 18.07.2020
5398 Clouds 14 1020 77 10000 1.5 90 20:42 18.07.2020
5399 Clouds 14 1020 77 10000 1 0 20:22 18.07.2020
5400 Clouds 14 1020 77 10000 1.5 110 19:59 18.07.2020
5401 Clouds 14 1020 77 10000 1.5 110 19:40 18.07.2020
5402 Clouds 14 1020 77 10000 2.1 140 19:19 18.07.2020
5403 Clouds 14 1020 77 10000 3.6 80 18:42 18.07.2020
5404 Clouds 15 1020 77 10000 3.6 80 18:20 18.07.2020
5405 Clouds 15 1020 72 10000 3.1 100 17:46 18.07.2020
5406 Clouds 15 1020 72 10000 3.6 100 17:21 18.07.2020
5407 Clouds 16 1019 68 10000 2.1 110 16:58 18.07.2020
5408 Clouds 16 1019 68 10000 2.1 110 16:36 18.07.2020
5409 Clouds 16 1019 68 10000 2.1 110 16:36 18.07.2020
5410 Clouds 17 1019 68 10000 3.1 70 16:18 18.07.2020
5411 Clouds 17 1019 68 10000 4.6 60 15:44 18.07.2020
5412 Clouds 17 1019 55 10000 2.1 50 15:25 18.07.2020
5413 Clouds 17 1019 55 10000 1.5 50 14:55 18.07.2020
5414 Clouds 17 1019 55 10000 1.5 50 14:37 18.07.2020
5415 Clouds 17 1019 52 10000 2.1 30 14:18 18.07.2020
5416 Clouds 18 1019 45 10000 2.6 80 13:42 18.07.2020
5417 Clouds 17 1020 52 10000 3.1 70 13:22 18.07.2020
5418 Clouds 17 1020 59 10000 3.1 100 12:55 18.07.2020
5419 Clouds 17 1020 59 10000 3.1 100 12:37 18.07.2020
5420 Clouds 17 1020 68 10000 3.6 60 12:18 18.07.2020
5421 Clouds 17 1020 67 10000 1 0 11:44 18.07.2020
5422 Clouds 15 1020 77 10000 1 0 11:20 18.07.2020
5423 Clouds 15 1021 82 10000 1 0 10:56 18.07.2020
5424 Clouds 15 1021 82 10000 1 0 10:37 18.07.2020
5425 Clouds 13 1021 77 10000 1 0 10:19 18.07.2020
5426 Clouds 13 1021 87 10000 2.6 60 09:42 18.07.2020
5427 Clouds 12 1021 82 10000 1 0 09:24 18.07.2020
5428 Clouds 12 1021 87 10000 2.6 50 08:52 18.07.2020
5429 Clouds 11 1021 93 10000 1.5 250 08:32 18.07.2020
5430 Clouds 10 1021 100 10000 1.5 300 07:57 18.07.2020
5431 Clouds 10 1021 100 10000 1.5 300 07:39 18.07.2020
5432 Clouds 11 1021 93 10000 0.5 0 07:20 18.07.2020
5433 Clouds 11 1021 100 10000 1 320 06:44 18.07.2020
5434 Clouds 12 1021 93 10000 1 360 04:29 18.07.2020
5435 Clouds 12 1021 93 10000 1 360 04:29 18.07.2020
5436 Clouds 12 1021 100 10000 1 0 03:38 18.07.2020
5437 Rain 13 1022 93 8000 1 160 01:45 18.07.2020
5438 Rain 13 1021 93 4000 1 0 01:18 18.07.2020
5439 Drizzle 13 1021 93 6000 3.1 90 00:35 18.07.2020
5440 Clouds 14 1021 87 10000 1.5 90 23:56 17.07.2020
5441 Clouds 14 1021 87 10000 1.5 90 23:38 17.07.2020
5442 Clouds 13 1021 93 10000 2.1 40 23:18 17.07.2020
5443 Clouds 14 1021 87 10000 0.5 0 22:40 17.07.2020
5444 Clouds 12 1021 87 10000 2.1 80 22:20 17.07.2020
5445 Clouds 15 1020 82 10000 2.6 290 21:58 17.07.2020
5446 Clouds 14 1020 82 10000 2.6 290 21:39 17.07.2020
5447 Clouds 14 1020 87 10000 2.1 290 21:19 17.07.2020
5448 Clouds 14 1020 87 10000 2.6 270 20:44 17.07.2020
5449 Clouds 14 1020 82 10000 1 0 20:25 17.07.2020
5450 Clouds 14 1020 82 10000 1.5 360 19:56 17.07.2020
5451 Clouds 14 1020 82 10000 1.5 360 19:38 17.07.2020
5452 Clouds 14 1020 82 10000 0.5 0 19:19 17.07.2020
5453 Rain 14 1020 82 10000 1 0 18:45 17.07.2020
5454 Clouds 15 1020 77 10000 2.1 60 18:24 17.07.2020
5455 Clouds 15 1020 77 10000 1.5 360 17:45 17.07.2020
5456 Clouds 16 1020 72 10000 2.1 350 17:25 17.07.2020
5457 Rain 15 1019 72 10000 1.5 270 16:46 17.07.2020
5458 Rain 15 1019 72 10000 2.09 5 16:23 17.07.2020
5459 Rain 15 1019 77 10000 0.5 0 15:58 17.07.2020
5460 Rain 15 1019 77 10000 0.5 0 15:37 17.07.2020
5461 Clouds 15 1019 82 10000 2.6 80 15:18 17.07.2020
5462 Clouds 16 1019 77 10000 4.1 50 14:40 17.07.2020
5463 Rain 16 1019 77 10000 1 0 14:21 17.07.2020
5464 Rain 16 1019 82 10000 1.5 100 13:55 17.07.2020
5465 Rain 16 1019 82 10000 1.5 100 13:37 17.07.2020
5466 Rain 16 1019 82 10000 2.6 60 13:18 17.07.2020
5467 Rain 15 1019 82 10000 3.1 60 12:39 17.07.2020
5468 Rain 16 1019 82 10000 3.1 60 12:21 17.07.2020
5469 Clouds 16 1019 82 10000 2.1 90 11:54 17.07.2020
5470 Clouds 16 1019 82 10000 2.1 90 11:36 17.07.2020
5471 Clouds 15 1019 87 10000 1.5 90 11:18 17.07.2020
5472 Rain 14 1019 93 10000 1.5 90 10:42 17.07.2020
5473 Rain 14 1019 93 10000 2.6 70 10:23 17.07.2020
5474 Rain 14 1019 93 10000 2.6 60 09:58 17.07.2020
5475 Rain 13 1019 93 10000 2.1 60 09:40 17.07.2020
5476 Rain 13 1019 93 10000 2.1 60 09:20 17.07.2020
5477 Rain 12 1019 93 10000 2.1 80 08:48 17.07.2020
5478 Rain 12 1019 93 10000 2.1 80 08:29 17.07.2020
5479 Rain 12 1019 93 10000 2.6 70 07:57 17.07.2020
5480 Rain 12 1018 93 10000 2.1 90 07:36 17.07.2020
5481 Rain 12 1018 93 10000 2.1 90 07:18 17.07.2020
5482 Rain 12 1018 93 10000 2.1 80 06:38 17.07.2020
5483 Rain 12 1018 100 10000 1.5 60 05:40 17.07.2020
5484 Rain 12 1018 93 10000 2.1 80 03:25 17.07.2020
5485 Rain 12 1019 93 7000 1 0 02:21 17.07.2020
5486 Rain 12 1019 93 10000 1.5 50 00:52 17.07.2020
5487 Rain 12 1019 93 10000 0.5 0 00:24 17.07.2020
5488 Rain 13 1019 93 10000 1 0 23:57 16.07.2020
5489 Rain 13 1019 93 10000 1 0 23:37 16.07.2020
5490 Rain 13 1019 93 10000 1.5 60 23:19 16.07.2020
5491 Rain 14 1019 87 10000 2.6 100 22:45 16.07.2020
5492 Rain 13 1018 93 10000 1.5 80 22:24 16.07.2020
5493 Rain 14 1018 87 10000 1.5 180 21:57 16.07.2020
5494 Rain 14 1018 87 10000 1.5 180 21:38 16.07.2020
5495 Rain 14 1018 87 10000 1 0 21:20 16.07.2020
5496 Rain 14 1018 87 10000 1 0 21:20 16.07.2020
5497 Rain 14 1018 87 10000 1 0 21:20 16.07.2020
5498 Rain 14 1018 87 10000 2.6 60 20:58 16.07.2020
5499 Rain 14 1018 87 10000 2.6 60 20:39 16.07.2020
5500 Rain 14 1018 93 10000 1.5 60 20:21 16.07.2020
5501 Rain 15 1017 82 10000 1.5 70 19:48 16.07.2020
5502 Rain 15 1017 88 10000 2.6 50 19:30 16.07.2020
5503 Rain 15 1017 77 10000 2.6 70 18:57 16.07.2020
5504 Rain 15 1017 77 10000 2.6 70 18:39 16.07.2020
5505 Rain 16 1017 72 10000 4.1 60 18:20 16.07.2020
5506 Clouds 17 1017 72 10000 4.1 60 17:40 16.07.2020
5507 Clouds 18 1017 77 10000 4.1 60 17:19 16.07.2020
5508 Clouds 20 1017 68 10000 1 0 16:58 16.07.2020
5509 Clouds 20 1017 68 10000 1 0 16:39 16.07.2020
5510 Clouds 16 1017 68 10000 0.5 0 16:21 16.07.2020
5511 Clouds 16 1017 68 10000 1 0 15:47 16.07.2020
5512 Clouds 17 1017 68 10000 2.1 50 15:27 16.07.2020
5513 Clouds 16 1017 72 10000 1 0 14:58 16.07.2020
5514 Clouds 17 1017 72 10000 1 0 14:38 16.07.2020
5515 Clouds 19 1018 68 10000 2.6 60 14:19 16.07.2020
5516 Clouds 17 1018 68 10000 1 0 13:58 16.07.2020
5517 Clouds 17 1018 68 10000 1 0 13:37 16.07.2020
5518 Clouds 16 1018 77 10000 1.5 0 13:18 16.07.2020
5519 Clouds 16 1018 77 10000 1 0 12:42 16.07.2020
5520 Clouds 15 1018 82 10000 1 0 12:21 16.07.2020
5521 Clouds 15 1018 82 10000 1 0 11:56 16.07.2020
5522 Clouds 15 1018 82 10000 1 0 11:56 16.07.2020
5523 Clouds 15 1018 82 10000 1 0 11:36 16.07.2020
5524 Clouds 15 1018 82 10000 0.5 0 11:18 16.07.2020
5525 Clouds 14 1018 82 10000 1.5 90 10:42 16.07.2020
5526 Rain 14 1018 87 10000 1.5 70 10:21 16.07.2020
5527 Rain 14 1018 87 10000 1.5 60 09:57 16.07.2020
5528 Rain 14 1019 87 10000 2.1 60 09:39 16.07.2020
5529 Rain 14 1019 87 10000 2.1 60 09:39 16.07.2020
5530 Rain 14 1019 87 10000 2.1 60 09:18 16.07.2020
5531 Rain 13 1018 87 10000 1.5 70 08:41 16.07.2020
5532 Clouds 14 1018 87 10000 2.1 70 08:23 16.07.2020
5533 Rain 13 1018 100 10000 2.1 50 07:47 16.07.2020
5534 Rain 13 1018 93 10000 1 0 07:25 16.07.2020
5535 Rain 13 1018 93 10000 1.5 80 06:49 16.07.2020
5536 Rain 13 1018 93 10000 2.1 60 06:20 16.07.2020
5537 Clouds 13 1018 93 10000 2.1 70 05:55 16.07.2020
5538 Clouds 13 1018 87 10000 1.5 110 05:26 16.07.2020
5539 Clouds 13 1018 87 10000 1.5 90 04:18 16.07.2020
5540 Clouds 13 1018 87 10000 1.5 90 04:18 16.07.2020
5541 Rain 13 1018 87 9000 1 0 03:35 16.07.2020
5542 Clouds 13 1018 93 10000 1 0 02:55 16.07.2020
5543 Clouds 13 1018 93 10000 1 0 02:22 16.07.2020
5544 Clouds 14 1018 93 10000 2.1 100 01:48 16.07.2020
5545 Rain 13 1018 93 10000 0.5 0 00:59 16.07.2020
5546 Clouds 13 1018 93 10000 0.5 0 00:37 16.07.2020
5547 Rain 13 1018 93 10000 0.5 0 23:57 15.07.2020
5548 Rain 13 1018 93 10000 0.5 0 23:39 15.07.2020
5549 Rain 13 1018 93 10000 0.5 0 23:20 15.07.2020
5550 Rain 13 1018 93 10000 0.5 0 23:20 15.07.2020
5551 Clouds 13 1018 93 10000 1 0 22:57 15.07.2020
5552 Clouds 13 1018 93 10000 1 0 22:38 15.07.2020
5553 Clouds 13 1017 93 10000 1 0 22:18 15.07.2020
5554 Clouds 13 1017 93 10000 2.6 60 21:55 15.07.2020
5555 Rain 13 1017 93 10000 2.6 60 21:37 15.07.2020
5556 Rain 13 1017 93 10000 2.6 80 21:18 15.07.2020
5557 Rain 14 1017 87 10000 0.5 0 20:40 15.07.2020
5558 Rain 15 1017 88 10000 3.6 270 20:22 15.07.2020
5559 Clouds 15 1016 72 10000 1.5 70 19:59 15.07.2020
5560 Clouds 15 1015 77 10000 2.1 80 19:40 15.07.2020
5561 Clouds 16 1015 77 10000 2.1 80 19:21 15.07.2020
5562 Rain 16 1015 72 10000 3.1 100 18:59 15.07.2020
5563 Rain 16 1015 68 10000 2.1 80 18:39 15.07.2020
5564 Rain 16 1015 68 10000 2.1 80 18:20 15.07.2020
5565 Rain 16 1015 68 10000 5.1 70 17:56 15.07.2020
5566 Rain 16 1015 68 10000 5.1 70 17:38 15.07.2020
5567 Clouds 18 1014 64 10000 2.1 60 17:19 15.07.2020
5568 Rain 17 1014 72 10000 7.2 250 16:43 15.07.2020
5569 Clouds 18 1013 49 10000 2.1 170 16:24 15.07.2020
5570 Clouds 19 1013 49 10000 2.1 170 15:59 15.07.2020
5571 Clouds 19 1013 46 10000 1.5 70 15:40 15.07.2020
5572 Clouds 19 1013 46 10000 2.6 70 15:22 15.07.2020
5573 Clouds 22 1013 49 10000 2.6 70 14:55 15.07.2020
5574 Clouds 22 1013 49 10000 2.6 70 14:37 15.07.2020
5575 Clouds 20 1013 53 10000 3.1 140 14:18 15.07.2020
5576 Rain 19 1014 53 10000 1 0 13:42 15.07.2020
5577 Rain 19 1014 53 10000 1 0 13:42 15.07.2020
5578 Rain 17 1014 63 10000 4.1 290 13:22 15.07.2020
5579 Rain 18 1014 59 10000 7.2 260 12:56 15.07.2020
5580 Clouds 18 1014 60 10000 6.2 260 12:37 15.07.2020
5581 Clouds 18 1014 60 10000 6.2 260 12:19 15.07.2020
5582 Clouds 17 1014 63 10000 6.2 270 11:44 15.07.2020
5583 Clouds 18 1014 55 10000 5.1 270 11:21 15.07.2020
5584 Clouds 17 1014 63 10000 4.6 270 10:56 15.07.2020
5585 Clouds 17 1014 63 10000 4.6 270 10:38 15.07.2020
5586 Clouds 17 1014 63 10000 3.1 270 10:20 15.07.2020
5587 Clouds 16 1014 72 10000 4.1 280 09:43 15.07.2020
5588 Clouds 15 1014 72 10000 3.6 250 09:25 15.07.2020
5589 Clouds 15 1014 77 10000 2.6 280 08:50 15.07.2020
5590 Clouds 14 1015 77 10000 2.1 270 08:28 15.07.2020
5591 Clouds 13 1015 82 10000 2.6 270 07:55 15.07.2020
5592 Clouds 13 1015 82 10000 1 260 07:33 15.07.2020
5593 Clouds 13 1015 82 10000 1 0 06:55 15.07.2020
5594 Clouds 12 1015 87 10000 1.5 270 06:34 15.07.2020
5595 Clouds 12 1015 87 10000 1.5 270 05:51 15.07.2020
5596 Clouds 13 1015 82 10000 1.5 260 04:42 15.07.2020
5597 Clouds 13 1015 77 10000 1 0 04:22 15.07.2020
5598 Clouds 13 1015 72 10000 1 0 02:29 15.07.2020
5599 Clouds 14 1016 67 10000 3.1 70 01:50 15.07.2020
5600 Clouds 14 1015 67 10000 1.5 80 00:59 15.07.2020
5601 Clouds 14 1015 67 10000 1.5 80 00:41 15.07.2020
5602 Clouds 14 1015 63 10000 3.1 80 00:22 15.07.2020
5603 Clouds 15 1015 59 10000 2.6 0 23:41 14.07.2020
5604 Clouds 15 1015 67 10000 2.1 80 23:21 14.07.2020
5605 Clouds 18 1015 59 10000 1.5 0 22:39 14.07.2020
5606 Clouds 18 1015 59 10000 1.5 0 22:39 14.07.2020
5607 Clouds 17 1014 52 10000 2.1 100 22:19 14.07.2020
5608 Clouds 21 1014 46 10000 2.6 10 21:55 14.07.2020
5609 Clouds 21 1014 46 10000 2.6 10 21:37 14.07.2020
5610 Clouds 21 1014 46 10000 2.6 10 21:37 14.07.2020
5611 Clouds 19 1014 37 10000 2.1 80 21:19 14.07.2020
5612 Clouds 20 1014 40 10000 3.1 20 20:42 14.07.2020
5613 Clouds 23 1013 40 10000 3.1 0 20:22 14.07.2020
5614 Clouds 23 1013 40 10000 5.1 60 19:59 14.07.2020
5615 Clouds 23 1013 40 10000 5.1 60 19:39 14.07.2020
5616 Clouds 23 1013 40 10000 3.6 70 19:20 14.07.2020
5617 Clouds 22 1013 36 10000 3.6 70 18:45 14.07.2020
5618 Clouds 24 1013 36 10000 4.6 50 18:21 14.07.2020
5619 Clouds 25 1013 38 10000 4.1 20 17:58 14.07.2020
5620 Clouds 25 1013 38 10000 4.1 20 17:40 14.07.2020
5621 Clouds 23 1013 33 10000 2.1 360 17:21 14.07.2020
5622 Clouds 23 1013 36 10000 3.1 30 16:56 14.07.2020
5623 Clouds 23 1013 36 10000 3.1 30 16:37 14.07.2020
5624 Clouds 23 1013 31 10000 2.6 60 16:18 14.07.2020
5625 Clouds 23 1013 39 10000 1.5 0 15:44 14.07.2020
5626 Clouds 23 1013 36 10000 2.1 0 15:23 14.07.2020
5627 Clouds 23 1013 31 10000 3.1 60 14:57 14.07.2020
5628 Clouds 23 1013 31 10000 3.1 60 14:39 14.07.2020
5629 Clouds 23 1014 33 10000 2.6 60 14:18 14.07.2020
5630 Clouds 23 1014 38 10000 2.1 150 13:41 14.07.2020
5631 Clouds 22 1015 41 10000 1.5 0 13:23 14.07.2020
5632 Clouds 21 1015 46 10000 1 0 12:56 14.07.2020
5633 Clouds 21 1015 46 10000 1 0 12:36 14.07.2020
5634 Clouds 21 1015 46 10000 1 0 12:18 14.07.2020
5635 Clouds 20 1016 49 10000 0.5 0 11:42 14.07.2020
5636 Clouds 19 1016 52 10000 0.5 0 11:20 14.07.2020
5637 Clouds 18 1017 55 10000 1 0 10:54 14.07.2020
5638 Clouds 18 1017 55 10000 1 0 10:36 14.07.2020
5639 Clouds 18 1017 63 10000 1 0 10:18 14.07.2020
5640 Clouds 17 1018 67 10000 1.5 250 09:39 14.07.2020
5641 Clouds 14 1018 72 10000 1 0 09:20 14.07.2020
5642 Clouds 13 1018 72 10000 1 0 08:44 14.07.2020
5643 Clouds 12 1019 82 10000 1.5 270 08:23 14.07.2020
5644 Clouds 13 1019 82 10000 1 250 07:58 14.07.2020
5645 Clouds 12 1019 81 10000 1 260 07:38 14.07.2020
5646 Clouds 12 1019 81 10000 1 260 07:18 14.07.2020
5647 Clouds 11 1019 87 10000 1 270 06:41 14.07.2020
5648 Clouds 9 1019 87 10000 1 270 06:21 14.07.2020
5649 Clouds 9 1019 87 10000 1 270 05:33 14.07.2020
5650 Clouds 10 1019 81 10000 1 270 04:37 14.07.2020
5651 Clouds 10 1019 87 10000 0.9 228 03:36 14.07.2020
5652 Clouds 11 1019 82 10000 0.5 0 02:49 14.07.2020
5653 Clouds 11 1019 82 10000 0.5 0 02:24 14.07.2020
5654 Clouds 12 1019 76 10000 0.5 0 01:36 14.07.2020
5655 Clouds 13 1019 72 10000 1 0 00:52 14.07.2020
5656 Clouds 13 1019 72 10000 0.5 0 00:33 14.07.2020
5657 Clouds 14 1019 67 10000 0.5 0 23:59 13.07.2020
5658 Clouds 14 1019 67 10000 0.5 0 23:37 13.07.2020
5659 Clouds 15 1019 63 10000 1 0 23:18 13.07.2020
5660 Clouds 18 1019 55 10000 0.5 0 22:41 13.07.2020
5661 Clouds 19 1019 48 10000 0.5 0 22:21 13.07.2020
5662 Clouds 20 1018 49 10000 2.1 80 21:57 13.07.2020
5663 Clouds 20 1018 49 10000 2.1 80 21:39 13.07.2020
5664 Clouds 18 1018 49 10000 3.1 60 21:20 13.07.2020
5665 Clouds 21 1018 49 10000 3.6 50 20:58 13.07.2020
5666 Clouds 21 1018 49 10000 3.6 50 20:39 13.07.2020
5667 Clouds 20 1018 46 10000 6.2 60 20:21 13.07.2020
5668 Clouds 20 1018 46 10000 6.2 80 19:45 13.07.2020
5669 Clouds 20 1017 49 10000 6.7 70 19:26 13.07.2020
5670 Clouds 21 1017 46 10000 7.2 70 18:59 13.07.2020
5671 Clouds 21 1017 46 10000 7.2 70 18:40 13.07.2020
5672 Clouds 22 1017 44 10000 6.2 70 18:22 13.07.2020
5673 Clouds 22 1018 46 10000 7.2 60 17:57 13.07.2020
5674 Clouds 22 1018 46 10000 7.2 60 17:39 13.07.2020
5675 Clouds 22 1018 44 10000 6.7 60 17:20 13.07.2020
5676 Clouds 23 1018 41 10000 6.2 70 16:55 13.07.2020
5677 Clouds 23 1018 41 10000 6.2 70 16:37 13.07.2020
5678 Clouds 23 1018 44 10000 4.1 80 16:18 13.07.2020
5679 Clouds 23 1018 41 10000 4.6 100 15:56 13.07.2020
5680 Clouds 23 1018 41 10000 4.6 100 15:37 13.07.2020
5681 Clouds 23 1018 41 10000 3.1 100 15:18 13.07.2020
5682 Clouds 22 1018 44 10000 3.1 60 14:56 13.07.2020
5683 Clouds 22 1018 44 10000 3.1 60 14:36 13.07.2020
5684 Clouds 22 1019 49 10000 2.6 60 14:18 13.07.2020
5685 Clouds 21 1019 49 10000 3.1 100 13:42 13.07.2020
5686 Clouds 21 1020 49 10000 3.1 100 13:21 13.07.2020
5687 Clouds 20 1020 49 10000 3.1 110 12:54 13.07.2020
5688 Clouds 19 1021 56 10000 3.1 90 12:36 13.07.2020
5689 Clouds 19 1021 56 10000 3.1 90 12:18 13.07.2020
5690 Clouds 18 1021 56 10000 3.1 120 11:40 13.07.2020
5691 Clouds 18 1022 55 10000 1.5 0 11:22 13.07.2020
5692 Clouds 18 1022 55 10000 1.5 0 11:22 13.07.2020
5693 Clouds 16 1022 63 10000 1 0 10:43 13.07.2020
5694 Clouds 17 1022 67 10000 0.5 0 10:21 13.07.2020
5695 Clouds 17 1023 67 10000 0.5 0 09:56 13.07.2020
5696 Clouds 16 1023 67 10000 0.5 0 09:38 13.07.2020
5697 Clouds 14 1023 67 10000 0.5 0 09:18 13.07.2020
5698 Clouds 13 1024 76 10000 0.5 0 08:46 13.07.2020
5699 Clouds 11 1024 82 10000 1.5 250 08:26 13.07.2020
5700 Clouds 12 1024 81 10000 0.53 222 07:22 13.07.2020
5701 Clouds 10 1024 93 10000 1 260 06:53 13.07.2020
5702 Clouds 10 1024 93 10000 1 260 06:35 13.07.2020
5703 Clouds 8 1024 93 10000 1.5 260 05:33 13.07.2020
5704 Clouds 10 1024 81 10000 0.5 0 02:46 13.07.2020
5705 Clear 11 1024 76 10000 1 0 01:43 13.07.2020
5706 Clear 11 1024 76 10000 1 0 01:21 13.07.2020
5707 Clear 12 1024 71 10000 1 0 00:40 13.07.2020
5708 Clouds 12 1024 76 10000 1 0 00:21 13.07.2020
5709 Clouds 13 1024 72 10000 0.5 0 23:43 12.07.2020
5710 Clouds 13 1024 72 10000 1 0 23:23 12.07.2020
5711 Clouds 16 1024 72 10000 1 0 22:56 12.07.2020
5712 Clouds 14 1024 72 10000 1 0 22:37 12.07.2020
5713 Clouds 15 1024 63 10000 1 0 22:18 12.07.2020
5714 Clouds 18 1024 59 10000 2.1 40 21:57 12.07.2020
5715 Clouds 18 1024 59 10000 2.1 40 21:38 12.07.2020
5716 Clouds 16 1024 52 10000 3.6 90 21:19 12.07.2020
5717 Clouds 18 1023 49 10000 6.2 80 20:42 12.07.2020
5718 Clouds 18 1023 49 10000 6.2 70 20:20 12.07.2020
5719 Clouds 18 1023 46 10000 6.2 80 19:59 12.07.2020
5720 Clouds 19 1023 46 10000 7.2 70 19:40 12.07.2020
5721 Clouds 19 1023 46 10000 7.2 70 19:21 12.07.2020
5722 Clouds 19 1023 49 10000 6.2 60 18:55 12.07.2020
5723 Clouds 19 1023 49 10000 6.2 60 18:37 12.07.2020
5724 Clouds 20 1022 46 10000 7.2 70 18:18 12.07.2020
5725 Clouds 20 1023 46 10000 5.7 80 17:38 12.07.2020
5726 Clouds 20 1022 43 10000 5.7 80 17:20 12.07.2020
5727 Clouds 21 1023 40 10000 4.6 90 16:48 12.07.2020
5728 Clouds 21 1023 40 10000 4.6 90 16:23 12.07.2020
5729 Clouds 21 1023 38 10000 3.6 80 15:51 12.07.2020
5730 Clouds 21 1023 37 10000 2.6 0 15:31 12.07.2020
5731 Clouds 21 1023 37 10000 2.6 0 14:59 12.07.2020
5732 Clouds 21 1023 40 10000 2.1 0 14:40 12.07.2020
5733 Clouds 21 1023 43 10000 3.1 70 14:22 12.07.2020
5734 Clouds 20 1024 49 10000 3.1 70 13:40 12.07.2020
5735 Clouds 20 1024 60 10000 2.1 0 13:21 12.07.2020
5736 Clouds 19 1024 56 10000 2.1 0 12:57 12.07.2020
5737 Clouds 19 1024 56 10000 2.1 0 12:39 12.07.2020
5738 Clouds 18 1024 60 10000 1.5 0 12:19 12.07.2020
5739 Clouds 17 1025 59 10000 1.5 0 11:45 12.07.2020
5740 Clouds 17 1025 63 10000 1.5 0 11:21 12.07.2020
5741 Clouds 16 1025 67 10000 1 0 10:57 12.07.2020
5742 Clouds 16 1025 67 10000 1 0 10:39 12.07.2020
5743 Clouds 15 1025 72 10000 0.5 0 10:19 12.07.2020
5744 Clouds 15 1025 72 10000 0.5 0 10:19 12.07.2020
5745 Clouds 14 1026 77 10000 1.5 270 09:43 12.07.2020
5746 Clouds 13 1026 82 10000 2.1 260 09:21 12.07.2020
5747 Clouds 12 1026 87 10000 2.1 270 08:55 12.07.2020
5748 Clouds 12 1026 87 10000 2.1 270 08:37 12.07.2020
5749 Clouds 12 1026 93 10000 2.1 270 08:18 12.07.2020
5750 Clouds 12 1026 93 10000 2.1 270 08:18 12.07.2020
5751 Clouds 12 1026 87 10000 2.1 270 07:46 12.07.2020
5752 Clouds 11 1026 93 10000 2.6 270 07:27 12.07.2020
5753 Clouds 12 1025 87 10000 2.6 270 06:53 12.07.2020
5754 Clouds 12 1025 93 10000 2.1 280 06:22 12.07.2020
5755 Clouds 13 1025 87 10000 2.1 250 05:59 12.07.2020
5756 Clouds 13 1025 93 10000 2.6 270 04:57 12.07.2020
5757 Clouds 13 1025 93 10000 1.5 260 04:28 12.07.2020
5758 Clouds 13 1025 93 10000 0.5 0 03:45 12.07.2020
5759 Clouds 12 1025 93 10000 2.6 270 03:24 12.07.2020
5760 Clouds 11 1025 93 10000 0.31 204 01:54 12.07.2020
5761 Clouds 11 1025 93 10000 1.5 280 01:18 12.07.2020
5762 Clouds 13 1025 93 10000 0.5 0 00:39 12.07.2020
5763 Clouds 12 1025 93 10000 1 0 00:20 12.07.2020
5764 Clouds 13 1025 93 10000 1 140 23:40 11.07.2020
5765 Clouds 13 1025 87 10000 0.5 0 23:20 11.07.2020
5766 Rain 14 1025 93 10000 0.5 0 22:57 11.07.2020
5767 Rain 12 1025 93 10000 0.5 0 22:37 11.07.2020
5768 Rain 12 1025 93 10000 1 0 22:19 11.07.2020
5769 Clouds 14 1024 93 10000 1 0 21:43 11.07.2020
5770 Rain 13 1024 87 10000 1 320 21:24 11.07.2020
5771 Clouds 13 1024 87 10000 0.5 0 20:59 11.07.2020
5772 Clouds 13 1024 87 10000 0.5 0 20:41 11.07.2020
5773 Rain 13 1024 82 10000 1 0 20:21 11.07.2020
5774 Rain 14 1023 77 10000 0.5 0 19:59 11.07.2020
5775 Rain 14 1023 77 10000 0.5 0 19:40 11.07.2020
5776 Rain 14 1023 82 10000 1 0 19:22 11.07.2020
5777 Rain 14 1023 82 10000 2.1 310 18:57 11.07.2020
5778 Rain 14 1023 82 10000 2.1 310 18:39 11.07.2020
5779 Clouds 14 1023 87 10000 2.1 250 18:19 11.07.2020
5780 Rain 14 1023 82 10000 1.5 230 17:55 11.07.2020
5781 Rain 14 1023 82 10000 1.5 230 17:37 11.07.2020
5782 Rain 14 1023 82 10000 1 0 17:19 11.07.2020
5783 Rain 15 1022 82 10000 3.1 70 16:43 11.07.2020
5784 Rain 16 1022 77 10000 1.5 360 16:24 11.07.2020
5785 Clouds 17 1021 77 10000 1 0 15:58 11.07.2020
5786 Clouds 17 1021 77 10000 1 0 15:40 11.07.2020
5787 Rain 16 1022 77 10000 1.5 10 15:20 11.07.2020
5788 Rain 17 1021 72 10000 2.6 70 14:57 11.07.2020
5789 Rain 16 1021 72 10000 2.6 70 14:37 11.07.2020
5790 Clouds 16 1021 72 10000 2.6 60 14:19 11.07.2020
5791 Rain 16 1021 77 10000 2.1 120 13:42 11.07.2020
5792 Rain 16 1021 77 10000 1.5 100 13:22 11.07.2020
5793 Clouds 16 1021 82 10000 2.1 130 12:56 11.07.2020
5794 Clouds 16 1021 82 10000 2.1 130 12:56 11.07.2020
5795 Clouds 17 1021 82 10000 2.1 110 12:37 11.07.2020
5796 Clouds 17 1021 82 10000 2.1 110 12:19 11.07.2020
5797 Rain 14 1021 82 10000 0.5 0 11:41 11.07.2020
5798 Rain 14 1021 82 10000 1 270 11:21 11.07.2020
5799 Rain 14 1021 82 10000 0.5 0 10:57 11.07.2020
5800 Rain 16 1021 82 10000 0.5 0 10:39 11.07.2020
5801 Rain 14 1021 87 10000 1.5 190 10:21 11.07.2020
5802 Rain 14 1021 82 10000 0.5 0 09:43 11.07.2020
5803 Rain 14 1020 93 10000 1 0 09:20 11.07.2020
5804 Rain 14 1020 93 10000 2.1 90 08:47 11.07.2020
5805 Rain 14 1019 87 8000 2.6 90 08:29 11.07.2020
5806 Rain 14 1019 87 7000 1.5 130 07:56 11.07.2020
5807 Rain 15 1018 93 10000 1.5 100 07:37 11.07.2020
5808 Clouds 15 1018 93 10000 1.5 100 07:18 11.07.2020
5809 Rain 14 1017 100 10000 0.5 0 06:28 11.07.2020
5810 Rain 15 1017 93 10000 1 0 05:59 11.07.2020
5811 Rain 15 1017 93 7000 0.5 0 05:20 11.07.2020
5812 Clouds 15 1018 93 10000 0.5 0 04:50 11.07.2020
5813 Clouds 15 1018 93 10000 1.5 230 04:20 11.07.2020
5814 Clouds 15 1018 93 10000 1.5 230 04:20 11.07.2020
5815 Clouds 15 1018 93 10000 1 280 02:55 11.07.2020
5816 Clouds 16 1018 93 10000 2.1 270 02:27 11.07.2020
5817 Clouds 15 1018 93 10000 2.6 70 01:25 11.07.2020
5818 Clouds 15 1018 93 10000 1.5 110 00:57 11.07.2020
5819 Clouds 15 1018 93 10000 1.5 110 00:38 11.07.2020
5820 Clouds 16 1019 93 10000 1.5 340 00:18 11.07.2020
5821 Clouds 16 1019 93 10000 1 0 23:45 10.07.2020
5822 Clouds 16 1018 93 10000 1.5 280 23:26 10.07.2020
5823 Clouds 16 1017 93 10000 0.5 0 22:57 10.07.2020
5824 Clouds 16 1017 93 10000 0.5 0 22:38 10.07.2020
5825 Rain 16 1017 93 10000 1.5 0 22:19 10.07.2020
5826 Rain 16 1017 93 10000 2.6 200 21:40 10.07.2020
5827 Rain 17 1018 93 10000 2.1 150 21:20 10.07.2020
5828 Rain 17 1018 93 10000 2.1 290 20:57 10.07.2020
5829 Rain 16 1018 93 10000 2.1 290 20:38 10.07.2020
5830 Rain 16 1018 93 10000 2.1 290 20:38 10.07.2020
5831 Rain 18 1017 72 10000 8.2 240 20:19 10.07.2020
5832 Clouds 19 1017 60 10000 2.1 0 19:56 10.07.2020
5833 Clouds 19 1017 60 10000 2.1 0 19:56 10.07.2020
5834 Clouds 20 1017 60 10000 2.1 0 19:38 10.07.2020
5835 Clouds 19 1015 73 10000 2.1 0 19:18 10.07.2020
5836 Clouds 20 1015 73 10000 3.1 250 18:41 10.07.2020
5837 Rain 22 1014 73 10000 2.1 0 18:19 10.07.2020
5838 Rain 22 1014 77 10000 4.1 60 17:56 10.07.2020
5839 Rain 22 1014 77 10000 4.1 60 17:38 10.07.2020
5840 Clouds 22 1014 88 10000 2.6 0 17:19 10.07.2020
5841 Rain 23 1014 77 10000 2.1 0 16:42 10.07.2020
5842 Thunderstorm 25 1013 69 10000 4.1 280 16:20 10.07.2020
5843 Clouds 28 1011 40 10000 3.6 60 15:45 10.07.2020
5844 Clouds 29 1011 38 10000 2.6 100 15:23 10.07.2020
5845 Clouds 28 1012 38 10000 1 0 14:55 10.07.2020
5846 Clouds 29 1012 38 10000 1 0 14:37 10.07.2020
5847 Clouds 28 1012 42 10000 0.5 0 14:19 10.07.2020
5848 Clouds 28 1013 42 10000 1.5 0 13:56 10.07.2020
5849 Clouds 28 1013 42 10000 1.5 0 13:37 10.07.2020
5850 Clouds 28 1013 42 10000 1.5 0 13:37 10.07.2020
5851 Clouds 28 1013 48 10000 1 0 13:19 10.07.2020
5852 Clouds 28 1013 45 10000 1 0 12:43 10.07.2020
5853 Clouds 26 1014 44 10000 1.5 270 12:24 10.07.2020
5854 Clouds 26 1015 44 10000 1 0 11:59 10.07.2020
5855 Clouds 26 1015 44 10000 1 0 11:38 10.07.2020
5856 Clouds 24 1016 53 10000 2.6 270 11:19 10.07.2020
5857 Clouds 24 1016 53 10000 2.6 270 10:55 10.07.2020
5858 Clouds 23 1016 56 10000 2.6 270 10:36 10.07.2020
5859 Clouds 23 1016 56 10000 2.6 270 10:18 10.07.2020
5860 Clouds 20 1017 60 10000 2.6 270 09:38 10.07.2020
5861 Clouds 19 1017 60 10000 2.6 270 09:19 10.07.2020
5862 Clouds 19 1017 68 10000 2.1 280 08:57 10.07.2020
5863 Clouds 19 1017 68 10000 2.1 280 08:38 10.07.2020
5864 Clear 18 1017 68 10000 1.5 260 08:20 10.07.2020
5865 Clear 18 1018 77 10000 1.5 280 07:42 10.07.2020
5866 Clear 17 1018 82 10000 0.5 0 07:22 10.07.2020
5867 Clear 16 1018 87 10000 1.5 210 06:49 10.07.2020
5868 Clear 16 1017 82 10000 1 0 05:58 10.07.2020
5869 Clear 13 1017 87 10000 1.5 270 04:39 10.07.2020
5870 Clear 14 1017 82 10000 1 270 03:37 10.07.2020
5871 Clear 15 1018 77 10000 1 0 02:52 10.07.2020
5872 Clouds 15 1017 77 10000 0.5 0 01:49 10.07.2020
5873 Clouds 16 1017 77 10000 0.5 0 00:48 10.07.2020
5874 Clouds 17 1017 72 10000 0.5 0 00:20 10.07.2020
5875 Clouds 17 1017 72 9000 0.5 0 23:46 09.07.2020
5876 Clouds 18 1017 72 10000 1 0 23:22 09.07.2020
5877 Clouds 19 1017 72 10000 1 270 22:58 09.07.2020
5878 Clouds 20 1017 72 10000 1 270 22:40 09.07.2020
5879 Clouds 20 1016 64 10000 0.5 0 22:21 09.07.2020
5880 Clouds 21 1016 56 10000 0.5 0 21:56 09.07.2020
5881 Clouds 23 1016 56 10000 0.5 0 21:38 09.07.2020
5882 Clouds 23 1016 56 10000 0.5 0 21:38 09.07.2020
5883 Clouds 22 1015 57 10000 0.5 0 21:19 09.07.2020
5884 Clouds 23 1015 57 10000 2.1 10 20:45 09.07.2020
5885 Clouds 25 1015 50 10000 2.6 60 20:25 09.07.2020
5886 Clouds 27 1015 45 10000 3.6 70 19:58 09.07.2020
5887 Clouds 28 1015 45 10000 3.6 70 19:40 09.07.2020
5888 Clouds 27 1015 39 10000 4.1 80 19:21 09.07.2020
5889 Clouds 28 1014 39 10000 4.6 90 18:42 09.07.2020
5890 Clouds 27 1014 39 10000 4.6 90 18:22 09.07.2020
5891 Clouds 27 1014 39 10000 4.6 90 18:22 09.07.2020
5892 Clouds 27 1015 39 10000 5.7 80 17:56 09.07.2020
5893 Clouds 27 1015 39 10000 5.7 80 17:37 09.07.2020
5894 Clouds 27 1015 37 10000 5.1 90 17:18 09.07.2020
5895 Clouds 27 1015 35 10000 4.1 70 16:55 09.07.2020
5896 Clouds 27 1015 35 10000 4.1 70 16:37 09.07.2020
5897 Clouds 27 1015 34 10000 4.1 100 16:19 09.07.2020
5898 Clouds 27 1016 34 10000 3.6 60 15:54 09.07.2020
5899 Clouds 27 1016 34 10000 3.6 60 15:36 09.07.2020
5900 Clouds 28 1016 32 10000 3.1 60 15:18 09.07.2020
5901 Clouds 28 1016 34 10000 3.1 90 14:54 09.07.2020
5902 Clouds 28 1016 34 10000 3.1 90 14:36 09.07.2020
5903 Clouds 27 1017 36 10000 3.1 70 14:18 09.07.2020
5904 Clouds 27 1017 41 10000 3.6 60 13:41 09.07.2020
5905 Clouds 26 1018 36 10000 2.6 60 13:21 09.07.2020
5906 Clouds 25 1018 38 10000 1.5 0 12:58 09.07.2020
5907 Clouds 25 1018 38 10000 1.5 0 12:39 09.07.2020
5908 Clouds 23 1018 41 10000 1.5 0 12:20 09.07.2020
5909 Clouds 22 1019 46 10000 1 0 11:54 09.07.2020
5910 Clouds 23 1019 46 10000 1 0 11:36 09.07.2020
5911 Clear 23 1019 49 10000 0.5 0 11:18 09.07.2020
5912 Clear 22 1020 49 10000 1 0 10:42 09.07.2020
5913 Clear 20 1020 56 10000 1 0 10:23 09.07.2020
5914 Clear 19 1020 59 10000 1.5 280 09:58 09.07.2020
5915 Clear 19 1020 59 10000 1.5 280 09:40 09.07.2020
5916 Clear 19 1020 59 10000 1.5 280 09:40 09.07.2020
5917 Clear 17 1021 59 10000 1 0 09:21 09.07.2020
5918 Clear 16 1021 67 10000 1.5 260 08:44 09.07.2020
5919 Clouds 16 1021 77 10000 2.1 270 08:25 09.07.2020
5920 Clouds 15 1021 76 10000 2.6 260 07:47 09.07.2020
5921 Clouds 15 1021 76 10000 1.5 290 07:22 09.07.2020
5922 Clouds 14 1020 82 10000 1 260 06:53 09.07.2020
5923 Clouds 10 1020 81 10000 0.5 0 06:19 09.07.2020
5924 Clouds 11 1020 82 10000 1 300 04:29 09.07.2020
5925 Clouds 12 1020 71 10000 1 250 03:48 09.07.2020
5926 Clouds 13 1020 72 10000 0.5 0 02:20 09.07.2020
5927 Clouds 13 1020 72 10000 1 0 01:37 09.07.2020
5928 Clouds 15 1020 67 10000 0.5 0 00:49 09.07.2020
5929 Clouds 15 1020 63 10000 0.5 0 00:24 09.07.2020
5930 Clouds 15 1019 63 10000 0.5 0 23:46 08.07.2020
5931 Clouds 16 1019 63 10000 1.5 310 23:28 08.07.2020
5932 Clouds 18 1018 52 10000 1.5 360 22:58 08.07.2020
5933 Clouds 20 1018 52 10000 1.5 360 22:40 08.07.2020
5934 Clouds 19 1018 46 10000 2.1 60 22:22 08.07.2020
5935 Clouds 22 1018 46 10000 2.1 0 21:58 08.07.2020
5936 Clouds 22 1018 46 10000 2.1 0 21:58 08.07.2020
5937 Clouds 22 1018 46 10000 2.1 0 21:38 08.07.2020
5938 Clear 21 1017 38 10000 2.6 50 21:20 08.07.2020
5939 Clear 21 1017 43 10000 2.1 30 20:54 08.07.2020
5940 Clear 23 1017 43 10000 2.1 30 20:36 08.07.2020
5941 Clouds 23 1016 44 10000 2.6 40 20:18 08.07.2020
5942 Clouds 24 1016 36 10000 4.1 80 19:42 08.07.2020
5943 Clouds 24 1015 39 10000 5.1 90 19:22 08.07.2020
5944 Clouds 24 1015 41 10000 4.6 70 18:57 08.07.2020
5945 Clouds 24 1015 41 10000 4.6 70 18:39 08.07.2020
5946 Clouds 25 1015 36 10000 4.6 100 18:19 08.07.2020
5947 Clouds 25 1015 36 10000 3.6 100 17:55 08.07.2020
5948 Clouds 25 1015 36 10000 3.6 100 17:37 08.07.2020
5949 Clouds 25 1015 39 10000 4.1 60 17:18 08.07.2020
5950 Clouds 25 1015 34 10000 3.6 50 16:39 08.07.2020
5951 Clouds 25 1015 34 10000 3.1 70 16:20 08.07.2020
5952 Clouds 25 1015 34 10000 3.1 70 15:59 08.07.2020
5953 Clouds 25 1015 39 10000 2.6 70 15:41 08.07.2020
5954 Clouds 25 1015 39 10000 2.6 60 15:19 08.07.2020
5955 Clouds 24 1015 41 10000 3.1 60 14:49 08.07.2020
5956 Clouds 24 1016 41 10000 2.1 110 14:30 08.07.2020
5957 Clouds 23 1016 41 10000 2.1 0 13:59 08.07.2020
5958 Clouds 23 1016 41 10000 2.1 0 13:41 08.07.2020
5959 Clouds 23 1017 44 10000 1 0 13:22 08.07.2020
5960 Clouds 21 1017 46 10000 2.1 60 12:44 08.07.2020
5961 Clouds 21 1018 49 10000 1.5 0 12:21 08.07.2020
5962 Clouds 20 1018 49 10000 1 0 11:57 08.07.2020
5963 Clouds 20 1018 49 10000 1 0 11:38 08.07.2020
5964 Clouds 19 1018 52 10000 1 0 11:20 08.07.2020
5965 Clouds 18 1019 52 10000 0.5 0 10:45 08.07.2020
5966 Clouds 18 1019 52 10000 0.5 0 10:45 08.07.2020
5967 Clouds 19 1019 55 10000 0.5 0 10:26 08.07.2020
5968 Clouds 17 1019 63 10000 1 0 09:47 08.07.2020
5969 Clouds 14 1020 67 10000 1 0 09:26 08.07.2020
5970 Clouds 14 1020 67 10000 1 0 08:59 08.07.2020
5971 Clear 14 1020 71 10000 1.5 260 08:39 08.07.2020
5972 Clouds 14 1020 76 10000 1.5 260 08:20 08.07.2020
5973 Clouds 13 1020 76 10000 1 0 07:46 08.07.2020
5974 Clouds 12 1020 81 10000 1 270 07:23 08.07.2020
5975 Clouds 12 1020 81 10000 0.5 0 06:54 08.07.2020
5976 Clouds 11 1020 81 10000 0.5 0 06:35 08.07.2020
5977 Clouds 8 1020 87 10000 0.5 0 05:54 08.07.2020
5978 Clouds 9 1020 81 10000 0.5 0 05:18 08.07.2020
5979 Clouds 9 1020 81 10000 0.5 0 04:27 08.07.2020
5980 Clear 11 1020 76 10000 0.5 0 02:20 08.07.2020
5981 Clear 11 1020 76 10000 1 0 01:45 08.07.2020
5982 Clear 12 1019 71 10000 1 0 00:59 08.07.2020
5983 Clear 12 1020 71 10000 1 280 00:25 08.07.2020
5984 Clear 12 1019 71 10000 1 0 23:55 07.07.2020
5985 Clear 12 1019 71 10000 1 0 23:37 07.07.2020
5986 Clear 15 1019 67 10000 0.5 0 23:18 07.07.2020
5987 Clouds 17 1019 59 10000 1 0 22:41 07.07.2020
5988 Clouds 17 1018 59 10000 1 0 22:21 07.07.2020
5989 Clouds 18 1018 55 10000 1.5 30 21:59 07.07.2020
5990 Clouds 18 1018 55 10000 1.5 30 21:59 07.07.2020
5991 Clouds 18 1018 55 10000 1.5 30 21:39 07.07.2020
5992 Clouds 16 1017 59 10000 2.1 80 21:21 07.07.2020
5993 Clouds 18 1017 49 10000 1.5 40 20:57 07.07.2020
5994 Clouds 18 1017 49 10000 1.5 40 20:38 07.07.2020
5995 Clouds 19 1017 43 10000 5.7 80 20:20 07.07.2020
5996 Clouds 20 1017 40 10000 5.7 80 19:40 07.07.2020
5997 Clouds 20 1016 40 10000 5.1 80 19:21 07.07.2020
5998 Clouds 21 1017 38 10000 5.1 70 18:56 07.07.2020
5999 Clouds 21 1017 38 10000 5.1 70 18:38 07.07.2020
6000 Clouds 21 1017 35 10000 5.7 80 18:19 07.07.2020
6001 Clouds 21 1017 33 10000 4.1 70 17:57 07.07.2020
6002 Clouds 21 1017 33 10000 4.1 70 17:38 07.07.2020
6003 Clouds 21 1017 38 10000 3.6 50 17:20 07.07.2020
6004 Clouds 21 1017 35 10000 2.6 70 16:43 07.07.2020
6005 Clouds 21 1017 33 10000 2.6 80 16:24 07.07.2020
6006 Clouds 21 1018 37 10000 3.6 40 15:58 07.07.2020
6007 Clouds 21 1018 37 10000 3.6 40 15:38 07.07.2020
6008 Clouds 20 1018 35 10000 3.1 0 15:20 07.07.2020
6009 Clouds 20 1018 35 10000 3.1 0 15:20 07.07.2020
6010 Clouds 20 1018 35 10000 2.6 0 14:46 07.07.2020
6011 Clouds 20 1018 35 10000 2.6 0 14:46 07.07.2020
6012 Clouds 20 1019 35 10000 3.1 110 14:25 07.07.2020
6013 Clouds 20 1019 35 10000 3.1 110 14:25 07.07.2020
6014 Clouds 19 1019 34 10000 3.6 120 13:46 07.07.2020
6015 Clouds 18 1019 40 10000 3.6 120 13:22 07.07.2020
6016 Clouds 18 1020 42 10000 3.1 80 12:59 07.07.2020
6017 Clouds 18 1020 42 10000 3.1 80 12:40 07.07.2020
6018 Clouds 17 1020 39 10000 3.1 50 12:22 07.07.2020
6019 Clouds 16 1020 42 10000 1.5 0 11:49 07.07.2020
6020 Clouds 16 1021 48 10000 2.6 130 11:25 07.07.2020
6021 Clouds 15 1021 51 10000 1.5 0 10:59 07.07.2020
6022 Clouds 15 1021 51 10000 1.5 0 10:41 07.07.2020
6023 Clouds 16 1021 51 10000 2.1 90 10:21 07.07.2020
6024 Clouds 15 1022 59 10000 1.5 0 09:55 07.07.2020
6025 Clouds 14 1022 67 10000 1 0 09:37 07.07.2020
6026 Clouds 14 1022 67 10000 1 0 09:18 07.07.2020
6027 Clouds 12 1022 67 10000 1 0 08:41 07.07.2020
6028 Clouds 12 1022 76 10000 1 0 08:22 07.07.2020
6029 Clouds 10 1022 81 10000 0.36 70 07:42 07.07.2020
6030 Clouds 10 1022 87 10000 1 0 07:22 07.07.2020
6031 Clouds 10 1022 81 10000 1 180 06:49 07.07.2020
6032 Clouds 9 1022 87 10000 0.5 0 06:28 07.07.2020
6033 Clouds 10 1022 93 10000 1 280 05:53 07.07.2020
6034 Clouds 11 1022 93 10000 1.5 260 05:22 07.07.2020
6035 Clouds 11 1021 87 10000 1 0 04:38 07.07.2020
6036 Clouds 12 1021 93 10000 0.5 0 03:35 07.07.2020
6037 Clouds 11 1022 87 10000 1.5 0 02:21 07.07.2020
6038 Clouds 12 1021 87 10000 1.85 4 01:22 07.07.2020
6039 Rain 12 1022 87 10000 1 0 00:43 07.07.2020
6040 Rain 12 1021 82 10000 1.5 320 00:24 07.07.2020
6041 Clouds 15 1021 72 10000 5.1 70 23:55 06.07.2020
6042 Clouds 15 1021 72 10000 5.1 70 23:36 06.07.2020
6043 Rain 13 1020 77 10000 1 0 23:18 06.07.2020
6044 Clouds 13 1019 77 10000 1.5 260 22:40 06.07.2020
6045 Clouds 14 1019 72 10000 2.1 290 22:20 06.07.2020
6046 Clouds 15 1019 63 10000 1.5 170 21:57 06.07.2020
6047 Clouds 15 1019 63 10000 1.5 170 21:38 06.07.2020
6048 Clouds 15 1018 63 10000 1.5 0 21:19 06.07.2020
6049 Clouds 17 1018 63 10000 1.5 0 20:59 06.07.2020
6050 Clouds 17 1018 72 10000 1.5 320 20:37 06.07.2020
6051 Clouds 15 1018 63 10000 3.1 40 20:19 06.07.2020
6052 Clouds 15 1017 67 10000 4.1 50 19:56 06.07.2020
6053 Clouds 15 1016 72 10000 4.1 70 19:37 06.07.2020
6054 Clouds 15 1016 72 10000 4.1 70 19:19 06.07.2020
6055 Rain 17 1016 72 10000 5.1 80 18:41 06.07.2020
6056 Rain 19 1015 63 10000 8.2 100 18:23 06.07.2020
6057 Clouds 20 1014 60 10000 7.2 90 17:59 06.07.2020
6058 Clouds 20 1014 60 10000 7.2 90 17:40 06.07.2020
6059 Clouds 20 1014 60 10000 7.2 90 17:40 06.07.2020
6060 Clouds 20 1014 64 10000 8.2 90 17:20 06.07.2020
6061 Clouds 22 1013 56 10000 6.7 80 16:44 06.07.2020
6062 Clouds 23 1013 53 10000 5.7 80 16:25 06.07.2020
6063 Clouds 25 1012 50 10000 5.1 40 15:59 06.07.2020
6064 Clouds 25 1012 50 10000 5.1 40 15:41 06.07.2020
6065 Clouds 25 1012 53 10000 6.2 80 15:23 06.07.2020
6066 Clouds 25 1012 50 10000 6.7 60 14:55 06.07.2020
6067 Clouds 25 1012 50 10000 6.7 60 14:37 06.07.2020
6068 Clouds 28 1011 45 10000 2.6 90 14:18 06.07.2020
6069 Clouds 28 1012 48 10000 3.6 0 13:44 06.07.2020
6070 Clouds 24 1012 51 10000 2.6 70 13:26 06.07.2020
6071 Clouds 23 1012 47 10000 2.1 60 12:56 06.07.2020
6072 Clouds 23 1012 47 10000 2.1 60 12:38 06.07.2020
6073 Clouds 23 1013 50 10000 1 0 12:18 06.07.2020
6074 Clouds 24 1013 47 10000 1 0 11:57 06.07.2020
6075 Clouds 22 1013 57 10000 1 0 11:36 06.07.2020
6076 Clouds 22 1013 57 10000 1 0 11:18 06.07.2020
6077 Clouds 22 1014 56 10000 1 0 10:41 06.07.2020
6078 Clouds 21 1014 64 10000 1.5 270 10:21 06.07.2020
6079 Clouds 20 1015 68 10000 0.5 0 09:55 06.07.2020
6080 Clouds 20 1015 68 10000 0.5 0 09:37 06.07.2020
6081 Clouds 19 1015 72 10000 0.5 0 09:19 06.07.2020
6082 Clouds 18 1016 72 10000 0.5 0 08:41 06.07.2020
6083 Clouds 17 1016 82 10000 1 0 08:22 06.07.2020
6084 Clouds 16 1016 82 10000 1 250 07:53 06.07.2020
6085 Clouds 15 1016 82 10000 1 250 07:31 06.07.2020
6086 Clouds 14 1016 93 10000 1.5 270 06:56 06.07.2020
6087 Clouds 16 1016 93 10000 1.5 270 06:37 06.07.2020
6088 Clouds 14 1017 87 10000 1.5 260 05:56 06.07.2020
6089 Clouds 15 1017 87 10000 1.5 260 05:29 06.07.2020
6090 Clouds 15 1017 87 10000 1 250 04:33 06.07.2020
6091 Clear 15 1017 82 10000 1 0 02:44 06.07.2020
6092 Clouds 16 1017 88 10000 0.5 0 01:59 06.07.2020
6093 Clouds 17 1017 77 10000 0.5 0 00:51 06.07.2020
6094 Clouds 17 1017 77 10000 0.78 201 00:25 06.07.2020
6095 Clouds 18 1017 72 10000 0.5 0 23:58 05.07.2020
6096 Clouds 18 1017 72 10000 0.5 0 23:39 05.07.2020
6097 Clouds 19 1017 68 10000 0.5 0 23:21 05.07.2020
6098 Clouds 22 1017 64 10000 1 0 22:58 05.07.2020
6099 Clouds 22 1017 64 10000 1 0 22:37 05.07.2020
6100 Clouds 20 1017 64 10000 1.5 300 22:19 05.07.2020
6101 Clouds 23 1016 60 10000 1 310 21:55 05.07.2020
6102 Clouds 23 1016 60 10000 1 310 21:37 05.07.2020
6103 Clouds 22 1016 57 10000 1 300 21:18 05.07.2020
6104 Clouds 23 1016 60 10000 1.5 360 20:41 05.07.2020
6105 Clouds 25 1015 47 10000 3.1 30 20:23 05.07.2020
6106 Clouds 27 1015 47 10000 4.1 50 19:58 05.07.2020
6107 Clouds 26 1015 47 10000 4.1 50 19:40 05.07.2020
6108 Clouds 26 1015 42 10000 4.6 40 19:19 05.07.2020
6109 Clouds 29 1015 37 10000 3.1 70 18:42 05.07.2020
6110 Clouds 27 1015 39 10000 3.1 70 18:23 05.07.2020
6111 Clouds 27 1015 37 10000 3.1 90 17:59 05.07.2020
6112 Clouds 27 1015 37 10000 3.1 90 17:41 05.07.2020
6113 Clouds 27 1016 35 10000 2.6 30 17:19 05.07.2020
6114 Clouds 28 1016 35 10000 1.5 50 16:44 05.07.2020
6115 Clouds 27 1016 30 10000 2.6 160 16:25 05.07.2020
6116 Clouds 27 1017 35 10000 2.1 0 15:58 05.07.2020
6117 Clouds 27 1017 35 10000 2.1 0 15:38 05.07.2020
6118 Clouds 26 1017 37 10000 2.1 0 15:19 05.07.2020
6119 Clouds 26 1017 39 10000 2.6 30 14:42 05.07.2020
6120 Clouds 26 1018 34 10000 2.6 60 14:23 05.07.2020
6121 Clouds 25 1018 39 10000 2.1 130 13:58 05.07.2020
6122 Clouds 25 1018 39 10000 2.1 130 13:39 05.07.2020
6123 Clouds 25 1019 44 10000 1.5 0 13:19 05.07.2020
6124 Clouds 24 1019 44 10000 1 0 12:40 05.07.2020
6125 Clouds 23 1019 47 10000 1 0 12:20 05.07.2020
6126 Clouds 22 1020 53 10000 1 0 11:55 05.07.2020
6127 Clouds 22 1020 53 10000 1 0 11:36 05.07.2020
6128 Clouds 22 1020 53 10000 0.5 0 11:18 05.07.2020
6129 Clouds 20 1021 56 10000 1 0 10:42 05.07.2020
6130 Clouds 20 1021 56 10000 1.5 260 10:20 05.07.2020
6131 Clouds 20 1021 56 10000 1.5 260 09:59 05.07.2020
6132 Clouds 19 1021 68 10000 2.1 260 09:40 05.07.2020
6133 Clouds 16 1021 77 10000 2.1 280 09:20 05.07.2020
6134 Clouds 16 1022 72 10000 1.5 270 08:51 05.07.2020
6135 Clouds 16 1022 72 10000 1.5 270 08:33 05.07.2020
6136 Clouds 13 1022 82 10000 1.5 290 07:49 05.07.2020
6137 Clouds 14 1022 87 10000 1.5 260 07:30 05.07.2020
6138 Clouds 14 1022 93 10000 2.1 270 06:53 05.07.2020
6139 Clouds 11 1022 93 10000 1 0 05:58 05.07.2020
6140 Clouds 12 1022 87 10000 1 250 03:37 05.07.2020
6141 Clouds 13 1022 82 10000 0.5 0 02:46 05.07.2020
6142 Clouds 13 1022 87 10000 0.88 236 02:28 05.07.2020
6143 Clouds 13 1021 87 10000 0.5 0 01:41 05.07.2020
6144 Clouds 14 1021 82 10000 1 0 01:20 05.07.2020
6145 Clouds 14 1021 82 10000 0.5 0 00:41 05.07.2020
6146 Clouds 15 1021 77 10000 1 0 00:23 05.07.2020
6147 Clouds 15 1021 77 10000 1 0 00:23 05.07.2020
6148 Clouds 15 1021 77 10000 0.5 0 23:48 04.07.2020
6149 Clouds 18 1021 72 10000 0.5 0 23:30 04.07.2020
6150 Clouds 19 1020 68 10000 0.5 0 22:57 04.07.2020
6151 Clouds 18 1020 68 10000 0.5 0 22:38 04.07.2020
6152 Clouds 18 1020 68 10000 1 0 22:20 04.07.2020
6153 Clouds 20 1019 64 10000 1 0 21:43 04.07.2020
6154 Clouds 20 1019 56 10000 1.5 350 21:24 04.07.2020
6155 Clouds 21 1019 56 10000 1.5 350 20:59 04.07.2020
6156 Clouds 22 1018 56 10000 1.5 50 20:41 04.07.2020
6157 Clouds 22 1018 49 10000 5.1 60 20:20 04.07.2020
6158 Clouds 22 1018 50 10000 5.1 70 19:45 04.07.2020
6159 Clouds 23 1018 44 10000 3.6 80 19:22 04.07.2020
6160 Clouds 24 1018 39 10000 3.1 80 18:59 04.07.2020
6161 Clouds 24 1018 36 10000 3.1 70 18:41 04.07.2020
6162 Clouds 24 1018 36 10000 3.1 70 18:21 04.07.2020
6163 Clouds 24 1018 41 10000 2.1 0 17:44 04.07.2020
6164 Clouds 24 1018 36 10000 2.6 0 17:26 04.07.2020
6165 Clouds 26 1018 39 10000 3.1 80 16:58 04.07.2020
6166 Clouds 24 1018 34 10000 2.1 80 16:38 04.07.2020
6167 Clouds 24 1018 34 10000 2.1 80 16:20 04.07.2020
6168 Clouds 23 1018 41 10000 2.1 120 15:56 04.07.2020
6169 Clouds 23 1018 41 10000 2.1 120 15:37 04.07.2020
6170 Clouds 23 1019 41 10000 1.5 0 15:19 04.07.2020
6171 Clouds 22 1019 41 10000 1 0 14:38 04.07.2020
6172 Clouds 22 1020 43 10000 1 0 14:20 04.07.2020
6173 Clouds 22 1020 43 10000 1 0 13:59 04.07.2020
6174 Clouds 21 1020 46 10000 1 0 13:41 04.07.2020
6175 Clouds 20 1020 46 10000 1 0 13:18 04.07.2020
6176 Clouds 20 1021 52 10000 0.5 0 12:43 04.07.2020
6177 Clouds 19 1021 60 10000 1 0 12:22 04.07.2020
6178 Clouds 19 1021 60 10000 2.1 270 11:57 04.07.2020
6179 Clouds 19 1021 60 10000 2.1 270 11:38 04.07.2020
6180 Clouds 18 1021 63 10000 1.5 270 11:19 04.07.2020
6181 Clouds 18 1021 60 10000 1 0 10:42 04.07.2020
6182 Clouds 17 1022 68 10000 1 0 10:22 04.07.2020
6183 Clouds 16 1022 72 10000 0.5 0 09:59 04.07.2020
6184 Clouds 16 1022 72 10000 0.5 0 09:40 04.07.2020
6185 Clouds 15 1022 72 10000 0.5 0 09:20 04.07.2020
6186 Clouds 14 1022 77 10000 0.5 0 08:50 04.07.2020
6187 Clouds 14 1022 77 10000 0.5 0 08:32 04.07.2020
6188 Clouds 13 1022 82 10000 1 0 07:55 04.07.2020
6189 Clouds 13 1022 82 10000 1 0 07:36 04.07.2020
6190 Clouds 13 1022 87 10000 2.1 70 06:57 04.07.2020
6191 Clouds 12 1022 87 10000 1 0 06:23 04.07.2020
6192 Clouds 12 1022 87 10000 1.5 90 05:41 04.07.2020
6193 Clouds 13 1021 82 10000 2.1 50 04:57 04.07.2020
6194 Clouds 13 1021 87 10000 1 0 03:34 04.07.2020
6195 Clouds 15 1021 87 10000 0.5 0 02:39 04.07.2020
6196 Clouds 13 1021 87 10000 0.5 0 01:38 04.07.2020
6197 Clouds 14 1022 82 10000 1 160 00:47 04.07.2020
6198 Clouds 14 1021 82 10000 0.5 0 00:29 04.07.2020
6199 Clouds 14 1021 82 10000 0.5 0 23:54 03.07.2020
6200 Clouds 14 1021 82 10000 0.5 0 23:36 03.07.2020
6201 Clouds 14 1021 82 10000 0.5 0 23:36 03.07.2020
6202 Clouds 14 1021 82 10000 0.5 0 23:18 03.07.2020
6203 Clouds 14 1021 82 10000 0.5 0 22:41 03.07.2020
6204 Clouds 15 1021 77 10000 0.5 0 22:23 03.07.2020
6205 Clouds 15 1021 77 10000 1 0 21:56 03.07.2020
6206 Clouds 16 1021 77 10000 1 0 21:37 03.07.2020
6207 Clouds 15 1020 77 10000 1 0 21:18 03.07.2020
6208 Clouds 15 1020 77 10000 1 0 21:18 03.07.2020
6209 Clouds 15 1020 77 10000 1 260 20:42 03.07.2020
6210 Clouds 16 1020 68 10000 2.6 250 20:24 03.07.2020
6211 Clouds 16 1020 72 10000 1 0 19:42 03.07.2020
6212 Clouds 16 1019 72 10000 2.1 270 19:22 03.07.2020
6213 Rain 16 1019 72 10000 3.1 270 18:58 03.07.2020
6214 Clouds 17 1019 63 10000 1.5 290 18:40 03.07.2020
6215 Clouds 17 1019 63 10000 1.5 290 18:22 03.07.2020
6216 Clouds 17 1019 68 10000 1 0 17:45 03.07.2020
6217 Clouds 17 1019 63 10000 2.1 270 17:23 03.07.2020
6218 Clouds 17 1019 72 10000 2.1 220 16:58 03.07.2020
6219 Clouds 17 1019 72 10000 2.1 220 16:39 03.07.2020
6220 Clouds 17 1019 68 10000 1.5 330 16:20 03.07.2020
6221 Clouds 17 1019 68 10000 2.1 20 15:42 03.07.2020
6222 Clouds 17 1019 68 10000 3.1 30 15:22 03.07.2020
6223 Clouds 17 1019 63 10000 1.5 0 14:55 03.07.2020
6224 Clouds 18 1019 63 10000 1.5 0 14:36 03.07.2020
6225 Clouds 18 1019 63 10000 2.1 50 14:18 03.07.2020
6226 Clouds 17 1020 68 10000 2.1 0 13:41 03.07.2020
6227 Clouds 17 1020 72 10000 2.1 120 13:22 03.07.2020
6228 Clouds 15 1020 77 10000 1 0 12:44 03.07.2020
6229 Clouds 14 1020 82 10000 1.5 70 12:23 03.07.2020
6230 Clouds 14 1020 87 10000 1.5 150 11:57 03.07.2020
6231 Clouds 14 1020 87 10000 1.5 150 11:39 03.07.2020
6232 Rain 14 1019 87 10000 2.1 80 11:19 03.07.2020
6233 Rain 14 1019 82 10000 1.5 310 10:54 03.07.2020
6234 Rain 14 1019 82 10000 1.5 310 10:36 03.07.2020
6235 Rain 14 1019 82 10000 3.6 280 10:18 03.07.2020
6236 Rain 14 1019 82 10000 2.1 270 09:40 03.07.2020
6237 Rain 14 1019 82 10000 2.6 260 09:22 03.07.2020
6238 Rain 13 1019 87 10000 1.5 300 08:58 03.07.2020
6239 Rain 13 1018 93 10000 2.1 270 08:38 03.07.2020
6240 Rain 13 1018 93 10000 2.1 270 08:18 03.07.2020
6241 Rain 13 1018 93 10000 2.1 270 08:18 03.07.2020
6242 Clouds 13 1018 93 10000 2.6 260 07:47 03.07.2020
6243 Rain 13 1018 93 10000 1.5 260 07:22 03.07.2020
6244 Clouds 13 1018 93 10000 0.5 0 06:38 03.07.2020
6245 Clouds 13 1017 93 10000 1 160 05:55 03.07.2020
6246 Clouds 13 1017 93 10000 1 160 05:55 03.07.2020
6247 Rain 14 1017 87 10000 1.5 140 04:28 03.07.2020
6248 Clouds 15 1017 93 10000 2.1 260 02:57 03.07.2020
6249 Clouds 15 1017 93 10000 1 180 02:32 03.07.2020
6250 Rain 16 1017 93 10000 1 0 01:51 03.07.2020
6251 Rain 16 1017 93 10000 1 160 01:22 03.07.2020
6252 Rain 15 1017 93 10000 1.5 250 00:42 03.07.2020
6253 Rain 16 1017 93 10000 1.5 270 00:18 03.07.2020
6254 Rain 16 1016 93 10000 2.1 260 23:43 02.07.2020
6255 Rain 15 1016 93 10000 0.5 0 23:20 02.07.2020
6256 Rain 16 1016 93 10000 0.5 0 22:57 02.07.2020
6257 Rain 16 1016 93 10000 1.5 350 22:38 02.07.2020
6258 Rain 16 1016 93 10000 1.5 350 22:20 02.07.2020
6259 Rain 16 1016 93 10000 2.1 160 21:54 02.07.2020
6260 Rain 16 1016 93 10000 2.1 160 21:36 02.07.2020
6261 Rain 16 1016 93 10000 2.1 160 21:36 02.07.2020
6262 Rain 16 1016 93 10000 1 0 21:18 02.07.2020
6263 Rain 16 1015 88 10000 1 0 20:41 02.07.2020
6264 Rain 16 1014 88 10000 2.1 230 20:20 02.07.2020
6265 Rain 17 1013 82 10000 3.6 80 19:56 02.07.2020
6266 Rain 18 1012 77 10000 4.6 80 19:38 02.07.2020
6267 Rain 18 1012 77 10000 4.6 80 19:19 02.07.2020
6268 Clouds 21 1011 50 10000 4.6 290 18:55 02.07.2020
6269 Clouds 22 1011 50 10000 4.6 290 18:37 02.07.2020
6270 Clouds 22 1010 44 10000 3.1 50 18:18 02.07.2020
6271 Clouds 24 1010 42 10000 4.6 80 17:39 02.07.2020
6272 Clouds 24 1010 44 10000 4.1 100 17:20 02.07.2020
6273 Clouds 25 1011 47 10000 3.6 50 16:56 02.07.2020
6274 Clouds 25 1011 47 10000 3.6 50 16:37 02.07.2020
6275 Clouds 24 1011 47 10000 3.1 70 16:19 02.07.2020
6276 Clouds 24 1012 54 10000 2.6 0 15:39 02.07.2020
6277 Clouds 24 1013 53 10000 2.6 70 15:21 02.07.2020
6278 Clouds 23 1013 57 10000 2.6 110 14:46 02.07.2020
6279 Clouds 22 1013 60 10000 2.6 80 14:28 02.07.2020
6280 Clouds 21 1014 68 10000 1 0 13:58 02.07.2020
6281 Clouds 21 1014 68 10000 1 0 13:58 02.07.2020
6282 Clouds 21 1014 68 10000 1 0 13:40 02.07.2020
6283 Clouds 21 1014 68 10000 0.5 0 13:21 02.07.2020
6284 Clouds 21 1014 68 10000 0.5 0 12:59 02.07.2020
6285 Clouds 21 1014 68 10000 0.5 0 12:39 02.07.2020
6286 Clouds 20 1015 68 10000 1 0 12:21 02.07.2020
6287 Clouds 19 1015 77 10000 1 0 11:44 02.07.2020
6288 Clouds 19 1016 77 10000 1 0 11:26 02.07.2020
6289 Clouds 18 1016 82 10000 0.5 0 10:50 02.07.2020
6290 Clouds 18 1016 82 10000 0.5 0 10:29 02.07.2020
6291 Clouds 17 1016 88 10000 1 0 09:59 02.07.2020
6292 Clouds 17 1016 88 10000 2.1 280 09:41 02.07.2020
6293 Clouds 16 1016 88 10000 1.5 250 09:21 02.07.2020
6294 Clouds 16 1016 88 10000 1 0 08:56 02.07.2020
6295 Clouds 16 1016 88 10000 1 0 08:37 02.07.2020
6296 Clouds 15 1015 93 10000 1.5 270 08:18 02.07.2020
6297 Clouds 16 1015 93 10000 1 250 07:40 02.07.2020
6298 Clouds 16 1015 93 10000 0.5 0 07:20 02.07.2020
6299 Clouds 15 1015 93 10000 1 0 06:41 02.07.2020
6300 Clouds 15 1015 93 10000 1 0 06:20 02.07.2020
6301 Clouds 15 1015 93 10000 1.5 270 05:45 02.07.2020
6302 Clouds 15 1015 93 10000 1 0 04:21 02.07.2020
6303 Clouds 15 1015 93 10000 1 0 03:32 02.07.2020
6304 Clouds 14 1016 93 10000 1 0 01:23 02.07.2020
6305 Clouds 15 1016 100 10000 1 0 00:25 02.07.2020
6306 Clouds 15 1016 93 9000 0.5 0 23:51 01.07.2020
6307 Clouds 15 1016 93 9000 0.5 0 23:30 01.07.2020
6308 Clouds 16 1015 93 10000 1.5 340 22:57 01.07.2020
6309 Clouds 16 1015 93 10000 1.5 340 22:38 01.07.2020
6310 Rain 17 1015 88 10000 1.5 150 22:19 01.07.2020
6311 Rain 17 1014 88 10000 1.5 0 21:59 01.07.2020
6312 Rain 17 1014 88 10000 1.5 0 21:40 01.07.2020
6313 Rain 17 1014 88 10000 0.5 0 21:22 01.07.2020
6314 Clouds 17 1014 88 10000 0.5 0 20:58 01.07.2020
6315 Clouds 17 1014 82 10000 1.5 20 20:40 01.07.2020
6316 Clouds 18 1014 82 10000 2.1 60 20:21 01.07.2020
6317 Clouds 19 1014 73 10000 2.1 60 19:55 01.07.2020
6318 Clouds 19 1014 73 10000 2.1 60 19:37 01.07.2020
6319 Clouds 19 1014 82 10000 3.6 50 19:18 01.07.2020
6320 Clouds 18 1014 88 10000 3.6 60 18:42 01.07.2020
6321 Clouds 19 1015 88 10000 1.5 140 18:21 01.07.2020
6322 Clouds 19 1015 88 10000 1.5 140 18:21 01.07.2020
6323 Clouds 19 1015 88 10000 1.5 140 18:21 01.07.2020
6324 Rain 18 1015 88 10000 1.5 120 17:58 01.07.2020
6325 Rain 18 1015 88 10000 1.5 120 17:38 01.07.2020
6326 Rain 17 1016 88 10000 2.6 360 17:19 01.07.2020
6327 Rain 17 1016 88 10000 2.6 360 17:19 01.07.2020
6328 Rain 18 1016 82 4000 4.1 290 16:46 01.07.2020
6329 Rain 19 1013 64 10000 7.2 80 16:27 01.07.2020
6330 Rain 19 1011 73 10000 3.1 60 15:55 01.07.2020
6331 Thunderstorm 20 1011 73 10000 3.1 60 15:37 01.07.2020
6332 Thunderstorm 24 1010 47 10000 9.8 340 15:19 01.07.2020
6333 Clouds 29 1010 45 10000 3.6 80 14:44 01.07.2020
6334 Clouds 27 1011 51 10000 4.6 110 14:21 01.07.2020
6335 Clouds 25 1011 51 10000 3.6 100 13:57 01.07.2020
6336 Clouds 25 1011 51 10000 3.6 100 13:38 01.07.2020
6337 Clouds 25 1011 54 10000 3.6 80 13:20 01.07.2020
6338 Clouds 24 1012 57 10000 2.6 150 12:57 01.07.2020
6339 Clouds 24 1012 57 10000 2.6 150 12:38 01.07.2020
6340 Clouds 24 1012 54 10000 2.1 140 12:20 01.07.2020
6341 Clouds 24 1012 54 10000 2.1 140 12:20 01.07.2020
6342 Clouds 24 1013 57 10000 1 0 11:40 01.07.2020
6343 Clouds 24 1013 57 10000 1 0 11:22 01.07.2020
6344 Clouds 22 1013 64 10000 1 0 10:58 01.07.2020
6345 Clouds 22 1013 64 10000 1 0 10:39 01.07.2020
6346 Clouds 22 1014 68 10000 1.5 0 10:21 01.07.2020
6347 Clouds 21 1014 68 10000 1.5 240 09:40 01.07.2020
6348 Clouds 19 1014 77 10000 2.1 250 09:21 01.07.2020
6349 Clouds 18 1014 77 10000 2.6 270 08:59 01.07.2020
6350 Clouds 18 1014 77 10000 2.6 270 08:40 01.07.2020
6351 Clouds 17 1014 82 10000 1 260 08:20 01.07.2020
6352 Clouds 16 1015 77 10000 1 0 07:44 01.07.2020
6353 Clouds 17 1015 82 10000 1.5 260 07:25 01.07.2020
6354 Clouds 16 1015 87 10000 1 270 06:59 01.07.2020
6355 Clouds 15 1015 87 10000 1 270 06:40 01.07.2020
6356 Clouds 13 1015 93 10000 1 250 06:20 01.07.2020
6357 Clouds 14 1014 87 10000 0.88 201 04:30 01.07.2020
6358 Clouds 14 1014 87 10000 0.5 0 03:44 01.07.2020
6359 Clouds 15 1014 82 10000 0.5 0 03:22 01.07.2020
6360 Clouds 15 1015 88 10000 0.5 0 02:19 01.07.2020
6361 Clouds 15 1015 88 10000 0.5 0 01:23 01.07.2020
6362 Clouds 16 1014 77 10000 0.54 229 00:38 01.07.2020
6363 Clouds 16 1014 82 10000 0.5 0 00:19 01.07.2020
6364 Clouds 17 1014 77 10000 0.5 0 23:40 30.06.2020
6365 Clouds 18 1014 72 10000 0.5 0 23:20 30.06.2020
6366 Clouds 20 1014 72 10000 1 310 22:42 30.06.2020
6367 Clouds 19 1013 68 10000 1 0 22:19 30.06.2020
6368 Clouds 22 1013 64 10000 1 0 21:54 30.06.2020
6369 Clouds 20 1013 64 10000 1 0 21:36 30.06.2020
6370 Clouds 21 1013 64 10000 1 0 21:18 30.06.2020
6371 Clouds 22 1012 57 10000 3.1 70 20:42 30.06.2020
6372 Clouds 23 1012 53 10000 5.1 80 20:21 30.06.2020
6373 Clouds 24 1012 50 10000 5.7 70 19:44 30.06.2020
6374 Clouds 24 1011 47 10000 5.1 80 19:21 30.06.2020
6375 Clouds 25 1011 47 10000 5.1 90 18:58 30.06.2020
6376 Clouds 25 1011 47 10000 5.1 90 18:40 30.06.2020
6377 Clouds 25 1011 47 10000 4.6 90 18:20 30.06.2020
6378 Clouds 27 1011 47 10000 4.1 40 17:39 30.06.2020
6379 Clouds 27 1011 44 10000 2.1 80 17:20 30.06.2020
6380 Clouds 27 1011 44 10000 2.6 60 16:57 30.06.2020
6381 Clouds 27 1011 44 10000 2.6 60 16:39 30.06.2020
6382 Clouds 26 1011 44 10000 1.5 0 16:19 30.06.2020
6383 Clouds 25 1012 47 10000 1.5 130 15:56 30.06.2020
6384 Clouds 25 1012 47 10000 1.5 130 15:37 30.06.2020
6385 Clouds 26 1012 47 10000 1.5 0 15:19 30.06.2020
6386 Clouds 25 1012 47 10000 1.5 110 14:43 30.06.2020
6387 Clouds 24 1013 50 10000 1.5 0 14:21 30.06.2020
6388 Clouds 23 1013 53 10000 1.5 0 13:54 30.06.2020
6389 Clouds 23 1013 53 10000 1.5 0 13:36 30.06.2020
6390 Clouds 22 1014 53 10000 2.1 0 13:18 30.06.2020
6391 Clouds 21 1014 53 10000 2.1 0 12:54 30.06.2020
6392 Clouds 22 1014 53 10000 2.1 0 12:36 30.06.2020
6393 Clouds 21 1015 60 10000 1 0 12:18 30.06.2020
6394 Clouds 20 1015 60 10000 0.5 0 11:39 30.06.2020
6395 Clouds 19 1015 60 10000 0.5 0 11:20 30.06.2020
6396 Clouds 19 1015 60 10000 0.5 0 10:59 30.06.2020
6397 Clouds 27 1014 51 10000 2.1 310 16:45 28.06.2020
6398 Clouds 26 1014 51 10000 2.1 260 16:27 28.06.2020
6399 Clouds 25 1014 51 10000 2.1 260 15:59 28.06.2020
6400 Clouds 26 1015 47 10000 1.5 260 15:39 28.06.2020
6401 Clouds 25 1015 42 10000 0.5 0 15:20 28.06.2020
6402 Clouds 26 1015 50 10000 2.6 270 14:55 28.06.2020
6403 Clouds 26 1015 50 10000 2.6 270 14:37 28.06.2020
6404 Clouds 25 1015 50 10000 1.5 290 14:19 28.06.2020
6405 Clouds 25 1016 54 10000 2.1 250 13:38 28.06.2020
6406 Clouds 24 1016 57 10000 1.5 0 13:20 28.06.2020
6407 Clouds 23 1017 60 10000 1 0 12:57 28.06.2020
6408 Clouds 23 1017 60 10000 1 0 12:38 28.06.2020
6409 Clouds 23 1017 60 10000 0.5 0 12:19 28.06.2020
6410 Clouds 22 1018 64 10000 0.5 0 11:57 28.06.2020
6411 Clouds 22 1018 64 10000 0.5 0 11:57 28.06.2020
6412 Clouds 22 1018 64 10000 0.5 0 11:39 28.06.2020
6413 Clouds 21 1018 68 10000 1 0 11:20 28.06.2020
6414 Clouds 20 1018 72 10000 2.6 260 10:56 28.06.2020
6415 Clouds 20 1018 72 10000 2.6 260 10:38 28.06.2020
6416 Clouds 20 1019 77 10000 2.6 270 10:19 28.06.2020
6417 Clouds 18 1019 82 10000 2.6 260 09:40 28.06.2020
6418 Clouds 17 1020 82 10000 1 0 09:21 28.06.2020
6419 Clouds 17 1020 88 10000 1.5 270 08:48 28.06.2020
6420 Clouds 16 1020 87 10000 1 0 08:28 28.06.2020
6421 Clouds 15 1020 87 10000 0.5 0 07:53 28.06.2020
6422 Clouds 15 1020 93 10000 1.5 290 07:30 28.06.2020
6423 Clouds 14 1020 93 10000 1.5 270 06:45 28.06.2020
6424 Clouds 13 1020 93 10000 1 0 06:26 28.06.2020
6425 Rain 13 1020 93 10000 2.1 270 05:27 28.06.2020
6426 Clouds 13 1020 100 10000 1 280 03:45 28.06.2020
6427 Clouds 14 1020 93 10000 2.6 270 02:49 28.06.2020
6428 Clouds 14 1020 93 10000 1 0 02:18 28.06.2020
6429 Clouds 14 1020 93 10000 2.1 270 01:27 28.06.2020
6430 Clouds 14 1020 93 10000 0.5 0 00:51 28.06.2020
6431 Clouds 15 1020 88 10000 1 0 00:27 28.06.2020
6432 Rain 15 1020 88 10000 1.5 0 23:43 27.06.2020
6433 Rain 15 1020 93 10000 2.1 90 23:24 27.06.2020
6434 Rain 15 1020 88 10000 2.6 40 22:59 27.06.2020
6435 Rain 15 1020 88 10000 2.6 40 22:40 27.06.2020
6436 Rain 15 1020 88 10000 2.6 40 22:40 27.06.2020
6437 Rain 16 1020 93 10000 1.5 50 22:22 27.06.2020
6438 Rain 16 1019 82 10000 4.1 260 21:56 27.06.2020
6439 Rain 16 1019 82 10000 4.1 260 21:38 27.06.2020
6440 Rain 16 1018 82 10000 4.1 0 21:19 27.06.2020
6441 Thunderstorm 18 1016 72 10000 7.7 240 20:44 27.06.2020
6442 Thunderstorm 18 1016 72 10000 10.8 230 20:19 27.06.2020
6443 Thunderstorm 20 1014 57 10000 16.5 240 19:56 27.06.2020
6444 Thunderstorm 21 1014 57 10000 16.5 240 19:37 27.06.2020
6445 Thunderstorm 24 1012 42 10000 6.2 50 19:18 27.06.2020
6446 Clouds 28 1012 39 10000 6.2 70 18:46 27.06.2020
6447 Clouds 30 1012 33 10000 6.7 80 18:28 27.06.2020
6448 Clouds 30 1012 37 10000 6.7 60 17:58 27.06.2020
6449 Clouds 30 1012 37 10000 6.7 60 17:38 27.06.2020
6450 Clouds 30 1012 35 10000 5.1 60 17:19 27.06.2020
6451 Clouds 30 1013 35 10000 4.6 60 16:46 27.06.2020
6452 Clouds 30 1013 35 10000 4.6 70 16:28 27.06.2020
6453 Clouds 29 1013 35 10000 4.6 70 15:59 27.06.2020
6454 Clouds 29 1013 33 10000 5.1 50 15:39 27.06.2020
6455 Clouds 28 1014 37 10000 5.1 60 15:21 27.06.2020
6456 Clouds 28 1014 40 10000 1.5 0 14:43 27.06.2020
6457 Clouds 27 1014 37 10000 1.5 270 14:24 27.06.2020
6458 Clouds 27 1014 37 10000 1.5 270 13:58 27.06.2020
6459 Clouds 27 1015 39 10000 1 0 13:38 27.06.2020
6460 Clouds 26 1015 39 10000 0.5 0 13:19 27.06.2020
6461 Clouds 25 1015 54 10000 1 0 12:57 27.06.2020
6462 Clouds 25 1015 54 10000 1 0 12:38 27.06.2020
6463 Clouds 25 1016 50 10000 2.1 270 12:20 27.06.2020
6464 Clouds 23 1016 53 10000 3.6 260 11:43 27.06.2020
6465 Clouds 23 1017 60 10000 4.1 260 11:24 27.06.2020
6466 Clouds 22 1017 60 10000 4.1 260 10:59 27.06.2020
6467 Clouds 21 1017 64 10000 3.1 270 10:38 27.06.2020
6468 Clouds 20 1017 68 10000 4.6 270 10:18 27.06.2020
6469 Clouds 18 1018 72 10000 4.1 290 09:41 27.06.2020
6470 Clouds 18 1018 77 10000 4.1 290 09:21 27.06.2020
6471 Clouds 17 1018 82 10000 4.6 280 08:56 27.06.2020
6472 Clouds 17 1018 82 10000 4.6 280 08:38 27.06.2020
6473 Clouds 17 1018 82 10000 3.6 280 08:19 27.06.2020
6474 Clouds 16 1018 87 10000 2.1 270 07:38 27.06.2020
6475 Clear 15 1018 93 10000 1 0 07:19 27.06.2020
6476 Fog 14 1018 100 650 0.5 0 06:38 27.06.2020
6477 Fog 12 1018 100 650 0.5 0 06:18 27.06.2020
6478 Mist 13 1018 93 5000 0.5 0 04:22 27.06.2020
6479 Mist 14 1018 93 3400 1 0 03:51 27.06.2020
6480 Clouds 15 1017 93 10000 0.5 0 02:48 27.06.2020
6481 Clouds 15 1017 93 10000 0.5 0 02:28 27.06.2020
6482 Clouds 16 1018 88 10000 1 0 01:41 27.06.2020
6483 Clouds 16 1018 88 10000 2.1 240 00:54 27.06.2020
6484 Rain 16 1017 88 10000 4.6 300 00:18 27.06.2020
6485 Rain 18 1017 68 10000 8.7 250 23:41 26.06.2020
6486 Clouds 18 1017 68 10000 6.7 240 23:21 26.06.2020
6487 Clouds 17 1017 77 10000 6.2 260 22:55 26.06.2020
6488 Clouds 17 1017 77 10000 6.2 260 22:36 26.06.2020
6489 Clouds 17 1016 82 10000 4.6 280 22:18 26.06.2020
6490 Rain 18 1016 77 10000 4.1 300 21:56 26.06.2020
6491 Clouds 18 1016 77 10000 4.1 300 21:36 26.06.2020
6492 Rain 19 1015 72 10000 3.1 270 21:18 26.06.2020
6493 Rain 19 1015 72 10000 3.1 270 21:18 26.06.2020
6494 Clouds 19 1015 72 10000 5.1 270 20:41 26.06.2020
6495 Clouds 20 1015 68 10000 2.6 260 20:19 26.06.2020
6496 Clouds 21 1015 68 10000 2.6 270 19:41 26.06.2020
6497 Clouds 22 1015 64 10000 4.1 270 19:23 26.06.2020
6498 Clouds 22 1015 60 10000 5.1 260 18:45 26.06.2020
6499 Clouds 22 1015 60 10000 4.6 270 18:26 26.06.2020
6500 Clouds 22 1016 64 10000 4.6 270 17:59 26.06.2020
6501 Clouds 22 1016 64 10000 4.6 270 17:59 26.06.2020
6502 Clouds 21 1016 64 10000 4.6 270 17:40 26.06.2020
6503 Clouds 23 1017 60 10000 3.6 260 17:22 26.06.2020
6504 Clouds 21 1017 68 10000 3.1 290 16:46 26.06.2020
6505 Rain 19 1018 82 10000 3.1 280 16:25 26.06.2020
6506 Rain 19 1019 77 10000 6.7 260 15:54 26.06.2020
6507 Rain 19 1019 77 10000 6.7 260 15:36 26.06.2020
6508 Clouds 19 1019 68 10000 6.7 260 15:18 26.06.2020
6509 Clouds 19 1019 68 10000 6.2 240 14:40 26.06.2020
6510 Clouds 20 1018 68 10000 7.7 250 14:22 26.06.2020
6511 Clouds 20 1018 77 10000 4.6 280 13:57 26.06.2020
6512 Clouds 20 1018 77 10000 4.6 280 13:38 26.06.2020
6513 Clouds 19 1018 77 10000 4.1 290 13:18 26.06.2020
6514 Clouds 18 1019 77 10000 3.1 290 12:41 26.06.2020
6515 Clouds 18 1019 77 10000 3.1 290 12:41 26.06.2020
6516 Rain 18 1019 77 10000 4.6 250 12:23 26.06.2020
6517 Rain 17 1019 87 10000 4.1 290 11:59 26.06.2020
6518 Rain 17 1019 87 10000 4.1 290 11:39 26.06.2020
6519 Rain 17 1018 68 10000 7.2 250 11:21 26.06.2020
6520 Clouds 18 1018 68 10000 5.1 290 10:58 26.06.2020
6521 Clouds 18 1018 68 10000 5.1 290 10:38 26.06.2020
6522 Rain 17 1018 77 10000 7.7 280 10:19 26.06.2020
6523 Clouds 16 1017 77 10000 3.6 270 09:44 26.06.2020
6524 Clouds 16 1017 77 10000 4.6 300 09:25 26.06.2020
6525 Clouds 15 1018 82 10000 3.1 270 08:56 26.06.2020
6526 Clouds 14 1018 82 10000 2.6 270 08:29 26.06.2020
6527 Clouds 13 1018 87 10000 2.1 260 07:53 26.06.2020
6528 Clouds 13 1018 82 10000 2.1 250 07:25 26.06.2020
6529 Clear 13 1018 87 10000 1 0 06:59 26.06.2020
6530 Clear 13 1018 87 10000 1 0 06:41 26.06.2020
6531 Clouds 11 1018 93 10000 1.5 220 06:23 26.06.2020
6532 Clouds 11 1018 93 10000 1 0 05:48 26.06.2020
6533 Clouds 12 1018 87 10000 0.5 0 03:55 26.06.2020
6534 Clear 12 1018 82 10000 1.5 260 02:22 26.06.2020
6535 Clouds 13 1019 82 10000 2.6 270 01:21 26.06.2020
6536 Clouds 14 1019 82 10000 2.6 280 00:41 26.06.2020
6537 Clouds 15 1019 72 10000 3.1 110 00:20 26.06.2020
6538 Clear 14 1019 76 10000 2.1 160 23:43 25.06.2020
6539 Clear 15 1019 72 10000 0.5 0 23:19 25.06.2020
6540 Clear 16 1019 72 10000 0.5 0 22:56 25.06.2020
6541 Clear 16 1019 72 10000 0.5 0 22:37 25.06.2020
6542 Clear 17 1019 67 10000 1.5 330 22:19 25.06.2020
6543 Clear 17 1018 67 10000 1.5 50 21:56 25.06.2020
6544 Clear 16 1018 67 10000 1.5 50 21:38 25.06.2020
6545 Rain 17 1018 67 10000 2.1 40 21:19 25.06.2020
6546 Clouds 18 1018 55 10000 2.1 90 20:45 25.06.2020
6547 Rain 18 1018 52 10000 4.1 70 20:24 25.06.2020
6548 Clouds 21 1018 52 10000 3.6 80 19:58 25.06.2020
6549 Clouds 21 1018 49 10000 4.1 110 19:40 25.06.2020
6550 Clouds 21 1018 52 10000 3.6 80 19:39 25.06.2020
6551 Clouds 20 1018 49 10000 4.1 110 19:19 25.06.2020
6552 Clouds 19 1018 52 10000 3.6 90 18:56 25.06.2020
6553 Clouds 20 1018 52 10000 3.6 90 18:37 25.06.2020
6554 Rain 20 1017 49 10000 4.6 100 18:19 25.06.2020
6555 Clouds 20 1017 46 10000 4.6 90 17:41 25.06.2020
6556 Clouds 21 1017 46 10000 5.7 90 17:19 25.06.2020
6557 Clouds 21 1018 49 10000 5.1 80 16:55 25.06.2020
6558 Clouds 21 1018 49 10000 5.1 80 16:36 25.06.2020
6559 Clouds 20 1017 49 10000 5.7 70 16:18 25.06.2020
6560 Clouds 21 1018 53 10000 6.2 80 15:41 25.06.2020
6561 Clouds 21 1018 49 10000 5.7 80 15:19 25.06.2020
6562 Clouds 20 1018 52 10000 5.1 90 14:43 25.06.2020
6563 Clouds 20 1018 52 10000 5.7 90 14:23 25.06.2020
6564 Clouds 20 1018 56 10000 3.6 80 13:56 25.06.2020
6565 Clouds 20 1018 56 10000 3.6 80 13:38 25.06.2020
6566 Clouds 20 1018 56 10000 5.7 80 13:19 25.06.2020
6567 Clouds 19 1018 56 10000 5.7 70 12:45 25.06.2020
6568 Clouds 20 1018 56 10000 4.6 80 12:21 25.06.2020
6569 Clouds 19 1018 59 10000 3.1 70 11:58 25.06.2020
6570 Clouds 18 1018 59 10000 3.1 70 11:38 25.06.2020
6571 Clouds 18 1018 59 10000 3.6 80 11:20 25.06.2020
6572 Clouds 17 1019 63 10000 3.1 60 10:42 25.06.2020
6573 Clouds 17 1019 67 10000 2.6 60 10:23 25.06.2020
6574 Clouds 15 1020 67 10000 0.5 0 09:41 25.06.2020
6575 Clouds 15 1020 72 10000 0.5 0 09:23 25.06.2020
6576 Clouds 14 1020 77 10000 1.5 230 08:56 25.06.2020
6577 Clouds 14 1020 77 10000 1.5 230 08:38 25.06.2020
6578 Clouds 14 1020 77 10000 1 0 08:18 25.06.2020
6579 Clouds 13 1020 82 10000 0.5 0 07:41 25.06.2020
6580 Clouds 13 1020 87 10000 0.5 0 07:21 25.06.2020
6581 Clouds 13 1020 82 10000 1 0 06:31 25.06.2020
6582 Clouds 12 1020 82 10000 1.5 270 05:55 25.06.2020
6583 Clouds 13 1020 76 10000 0.5 0 05:29 25.06.2020
6584 Clouds 13 1020 76 10000 1.5 300 03:36 25.06.2020
6585 Clouds 14 1021 72 10000 0.5 0 02:45 25.06.2020
6586 Clear 14 1021 72 10000 0.5 0 02:19 25.06.2020
6587 Clear 14 1021 67 10000 1 0 01:35 25.06.2020
6588 Clear 15 1021 63 10000 1 0 00:50 25.06.2020
6589 Clear 16 1021 67 10000 1 0 00:22 25.06.2020
6590 Clear 17 1021 63 10000 1 0 23:58 24.06.2020
6591 Clear 17 1021 63 10000 1 0 23:37 24.06.2020
6592 Clear 17 1021 63 10000 1.5 280 23:19 24.06.2020
6593 Clear 18 1021 63 10000 1.5 300 22:42 24.06.2020
6594 Clear 19 1020 55 10000 1.5 10 22:21 24.06.2020
6595 Clear 20 1020 52 10000 1 0 21:57 24.06.2020
6596 Clear 20 1020 52 10000 1 0 21:37 24.06.2020
6597 Clear 19 1019 49 10000 3.1 70 21:19 24.06.2020
6598 Clear 20 1019 49 10000 3.1 70 20:58 24.06.2020
6599 Clear 22 1019 43 10000 5.1 80 20:39 24.06.2020
6600 Clear 22 1019 43 10000 4.6 80 20:21 24.06.2020
6601 Clouds 24 1019 41 10000 6.7 50 19:57 24.06.2020
6602 Clouds 24 1019 41 10000 6.7 50 19:38 24.06.2020
6603 Clouds 23 1019 41 10000 7.2 60 19:20 24.06.2020
6604 Clouds 24 1018 38 10000 8.2 60 18:58 24.06.2020
6605 Clouds 25 1018 38 10000 8.2 60 18:39 24.06.2020
6606 Clouds 24 1018 38 10000 8.2 70 18:20 24.06.2020
6607 Clouds 26 1018 39 10000 8.2 70 17:55 24.06.2020
6608 Clouds 25 1018 39 10000 8.2 70 17:37 24.06.2020
6609 Clouds 25 1018 39 10000 6.7 80 17:18 24.06.2020
6610 Clouds 25 1018 36 10000 6.2 70 16:55 24.06.2020
6611 Clouds 25 1018 36 10000 6.2 70 16:37 24.06.2020
6612 Clouds 25 1018 34 10000 5.7 90 16:19 24.06.2020
6613 Clouds 25 1018 34 10000 4.6 80 15:54 24.06.2020
6614 Clouds 25 1018 34 10000 4.6 80 15:36 24.06.2020
6615 Clouds 25 1018 36 10000 4.1 90 15:18 24.06.2020
6616 Clouds 25 1019 39 10000 3.6 70 14:40 24.06.2020
6617 Clouds 24 1019 38 10000 2.1 0 14:22 24.06.2020
6618 Clouds 23 1019 44 10000 2.1 0 13:42 24.06.2020
6619 Clouds 23 1020 50 10000 3.1 130 13:21 24.06.2020
6620 Clouds 22 1020 49 10000 3.1 120 12:45 24.06.2020
6621 Clouds 22 1021 53 10000 2.6 150 12:22 24.06.2020
6622 Clouds 21 1021 56 10000 2.6 70 11:58 24.06.2020
6623 Clouds 21 1021 56 10000 2.6 70 11:40 24.06.2020
6624 Clouds 20 1021 53 10000 2.1 70 11:22 24.06.2020
6625 Clouds 20 1022 56 10000 1.5 0 10:48 24.06.2020
6626 Clouds 19 1022 60 10000 1 0 10:20 24.06.2020
6627 Clouds 18 1022 63 10000 0.5 0 09:57 24.06.2020
6628 Clouds 16 1022 72 10000 1 0 09:39 24.06.2020
6629 Clouds 16 1022 72 10000 1 0 09:20 24.06.2020
6630 Clouds 14 1023 77 10000 1 0 08:40 24.06.2020
6631 Clouds 14 1023 77 10000 1 0 08:19 24.06.2020
6632 Clouds 13 1023 87 10000 1.5 260 07:50 24.06.2020
6633 Clouds 12 1023 93 10000 1.5 270 07:26 24.06.2020
6634 Clouds 13 1023 87 10000 1.5 250 06:46 24.06.2020
6635 Clouds 11 1023 87 10000 0.5 0 06:24 24.06.2020
6636 Clouds 11 1023 87 10000 1 0 05:46 24.06.2020
6637 Clouds 12 1023 87 10000 0.5 0 04:40 24.06.2020
6638 Clouds 12 1024 87 10000 1 0 03:40 24.06.2020
6639 Clouds 13 1023 82 10000 0.28 111 03:18 24.06.2020
6640 Clouds 13 1024 82 10000 0.28 111 02:36 24.06.2020
6641 Clouds 15 1024 72 10000 0.5 0 00:53 24.06.2020
6642 Clouds 15 1024 72 10000 0.5 0 00:53 24.06.2020
6643 Clouds 16 1024 68 10000 0.5 0 00:34 24.06.2020
6644 Clouds 18 1024 72 10000 0.5 0 23:49 23.06.2020
6645 Clouds 18 1024 68 10000 1.5 220 23:24 23.06.2020
6646 Clouds 20 1023 60 10000 1 0 22:59 23.06.2020
6647 Clouds 20 1023 60 10000 1 0 22:41 23.06.2020
6648 Clouds 20 1023 64 10000 1.5 260 22:19 23.06.2020
6649 Clouds 21 1023 56 10000 1 0 21:57 23.06.2020
6650 Clouds 21 1023 56 10000 1 0 21:38 23.06.2020
6651 Clouds 20 1022 53 10000 4.1 80 21:18 23.06.2020
6652 Clouds 21 1022 49 10000 4.1 60 20:55 23.06.2020
6653 Clouds 21 1021 53 10000 4.1 70 20:36 23.06.2020
6654 Clouds 21 1022 49 10000 4.1 60 20:36 23.06.2020
6655 Clouds 22 1021 53 10000 4.1 70 20:18 23.06.2020
6656 Clouds 23 1021 47 10000 7.2 70 19:42 23.06.2020
6657 Clouds 23 1021 44 10000 5.7 70 19:23 23.06.2020
6658 Clouds 24 1021 44 10000 5.7 60 18:39 23.06.2020
6659 Clouds 24 1021 44 10000 5.7 60 18:19 23.06.2020
6660 Clouds 26 1021 44 10000 5.1 80 17:44 23.06.2020
6661 Clouds 24 1021 44 10000 4.1 50 17:25 23.06.2020
6662 Clouds 25 1021 44 10000 2.6 40 16:57 23.06.2020
6663 Clouds 25 1021 44 10000 2.6 40 16:39 23.06.2020
6664 Clouds 25 1021 34 10000 1 0 16:20 23.06.2020
6665 Clouds 24 1021 39 10000 3.1 40 15:59 23.06.2020
6666 Clouds 25 1021 39 10000 3.1 40 15:41 23.06.2020
6667 Clouds 25 1021 36 10000 3.1 70 15:22 23.06.2020
6668 Clouds 24 1022 41 10000 2.6 0 14:43 23.06.2020
6669 Clouds 24 1022 41 10000 2.1 350 14:20 23.06.2020
6670 Clouds 24 1022 41 10000 2.1 350 14:20 23.06.2020
6671 Clouds 23 1022 41 10000 3.1 70 13:58 23.06.2020
6672 Clouds 23 1022 41 10000 3.1 70 13:40 23.06.2020
6673 Clouds 23 1023 44 10000 2.6 60 13:22 23.06.2020
6674 Clouds 22 1023 41 10000 2.1 70 12:45 23.06.2020
6675 Clouds 22 1023 53 10000 1 0 12:23 23.06.2020
6676 Clouds 21 1024 56 10000 1 0 11:59 23.06.2020
6677 Clouds 21 1024 56 10000 1 0 11:40 23.06.2020
6678 Clouds 21 1024 60 10000 1 0 11:19 23.06.2020
6679 Clouds 19 1024 64 10000 1 0 10:58 23.06.2020
6680 Clouds 19 1024 64 10000 1 0 10:39 23.06.2020
6681 Clouds 19 1025 68 10000 1 0 10:21 23.06.2020
6682 Clouds 19 1025 68 10000 1 0 10:21 23.06.2020
6683 Clouds 18 1025 68 10000 2.1 270 09:43 23.06.2020
6684 Clouds 16 1025 72 10000 1.5 0 09:21 23.06.2020
6685 Clouds 15 1025 82 10000 1.5 280 08:59 23.06.2020
6686 Clouds 15 1025 82 10000 1.5 280 08:41 23.06.2020
6687 Clouds 14 1025 82 10000 1.5 260 08:22 23.06.2020
6688 Clouds 13 1025 93 10000 1 270 07:43 23.06.2020
6689 Clouds 13 1025 93 10000 1 270 07:22 23.06.2020
6690 Clear 13 1025 93 10000 1 270 06:50 23.06.2020
6691 Clear 12 1025 100 10000 0.5 0 06:31 23.06.2020
6692 Clear 12 1025 93 10000 0.5 0 05:46 23.06.2020
6693 Clouds 13 1025 93 10000 0.5 0 04:39 23.06.2020
6694 Clouds 13 1025 93 10000 1.5 260 03:18 23.06.2020
6695 Clouds 13 1025 93 10000 1.5 320 02:42 23.06.2020
6696 Clouds 14 1025 87 10000 0.5 0 02:24 23.06.2020
6697 Clouds 14 1025 87 10000 1 0 01:43 23.06.2020
6698 Clouds 14 1025 87 10000 1 0 01:20 23.06.2020
6699 Clouds 14 1025 87 10000 0.5 0 00:24 23.06.2020
6700 Clouds 14 1025 87 10000 1 0 23:58 22.06.2020
6701 Clouds 14 1025 87 10000 1 0 23:39 22.06.2020
6702 Clouds 15 1025 82 10000 1 0 23:19 22.06.2020
6703 Clouds 15 1025 82 10000 1 0 22:57 22.06.2020
6704 Clouds 15 1025 82 10000 1 0 22:39 22.06.2020
6705 Clouds 15 1025 82 10000 1.5 50 22:20 22.06.2020
6706 Clouds 16 1024 82 10000 0.5 0 21:58 22.06.2020
6707 Clouds 17 1024 82 10000 0.5 0 21:39 22.06.2020
6708 Clouds 16 1024 77 10000 0.5 0 21:21 22.06.2020
6709 Clouds 17 1024 72 10000 1 0 20:44 22.06.2020
6710 Clouds 18 1024 68 10000 1.5 20 20:26 22.06.2020
6711 Clouds 18 1024 64 10000 1 0 19:59 22.06.2020
6712 Clouds 18 1024 64 10000 1 0 19:41 22.06.2020
6713 Clouds 18 1025 68 10000 1 0 19:19 22.06.2020
6714 Clouds 18 1025 68 10000 1 0 18:42 22.06.2020
6715 Clouds 18 1025 68 10000 1 0 18:24 22.06.2020
6716 Clouds 18 1025 68 10000 1 0 17:57 22.06.2020
6717 Rain 18 1025 68 10000 2.1 290 17:39 22.06.2020
6718 Rain 18 1025 68 10000 2.1 290 17:21 22.06.2020
6719 Rain 18 1025 72 10000 2.6 310 16:59 22.06.2020
6720 Clouds 18 1025 60 10000 1 0 16:41 22.06.2020
6721 Clouds 18 1025 60 10000 1 0 16:18 22.06.2020
6722 Clouds 18 1025 64 10000 1.5 130 15:54 22.06.2020
6723 Clouds 18 1025 68 10000 1 0 15:36 22.06.2020
6724 Clouds 18 1025 68 10000 1 0 15:18 22.06.2020
6725 Clouds 16 1026 77 10000 1 0 14:39 22.06.2020
6726 Clouds 16 1026 77 10000 1 0 14:20 22.06.2020
6727 Rain 15 1026 82 10000 1.5 80 13:54 22.06.2020
6728 Rain 16 1026 82 10000 1 0 13:36 22.06.2020
6729 Rain 16 1026 82 10000 1 0 13